# Wetter Temperatur Luftdruck Luftfeuchtigkeit Sichtweite Windgeschwindigkeit Windrichtung Zeit
1 Clear 27 1008 37 10000 5.1 20 21:54 28.01.2020
2 Clear 27 1008 37 10000 5.1 20 21:36 28.01.2020
3 Clear 28 1008 37 10000 5.1 20 21:18 28.01.2020
4 Clear 28 1009 27 10000 3.6 360 20:45 28.01.2020
5 Clear 29 1009 27 10000 3.6 360 20:25 28.01.2020
6 Clear 28 1011 37 10000 4.1 340 19:55 28.01.2020
7 Clear 28 1011 37 10000 4.1 340 19:36 28.01.2020
8 Clear 28 1011 37 10000 4.1 340 19:18 28.01.2020
9 Clear 28 1011 37 10000 4.1 340 18:41 28.01.2020
10 Clear 28 1011 37 10000 4.1 340 18:22 28.01.2020
11 Clear 28 1012 29 10000 3.1 320 17:59 28.01.2020
12 Clear 27 1012 29 10000 3.1 320 17:39 28.01.2020
13 Clear 26 1012 29 10000 3.1 320 17:21 28.01.2020
14 Clear 25 1013 29 10000 4.1 10 16:56 28.01.2020
15 Clear 25 1013 29 10000 4.1 10 16:37 28.01.2020
16 Clear 25 1013 29 10000 4.1 10 16:19 28.01.2020
17 Clear 24 1014 38 10000 5.7 20 15:44 28.01.2020
18 Clear 23 1014 38 10000 5.7 20 15:19 28.01.2020
19 Clear 22 1014 52 10000 5.1 360 14:57 28.01.2020
20 Clear 22 1014 52 10000 5.1 360 14:38 28.01.2020
21 Clear 22 1014 52 10000 5.1 360 14:38 28.01.2020
22 Clear 21 1014 52 10000 5.1 360 14:18 28.01.2020
23 Clear 19 1015 63 10000 5.1 20 13:40 28.01.2020
24 Clear 19 1015 63 10000 5.1 20 13:22 28.01.2020
25 Clear 18 1015 72 10000 3.6 40 12:43 28.01.2020
26 Clear 18 1015 72 10000 3.6 40 12:24 28.01.2020
27 Clear 15 1015 87 10000 3.1 50 11:56 28.01.2020
28 Clear 15 1015 87 10000 3.1 50 11:37 28.01.2020
29 Clear 14 1015 87 10000 3.1 50 11:19 28.01.2020
30 Fog 11 1015 87 10000 5.72 30 10:41 28.01.2020
31 Fog 11 1015 87 10000 5.72 30 10:22 28.01.2020
32 Clear 12 1015 76 10000 5.72 30 09:56 28.01.2020
33 Clear 12 1015 76 10000 5.72 30 09:37 28.01.2020
34 Clear 12 1015 76 10000 5.72 30 09:19 28.01.2020
35 Clear 12 1015 81 10000 1.5 60 08:42 28.01.2020
36 Clear 12 1015 81 10000 1.5 60 08:21 28.01.2020
37 Clear 13 1015 76 10000 2.1 50 07:39 28.01.2020
38 Clear 13 1016 76 10000 4.1 40 06:58 28.01.2020
39 Clear 13 1016 76 10000 4.1 40 06:40 28.01.2020
40 -273 0 0 0 0 0 06:22 28.01.2020
41 Clear 14 1016 71 10000 3.6 70 05:34 28.01.2020
42 Clouds 14 1017 67 10000 3.1 80 04:40 28.01.2020
43 Clouds 16 1017 59 10000 2.6 110 03:41 28.01.2020
44 Clouds 16 1017 59 10000 4.6 110 02:40 28.01.2020
45 Clouds 16 1017 59 10000 4.6 110 02:21 28.01.2020
46 Clouds 17 1017 59 10000 4.1 130 01:48 28.01.2020
47 Clouds 18 1017 55 10000 5.1 140 00:51 28.01.2020
48 Clouds 18 1017 55 10000 5.1 140 00:30 28.01.2020
49 Clouds 19 1016 55 10000 6.2 140 23:59 27.01.2020
50 Clouds 19 1016 55 10000 6.2 140 23:41 27.01.2020
51 Clouds 19 1016 55 10000 6.2 140 23:18 27.01.2020
52 Clouds 20 1016 49 10000 5.1 150 22:44 27.01.2020
53 Clouds 21 1016 49 10000 5.1 150 22:20 27.01.2020
54 Clouds 21 1016 46 10000 7.2 140 21:57 27.01.2020
55 Clouds 21 1016 46 10000 7.2 140 21:38 27.01.2020
56 Clouds 21 1016 46 10000 7.2 140 21:18 27.01.2020
57 Clouds 21 1017 49 10000 7.2 150 20:55 27.01.2020
58 Clouds 21 1017 49 10000 7.2 150 20:37 27.01.2020
59 Clouds 22 1017 49 10000 7.2 150 20:18 27.01.2020
60 Clouds 21 1017 49 10000 8.2 160 19:41 27.01.2020
61 Clouds 21 1017 49 10000 8.2 160 19:23 27.01.2020
62 Clouds 22 1017 46 10000 6.2 130 18:57 27.01.2020
63 Clouds 22 1017 46 10000 6.2 130 18:39 27.01.2020
64 Clouds 22 1017 46 10000 6.2 130 18:39 27.01.2020
65 Clouds 22 1017 46 10000 6.2 130 18:20 27.01.2020
66 Clouds 22 1017 46 10000 8.2 160 17:55 27.01.2020
67 Clear 22 1023 44 0 1.79 150 17:37 27.01.2020
68 Clear 22 1023 44 0 1.79 150 17:37 27.01.2020
69 Clouds 21 1017 46 10000 8.2 160 17:18 27.01.2020
70 Clouds 21 1017 46 10000 8.2 160 16:42 27.01.2020
71 Clouds 21 1017 46 10000 8.2 160 16:42 27.01.2020
72 Clouds 21 1017 46 10000 8.2 160 16:23 27.01.2020
73 Clear 22 1017 40 10000 6.7 170 15:55 27.01.2020
74 Clear 22 1017 40 10000 6.7 170 15:37 27.01.2020
75 Clear 22 1017 40 10000 6.7 170 15:19 27.01.2020
76 Clear 21 1011 52 10000 2.6 130 14:54 27.01.2020
77 Clear 21 1011 52 10000 2.6 130 14:36 27.01.2020
78 Clouds 21 1011 52 10000 2.6 130 14:18 27.01.2020
79 Clouds 21 1015 52 10000 7.7 140 13:41 27.01.2020
80 Clouds 21 1015 52 10000 7.7 140 13:20 27.01.2020
81 Clouds 21 1014 56 0 3.6 150 12:56 27.01.2020
82 Clouds 21 1014 56 0 3.6 150 12:37 27.01.2020
83 Clouds 20 1014 56 0 3.6 150 12:19 27.01.2020
84 Clouds 19 1014 68 10000 7.2 150 11:41 27.01.2020
85 Clouds 19 1014 68 10000 7.2 150 11:21 27.01.2020
86 Clouds 19 1013 63 10000 7.2 160 10:43 27.01.2020
87 Clouds 19 1013 63 10000 7.2 160 10:25 27.01.2020
88 Clouds 20 1012 68 10000 7.7 170 09:57 27.01.2020
89 Clouds 20 1012 68 10000 7.7 170 09:38 27.01.2020
90 Clouds 20 1012 68 10000 7.7 170 09:18 27.01.2020
91 Clouds 21 1011 68 10000 8.2 150 08:43 27.01.2020
92 Clouds 22 1011 68 10000 8.2 150 08:22 27.01.2020
93 Clouds 22 1011 73 10000 5.7 170 07:54 27.01.2020
94 Clouds 22 1011 73 10000 5.7 170 07:35 27.01.2020
95 Clouds 22 1010 83 10000 2.6 190 06:55 27.01.2020
96 Clouds 22 1010 83 10000 2.6 190 06:27 27.01.2020
97 Clouds 20 1010 88 10000 2.6 260 05:28 27.01.2020
98 Smoke 20 1009 82 5000 4.1 94 03:58 27.01.2020
99 Clouds 19 1009 88 10000 4.1 94 03:23 27.01.2020
100 Clear 21 1008 73 10000 2.1 150 01:31 27.01.2020
101 Clouds 22 1008 78 10000 3.1 150 00:59 27.01.2020
102 Clouds 22 1008 78 10000 3.1 150 00:37 27.01.2020
103 Clouds 23 1008 78 10000 3.1 150 00:19 27.01.2020
104 Clouds 23 1007 64 10000 3.6 170 23:41 26.01.2020
105 Clouds 24 1007 64 10000 3.6 170 23:20 26.01.2020
106 Clouds 24 1007 65 10000 6.2 160 22:57 26.01.2020
107 Clouds 25 1007 65 10000 6.2 160 22:37 26.01.2020
108 Clouds 25 1007 65 10000 6.2 160 22:18 26.01.2020
109 Clouds 26 1007 61 10000 6.2 170 21:56 26.01.2020
110 Clouds 26 1007 61 10000 6.2 170 21:38 26.01.2020
111 Clouds 26 1007 61 10000 6.2 170 21:19 26.01.2020
112 Clouds 26 1007 54 10000 3.6 180 20:55 26.01.2020
113 Clouds 26 1007 54 10000 3.6 180 20:37 26.01.2020
114 Clouds 27 1007 54 10000 3.6 180 20:18 26.01.2020
115 Clouds 25 1007 50 10000 5.1 150 19:56 26.01.2020
116 Clouds 25 1007 50 10000 5.1 150 19:37 26.01.2020
117 Clouds 27 1007 50 10000 5.1 150 19:18 26.01.2020
118 Clouds 27 1007 48 10000 6.7 180 18:41 26.01.2020
119 Clouds 27 1007 48 10000 6.7 180 18:22 26.01.2020
120 Clear 27 1007 54 10000 6.25 163 17:59 26.01.2020
121 Clear 27 1007 54 10000 6.25 163 17:39 26.01.2020
122 Clear 28 1007 54 10000 4.78 137 17:20 26.01.2020
123 Clear 27 1007 54 10000 4.78 137 16:58 26.01.2020
124 Clear 27 1007 54 10000 4.78 137 16:40 26.01.2020
125 Clouds 27 1007 39 10000 4.6 130 16:21 26.01.2020
126 Clear 27 1008 48 0 1.79 0 15:58 26.01.2020
127 Clear 26 1006 70 0 4.47 103 15:39 26.01.2020
128 Clear 28 1006 71 0 4.47 73 15:19 26.01.2020
129 Clear 29 1008 55 0 1.79 350 14:41 26.01.2020
130 Clouds 25 1006 75 0 4.47 83 14:21 26.01.2020
131 Clouds 27 1008 55 0 0.89 103 13:57 26.01.2020
132 Clouds 26 1006 71 0 4.02 84 13:37 26.01.2020
133 Clouds 24 1006 73 0 3.13 96 13:18 26.01.2020
134 Clouds 25 1007 72 0 3.13 86 12:42 26.01.2020
135 Clouds 25 1008 55 0 0.89 34 12:24 26.01.2020
136 Clouds 25 1008 55 0 0.89 34 12:24 26.01.2020
137 Clouds 24 1013 51 0 1.34 84 11:58 26.01.2020
138 Clouds 23 1008 57 0 1.34 58 11:39 26.01.2020
139 Clouds 23 1008 57 0 1.34 58 11:39 26.01.2020
140 Clouds 21 1007 60 10000 2.1 120 11:19 26.01.2020
141 Clouds 21 1007 60 10000 2.1 120 10:58 26.01.2020
142 Clouds 20 1007 60 10000 2.1 120 10:38 26.01.2020
143 Clouds 20 1007 60 10000 2.1 120 10:38 26.01.2020
144 Clouds 20 1007 60 10000 2.1 120 10:20 26.01.2020
145 Clouds 20 1007 56 10000 3.43 50 09:58 26.01.2020
146 Clouds 20 1007 56 10000 3.43 50 09:40 26.01.2020
147 Clouds 20 1007 56 10000 3.43 50 09:21 26.01.2020
148 Clouds 20 1006 56 10000 1.5 30 08:43 26.01.2020
149 Clouds 21 1006 56 10000 1.5 30 08:23 26.01.2020
150 Clear 21 1006 56 10000 2.6 30 07:57 26.01.2020
151 Clear 21 1006 56 10000 2.6 30 07:39 26.01.2020
152 Clear 21 1006 56 10000 2.6 30 07:21 26.01.2020
153 Clear 21 1007 52 10000 2.1 20 06:31 26.01.2020
154 Clear 22 1007 46 10000 2.6 40 05:32 26.01.2020
155 Clear 22 1007 46 10000 2.6 40 05:32 26.01.2020
156 Clear 22 1007 46 10000 3.6 50 04:45 26.01.2020
157 Clear 22 1007 53 10000 4.1 90 02:58 26.01.2020
158 Clear 22 1007 60 10000 4.1 100 01:50 26.01.2020
159 Clear 22 1007 60 10000 4.1 100 01:25 26.01.2020
160 Clear 23 1007 64 10000 4.6 120 00:58 26.01.2020
161 Clear 23 1007 64 10000 4.6 120 00:37 26.01.2020
162 Clear 23 1007 64 10000 4.6 120 00:19 26.01.2020
163 Clear 24 1013 50 0 0.89 92 23:37 25.01.2020
164 Clear 25 1006 71 0 4.47 89 23:18 25.01.2020
165 Clear 26 1006 73 0 4.02 98 22:40 25.01.2020
166 Clear 27 1012 35 0 0.89 152 22:19 25.01.2020
167 Clear 27 1005 76 0 4.47 86 21:57 25.01.2020
168 Clear 27 1005 76 0 4.47 86 21:57 25.01.2020
169 Clear 28 1005 74 0 4.02 116 21:38 25.01.2020
170 Clear 26 1005 78 0 3.58 116 21:20 25.01.2020
171 Clear 23 1005 72 0 7.93 79 20:44 25.01.2020
172 Clear 28 1006 73 0 4.47 154 20:25 25.01.2020
173 Clouds 28 1006 77 0 5.81 159 19:56 25.01.2020
174 Clouds 28 1012 55 0 2.24 179 19:37 25.01.2020
175 Clouds 28 1013 61 0 2.68 191 19:18 25.01.2020
176 Clouds 28 1006 84 0 5.36 169 18:43 25.01.2020
177 Clouds 28 1013 61 0 2.68 191 18:23 25.01.2020
178 Clouds 28 1006 88 0 3.58 176 17:59 25.01.2020
179 Clouds 28 1006 88 0 3.58 176 17:39 25.01.2020
180 Clouds 27 1006 84 0 3.58 176 17:19 25.01.2020
181 Rain 29 1006 78 0 1.79 207 16:56 25.01.2020
182 Clouds 29 1006 74 0 3.13 209 16:36 25.01.2020
183 Clouds 29 1006 74 0 2.24 234 16:18 25.01.2020
184 Clouds 30 1005 73 0 3.58 275 15:42 25.01.2020
185 Clouds 29 1008 61 0 2.68 240 15:23 25.01.2020
186 Clouds 29 1006 74 0 3.58 232 14:44 25.01.2020
187 Clouds 27 1007 65 0 2.68 247 14:19 25.01.2020
188 Clouds 27 1005 76 0 2.68 267 13:56 25.01.2020
189 Clouds 27 1007 70 0 2.24 280 13:38 25.01.2020
190 Clouds 27 1011 75 0 2.24 315 13:18 25.01.2020
191 Clouds 26 1005 77 0 1.79 280 12:41 25.01.2020
192 Clouds 25 1006 73 10000 2.6 340 12:20 25.01.2020
193 Clouds 24 1006 73 10000 2.6 340 11:40 25.01.2020
194 Clouds 23 1006 73 10000 2.6 340 11:21 25.01.2020
195 Clouds 22 1006 77 10000 2.1 350 10:56 25.01.2020
196 Clouds 21 1006 77 10000 2.1 350 10:38 25.01.2020
197 Clouds 21 1006 77 10000 2.1 350 10:38 25.01.2020
198 Clouds 21 1006 77 10000 2.1 350 10:38 25.01.2020
199 Clouds 21 1006 77 10000 2.1 350 10:19 25.01.2020
200 Clouds 21 1006 73 10000 2.6 340 09:40 25.01.2020
201 Clouds 20 1006 73 10000 2.6 340 09:20 25.01.2020
202 Clouds 21 1006 68 10000 2.6 350 08:43 25.01.2020
203 Clear 21 1006 68 10000 2.6 350 08:20 25.01.2020
204 Clear 21 1006 68 10000 1.5 240 07:40 25.01.2020
205 Clear 23 1006 68 10000 3.6 360 06:44 25.01.2020
206 Clear 22 1006 68 10000 3.6 360 06:24 25.01.2020
207 Clear 22 1007 73 10000 2.6 10 05:44 25.01.2020
208 Clear 21 1008 73 10000 2.1 260 04:25 25.01.2020
209 Clear 23 1007 60 10000 3.1 30 03:50 25.01.2020
210 Clear 23 1008 64 10000 1.5 30 02:40 25.01.2020
211 Clear 24 1008 64 10000 2.6 90 01:58 25.01.2020
212 Clear 24 1008 64 10000 2.6 90 01:34 25.01.2020
213 Clear 25 1008 65 10000 3.1 130 00:41 25.01.2020
214 Clear 26 1008 65 10000 3.1 130 00:23 25.01.2020
215 Clear 27 1008 51 10000 3.1 270 23:42 24.01.2020
216 Clear 27 1008 51 10000 3.1 270 23:42 24.01.2020
217 Clear 27 1008 51 10000 3.1 270 23:24 24.01.2020
218 Clear 28 1008 48 10000 3.1 270 22:56 24.01.2020
219 Clear 29 1008 48 10000 3.1 270 22:37 24.01.2020
220 Clear 29 1008 48 10000 3.1 270 22:19 24.01.2020
221 Clear 29 1009 43 10000 4.1 250 21:41 24.01.2020
222 Clear 29 1009 43 10000 4.1 250 21:20 24.01.2020
223 Clear 29 1009 43 10000 3.1 260 20:55 24.01.2020
224 Clear 30 1009 43 10000 3.1 260 20:37 24.01.2020
225 Clear 30 1009 43 10000 3.1 260 20:18 24.01.2020
226 Clear 30 1010 38 10000 5.1 270 19:55 24.01.2020
227 Clear 31 1010 38 10000 5.1 270 19:37 24.01.2020
228 Clear 31 1010 38 10000 5.1 270 19:19 24.01.2020
229 Clear 30 1010 33 10000 3.6 20 18:42 24.01.2020
230 Clear 31 1010 33 10000 3.6 20 18:22 24.01.2020
231 Clear 30 1011 43 10000 5.1 300 17:45 24.01.2020
232 Clear 30 1011 43 10000 5.1 300 17:22 24.01.2020
233 Clear 29 1012 45 10000 5.1 350 16:57 24.01.2020
234 Clear 29 1012 45 10000 5.1 350 16:38 24.01.2020
235 Clear 29 1012 45 10000 5.1 350 16:19 24.01.2020
236 Clear 28 1013 54 10000 6.2 340 15:42 24.01.2020
237 Clear 28 1013 54 10000 6.2 340 15:21 24.01.2020
238 Clear 27 1013 61 10000 6.7 360 14:55 24.01.2020
239 Clear 26 1013 61 10000 6.7 360 14:36 24.01.2020
240 Clouds 26 1013 61 10000 6.7 360 14:18 24.01.2020
241 Clouds 24 1013 69 10000 6.2 360 13:41 24.01.2020
242 Clouds 24 1013 69 10000 6.2 360 13:21 24.01.2020
243 Clouds 22 1013 88 10000 6.7 10 12:43 24.01.2020
244 Clouds 21 1013 88 10000 6.7 10 12:21 24.01.2020
245 Clouds 20 1013 88 10000 6.2 20 11:45 24.01.2020
246 Clear 19 1013 88 10000 6.2 20 11:19 24.01.2020
247 Clear 19 1013 88 10000 6.2 20 11:19 24.01.2020
248 Clear 19 1013 88 10000 6.2 20 11:19 24.01.2020
249 Clear 20 1014 88 10000 3.6 10 10:58 24.01.2020
250 Clear 19 1014 88 10000 3.6 10 10:40 24.01.2020
251 Clear 19 1014 88 10000 3.6 10 10:19 24.01.2020
252 Clear 19 1014 88 10000 4.1 30 09:41 24.01.2020
253 Clear 19 1014 88 10000 4.1 30 09:23 24.01.2020
254 Clear 20 1014 82 10000 4.6 30 08:41 24.01.2020
255 Clear 20 1014 82 10000 4.6 30 08:21 24.01.2020
256 Clear 20 1014 77 10000 4.1 30 07:59 24.01.2020
257 Clear 20 1014 77 10000 4.1 30 07:39 24.01.2020
258 Clear 21 1014 77 10000 5.1 30 06:55 24.01.2020
259 Clear 21 1014 77 10000 5.1 30 06:35 24.01.2020
260 Clear 21 1014 77 10000 4.6 30 05:59 24.01.2020
261 Clear 21 1014 77 10000 4.6 30 05:18 24.01.2020
262 Clear 23 1014 60 10000 4.1 60 02:56 24.01.2020
263 Clear 23 1014 60 10000 4.1 60 02:38 24.01.2020
264 Clear 24 1014 60 10000 4.1 60 02:18 24.01.2020
265 Clear 23 1013 73 10000 1.5 90 01:37 24.01.2020
266 Clear 24 1013 69 10000 4.1 110 00:39 24.01.2020
267 Clear 25 1013 69 10000 4.1 110 00:18 24.01.2020
268 Clear 25 1013 51 10000 5.1 100 23:41 23.01.2020
269 Clear 25 1013 51 10000 5.1 100 23:21 23.01.2020
270 Clear 26 1013 65 10000 5.1 120 22:58 23.01.2020
271 Clear 26 1013 51 10000 5.1 110 22:36 23.01.2020
272 Clear 26 1013 51 10000 5.1 110 22:18 23.01.2020
273 Clear 27 1013 51 10000 5.7 90 21:55 23.01.2020
274 Clear 27 1013 51 10000 5.7 90 21:37 23.01.2020
275 Clear 27 1013 51 10000 5.7 90 21:18 23.01.2020
276 Clear 27 1013 51 10000 6.2 100 20:41 23.01.2020
277 Clear 27 1013 51 10000 6.2 100 20:22 23.01.2020
278 Clouds 27 1014 40 10000 1.5 0 19:57 23.01.2020
279 Clouds 27 1014 40 10000 1.5 0 19:39 23.01.2020
280 Clouds 27 1014 40 10000 1.5 0 19:21 23.01.2020
281 Clouds 27 1015 42 10000 2.6 60 18:56 23.01.2020
282 Clouds 27 1015 42 10000 2.6 60 18:38 23.01.2020
283 Clouds 27 1015 42 10000 2.6 60 18:19 23.01.2020
284 Clouds 26 1016 48 10000 4.1 50 17:45 23.01.2020
285 Clouds 26 1016 48 10000 4.1 50 17:21 23.01.2020
286 Clouds 26 1017 51 10000 4.6 30 16:59 23.01.2020
287 Clouds 26 1017 51 10000 4.6 30 16:39 23.01.2020
288 Clouds 26 1017 51 10000 4.6 30 16:19 23.01.2020
289 Clouds 26 1017 57 10000 6.2 40 15:58 23.01.2020
290 Clouds 26 1017 57 10000 6.2 40 15:38 23.01.2020
291 Clouds 26 1017 57 10000 6.2 40 15:38 23.01.2020
292 Clouds 26 1017 57 10000 6.2 40 15:19 23.01.2020
293 Clouds 25 1017 65 10000 7.2 40 14:58 23.01.2020
294 Clouds 25 1017 65 10000 7.2 40 14:40 23.01.2020
295 Clouds 25 1017 65 10000 7.2 40 14:21 23.01.2020
296 Clouds 23 1017 78 10000 6.2 30 13:54 23.01.2020
297 Clouds 23 1017 78 10000 6.2 30 13:36 23.01.2020
298 Clouds 23 1017 78 10000 6.2 30 13:18 23.01.2020
299 Clouds 22 1017 83 0 5.1 40 12:40 23.01.2020
300 Clouds 22 1017 83 0 5.1 40 12:22 23.01.2020
301 Clear 20 1017 93 10000 3.1 50 11:55 23.01.2020
302 Clear 20 1017 93 10000 3.1 50 11:36 23.01.2020
303 Clear 19 1017 93 10000 3.1 50 11:18 23.01.2020
304 Clear 19 1017 93 10000 1.5 80 10:41 23.01.2020
305 Clear 18 1017 93 10000 1.5 80 10:19 23.01.2020
306 Clear 18 1017 93 10000 1.5 80 10:19 23.01.2020
307 Clear 19 1016 88 10000 1.5 80 09:41 23.01.2020
308 Clear 19 1016 88 10000 1.5 80 09:22 23.01.2020
309 Clear 19 1016 88 10000 2.1 70 08:57 23.01.2020
310 Clear 19 1016 88 10000 2.1 70 08:38 23.01.2020
311 Clear 19 1016 88 10000 2.1 70 08:19 23.01.2020
312 Clear 19 1016 88 10000 1.5 60 07:42 23.01.2020
313 Clear 19 1016 88 10000 1.5 60 07:21 23.01.2020
314 Clear 19 1016 88 10000 1.5 60 07:21 23.01.2020
315 Clear 20 1016 77 10000 0.5 0 06:44 23.01.2020
316 Clear 20 1016 77 10000 0.5 0 06:19 23.01.2020
317 Clear 21 1016 73 10000 2.1 70 04:44 23.01.2020
318 Clear 21 1016 73 10000 2.1 70 04:21 23.01.2020
319 Clear 23 1015 78 10000 5.1 110 01:58 23.01.2020
320 Clear 24 1014 69 10000 5.7 120 00:47 23.01.2020
321 Clear 24 1014 69 10000 5.7 120 00:26 23.01.2020
322 Clear 25 1014 50 10000 7.2 120 23:47 22.01.2020
323 Clear 25 1014 50 10000 7.2 120 23:47 22.01.2020
324 Clear 25 1014 50 10000 7.2 120 23:28 22.01.2020
325 Clouds 26 1014 54 10000 5.7 120 22:55 22.01.2020
326 Clouds 26 1014 54 10000 5.7 120 22:37 22.01.2020
327 Clouds 26 1014 54 10000 5.7 120 22:19 22.01.2020
328 Clouds 27 1014 54 10000 6.2 110 21:38 22.01.2020
329 Clouds 27 1014 54 10000 6.2 110 21:20 22.01.2020
330 Clouds 27 1014 54 10000 6.7 110 20:56 22.01.2020
331 Clouds 27 1014 54 10000 6.7 110 20:56 22.01.2020
332 Clouds 27 1014 54 10000 6.7 110 20:36 22.01.2020
333 Clouds 27 1014 54 10000 6.7 110 20:36 22.01.2020
334 Clouds 27 1014 54 10000 6.7 110 20:36 22.01.2020
335 Clouds 27 1014 54 10000 6.7 110 20:18 22.01.2020
336 Clouds 27 1014 54 10000 6.2 120 19:55 22.01.2020
337 Clouds 27 1014 54 10000 6.2 120 19:37 22.01.2020
338 Clouds 27 1014 54 10000 6.2 120 19:18 22.01.2020
339 Clouds 27 1014 54 10000 5.1 110 18:55 22.01.2020
340 Clouds 27 1014 54 10000 5.1 110 18:36 22.01.2020
341 Clouds 27 1014 54 10000 5.1 110 18:18 22.01.2020
342 Clouds 27 1014 54 10000 5.1 110 18:18 22.01.2020
343 Clouds 27 1015 61 10000 5.1 120 17:39 22.01.2020
344 Clouds 27 1015 61 10000 5.1 120 17:21 22.01.2020
345 Clouds 26 1015 61 10000 4.1 90 16:57 22.01.2020
346 Clouds 26 1015 61 10000 4.1 90 16:39 22.01.2020
347 Clouds 28 1015 61 10000 4.1 90 16:20 22.01.2020
348 Clouds 26 1015 65 10000 6.2 90 15:55 22.01.2020
349 Clouds 26 1015 65 10000 6.2 90 15:37 22.01.2020
350 Clouds 26 1015 65 10000 6.2 90 15:18 22.01.2020
351 Clouds 25 1015 74 10000 6.2 60 14:39 22.01.2020
352 Clouds 25 1015 74 10000 6.2 60 14:20 22.01.2020
353 Clouds 25 1015 78 10000 5.7 70 13:57 22.01.2020
354 Clouds 24 1015 78 10000 5.7 70 13:37 22.01.2020
355 Clouds 25 1015 78 10000 5.7 70 13:19 22.01.2020
356 Clouds 23 1014 83 10000 4.6 90 12:57 22.01.2020
357 Clouds 23 1014 83 10000 4.6 90 12:38 22.01.2020
358 Clouds 23 1014 83 10000 4.6 90 12:19 22.01.2020
359 Clouds 22 1014 88 10000 4.6 100 11:57 22.01.2020
360 Clouds 22 1014 88 10000 4.6 100 11:39 22.01.2020
361 Clouds 22 1014 88 10000 4.6 100 11:19 22.01.2020
362 Clouds 21 1013 88 10000 5.7 120 10:45 22.01.2020
363 Clouds 21 1013 88 10000 5.7 120 10:21 22.01.2020
364 Clouds 21 1012 88 10000 5.1 110 09:58 22.01.2020
365 Clouds 21 1012 88 10000 5.1 110 09:40 22.01.2020
366 Clouds 21 1012 88 10000 5.1 110 09:21 22.01.2020
367 Clouds 21 1012 88 10000 4.1 120 08:55 22.01.2020
368 Clouds 21 1012 88 10000 4.1 120 08:37 22.01.2020
369 Clouds 21 1012 88 10000 4.1 120 08:19 22.01.2020
370 Clouds 21 1012 88 10000 4.1 110 07:44 22.01.2020
371 Clouds 21 1012 88 10000 4.1 110 07:26 22.01.2020
372 Clouds 21 1012 88 10000 3.6 100 06:34 22.01.2020
373 Clouds 21 1012 88 10000 4.1 90 05:54 22.01.2020
374 Clouds 22 1012 83 10000 6.7 110 04:25 22.01.2020
375 Clouds 22 1012 83 10000 6.7 110 03:26 22.01.2020
376 Clouds 23 1011 88 10000 6.7 100 02:43 22.01.2020
377 Clouds 24 1010 83 10000 6.2 130 00:47 22.01.2020
378 Clouds 24 1010 83 10000 6.2 130 00:27 22.01.2020
379 Clouds 24 1009 83 10000 5.1 120 23:57 21.01.2020
380 Clouds 24 1009 83 10000 5.1 120 23:57 21.01.2020
381 Clouds 24 1009 83 10000 5.1 120 23:37 21.01.2020
382 Clouds 24 1009 83 10000 5.1 120 23:19 21.01.2020
383 Clouds 25 1009 78 10000 5.1 120 22:40 21.01.2020
384 Clouds 25 1009 78 10000 5.1 120 22:21 21.01.2020
385 Clouds 25 1010 78 10000 5.7 130 21:58 21.01.2020
386 Clouds 25 1010 78 10000 5.7 130 21:39 21.01.2020
387 Clouds 25 1010 78 10000 5.7 130 21:20 21.01.2020
388 Clouds 25 1010 74 10000 5.1 130 20:57 21.01.2020
389 Clouds 26 1010 74 10000 5.1 130 20:38 21.01.2020
390 Clouds 26 1010 74 10000 5.1 130 20:20 21.01.2020
391 Clouds 26 1010 74 10000 6.7 150 19:57 21.01.2020
392 Clouds 26 1010 74 10000 6.7 150 19:39 21.01.2020
393 Clouds 26 1010 74 10000 6.7 150 19:20 21.01.2020
394 Clouds 27 1010 62 10000 5.1 130 18:55 21.01.2020
395 Clouds 27 1010 62 10000 5.1 130 18:37 21.01.2020
396 Clouds 27 1010 62 10000 5.1 130 18:19 21.01.2020
397 Clouds 26 1010 69 10000 3.6 130 17:45 21.01.2020
398 Clouds 26 1010 69 10000 3.6 130 17:20 21.01.2020
399 Clouds 26 1011 69 10000 3.6 120 16:59 21.01.2020
400 Clouds 26 1011 69 10000 3.6 120 16:37 21.01.2020
401 Clouds 26 1011 69 10000 3.6 120 16:19 21.01.2020
402 Clouds 26 1011 69 10000 3.1 150 15:56 21.01.2020
403 Clouds 26 1011 69 10000 3.1 150 15:36 21.01.2020
404 Clouds 26 1011 69 10000 3.1 150 15:18 21.01.2020
405 Clouds 25 1011 74 10000 2.6 120 14:38 21.01.2020
406 Clouds 25 1011 74 10000 2.6 120 14:20 21.01.2020
407 Clouds 25 1010 78 10000 2.6 120 13:40 21.01.2020
408 Clouds 25 1010 78 10000 2.6 120 13:19 21.01.2020
409 Clouds 24 1010 88 10000 4.21 92 12:56 21.01.2020
410 Clouds 24 1010 88 10000 4.21 92 12:37 21.01.2020
411 Clouds 24 1010 88 10000 4.21 92 12:19 21.01.2020
412 Clouds 23 1010 94 10000 2.1 120 11:40 21.01.2020
413 Clouds 23 1010 94 10000 2.1 120 11:21 21.01.2020
414 Clouds 22 1009 83 10000 4.61 99 10:57 21.01.2020
415 Clouds 22 1009 83 10000 4.61 99 10:57 21.01.2020
416 Clouds 22 1009 83 10000 4.61 99 10:57 21.01.2020
417 Clouds 21 1009 83 10000 4.61 99 10:39 21.01.2020
418 Clouds 21 1009 83 10000 4.61 99 10:20 21.01.2020
419 Clouds 21 1008 88 10000 4.61 99 09:42 21.01.2020
420 Clouds 21 1008 88 10000 4.61 99 09:23 21.01.2020
421 Clouds 21 1008 83 10000 4.61 99 08:54 21.01.2020
422 Clouds 21 1008 83 10000 4.61 99 08:36 21.01.2020
423 Clear 21 1008 83 10000 3.62 74 08:18 21.01.2020
424 Clear 21 1008 83 10000 3.62 74 07:41 21.01.2020
425 Clear 22 1008 83 10000 3.62 74 07:22 21.01.2020
426 Clear 21 1009 78 10000 3.62 74 06:49 21.01.2020
427 Clear 21 1009 78 10000 3.62 74 06:49 21.01.2020
428 Clear 21 1009 78 10000 3.62 74 06:29 21.01.2020
429 Clear 22 1008 73 10000 3.62 74 05:43 21.01.2020
430 Clear 22 1009 69 10000 3.66 64 04:40 21.01.2020
431 Clear 22 1010 69 10000 1.5 130 02:57 21.01.2020
432 Clear 24 1009 65 10000 3.1 120 01:56 21.01.2020
433 Clear 25 1009 65 10000 3.1 120 01:26 21.01.2020
434 Clouds 26 1009 61 10000 2.1 120 00:37 21.01.2020
435 Clouds 27 1008 51 10000 4.1 100 23:59 20.01.2020
436 Clouds 27 1008 51 10000 4.1 100 23:41 20.01.2020
437 Clouds 27 1008 51 10000 4.1 100 23:19 20.01.2020
438 Clouds 28 1008 46 10000 6.2 130 22:56 20.01.2020
439 Clouds 30 1008 46 10000 6.2 130 22:38 20.01.2020
440 Clouds 29 1008 46 10000 6.2 130 22:20 20.01.2020
441 Clouds 29 1009 46 10000 6.2 130 21:57 20.01.2020
442 Clouds 29 1009 46 10000 6.2 130 21:37 20.01.2020
443 Clouds 29 1009 46 10000 6.2 130 21:19 20.01.2020
444 Clouds 30 1009 43 10000 6.2 150 20:56 20.01.2020
445 Clouds 30 1009 43 10000 6.2 150 20:38 20.01.2020
446 Clouds 30 1009 43 10000 6.2 150 20:18 20.01.2020
447 Clouds 30 1009 49 10000 6.7 180 19:56 20.01.2020
448 Clouds 30 1009 49 10000 6.7 180 19:38 20.01.2020
449 Clouds 30 1009 49 10000 6.7 180 19:18 20.01.2020
450 Clouds 31 1010 41 10000 5.1 200 18:44 20.01.2020
451 Clouds 32 1010 41 10000 5.1 200 18:22 20.01.2020
452 Clouds 31 1010 38 10000 3.1 150 17:58 20.01.2020
453 Clouds 32 1010 38 10000 3.1 150 17:36 20.01.2020
454 Clouds 32 1010 38 10000 3.1 150 17:18 20.01.2020
455 Clouds 31 1011 43 10000 2.6 30 16:39 20.01.2020
456 Clouds 31 1011 43 10000 2.6 30 16:39 20.01.2020
457 Clouds 32 1011 43 10000 2.6 30 16:19 20.01.2020
458 Clouds 32 1011 43 10000 2.6 30 16:19 20.01.2020
459 Clear 30 1011 43 10000 2.6 20 15:57 20.01.2020
460 Clear 30 1011 43 10000 2.6 20 15:39 20.01.2020
461 Clear 30 1011 43 10000 2.6 20 15:20 20.01.2020
462 Clear 29 1011 55 10000 3.1 360 14:41 20.01.2020
463 Clear 30 1011 55 10000 3.1 360 14:23 20.01.2020
464 Clear 28 1011 65 10000 4.1 20 13:58 20.01.2020
465 Clear 28 1011 65 10000 4.1 20 13:40 20.01.2020
466 Clouds 28 1011 65 10000 4.1 20 13:22 20.01.2020
467 Clouds 26 1011 73 10000 3.1 40 12:47 20.01.2020
468 Clouds 26 1011 73 10000 3.1 40 12:28 20.01.2020
469 Clouds 26 1011 73 10000 3.1 40 12:28 20.01.2020
470 Clouds 23 1011 83 10000 2.6 60 11:59 20.01.2020
471 Clouds 23 1011 83 10000 2.6 60 11:40 20.01.2020
472 Clouds 23 1011 83 10000 2.6 60 11:21 20.01.2020
473 Clouds 21 1011 88 10000 1.5 30 10:55 20.01.2020
474 Clouds 21 1011 88 10000 1.5 30 10:37 20.01.2020
475 Clouds 21 1011 88 10000 1.5 30 10:18 20.01.2020
476 Clouds 21 1010 88 10000 2.1 30 09:40 20.01.2020
477 Clouds 21 1010 88 10000 2.1 30 09:20 20.01.2020
478 Clouds 21 1010 78 10000 1.5 30 08:46 20.01.2020
479 Clouds 21 1010 78 10000 1.5 30 08:28 20.01.2020
480 Clouds 21 1011 73 10000 3.1 40 07:45 20.01.2020
481 Clouds 21 1011 73 10000 3.1 40 07:25 20.01.2020
482 Clouds 22 1011 64 10000 3.6 40 06:54 20.01.2020
483 Clouds 22 1011 64 10000 3.6 40 06:28 20.01.2020
484 Clouds 23 1011 60 10000 3.1 30 05:43 20.01.2020
485 Clouds 24 1011 60 10000 3.1 30 05:22 20.01.2020
486 Clear 24 1011 57 10000 3.6 40 04:47 20.01.2020
487 Clear 25 1011 69 10000 5.21 27 02:58 20.01.2020
488 Clouds 24 1010 73 10000 3.1 110 01:57 20.01.2020
489 Clouds 25 1010 73 10000 3.1 110 01:37 20.01.2020
490 Clear 25 1010 69 10000 3.6 110 00:45 20.01.2020
491 Clear 26 1010 69 10000 3.6 110 00:25 20.01.2020
492 Clouds 27 1010 51 10000 3.1 90 23:40 19.01.2020
493 Clouds 27 1010 51 10000 3.1 90 23:20 19.01.2020
494 Clouds 28 1010 43 10000 3.6 100 22:57 19.01.2020
495 Clouds 28 1010 43 10000 3.6 100 22:39 19.01.2020
496 Clouds 28 1010 43 10000 3.6 100 22:20 19.01.2020
497 Clouds 29 1010 36 10000 2.6 120 21:57 19.01.2020
498 Clouds 29 1010 36 10000 2.6 120 21:39 19.01.2020
499 Clouds 29 1010 36 10000 2.6 120 21:20 19.01.2020
500 Clouds 29 1011 33 10000 4.1 40 20:57 19.01.2020
501 Clouds 29 1011 33 10000 4.1 40 20:39 19.01.2020
502 Clouds 29 1011 33 10000 4.1 40 20:21 19.01.2020
503 Clouds 29 1012 31 10000 4.1 40 19:57 19.01.2020
504 Clouds 29 1012 31 10000 4.1 40 19:39 19.01.2020
505 Clouds 29 1012 31 10000 4.1 40 19:21 19.01.2020
506 Clouds 28 1012 45 10000 6.2 130 18:59 19.01.2020
507 Clouds 28 1012 45 10000 6.2 130 18:41 19.01.2020
508 Clouds 29 1012 45 10000 6.2 130 18:21 19.01.2020
509 Clouds 29 1013 38 10000 3.6 30 17:59 19.01.2020
510 Clouds 29 1013 38 10000 3.6 30 17:40 19.01.2020
511 Clouds 30 1013 38 10000 3.6 30 17:22 19.01.2020
512 Clouds 29 1014 42 10000 2.6 360 16:59 19.01.2020
513 Clouds 29 1014 42 10000 2.6 360 16:40 19.01.2020
514 Clouds 29 1014 42 10000 2.6 360 16:40 19.01.2020
515 Clouds 29 1014 42 10000 2.6 360 16:22 19.01.2020
516 Clouds 28 1014 48 10000 4.6 30 15:59 19.01.2020
517 Clouds 28 1014 48 10000 4.6 30 15:40 19.01.2020
518 Clouds 29 1014 48 10000 4.6 30 15:21 19.01.2020
519 Clouds 27 1015 57 10000 5.7 30 14:59 19.01.2020
520 Clouds 27 1015 57 10000 5.7 30 14:39 19.01.2020
521 Clouds 27 1015 57 10000 5.7 30 14:19 19.01.2020
522 Clouds 26 1015 57 10000 3.1 40 13:58 19.01.2020
523 Clouds 26 1015 57 10000 3.1 40 13:38 19.01.2020
524 Clouds 25 1015 57 10000 3.1 40 13:20 19.01.2020
525 Clouds 23 1015 78 10000 5.1 60 12:56 19.01.2020
526 Clouds 23 1015 78 10000 5.1 60 12:37 19.01.2020
527 Clouds 22 1015 78 10000 5.1 60 12:19 19.01.2020
528 Clouds 21 1015 77 10000 3.6 20 11:56 19.01.2020
529 Clouds 20 1015 77 10000 3.6 20 11:37 19.01.2020
530 Clouds 20 1015 77 10000 3.6 20 11:18 19.01.2020
531 Clouds 19 1015 77 10000 3.6 30 10:39 19.01.2020
532 Clouds 19 1015 77 10000 3.6 30 10:19 19.01.2020
533 Clouds 19 1015 72 10000 2.6 40 09:56 19.01.2020
534 Clouds 19 1015 72 10000 2.6 40 09:37 19.01.2020
535 Clouds 19 1015 72 10000 2.6 40 09:19 19.01.2020
536 Clouds 19 1014 63 10000 2.6 30 08:54 19.01.2020
537 Clouds 19 1014 63 10000 2.6 30 08:30 19.01.2020
538 Clouds 20 1015 56 10000 3.1 20 07:46 19.01.2020
539 Clouds 20 1015 56 10000 3.1 20 07:27 19.01.2020
540 Clouds 20 1015 46 10000 3.6 30 06:54 19.01.2020
541 Clouds 21 1015 46 10000 3.6 30 06:21 19.01.2020
542 Clouds 21 1015 73 10000 2.6 100 03:51 19.01.2020
543 Clouds 23 1015 64 10000 5.7 120 02:28 19.01.2020
544 Clouds 23 1015 56 10000 4.1 100 01:39 19.01.2020
545 Clouds 23 1015 56 10000 4.1 100 01:18 19.01.2020
546 Clouds 23 1015 59 0 1.34 132 00:41 19.01.2020
547 Clouds 24 1015 44 10000 4.1 140 00:19 19.01.2020
548 Clouds 25 1015 44 10000 4.1 140 23:42 18.01.2020
549 Clouds 25 1015 44 10000 4.1 140 23:24 18.01.2020
550 Clouds 26 1015 45 10000 3.6 180 22:58 18.01.2020
551 Clouds 26 1015 45 10000 3.6 180 22:40 18.01.2020
552 Clouds 27 1015 45 10000 3.6 180 22:21 18.01.2020
553 Clear 27 1015 35 10000 3.1 350 21:58 18.01.2020
554 Clear 28 1015 35 10000 3.1 350 21:38 18.01.2020
555 Clear 28 1015 35 10000 3.1 350 21:20 18.01.2020
556 Clouds 28 1016 37 10000 6.2 60 20:55 18.01.2020
557 Clouds 28 1016 37 10000 6.2 60 20:36 18.01.2020
558 Clouds 28 1016 37 10000 6.2 60 20:18 18.01.2020
559 Clear 29 1017 39 10000 3.6 30 19:42 18.01.2020
560 Clear 28 1017 39 10000 3.6 30 19:24 18.01.2020
561 Clouds 28 1017 42 10000 4.6 350 18:43 18.01.2020
562 Clouds 28 1017 42 10000 4.6 350 18:24 18.01.2020
563 Clouds 26 1018 47 10000 4.1 360 17:58 18.01.2020
564 Clouds 26 1018 47 10000 4.1 360 17:40 18.01.2020
565 Clouds 26 1018 47 10000 4.1 360 17:20 18.01.2020
566 Clouds 25 1018 50 10000 3.1 30 16:56 18.01.2020
567 Clouds 24 1018 50 10000 3.1 30 16:37 18.01.2020
568 Clouds 24 1018 50 10000 3.1 30 16:19 18.01.2020
569 Clouds 23 1019 53 10000 4.1 360 15:44 18.01.2020
570 Clouds 23 1019 53 10000 4.1 360 15:25 18.01.2020
571 Clouds 21 1019 64 10000 6.7 360 14:59 18.01.2020
572 Clouds 22 1019 64 10000 6.7 360 14:40 18.01.2020
573 Clouds 21 1019 64 10000 6.7 360 14:19 18.01.2020
574 Clouds 20 1019 68 10000 6.7 360 13:55 18.01.2020
575 Clouds 20 1019 68 10000 6.7 360 13:36 18.01.2020
576 Clouds 20 1019 68 10000 6.7 360 13:18 18.01.2020
577 Clouds 19 1019 68 10000 6.7 20 12:40 18.01.2020
578 Clouds 19 1019 68 10000 6.7 20 12:21 18.01.2020
579 Clouds 16 1020 93 10000 4.6 30 11:45 18.01.2020
580 Clouds 15 1020 93 10000 4.6 30 11:24 18.01.2020
581 Clear 17 1019 82 10000 3.1 20 10:58 18.01.2020
582 Clear 16 1019 82 10000 3.1 20 10:39 18.01.2020
583 Clear 16 1019 82 10000 3.1 20 10:20 18.01.2020
584 Clear 16 1019 71 10000 3.1 30 09:49 18.01.2020
585 Clear 16 1019 71 10000 3.1 30 09:31 18.01.2020
586 Clear 16 1019 71 10000 3.6 30 08:58 18.01.2020
587 Clear 16 1019 71 10000 3.6 30 08:39 18.01.2020
588 Clear 16 1019 71 10000 3.6 30 08:19 18.01.2020
589 Clear 17 1019 67 10000 3.1 30 07:52 18.01.2020
590 Clear 16 1019 67 10000 3.1 30 07:32 18.01.2020
591 Clear 17 1020 62 10000 2.6 30 06:48 18.01.2020
592 Clear 17 1020 62 10000 2.6 30 06:18 18.01.2020
593 Clear 16 1020 62 10000 3.1 50 05:25 18.01.2020
594 Clear 18 1020 52 10000 2.1 60 03:25 18.01.2020
595 Clear 20 1020 42 10000 3.1 110 01:59 18.01.2020
596 Clear 19 1020 42 10000 3.1 110 01:35 18.01.2020
597 Clear 20 1020 37 10000 3.6 120 00:37 18.01.2020
598 Clear 21 1020 37 10000 3.6 120 00:19 18.01.2020
599 Clear 21 1020 40 10000 4.1 170 23:44 17.01.2020
600 Clear 21 1020 40 10000 4.1 170 23:20 17.01.2020
601 Clear 21 1020 35 10000 4.1 160 22:59 17.01.2020
602 Clear 22 1020 35 10000 4.1 160 22:40 17.01.2020
603 Clear 22 1020 35 10000 4.1 160 22:18 17.01.2020
604 Clear 23 1020 35 10000 4.1 170 21:41 17.01.2020
605 Clear 23 1020 35 10000 4.1 170 21:22 17.01.2020
606 Clear 23 1021 29 10000 4.1 220 20:58 17.01.2020
607 Clear 23 1021 29 10000 4.1 220 20:39 17.01.2020
608 Clear 24 1021 29 10000 4.1 220 20:20 17.01.2020
609 Clear 24 1021 31 10000 4.1 220 19:55 17.01.2020
610 Clear 24 1021 31 10000 4.1 220 19:37 17.01.2020
611 Clear 24 1021 31 10000 4.1 220 19:19 17.01.2020
612 Clear 24 1022 27 10000 4.1 220 18:56 17.01.2020
613 Clear 24 1022 27 10000 4.1 220 18:56 17.01.2020
614 Clear 24 1022 27 10000 4.1 220 18:36 17.01.2020
615 Clear 24 1022 27 10000 4.1 220 18:18 17.01.2020
616 Clear 24 1022 22 10000 4.1 220 17:39 17.01.2020
617 Clear 24 1022 22 10000 4.1 220 17:20 17.01.2020
618 Clear 23 1022 33 10000 3.1 210 16:44 17.01.2020
619 Clear 23 1022 33 10000 3.1 210 16:21 17.01.2020
620 Clear 23 1022 33 10000 3.1 210 16:21 17.01.2020
621 Clear 22 1023 37 10000 1.5 90 15:58 17.01.2020
622 Clear 22 1023 37 10000 1.5 90 15:58 17.01.2020
623 Clear 22 1023 37 10000 1.5 90 15:39 17.01.2020
624 Clear 22 1023 37 10000 1.5 90 15:20 17.01.2020
625 Clear 21 1023 49 10000 1.5 220 14:43 17.01.2020
626 Clear 21 1023 49 10000 1.5 220 14:24 17.01.2020
627 Clouds 20 1023 48 10000 1.5 230 13:43 17.01.2020
628 Clouds 20 1023 48 10000 1.5 230 13:23 17.01.2020
629 Clear 18 1022 67 10000 4.27 228 12:47 17.01.2020
630 Clear 17 1022 67 10000 4.27 228 12:23 17.01.2020
631 Clear 15 1022 87 10000 1.5 30 11:43 17.01.2020
632 Clear 14 1022 87 10000 1.5 30 11:20 17.01.2020
633 Clouds 17 1022 82 10000 5.58 206 10:58 17.01.2020
634 Clouds 16 1022 82 10000 5.58 206 10:40 17.01.2020
635 Clouds 16 1022 82 10000 5.58 206 10:21 17.01.2020
636 Clouds 18 1021 72 10000 5.58 206 09:56 17.01.2020
637 Clouds 17 1021 72 10000 5.58 206 09:37 17.01.2020
638 Clouds 17 1021 72 10000 5.58 206 09:18 17.01.2020
639 Clouds 19 1021 63 10000 1.5 180 08:42 17.01.2020
640 Clouds 18 1021 63 10000 1.5 180 08:23 17.01.2020
641 Clouds 19 1021 63 10000 2.1 170 07:49 17.01.2020
642 Clouds 18 1021 63 10000 2.1 170 07:30 17.01.2020
643 Clouds 19 1021 63 10000 2.6 160 06:56 17.01.2020
644 Clouds 18 1021 63 10000 2.6 160 06:37 17.01.2020
645 Clouds 18 1021 63 10000 4.1 160 05:22 17.01.2020
646 Clear 19 1004 61 0 1.79 194 03:38 17.01.2020
647 Clear 19 1004 61 0 1.79 194 02:43 17.01.2020
648 Clear 20 1004 61 0 1.79 194 01:46 17.01.2020
649 Clear 18 1020 64 0 10.74 150 01:27 17.01.2020
650 Clear 19 1019 60 0 10.74 150 00:43 17.01.2020
651 Clouds 21 1019 37 10000 5.1 270 00:20 17.01.2020
652 Clouds 21 1019 37 10000 5.1 270 23:42 16.01.2020
653 Clouds 21 1019 37 10000 5.1 270 23:24 16.01.2020
654 Clear 21 1019 35 10000 5.1 270 22:43 16.01.2020
655 Clear 21 1019 35 10000 5.1 270 22:22 16.01.2020
656 Clear 22 1019 28 10000 5.7 280 21:57 16.01.2020
657 Clear 22 1019 28 10000 5.7 280 21:39 16.01.2020
658 Clear 22 1019 28 10000 5.7 280 21:19 16.01.2020
659 Clear 22 1019 25 10000 4.1 270 20:58 16.01.2020
660 Clear 23 1019 25 10000 4.1 270 20:39 16.01.2020
661 Clear 22 1019 25 10000 4.1 270 20:20 16.01.2020
662 Clear 21 1019 26 10000 4.6 250 19:56 16.01.2020
663 Clear 21 1019 26 10000 4.6 250 19:38 16.01.2020
664 Clear 21 1019 26 10000 4.6 250 19:19 16.01.2020
665 Clear 21 1019 30 10000 4.1 210 18:55 16.01.2020
666 Clear 21 1019 30 10000 4.1 210 18:37 16.01.2020
667 Clear 21 1019 30 10000 4.1 210 18:37 16.01.2020
668 Clear 21 1019 30 10000 4.1 210 18:18 16.01.2020
669 Clear 22 1019 28 10000 4.1 200 17:42 16.01.2020
670 Clear 21 1019 28 10000 4.1 200 17:23 16.01.2020
671 Clear 21 1019 30 10000 5.7 220 16:57 16.01.2020
672 Clear 21 1019 37 10000 5.1 200 16:39 16.01.2020
673 Clear 21 1019 37 10000 5.1 200 16:20 16.01.2020
674 Clear 21 1019 35 10000 5.1 210 15:44 16.01.2020
675 Clear 21 1019 35 10000 5.1 210 15:44 16.01.2020
676 Clear 21 1019 35 10000 5.1 210 15:24 16.01.2020
677 Clear 21 1019 35 10000 5.1 210 15:24 16.01.2020
678 Clear 20 1019 37 10000 6.7 210 14:59 16.01.2020
679 Clear 20 1019 37 10000 6.7 210 14:41 16.01.2020
680 Clear 20 1019 37 10000 6.7 210 14:22 16.01.2020
681 Clear 20 1018 48 10000 6.2 190 13:45 16.01.2020
682 Clear 20 1018 48 10000 6.2 190 13:26 16.01.2020
683 Clear 19 1018 45 10000 2.6 200 12:57 16.01.2020
684 Clear 19 1018 45 10000 2.6 200 12:38 16.01.2020
685 Clear 19 1018 45 10000 2.6 200 12:20 16.01.2020
686 Clear 18 1017 55 10000 2.6 210 11:41 16.01.2020
687 Clear 18 1017 55 10000 2.6 210 11:41 16.01.2020
688 Clear 17 1017 55 10000 2.6 210 11:23 16.01.2020
689 Clear 18 1016 42 10000 4.1 210 10:55 16.01.2020
690 Clear 17 1016 42 10000 4.1 210 10:37 16.01.2020
691 Clear 17 1016 42 10000 4.1 210 10:19 16.01.2020
692 Clear 17 1014 51 10000 5.1 200 09:42 16.01.2020
693 Clear 17 1014 51 10000 5.1 200 09:24 16.01.2020
694 Clouds 18 1014 55 10000 6.2 180 08:58 16.01.2020
695 Clouds 17 1014 55 10000 6.2 180 08:40 16.01.2020
696 Clouds 18 1014 55 10000 6.2 180 08:19 16.01.2020
697 Clouds 18 1014 55 10000 7.2 180 07:42 16.01.2020
698 Clouds 18 1014 55 10000 7.2 180 07:23 16.01.2020
699 Clouds 18 1014 52 10000 6.2 180 06:52 16.01.2020
700 Clouds 18 1014 52 10000 6.2 180 06:34 16.01.2020
701 Clouds 18 1014 48 10000 6.2 180 05:49 16.01.2020
702 Clouds 19 1013 55 10000 7.7 180 04:46 16.01.2020
703 Clouds 19 1012 59 10000 7.7 180 03:56 16.01.2020
704 Clouds 19 1011 59 10000 7.7 180 02:46 16.01.2020
705 Clouds 19 1009 63 10000 6.7 180 01:32 16.01.2020
706 Clouds 20 1008 60 10000 8.2 170 00:43 16.01.2020
707 Clouds 20 1008 60 10000 8.2 170 00:23 16.01.2020
708 Clouds 20 1007 64 10000 10.3 170 23:44 15.01.2020
709 Clouds 20 1007 64 10000 10.3 170 23:44 15.01.2020
710 Clouds 20 1007 64 10000 10.3 170 23:22 15.01.2020
711 Clouds 21 1005 68 10000 7.7 180 22:56 15.01.2020
712 Clouds 21 1005 68 10000 7.7 180 22:38 15.01.2020
713 Clouds 21 1005 68 10000 7.7 180 22:18 15.01.2020
714 Clouds 21 1005 78 10000 9.3 180 21:56 15.01.2020
715 Clouds 21 1005 78 10000 9.3 180 21:56 15.01.2020
716 Clouds 22 1005 78 10000 9.3 180 21:37 15.01.2020
717 Clouds 22 1005 78 10000 9.3 180 21:18 15.01.2020
718 Clouds 23 1004 88 10000 7.2 230 20:55 15.01.2020
719 Clouds 23 1004 88 10000 7.2 230 20:37 15.01.2020
720 Clouds 23 1004 88 10000 7.2 230 20:18 15.01.2020
721 Clouds 24 1003 88 10000 5.1 250 19:54 15.01.2020
722 Clouds 25 1003 88 10000 5.1 250 19:36 15.01.2020
723 Clouds 24 1003 88 10000 5.1 250 19:18 15.01.2020
724 Clouds 24 1003 83 10000 3.1 300 18:55 15.01.2020
725 Clouds 24 1003 83 10000 3.1 300 18:37 15.01.2020
726 Clouds 24 1003 83 10000 3.1 300 18:19 15.01.2020
727 Clouds 23 1004 94 8000 3.1 300 17:41 15.01.2020
728 Clouds 22 1004 94 8000 3.1 300 17:22 15.01.2020
729 Thunderstorm 22 1002 88 10000 5.78 354 16:57 15.01.2020
730 Rain 22 1001 94 5000 5.1 60 16:38 15.01.2020
731 Rain 22 1001 94 5000 5.1 60 16:20 15.01.2020
732 Rain 22 1001 94 5000 5.1 60 16:20 15.01.2020
733 Rain 22 1001 94 5000 5.1 60 16:20 15.01.2020
734 Rain 22 1001 94 5000 5.1 60 16:20 15.01.2020
735 Rain 22 1001 94 5000 5.1 60 16:20 15.01.2020
736 Rain 21 1001 100 6000 5.1 120 15:43 15.01.2020
737 Rain 21 1001 100 6000 5.1 120 15:21 15.01.2020
738 Thunderstorm 22 1003 94 1000 7.7 160 14:57 15.01.2020
739 Thunderstorm 22 1003 94 1000 7.7 160 14:39 15.01.2020
740 Thunderstorm 21 1003 94 1000 7.7 160 14:18 15.01.2020
741 Thunderstorm 22 1003 94 2000 5.7 240 13:44 15.01.2020
742 Thunderstorm 22 1003 94 2000 5.7 240 13:24 15.01.2020
743 Thunderstorm 22 1003 94 2000 6.7 260 12:57 15.01.2020
744 Thunderstorm 22 1003 94 2000 6.7 260 12:39 15.01.2020
745 Thunderstorm 22 1003 94 2000 6.7 260 12:19 15.01.2020
746 Thunderstorm 23 1001 83 2000 4.1 10 11:55 15.01.2020
747 Thunderstorm 23 1001 83 2000 4.1 10 11:36 15.01.2020
748 Thunderstorm 23 1001 83 2000 4.1 10 11:36 15.01.2020
749 Thunderstorm 24 1001 83 2000 4.1 10 11:18 15.01.2020
750 Thunderstorm 24 1001 83 10000 1.5 340 10:41 15.01.2020
751 Thunderstorm 24 1001 83 10000 1.5 340 10:23 15.01.2020
752 Thunderstorm 24 1001 83 10000 3.1 30 09:42 15.01.2020
753 Thunderstorm 24 1001 83 10000 3.1 30 09:22 15.01.2020
754 Thunderstorm 24 1002 83 10000 3.6 20 08:55 15.01.2020
755 Thunderstorm 24 1002 83 10000 3.6 20 08:37 15.01.2020
756 Thunderstorm 24 1002 83 10000 3.6 20 08:19 15.01.2020
757 Rain 25 1003 78 10000 2.1 40 07:43 15.01.2020
758 Rain 25 1003 78 10000 2.1 40 07:24 15.01.2020
759 Clouds 25 1004 78 10000 3.1 30 06:44 15.01.2020
760 Clouds 25 1004 69 10000 2.6 40 05:57 15.01.2020
761 Clouds 25 1004 61 10000 3.6 90 03:56 15.01.2020
762 Clouds 25 1005 69 10000 7.98 39 02:30 15.01.2020
763 Rain 25 1004 65 10000 1.11 128 01:25 15.01.2020
764 Clouds 25 1004 54 10000 1.5 140 00:45 15.01.2020
765 Clouds 27 1004 54 10000 1.5 140 00:26 15.01.2020
766 Clouds 27 1004 58 10000 1.5 340 23:47 14.01.2020
767 Clouds 28 1004 58 10000 1.5 340 23:29 14.01.2020
768 Clouds 29 1004 58 10000 2.1 340 22:59 14.01.2020
769 Clouds 28 1004 58 10000 2.1 340 22:40 14.01.2020
770 Clouds 28 1004 58 10000 2.1 340 22:19 14.01.2020
771 Clouds 27 1005 65 10000 3.1 60 21:58 14.01.2020
772 Clouds 26 1005 65 10000 3.1 60 21:39 14.01.2020
773 Clouds 26 1005 65 10000 3.1 60 21:20 14.01.2020
774 Clouds 26 1005 69 10000 4.1 100 20:57 14.01.2020
775 Clouds 25 1006 62 0 0.89 109 20:39 14.01.2020
776 Clouds 26 1009 78 10000 6.2 210 20:19 14.01.2020
777 Clouds 25 1009 78 10000 6.2 210 19:55 14.01.2020
778 Clouds 26 1009 78 10000 6.2 210 19:37 14.01.2020
779 Clouds 26 1009 78 10000 6.2 210 19:18 14.01.2020
780 Clouds 25 1008 78 0 3.58 266 18:41 14.01.2020
781 Clouds 30 1009 35 10000 9.3 360 18:20 14.01.2020
782 Clouds 31 1009 35 10000 9.3 360 17:59 14.01.2020
783 Clouds 31 1009 35 10000 9.3 360 17:37 14.01.2020
784 Clouds 32 1009 35 10000 9.3 360 17:18 14.01.2020
785 Clouds 32 1009 35 10000 9.3 360 17:18 14.01.2020
786 Clouds 30 1010 37 10000 8.7 20 16:54 14.01.2020
787 Clouds 30 1010 37 10000 8.7 20 16:36 14.01.2020
788 Clouds 30 1010 37 10000 8.7 20 16:18 14.01.2020
789 Clouds 29 1010 42 10000 9.3 360 15:42 14.01.2020
790 Clouds 29 1010 42 10000 9.3 360 15:19 14.01.2020
791 Clouds 26 1010 54 10000 8.2 30 14:46 14.01.2020
792 Clouds 27 1010 54 10000 8.2 30 14:23 14.01.2020
793 Clouds 25 1011 64 10000 8.2 30 13:58 14.01.2020
794 Clouds 25 1011 64 10000 8.2 30 13:39 14.01.2020
795 Clouds 24 1011 64 10000 8.2 30 13:19 14.01.2020
796 Clouds 24 1011 64 10000 8.2 30 13:19 14.01.2020
797 Clouds 22 1011 73 10000 8.2 30 12:42 14.01.2020
798 Clouds 22 1011 73 10000 8.2 30 12:22 14.01.2020
799 Clouds 21 1011 77 10000 9.3 30 11:57 14.01.2020
800 Clouds 21 1011 77 10000 9.3 30 11:38 14.01.2020
801 Clouds 21 1011 77 10000 9.3 30 11:20 14.01.2020
802 Clouds 20 1011 68 10000 6.2 20 10:55 14.01.2020
803 Clouds 20 1011 68 10000 6.2 20 10:36 14.01.2020
804 Clouds 20 1011 68 10000 6.2 20 10:18 14.01.2020
805 Clouds 20 1011 68 10000 6.2 20 10:18 14.01.2020
806 Clouds 20 1011 68 10000 5.7 30 09:42 14.01.2020
807 Clouds 20 1011 68 10000 5.7 30 09:21 14.01.2020
808 Clouds 20 1011 68 10000 5.1 30 08:57 14.01.2020
809 Clouds 20 1011 68 10000 5.1 30 08:39 14.01.2020
810 Clear 20 1011 68 10000 5.1 30 08:20 14.01.2020
811 Clear 20 1012 68 10000 5.1 30 07:38 14.01.2020
812 Clear 20 1014 68 10000 3.6 30 06:59 14.01.2020
813 Clear 20 1014 68 10000 3.6 30 06:40 14.01.2020
814 Clear 20 1013 64 10000 5.1 40 05:35 14.01.2020
815 Clear 21 1014 60 10000 5.1 50 04:23 14.01.2020
816 Clear 21 1014 53 10000 7.2 50 03:43 14.01.2020
817 Clear 22 1014 56 10000 3.6 80 02:26 14.01.2020
818 Clouds 23 1014 60 10000 5.7 100 01:18 14.01.2020
819 Clouds 23 1013 64 10000 7.2 110 00:39 14.01.2020
820 Clouds 23 1013 64 10000 7.2 110 00:21 14.01.2020
821 Clouds 23 1014 64 10000 6.2 110 23:38 13.01.2020
822 Clear 24 1014 64 10000 6.2 110 23:18 13.01.2020
823 Clear 24 1014 61 10000 7.7 120 22:55 13.01.2020
824 Clear 24 1014 61 10000 7.7 120 22:37 13.01.2020
825 Clear 24 1014 61 10000 7.7 120 22:19 13.01.2020
826 Clear 24 1014 57 10000 7.7 130 21:54 13.01.2020
827 Clear 24 1014 57 10000 7.7 130 21:54 13.01.2020
828 Clear 25 1014 57 10000 7.7 130 21:36 13.01.2020
829 Clear 25 1014 57 10000 7.7 130 21:18 13.01.2020
830 Clear 25 1015 54 10000 7.2 120 20:42 13.01.2020
831 Clear 26 1015 54 10000 7.2 120 20:22 13.01.2020
832 Clear 26 1016 54 10000 6.7 120 19:59 13.01.2020
833 Clear 25 1016 54 10000 6.7 120 19:41 13.01.2020
834 Clear 25 1016 54 10000 6.7 120 19:20 13.01.2020
835 Smoke 26 1016 51 2500 6.7 120 18:58 13.01.2020
836 Smoke 26 1016 51 2500 6.7 120 18:58 13.01.2020
837 Smoke 26 1016 51 2500 6.7 120 18:38 13.01.2020
838 Smoke 26 1016 51 2500 6.7 120 18:38 13.01.2020
839 Smoke 26 1016 51 2500 6.7 120 18:19 13.01.2020
840 Clear 26 1017 53 10000 5.1 130 17:57 13.01.2020
841 Clear 26 1017 53 10000 5.1 130 17:38 13.01.2020
842 Clear 26 1017 53 10000 5.1 130 17:20 13.01.2020
843 Clear 25 1017 78 0 4.47 108 16:40 13.01.2020
844 Clear 26 1012 27 0 2.68 89 16:22 13.01.2020
845 Clear 26 1017 76 0 4.47 94 15:56 13.01.2020
846 Clear 26 1013 27 0 1.79 73 15:38 13.01.2020
847 Clear 25 1013 29 0 1.79 88 15:19 13.01.2020
848 Clear 24 1018 77 0 5.81 69 14:42 13.01.2020
849 Clear 24 1018 77 0 5.81 66 14:23 13.01.2020
850 Clear 23 1018 79 0 5.81 72 13:58 13.01.2020
851 Clear 24 1019 46 0 1.79 96 13:39 13.01.2020
852 Clear 22 1019 55 0 1.79 84 13:21 13.01.2020
853 Clear 23 1020 58 0 2.24 65 12:55 13.01.2020
854 Clear 22 1014 58 0 0.89 120 12:36 13.01.2020
855 Clouds 20 1019 72 10000 2.1 50 12:18 13.01.2020
856 Clouds 19 1019 72 10000 2.1 50 11:39 13.01.2020
857 Clouds 18 1019 72 10000 2.1 50 11:20 13.01.2020
858 Clouds 17 1019 77 10000 6.86 84 10:57 13.01.2020
859 Clouds 17 1019 77 10000 6.86 84 10:57 13.01.2020
860 Clouds 16 1019 77 10000 6.86 84 10:39 13.01.2020
861 Clouds 15 1019 77 10000 6.86 84 10:20 13.01.2020
862 Clear 15 1018 72 10000 1.5 50 09:56 13.01.2020
863 Clear 15 1018 72 10000 1.5 50 09:38 13.01.2020
864 Clear 15 1018 72 10000 1.5 50 09:19 13.01.2020
865 Clear 15 1018 72 10000 1.5 50 09:19 13.01.2020
866 Clear 15 1018 72 10000 6.86 84 08:39 13.01.2020
867 Clouds 15 1018 72 10000 6.96 108 08:20 13.01.2020
868 Clear 16 1018 72 10000 7.26 101 07:47 13.01.2020
869 Clear 16 1018 72 10000 7.26 101 07:27 13.01.2020
870 Clear 17 1018 72 10000 1 50 06:42 13.01.2020
871 Clear 17 1018 72 10000 1 50 06:20 13.01.2020
872 Clear 18 1018 56 10000 4.1 130 05:23 13.01.2020
873 Clear 19 1019 56 10000 5.1 130 03:54 13.01.2020
874 Clear 20 1019 56 10000 5.1 130 03:22 13.01.2020
875 Clear 20 1019 60 10000 5.1 130 02:44 13.01.2020
876 Clear 20 1019 60 10000 5.1 130 02:24 13.01.2020
877 Clear 21 1018 52 10000 6.2 130 01:18 13.01.2020
878 Clear 21 1018 52 10000 5.7 140 00:41 13.01.2020
879 Clear 21 1018 52 10000 5.7 140 00:22 13.01.2020
880 Clear 22 1017 49 10000 6.7 120 23:42 12.01.2020
881 Clear 22 1017 49 10000 6.7 120 23:23 12.01.2020
882 Clouds 23 1017 41 10000 7.7 150 22:58 12.01.2020
883 Clouds 23 1017 41 10000 7.7 150 22:58 12.01.2020
884 Clouds 23 1017 41 10000 7.7 150 22:39 12.01.2020
885 Clouds 23 1017 41 10000 7.7 150 22:21 12.01.2020
886 Clouds 24 1017 44 10000 7.2 150 21:56 12.01.2020
887 Clouds 24 1017 44 10000 7.2 150 21:38 12.01.2020
888 Clouds 24 1017 44 10000 7.2 150 21:19 12.01.2020
889 Clouds 24 1017 50 10000 7.7 160 20:56 12.01.2020
890 Clouds 25 1017 50 10000 7.7 160 20:37 12.01.2020
891 Clouds 26 1017 50 10000 7.7 160 20:19 12.01.2020
892 Clouds 26 1017 50 10000 7.7 160 20:19 12.01.2020
893 Clouds 26 1017 44 10000 6.7 150 19:55 12.01.2020
894 Clouds 25 1017 44 10000 6.7 150 19:37 12.01.2020
895 Clouds 26 1017 44 10000 6.7 150 19:18 12.01.2020
896 Clear 26 1017 39 10000 6.2 190 18:57 12.01.2020
897 Clear 26 1017 39 10000 6.2 190 18:38 12.01.2020
898 Clear 26 1017 39 10000 6.2 190 18:20 12.01.2020
899 Clear 26 1017 45 10000 6.2 190 17:42 12.01.2020
900 Clear 26 1017 45 10000 6.2 190 17:23 12.01.2020
901 Clear 26 1017 54 10000 5.1 180 16:59 12.01.2020
902 Clear 26 1017 54 10000 5.1 180 16:39 12.01.2020
903 Clear 26 1017 54 10000 5.1 180 16:20 12.01.2020
904 Clear 26 1017 65 10000 3.1 170 15:57 12.01.2020
905 Clear 26 1017 65 10000 3.1 170 15:38 12.01.2020
906 Clear 26 1017 65 10000 3.1 170 15:20 12.01.2020
907 Clear 25 1017 61 10000 3.1 110 14:43 12.01.2020
908 Clear 25 1017 61 10000 3.1 110 14:43 12.01.2020
909 Clear 25 1017 61 10000 3.1 110 14:24 12.01.2020
910 Clear 25 1016 65 10000 2.1 120 13:57 12.01.2020
911 Clear 25 1016 65 10000 2.1 120 13:57 12.01.2020
912 Clear 25 1016 65 10000 2.1 120 13:39 12.01.2020
913 Clear 26 1016 65 10000 2.1 120 13:20 12.01.2020
914 Clear 24 1016 64 10000 3.1 120 12:57 12.01.2020
915 Clear 24 1016 64 10000 3.1 120 12:38 12.01.2020
916 Clear 24 1016 64 10000 3.1 120 12:19 12.01.2020
917 Clear 22 1016 73 10000 3.1 120 11:42 12.01.2020
918 Clear 22 1016 73 10000 3.1 120 11:22 12.01.2020
919 Clear 23 1015 68 10000 2.6 140 10:59 12.01.2020
920 Clear 21 1015 68 10000 2.6 140 10:40 12.01.2020
921 Clear 21 1015 68 10000 2.6 140 10:21 12.01.2020
922 Clear 20 1014 64 10000 4.79 148 09:44 12.01.2020
923 Clear 21 1014 64 10000 4.79 148 09:24 12.01.2020
924 Clear 21 1013 60 10000 4.79 148 08:57 12.01.2020
925 Clear 21 1013 60 10000 4.79 148 08:38 12.01.2020
926 Clear 19 1013 60 10000 5.92 148 08:19 12.01.2020
927 Clear 19 1013 59 10000 1.5 30 07:38 12.01.2020
928 Clear 20 1013 59 10000 1.5 30 07:19 12.01.2020
929 Clear 18 1013 63 10000 1.5 360 06:42 12.01.2020
930 Clear 18 1013 63 10000 1.5 360 06:18 12.01.2020
931 Clear 19 1013 68 10000 2.6 20 05:21 12.01.2020
932 Clear 20 1013 77 10000 3.53 28 03:45 12.01.2020
933 Clear 20 1012 68 10000 1.5 20 02:59 12.01.2020
934 Clear 22 1012 68 10000 1.5 20 02:30 12.01.2020
935 Clear 23 1011 64 10000 2.1 100 01:42 12.01.2020
936 Clear 23 1011 64 10000 2.1 100 01:21 12.01.2020
937 Clear 25 1011 53 10000 2.1 110 00:40 12.01.2020
938 Clear 26 1011 53 10000 2.1 110 00:19 12.01.2020
939 Clear 27 1011 37 10000 3.1 180 23:42 11.01.2020
940 Clear 27 1011 37 10000 3.1 180 23:19 11.01.2020
941 Clear 28 1010 30 10000 2.1 240 22:57 11.01.2020
942 Clear 28 1010 30 10000 2.1 240 22:39 11.01.2020
943 Clear 28 1010 30 10000 2.1 240 22:20 11.01.2020
944 Clear 28 1011 28 10000 4.1 240 21:55 11.01.2020
945 Clear 29 1011 28 10000 4.1 240 21:37 11.01.2020
946 Clear 29 1011 28 10000 4.1 240 21:18 11.01.2020
947 Clear 29 1011 40 10000 5.7 190 20:40 11.01.2020
948 Clouds 29 1011 40 10000 5.7 190 20:22 11.01.2020
949 Clouds 29 1012 42 10000 4.1 240 19:58 11.01.2020
950 Clouds 29 1012 42 10000 4.1 240 19:38 11.01.2020
951 Clouds 29 1012 42 10000 4.1 240 19:38 11.01.2020
952 Clouds 29 1012 42 10000 4.1 240 19:38 11.01.2020
953 Clouds 29 1012 42 10000 4.1 240 19:20 11.01.2020
954 Clouds 29 1013 40 10000 4.1 240 18:57 11.01.2020
955 Clouds 28 1013 40 10000 4.1 240 18:38 11.01.2020
956 Clouds 29 1013 40 10000 4.1 240 18:19 11.01.2020
957 Clouds 29 1013 35 10000 3.1 210 17:57 11.01.2020
958 Clouds 28 1013 35 10000 3.1 210 17:39 11.01.2020
959 Clouds 28 1013 35 10000 3.1 210 17:19 11.01.2020
960 Clouds 27 1013 37 10000 3.1 350 16:44 11.01.2020
961 Clouds 27 1013 37 10000 3.1 350 16:26 11.01.2020
962 Clouds 26 1013 39 10000 3.1 360 15:58 11.01.2020
963 Clouds 27 1013 39 10000 3.1 360 15:40 11.01.2020
964 Clouds 26 1013 39 10000 3.1 360 15:20 11.01.2020
965 Clouds 26 1013 47 10000 3.68 116 14:56 11.01.2020
966 Clouds 25 1013 47 10000 3.68 116 14:38 11.01.2020
967 Clouds 25 1013 47 10000 3.63 98 14:19 11.01.2020
968 Clouds 24 1013 73 10000 2.1 120 13:39 11.01.2020
969 Clear 24 1013 73 10000 2.1 120 13:20 11.01.2020
970 Clear 22 1013 83 10000 2.1 120 12:57 11.01.2020
971 Clear 22 1013 83 10000 2.1 120 12:38 11.01.2020
972 Clear 22 1013 83 10000 2.1 120 12:20 11.01.2020
973 Clear 21 1013 88 10000 2.6 120 11:46 11.01.2020
974 Clear 21 1013 88 10000 2.6 120 11:25 11.01.2020
975 Mist 21 1012 82 10000 1.5 130 10:50 11.01.2020
976 Mist 20 1012 82 10000 1.5 130 10:30 11.01.2020
977 Clear 19 1011 82 10000 2.6 130 09:55 11.01.2020
978 Clear 19 1011 82 10000 2.6 130 09:37 11.01.2020
979 Clear 18 1011 82 10000 2.6 130 09:18 11.01.2020
980 Clouds 18 1011 88 10000 2.6 150 08:41 11.01.2020
981 Clouds 20 1011 88 10000 2.6 150 08:21 11.01.2020
982 Clouds 19 1011 88 10000 1.5 150 07:43 11.01.2020
983 Clouds 19 1011 88 10000 1.5 150 07:25 11.01.2020
984 Clouds 19 1011 88 10000 8.04 126 06:45 11.01.2020
985 Clear 19 1011 88 8000 8.04 126 05:34 11.01.2020
986 Clear 19 1010 88 8000 3.6 140 04:46 11.01.2020
987 Clear 18 1010 88 8000 3.6 140 04:27 11.01.2020
988 Clear 19 1011 77 10000 3.6 140 02:49 11.01.2020
989 Clouds 22 1010 68 10000 1.5 120 01:57 11.01.2020
990 Clouds 21 1010 68 10000 1.5 120 01:38 11.01.2020
991 Clouds 23 1010 68 10000 1.5 120 01:18 11.01.2020
992 Clouds 24 1010 64 10000 3.1 110 00:32 11.01.2020
993 Clouds 24 1009 47 10000 3.6 150 23:59 10.01.2020
994 Clouds 25 1009 47 10000 3.6 150 23:40 10.01.2020
995 Clouds 24 1009 47 10000 3.6 150 23:21 10.01.2020
996 Clouds 26 1009 57 10000 4.1 180 22:56 10.01.2020
997 Clouds 26 1009 57 10000 4.1 180 22:38 10.01.2020
998 Clouds 26 1009 57 10000 4.1 180 22:19 10.01.2020
999 Clouds 27 1009 42 10000 3.6 190 21:55 10.01.2020
1000 Clouds 27 1009 42 10000 3.6 190 21:36 10.01.2020
1001 Clouds 27 1009 42 10000 3.6 190 21:18 10.01.2020
1002 Clouds 27 1009 48 10000 5.1 180 20:42 10.01.2020
1003 Clouds 27 1009 48 10000 5.1 180 20:24 10.01.2020
1004 Clouds 27 1009 48 10000 5.1 180 20:24 10.01.2020
1005 Clouds 27 1009 58 10000 5.1 210 19:55 10.01.2020
1006 Clouds 27 1009 58 10000 5.1 210 19:37 10.01.2020
1007 Clouds 27 1009 58 10000 5.1 210 19:19 10.01.2020
1008 Clouds 27 1009 54 10000 3.6 190 18:41 10.01.2020
1009 Clouds 27 1009 54 10000 3.6 190 18:19 10.01.2020
1010 Clouds 27 1009 54 10000 3.6 190 18:19 10.01.2020
1011 Clouds 27 1010 51 10000 3.1 210 17:57 10.01.2020
1012 Clouds 27 1010 51 10000 3.1 210 17:39 10.01.2020
1013 Clouds 27 1010 51 10000 3.1 210 17:20 10.01.2020
1014 Clouds 27 1010 54 10000 1 0 16:55 10.01.2020
1015 Clouds 27 1010 54 10000 1 0 16:37 10.01.2020
1016 Clouds 27 1010 54 10000 1 0 16:19 10.01.2020
1017 Clear 26 1009 54 10000 1 0 15:55 10.01.2020
1018 Clear 26 1009 54 10000 1 0 15:36 10.01.2020
1019 Clear 26 1009 54 10000 1 0 15:18 10.01.2020
1020 Clear 25 1010 54 10000 1 0 14:54 10.01.2020
1021 Clear 26 1010 54 10000 1 0 14:36 10.01.2020
1022 Clouds 26 1010 54 10000 1 0 14:18 10.01.2020
1023 Clouds 24 1010 64 10000 3.6 60 13:42 10.01.2020
1024 Clouds 25 1010 64 10000 3.6 60 13:23 10.01.2020
1025 Clouds 23 1011 73 10000 3.6 100 12:58 10.01.2020
1026 Clouds 23 1011 73 10000 3.6 100 12:39 10.01.2020
1027 Clouds 22 1011 73 10000 3.6 100 12:19 10.01.2020
1028 Clouds 21 1011 77 10000 4.1 110 11:55 10.01.2020
1029 Clouds 21 1011 77 10000 4.1 110 11:37 10.01.2020
1030 Clouds 22 1011 77 10000 4.1 110 11:18 10.01.2020
1031 Clouds 22 1011 77 10000 4.1 110 11:18 10.01.2020
1032 Clouds 21 1010 68 10000 4.6 120 10:43 10.01.2020
1033 Clouds 21 1010 68 10000 4.6 120 10:24 10.01.2020
1034 Clouds 20 1010 64 10000 4.6 120 09:59 10.01.2020
1035 Clouds 20 1010 64 10000 4.6 120 09:40 10.01.2020
1036 Clouds 20 1010 64 10000 4.6 120 09:22 10.01.2020
1037 Clouds 20 1009 73 10000 5.7 120 08:43 10.01.2020
1038 Clouds 20 1009 73 10000 5.7 120 08:24 10.01.2020
1039 Clear 20 1010 77 10000 5.7 110 07:46 10.01.2020
1040 Clear 20 1010 77 10000 5.7 110 07:28 10.01.2020
1041 Clear 20 1010 77 10000 4.6 110 06:55 10.01.2020
1042 Clear 21 1010 77 10000 4.6 110 06:27 10.01.2020
1043 Clouds 21 1011 83 10000 4.6 110 05:52 10.01.2020
1044 Clouds 21 1011 78 10000 5.1 120 03:47 10.01.2020
1045 Clouds 21 1011 78 10000 5.1 120 03:28 10.01.2020
1046 Clouds 21 1010 73 10000 5.1 130 02:51 10.01.2020
1047 Clouds 22 1009 73 10000 3.6 130 01:49 10.01.2020
1048 Clouds 22 1009 73 10000 3.6 130 01:28 10.01.2020
1049 Clouds 23 1009 73 10000 2.6 130 00:47 10.01.2020
1050 Clouds 23 1009 73 10000 2.6 130 00:29 10.01.2020
1051 Clouds 24 1008 57 10000 4.1 160 23:39 09.01.2020
1052 Clouds 24 1008 57 10000 4.1 160 23:39 09.01.2020
1053 Clouds 24 1008 57 10000 4.1 160 23:39 09.01.2020
1054 Clouds 24 1008 57 10000 4.1 160 23:39 09.01.2020
1055 Clouds 25 1008 57 10000 4.1 160 23:21 09.01.2020
1056 Clouds 25 1008 69 10000 6.2 160 22:58 09.01.2020
1057 Clouds 25 1008 69 10000 6.2 160 22:39 09.01.2020
1058 Clouds 25 1008 69 10000 6.2 160 22:19 09.01.2020
1059 Clouds 25 1008 69 10000 5.1 170 21:57 09.01.2020
1060 Clouds 25 1008 69 10000 5.1 170 21:57 09.01.2020
1061 Clouds 25 1008 69 10000 5.1 170 21:38 09.01.2020
1062 Clouds 26 1008 69 10000 5.1 170 21:20 09.01.2020
1063 Clouds 26 1008 65 10000 5.1 180 20:58 09.01.2020
1064 Clouds 26 1008 65 10000 5.1 180 20:39 09.01.2020
1065 Clouds 26 1008 65 10000 5.1 180 20:20 09.01.2020
1066 Clouds 26 1008 65 10000 5.1 180 20:20 09.01.2020
1067 Clouds 26 1008 57 10000 6.2 220 19:59 09.01.2020
1068 Clouds 26 1008 57 10000 6.2 220 19:39 09.01.2020
1069 Clouds 27 1008 57 10000 6.2 220 19:20 09.01.2020
1070 Clouds 27 1009 61 10000 3.6 280 18:56 09.01.2020
1071 Clouds 26 1009 61 10000 3.6 280 18:38 09.01.2020
1072 Clouds 27 1009 61 10000 3.6 280 18:20 09.01.2020
1073 Clouds 26 1009 65 10000 4.6 340 17:41 09.01.2020
1074 Clouds 26 1009 65 10000 4.6 340 17:19 09.01.2020
1075 Clouds 24 1009 78 10000 3.1 320 16:58 09.01.2020
1076 Clouds 24 1009 78 10000 3.1 320 16:39 09.01.2020
1077 Clouds 24 1009 78 10000 3.1 320 16:20 09.01.2020
1078 Clouds 24 1008 78 10000 6.2 360 15:43 09.01.2020
1079 Clouds 24 1008 78 10000 6.2 360 15:22 09.01.2020
1080 Clouds 24 1008 73 10000 4.1 20 14:58 09.01.2020
1081 Clouds 24 1008 73 10000 4.1 20 14:40 09.01.2020
1082 Clouds 24 1008 73 10000 4.1 20 14:19 09.01.2020
1083 Clouds 23 1007 78 10000 4.1 30 13:55 09.01.2020
1084 Clouds 23 1007 78 10000 4.1 30 13:37 09.01.2020
1085 Clouds 24 1007 78 10000 4.1 30 13:18 09.01.2020
1086 Clouds 23 1009 78 10000 3.1 20 12:55 09.01.2020
1087 Clouds 23 1009 78 10000 3.1 20 12:37 09.01.2020
1088 Clouds 23 1009 78 10000 3.1 20 12:18 09.01.2020
1089 Clouds 21 1009 73 10000 5.68 329 11:42 09.01.2020
1090 Clouds 21 1008 88 8000 4.1 20 11:24 09.01.2020
1091 Clouds 20 1009 77 10000 8.7 250 10:57 09.01.2020
1092 Clouds 20 1009 77 10000 8.7 250 10:57 09.01.2020
1093 Clouds 20 1009 77 10000 8.7 250 10:39 09.01.2020
1094 Clouds 20 1009 77 10000 8.7 250 10:20 09.01.2020
1095 Rain 19 1007 77 10000 3.1 280 09:41 09.01.2020
1096 Rain 19 1007 77 10000 3.1 280 09:41 09.01.2020
1097 Thunderstorm 20 1007 68 10000 5.7 30 09:23 09.01.2020
1098 Thunderstorm 20 1007 60 10000 3.1 260 08:57 09.01.2020
1099 Thunderstorm 20 1007 60 10000 3.1 260 08:38 09.01.2020
1100 Thunderstorm 21 1005 56 10000 3.6 50 08:20 09.01.2020
1101 Clear 23 1005 49 10000 3.6 50 07:46 09.01.2020
1102 Clear 23 1005 49 10000 3.6 50 07:28 09.01.2020
1103 Clear 23 1006 49 10000 2.6 50 06:40 09.01.2020
1104 Clear 23 1006 49 10000 2.6 50 06:21 09.01.2020
1105 Clear 23 1005 50 10000 4.6 30 05:51 09.01.2020
1106 Clear 23 1005 50 10000 7.2 30 04:54 09.01.2020
1107 Clear 24 1005 50 10000 7.2 30 04:36 09.01.2020
1108 Clear 25 1006 41 10000 5.7 40 03:26 09.01.2020
1109 Clear 26 1006 34 10000 4.1 50 02:33 09.01.2020
1110 Clear 27 1005 34 10000 3.1 30 01:41 09.01.2020
1111 Clear 28 1004 28 10000 4.1 10 00:56 09.01.2020
1112 Clear 28 1004 28 10000 4.1 10 00:36 09.01.2020
1113 Clear 29 1004 28 10000 4.1 10 00:18 09.01.2020
1114 Clear 31 1004 31 10000 8.2 10 23:39 08.01.2020
1115 Clear 31 1004 31 10000 8.2 10 23:20 08.01.2020
1116 Clear 31 1004 29 10000 9.3 20 22:40 08.01.2020
1117 Clear 31 1004 29 10000 9.3 20 22:21 08.01.2020
1118 Clear 31 1005 25 10000 7.7 20 21:58 08.01.2020
1119 Clear 31 1005 25 10000 7.7 20 21:40 08.01.2020
1120 Clear 32 1005 25 10000 7.7 20 21:20 08.01.2020
1121 Clear 33 1006 22 10000 7.7 10 20:59 08.01.2020
1122 Clear 33 1006 22 10000 7.7 10 20:41 08.01.2020
1123 Clear 33 1006 22 10000 7.7 10 20:21 08.01.2020
1124 Clear 32 1007 19 10000 5.1 20 19:58 08.01.2020
1125 Clear 32 1007 19 10000 5.1 20 19:38 08.01.2020
1126 Clear 32 1007 19 10000 5.1 20 19:19 08.01.2020
1127 Clear 32 1008 25 10000 7.7 10 18:58 08.01.2020
1128 Clear 32 1008 25 10000 7.7 10 18:39 08.01.2020
1129 Clear 32 1008 25 10000 7.7 10 18:19 08.01.2020
1130 Clear 31 1009 27 10000 7.2 10 17:56 08.01.2020
1131 Clear 31 1009 27 10000 7.2 10 17:38 08.01.2020
1132 Clear 31 1009 27 10000 7.2 10 17:19 08.01.2020
1133 Clear 30 1009 35 10000 7.2 360 16:55 08.01.2020
1134 Clear 30 1009 35 10000 7.2 360 16:37 08.01.2020
1135 Clear 30 1009 35 10000 7.2 360 16:18 08.01.2020
1136 Clear 29 1010 35 10000 5.1 360 15:44 08.01.2020
1137 Clear 29 1010 35 10000 5.1 360 15:21 08.01.2020
1138 Clear 27 1010 44 10000 6.2 10 14:58 08.01.2020
1139 Clear 27 1010 44 10000 6.2 10 14:58 08.01.2020
1140 Clear 27 1010 44 10000 6.2 10 14:40 08.01.2020
1141 Clear 27 1010 44 10000 6.2 10 14:20 08.01.2020
1142 Clear 27 1010 44 10000 6.2 10 14:20 08.01.2020
1143 Clear 25 1011 53 10000 6.2 10 13:41 08.01.2020
1144 Clear 24 1011 53 10000 6.2 10 13:21 08.01.2020
1145 Clear 21 1011 60 10000 5.1 10 12:54 08.01.2020
1146 Clear 21 1011 60 10000 5.1 10 12:36 08.01.2020
1147 Clear 20 1011 60 10000 5.1 10 12:18 08.01.2020
1148 Clear 18 1010 68 10000 5.1 10 11:47 08.01.2020
1149 Clear 18 1010 68 10000 5.1 10 11:19 08.01.2020
1150 Clear 18 1010 67 10000 1.5 20 10:57 08.01.2020
1151 Clear 18 1010 67 10000 1.5 20 10:57 08.01.2020
1152 Clear 17 1010 67 10000 1.5 20 10:39 08.01.2020
1153 Clear 16 1010 67 10000 1.5 20 10:19 08.01.2020
1154 Clear 16 1009 63 10000 2.6 30 09:42 08.01.2020
1155 Clear 16 1009 63 10000 2.6 30 09:20 08.01.2020
1156 Clear 17 1008 63 10000 3.1 30 08:58 08.01.2020
1157 Clear 17 1008 63 10000 3.1 30 08:38 08.01.2020
1158 Clear 17 1008 63 10000 3.1 30 08:20 08.01.2020
1159 Clear 17 1008 59 10000 3.1 20 07:51 08.01.2020
1160 Clear 17 1008 59 10000 3.1 20 07:33 08.01.2020
1161 Clear 17 1009 55 10000 3.1 30 06:50 08.01.2020
1162 Clear 17 1009 55 10000 3.1 30 06:32 08.01.2020
1163 Clear 18 1008 48 10000 3.6 40 05:54 08.01.2020
1164 Clear 19 1008 48 10000 3.6 40 05:18 08.01.2020
1165 Clear 19 1008 42 10000 2.6 30 04:35 08.01.2020
1166 Clear 22 1008 35 10000 1.5 60 02:45 08.01.2020
1167 Clear 21 1008 35 10000 1.5 60 02:27 08.01.2020
1168 Clear 22 1007 31 10000 2.1 30 01:52 08.01.2020
1169 Clear 25 1007 31 10000 2.1 30 01:26 08.01.2020
1170 Clear 25 1007 25 10000 1.5 360 00:42 08.01.2020
1171 Clear 26 1007 25 10000 1.5 360 00:21 08.01.2020
1172 Clear 26 1007 27 10000 2.1 270 23:44 07.01.2020
1173 Clear 27 1007 27 10000 2.1 270 23:20 07.01.2020
1174 Clear 27 1007 24 10000 3.6 270 22:41 07.01.2020
1175 Clear 27 1007 24 10000 3.6 270 22:21 07.01.2020
1176 Clear 28 1008 20 10000 4.1 270 21:57 07.01.2020
1177 Clear 28 1008 20 10000 4.1 270 21:39 07.01.2020
1178 Clear 28 1008 20 10000 4.1 270 21:21 07.01.2020
1179 Clear 28 1008 20 10000 4.1 270 21:21 07.01.2020
1180 Clear 28 1008 21 10000 4.6 250 20:57 07.01.2020
1181 Clear 28 1008 21 10000 4.6 250 20:38 07.01.2020
1182 Clear 27 1008 21 10000 4.6 250 20:20 07.01.2020
1183 Clear 27 1008 26 10000 5.7 270 19:55 07.01.2020
1184 Clear 27 1008 26 10000 5.7 270 19:36 07.01.2020
1185 Clear 27 1008 26 10000 5.7 270 19:18 07.01.2020
1186 Clear 27 1008 26 10000 5.7 270 19:18 07.01.2020
1187 Clear 27 1009 36 10000 7.7 270 18:55 07.01.2020
1188 Clear 27 1009 36 10000 7.7 270 18:36 07.01.2020
1189 Clear 27 1009 36 10000 7.7 270 18:18 07.01.2020
1190 Clear 26 1009 36 10000 7.7 270 17:40 07.01.2020
1191 Clear 26 1009 36 10000 7.7 270 17:22 07.01.2020
1192 Clouds 26 1009 41 10000 6.7 270 16:57 07.01.2020
1193 Clouds 26 1009 41 10000 6.7 270 16:38 07.01.2020
1194 Clouds 26 1009 41 10000 6.7 270 16:38 07.01.2020
1195 Clouds 26 1009 41 10000 6.7 270 16:38 07.01.2020
1196 Clouds 26 1009 41 10000 6.7 270 16:19 07.01.2020
1197 Clouds 25 1009 27 10000 6.2 260 15:58 07.01.2020
1198 Clouds 25 1009 27 10000 6.2 260 15:40 07.01.2020
1199 Clouds 25 1009 27 10000 6.2 260 15:22 07.01.2020
1200 Clouds 24 1009 44 10000 6.2 270 14:55 07.01.2020
1201 Clouds 25 1009 44 10000 6.2 270 14:37 07.01.2020
1202 Clouds 24 1009 44 10000 6.2 270 14:18 07.01.2020
1203 Clear 24 1009 50 10000 5.1 270 13:40 07.01.2020
1204 Clear 23 1009 50 10000 5.1 270 13:19 07.01.2020
1205 Clear 22 1009 60 10000 2.1 340 12:42 07.01.2020
1206 Clear 22 1009 60 10000 2.1 340 12:42 07.01.2020
1207 Clear 22 1009 60 10000 2.1 340 12:21 07.01.2020
1208 Clear 21 1009 53 10000 1 330 11:58 07.01.2020
1209 Clear 21 1009 53 10000 1 330 11:38 07.01.2020
1210 Clear 21 1009 53 10000 1 330 11:20 07.01.2020
1211 Clear 18 1008 77 10000 7.77 239 10:42 07.01.2020
1212 Clear 18 1008 77 10000 7.77 239 10:42 07.01.2020
1213 Clear 17 1008 77 10000 7.77 239 10:24 07.01.2020
1214 Clouds 17 1008 77 10000 7.77 239 09:59 07.01.2020
1215 Clouds 17 1008 77 10000 7.77 239 09:38 07.01.2020
1216 Clouds 17 1008 77 10000 7.77 239 09:20 07.01.2020
1217 Clouds 18 1007 68 10000 7.77 239 08:46 07.01.2020
1218 Clouds 18 1007 68 10000 7.77 239 08:26 07.01.2020
1219 Clouds 19 1007 63 10000 7.52 240 07:54 07.01.2020
1220 Clouds 19 1007 63 10000 7.52 240 07:29 07.01.2020
1221 Clouds 19 1007 72 10000 1 0 06:54 07.01.2020
1222 Clouds 19 1007 72 10000 1 0 06:54 07.01.2020
1223 Clouds 20 1007 72 10000 1 0 06:35 07.01.2020
1224 Clouds 20 1007 77 10000 1.5 130 05:57 07.01.2020
1225 Clouds 21 1007 77 10000 1.5 130 05:35 07.01.2020
1226 Clouds 22 1005 49 10000 5.7 230 03:29 07.01.2020
1227 Clouds 23 1005 56 10000 2.6 230 02:24 07.01.2020
1228 Clouds 23 1004 56 10000 4.1 220 01:57 07.01.2020
1229 Clouds 23 1004 56 10000 4.1 220 01:32 07.01.2020
1230 Clouds 24 1003 49 10000 3.1 300 00:37 07.01.2020
1231 Clouds 24 1003 49 10000 3.1 300 00:19 07.01.2020
1232 Clouds 25 1002 44 10000 5.7 290 23:55 06.01.2020
1233 Clouds 25 1002 44 10000 5.7 290 23:36 06.01.2020
1234 Clouds 25 1002 44 10000 5.7 290 23:36 06.01.2020
1235 Clouds 25 1002 44 10000 5.7 290 23:18 06.01.2020
1236 Clouds 25 1002 44 10000 7.2 280 22:42 06.01.2020
1237 Clouds 25 1002 44 10000 7.2 280 22:22 06.01.2020
1238 Clouds 25 1002 53 10000 6.2 270 21:57 06.01.2020
1239 Clouds 25 1002 53 10000 6.2 270 21:38 06.01.2020
1240 Clouds 25 1002 53 10000 6.2 270 21:20 06.01.2020
1241 Clouds 25 1002 53 10000 6.2 270 21:20 06.01.2020
1242 Clouds 25 1002 53 10000 6.2 270 21:20 06.01.2020
1243 Clouds 25 1003 60 10000 6.7 280 20:56 06.01.2020
1244 Clouds 25 1003 60 10000 6.7 280 20:38 06.01.2020
1245 Clouds 25 1003 60 10000 6.7 280 20:20 06.01.2020
1246 Clouds 24 1003 60 10000 7.7 270 19:56 06.01.2020
1247 Clouds 24 1003 60 10000 7.7 270 19:38 06.01.2020
1248 Clouds 25 1003 60 10000 7.7 270 19:19 06.01.2020
1249 Clouds 25 1003 60 10000 7.2 270 18:47 06.01.2020
1250 Clouds 25 1003 60 10000 7.2 270 18:47 06.01.2020
1251 Clouds 24 1003 60 10000 7.2 270 18:21 06.01.2020
1252 Clouds 25 1003 57 10000 7.7 270 17:58 06.01.2020
1253 Clouds 24 1003 57 10000 7.7 270 17:38 06.01.2020
1254 Clouds 25 1003 57 10000 7.7 270 17:18 06.01.2020
1255 Clouds 24 1003 53 10000 7.2 270 16:44 06.01.2020
1256 Clouds 24 1003 53 10000 7.2 270 16:25 06.01.2020
1257 Clouds 24 1003 60 10000 6.7 270 15:59 06.01.2020
1258 Clouds 25 1003 60 10000 6.7 270 15:39 06.01.2020
1259 Clouds 24 1003 60 10000 6.7 270 15:19 06.01.2020
1260 Clouds 24 1003 57 10000 6.2 270 14:57 06.01.2020
1261 Rain 25 1003 57 10000 6.2 270 14:39 06.01.2020
1262 Rain 24 1003 57 10000 6.2 270 14:19 06.01.2020
1263 Rain 23 1002 73 10000 1.5 310 13:54 06.01.2020
1264 Clouds 23 1002 73 10000 1.5 310 13:36 06.01.2020
1265 Rain 22 1002 73 10000 1.5 310 13:18 06.01.2020
1266 Rain 21 1002 82 10000 2.6 350 12:41 06.01.2020
1267 Rain 21 1002 82 10000 2.6 350 12:20 06.01.2020
1268 Rain 20 1002 77 10000 1.5 230 11:57 06.01.2020
1269 Rain 20 1002 77 10000 1.5 230 11:38 06.01.2020
1270 Rain 20 1002 77 10000 1.5 230 11:20 06.01.2020
1271 Rain 21 1003 66 0 0.89 209 10:45 06.01.2020
1272 Rain 21 1014 66 0 0.89 228 10:27 06.01.2020
1273 Rain 20 1015 75 0 0.89 238 09:59 06.01.2020
1274 Rain 21 1015 70 0 2.68 237 09:37 06.01.2020
1275 Rain 21 1015 74 0 1.79 255 09:19 06.01.2020
1276 Rain 21 1003 77 0 2.24 256 08:43 06.01.2020
1277 Rain 21 1003 76 0 2.24 222 08:24 06.01.2020
1278 Rain 23 1014 75 0 2.24 7 07:51 06.01.2020
1279 Rain 23 1014 73 0 1.79 9 07:26 06.01.2020
1280 Rain 22 1012 68 0 1.79 13 06:45 06.01.2020
1281 Rain 22 1013 69 0 0.89 64 06:19 06.01.2020
1282 Rain 23 1001 65 0 3.13 19 05:42 06.01.2020
1283 Clouds 24 1001 53 10000 7.2 50 04:33 06.01.2020
1284 Clouds 24 1001 53 10000 7.2 50 03:59 06.01.2020
1285 Clouds 25 1000 60 10000 7.7 60 02:46 06.01.2020
1286 Clouds 24 1000 60 10000 7.7 60 02:23 06.01.2020
1287 Clouds 24 1013 65 0 1.79 70 01:43 06.01.2020
1288 Clouds 24 1001 57 10000 6.2 120 01:21 06.01.2020
1289 Clouds 24 1001 57 10000 6.2 120 00:41 06.01.2020
1290 Clouds 25 1001 57 10000 6.2 120 00:20 06.01.2020
1291 Clouds 25 1001 50 10000 5.1 130 23:41 05.01.2020
1292 Clouds 25 1001 50 10000 5.1 130 23:22 05.01.2020
1293 Clouds 26 1002 57 10000 5.1 130 22:56 05.01.2020
1294 Clouds 26 1002 57 10000 5.1 130 22:37 05.01.2020
1295 Clouds 26 1002 57 10000 5.1 130 22:19 05.01.2020
1296 Clouds 26 1002 57 10000 5.1 130 22:19 05.01.2020
1297 Clouds 27 1003 54 10000 6.7 120 21:54 05.01.2020
1298 Clouds 27 1003 54 10000 6.7 120 21:36 05.01.2020
1299 Clouds 27 1003 54 10000 6.7 120 21:18 05.01.2020
1300 Clouds 27 1003 54 10000 6.7 120 21:18 05.01.2020
1301 Clouds 27 1003 54 10000 6.7 120 20:54 05.01.2020
1302 Clouds 26 1003 54 10000 6.7 120 20:36 05.01.2020
1303 Clouds 26 1003 54 10000 6.7 120 20:36 05.01.2020
1304 Clouds 27 1003 54 10000 6.7 120 20:18 05.01.2020
1305 Clouds 26 1004 58 10000 6.2 160 19:41 05.01.2020
1306 Clouds 26 1004 58 10000 6.2 160 19:21 05.01.2020
1307 Clouds 28 1005 55 10000 5.1 170 18:57 05.01.2020
1308 Clouds 28 1005 55 10000 5.1 170 18:38 05.01.2020
1309 Clouds 28 1005 55 10000 5.1 170 18:20 05.01.2020
1310 Clouds 28 1006 48 10000 3.1 160 17:59 05.01.2020
1311 Clouds 28 1006 48 10000 3.1 160 17:39 05.01.2020
1312 Clouds 28 1006 48 10000 3.1 160 17:20 05.01.2020
1313 Clouds 27 1007 58 10000 2.6 10 16:57 05.01.2020
1314 Clouds 27 1007 58 10000 2.6 10 16:39 05.01.2020
1315 Clouds 27 1007 58 10000 2.6 10 16:20 05.01.2020
1316 Clouds 27 1007 54 10000 2.6 360 15:41 05.01.2020
1317 Clouds 27 1007 54 10000 2.6 360 15:22 05.01.2020
1318 Clouds 26 1007 57 10000 3.6 360 14:58 05.01.2020
1319 Clouds 27 1007 57 10000 3.6 360 14:40 05.01.2020
1320 Clouds 26 1007 57 10000 3.6 360 14:22 05.01.2020
1321 Clouds 25 1008 60 10000 3.6 30 13:59 05.01.2020
1322 Clouds 25 1008 60 10000 3.6 30 13:39 05.01.2020
1323 Clouds 24 1008 60 10000 3.6 30 13:20 05.01.2020
1324 Clouds 23 1012 77 10000 3.6 30 12:57 05.01.2020
1325 Clouds 22 1012 77 10000 3.6 30 12:38 05.01.2020
1326 Clouds 22 1012 77 10000 3.6 30 12:20 05.01.2020
1327 Clouds 20 1011 77 10000 2.1 130 11:55 05.01.2020
1328 Clear 22 1008 77 10000 3.6 20 11:36 05.01.2020
1329 Clear 22 1008 77 10000 3.6 20 11:36 05.01.2020
1330 Clear 20 1008 77 10000 3.6 20 11:18 05.01.2020
1331 Clear 20 1008 77 10000 3.1 30 10:41 05.01.2020
1332 Clear 20 1008 77 10000 3.1 30 10:20 05.01.2020
1333 Clear 20 1008 77 10000 3.1 30 09:57 05.01.2020
1334 Clear 19 1008 77 10000 3.1 30 09:38 05.01.2020
1335 Clear 19 1008 77 10000 3.1 30 09:38 05.01.2020
1336 Clear 19 1008 77 10000 3.1 30 09:20 05.01.2020
1337 Clear 20 1008 77 10000 3.6 30 08:45 05.01.2020
1338 Clear 21 1008 77 10000 3.6 30 08:21 05.01.2020
1339 Clear 21 1008 77 10000 4.1 30 07:47 05.01.2020
1340 Clear 21 1008 77 10000 4.1 30 07:29 05.01.2020
1341 Clear 20 1008 77 10000 2.6 20 06:55 05.01.2020
1342 Clear 20 1008 77 10000 3.6 40 05:43 05.01.2020
1343 Clear 22 1009 73 10000 4.1 50 04:56 05.01.2020
1344 Clear 22 1009 73 10000 4.1 50 04:19 05.01.2020
1345 Clear 22 1010 77 10000 3.1 100 03:40 05.01.2020
1346 Clear 21 1010 77 10000 4.1 120 02:36 05.01.2020
1347 Clear 21 1010 77 10000 4.1 120 02:36 05.01.2020
1348 Clear 21 1010 77 10000 4.1 120 02:18 05.01.2020
1349 Clear 22 1010 73 10000 4.6 120 01:21 05.01.2020
1350 Clear 22 1010 64 10000 6.2 120 00:58 05.01.2020
1351 Clear 22 1010 64 10000 6.2 120 00:39 05.01.2020
1352 Clear 23 1010 64 10000 6.2 120 00:20 05.01.2020
1353 Clear 23 1011 60 10000 5.7 130 23:58 04.01.2020
1354 Clear 23 1011 60 10000 5.7 130 23:38 04.01.2020
1355 Clear 24 1011 60 10000 5.7 130 23:18 04.01.2020
1356 Clouds 24 1011 57 10000 6.2 120 22:39 04.01.2020
1357 Clouds 24 1011 57 10000 6.2 120 22:20 04.01.2020
1358 Clouds 25 1011 57 10000 6.2 130 21:56 04.01.2020
1359 Clouds 25 1011 57 10000 6.2 130 21:37 04.01.2020
1360 Clouds 25 1011 57 10000 6.2 130 21:19 04.01.2020
1361 Clouds 25 1012 47 10000 6.2 150 20:56 04.01.2020
1362 Clouds 25 1012 47 10000 6.2 150 20:37 04.01.2020
1363 Clouds 25 1012 47 10000 6.2 150 20:18 04.01.2020
1364 Clouds 25 1013 57 10000 7.2 120 19:41 04.01.2020
1365 Clouds 25 1013 57 10000 7.2 120 19:23 04.01.2020
1366 Clouds 25 1014 57 10000 6.2 120 18:58 04.01.2020
1367 Clouds 25 1014 57 10000 6.2 120 18:39 04.01.2020
1368 Clouds 25 1014 57 10000 6.2 120 18:20 04.01.2020
1369 Clouds 26 1015 47 10000 2.1 10 17:56 04.01.2020
1370 Clouds 26 1015 47 10000 2.1 10 17:38 04.01.2020
1371 Clouds 25 1015 47 10000 2.1 10 17:20 04.01.2020
1372 Clouds 25 1016 57 10000 4.1 30 16:42 04.01.2020
1373 Clouds 25 1016 57 10000 4.1 30 16:24 04.01.2020
1374 Clouds 25 1017 60 10000 3.6 40 15:57 04.01.2020
1375 Clouds 25 1017 60 10000 3.6 40 15:39 04.01.2020
1376 Clouds 25 1017 60 10000 3.6 40 15:19 04.01.2020
1377 Clouds 24 1018 69 10000 5.1 50 14:56 04.01.2020
1378 Clouds 24 1018 69 10000 5.1 50 14:38 04.01.2020
1379 Clouds 24 1018 69 10000 5.1 50 14:19 04.01.2020
1380 Clouds 24 1018 69 10000 5.1 50 14:19 04.01.2020
1381 Clouds 24 1018 69 10000 5.1 50 14:19 04.01.2020
1382 Clouds 24 1018 69 10000 5.1 50 14:19 04.01.2020
1383 Clouds 23 1018 73 10000 5.1 60 13:55 04.01.2020
1384 Clouds 23 1018 73 10000 5.1 60 13:36 04.01.2020
1385 Clouds 23 1018 73 10000 5.1 60 13:18 04.01.2020
1386 Clear 21 1018 72 10000 5.1 50 12:41 04.01.2020
1387 Clear 20 1018 72 10000 5.1 50 12:20 04.01.2020
1388 Clear 19 1018 77 10000 4.1 60 11:58 04.01.2020
1389 Clear 19 1018 77 10000 4.1 60 11:39 04.01.2020
1390 Clear 18 1018 77 10000 4.1 60 11:19 04.01.2020
1391 Clear 17 1017 87 10000 2.1 110 10:55 04.01.2020
1392 Clear 16 1017 87 10000 2.1 110 10:36 04.01.2020
1393 Clear 16 1017 87 10000 2.1 110 10:18 04.01.2020
1394 Clear 17 1017 82 10000 1.5 40 09:41 04.01.2020
1395 -273 0 0 0 0 0 09:22 04.01.2020
1396 Clear 17 1017 82 10000 1.5 40 08:42 04.01.2020
1397 Clear 17 1017 82 10000 1.5 40 08:21 04.01.2020
1398 Clear 17 1017 77 10000 2.1 50 07:44 04.01.2020
1399 Clear 17 1017 77 10000 2.1 50 07:21 04.01.2020
1400 Clear 18 1017 77 10000 2.6 50 06:33 04.01.2020
1401 Clear 18 1018 77 10000 3.6 60 05:39 04.01.2020
1402 Clear 21 1018 64 10000 3.1 70 04:44 04.01.2020
1403 Clear 21 1018 64 10000 3.1 70 04:25 04.01.2020
1404 Clear 22 1019 60 10000 4.6 80 03:19 04.01.2020
1405 Clouds 22 1018 60 10000 5.7 90 02:23 04.01.2020
1406 Clouds 22 1018 68 10000 7.2 100 01:56 04.01.2020
1407 Clouds 22 1018 68 10000 7.2 100 01:32 04.01.2020
1408 Clouds 23 1018 68 10000 8.7 120 00:46 04.01.2020
1409 Clouds 23 1018 68 10000 8.7 120 00:27 04.01.2020
1410 Clouds 23 1018 57 10000 7.7 110 23:48 03.01.2020
1411 Clouds 23 1018 57 10000 7.7 110 23:26 03.01.2020
1412 Clouds 24 1018 61 10000 7.2 120 22:54 03.01.2020
1413 Clouds 24 1018 61 10000 7.2 120 22:36 03.01.2020
1414 Clouds 24 1018 61 10000 7.2 120 22:18 03.01.2020
1415 Clouds 25 1018 61 10000 7.2 120 21:54 03.01.2020
1416 Clouds 25 1018 61 10000 7.2 120 21:36 03.01.2020
1417 Clouds 25 1018 61 10000 7.2 120 21:18 03.01.2020
1418 Clouds 25 1019 57 10000 7.2 120 20:42 03.01.2020
1419 Clouds 25 1019 57 10000 7.2 120 20:19 03.01.2020
1420 Clouds 25 1020 57 10000 7.2 120 19:58 03.01.2020
1421 Clouds 25 1020 57 10000 7.2 120 19:39 03.01.2020
1422 Clouds 25 1020 57 10000 7.2 120 19:21 03.01.2020
1423 Clouds 25 1020 61 10000 6.2 110 18:44 03.01.2020
1424 Clouds 24 1020 61 10000 6.2 110 18:26 03.01.2020
1425 Clear 24 1021 69 10000 6.2 130 17:57 03.01.2020
1426 Clear 24 1021 69 10000 6.2 130 17:38 03.01.2020
1427 Clear 25 1021 69 10000 6.2 130 17:19 03.01.2020
1428 Clouds 24 1022 61 10000 4.1 110 16:43 03.01.2020
1429 Clouds 25 1022 61 10000 4.1 110 16:24 03.01.2020
1430 Clouds 24 1022 61 10000 4.1 120 15:58 03.01.2020
1431 Clouds 24 1022 61 10000 4.1 120 15:40 03.01.2020
1432 Clouds 24 1022 61 10000 4.1 120 15:18 03.01.2020
1433 Clouds 24 1022 64 10000 4.1 90 14:39 03.01.2020
1434 Clouds 24 1022 64 10000 4.1 90 14:20 03.01.2020
1435 Clouds 23 1022 73 10000 4.1 100 13:56 03.01.2020
1436 Clouds 23 1022 73 10000 4.1 100 13:37 03.01.2020
1437 Clouds 23 1022 73 10000 4.1 100 13:19 03.01.2020
1438 Clouds 22 1023 83 10000 5.1 100 12:39 03.01.2020
1439 Clouds 21 1023 83 10000 5.1 100 12:21 03.01.2020
1440 Clouds 20 1022 88 10000 3.1 110 11:49 03.01.2020
1441 Clouds 20 1022 88 10000 3.1 110 11:30 03.01.2020
1442 Clouds 18 1021 82 10000 3.1 110 10:47 03.01.2020
1443 Clouds 18 1021 82 10000 3.1 110 10:28 03.01.2020
1444 Clouds 17 1021 82 10000 4.6 100 09:59 03.01.2020
1445 Clouds 17 1021 82 10000 4.6 100 09:41 03.01.2020
1446 Clouds 16 1021 82 10000 4.6 100 09:22 03.01.2020
1447 Clouds 17 1020 82 10000 4.1 100 08:57 03.01.2020
1448 Clouds 17 1020 82 10000 4.1 100 08:39 03.01.2020
1449 Clouds 17 1020 82 10000 4.1 100 08:20 03.01.2020
1450 Clouds 17 1020 82 10000 4.1 110 07:41 03.01.2020
1451 Clouds 17 1020 82 10000 4.1 110 07:19 03.01.2020
1452 Clouds 18 1020 82 10000 5.1 120 06:54 03.01.2020
1453 Clouds 18 1020 82 10000 5.1 120 06:35 03.01.2020
1454 Clouds 18 1020 72 10000 5.7 100 05:47 03.01.2020
1455 Clouds 19 1020 72 10000 7.2 110 04:31 03.01.2020
1456 Clouds 19 1020 72 10000 6.7 100 03:18 03.01.2020
1457 Clouds 19 1020 72 10000 8.2 100 02:45 03.01.2020
1458 Clouds 20 1020 77 10000 7.7 110 01:47 03.01.2020
1459 Clouds 21 1019 73 10000 10.3 120 00:56 03.01.2020
1460 Clouds 22 1019 73 10000 10.3 120 00:32 03.01.2020
1461 Clouds 22 1019 73 10000 7.2 110 23:58 02.01.2020
1462 Clouds 22 1019 73 10000 7.2 110 23:39 02.01.2020
1463 Clouds 22 1019 73 10000 7.2 110 23:19 02.01.2020
1464 Clouds 22 1018 69 10000 8.2 120 22:58 02.01.2020
1465 Clouds 22 1018 69 10000 8.2 120 22:39 02.01.2020
1466 Clouds 23 1018 69 10000 8.2 120 22:19 02.01.2020
1467 Clouds 23 1018 73 10000 8.2 110 21:54 02.01.2020
1468 Clouds 23 1018 73 10000 8.2 110 21:36 02.01.2020
1469 Clouds 23 1018 73 10000 8.2 110 21:36 02.01.2020
1470 Clouds 23 1018 73 10000 8.2 110 21:18 02.01.2020
1471 Clouds 24 1018 69 10000 7.7 120 20:40 02.01.2020
1472 Clouds 24 1018 69 10000 7.7 120 20:21 02.01.2020
1473 Clouds 24 1019 64 10000 7.7 130 19:56 02.01.2020
1474 Clouds 24 1019 64 10000 7.7 130 19:56 02.01.2020
1475 Clouds 24 1019 64 10000 7.7 130 19:38 02.01.2020
1476 Clouds 24 1019 64 10000 7.7 130 19:19 02.01.2020
1477 Clouds 24 1019 64 10000 8.2 120 18:59 02.01.2020
1478 Clouds 24 1019 64 10000 8.2 120 18:40 02.01.2020
1479 Clouds 24 1019 64 10000 8.2 120 18:22 02.01.2020
1480 Clouds 24 1019 64 10000 8.2 120 18:22 02.01.2020
1481 Clouds 24 1019 64 10000 6.7 110 17:57 02.01.2020
1482 Clouds 24 1019 64 10000 6.7 110 17:37 02.01.2020
1483 Clouds 24 1019 64 10000 6.7 110 17:19 02.01.2020
1484 Clouds 23 1019 69 10000 7.2 120 16:57 02.01.2020
1485 Clouds 23 1019 69 10000 7.2 120 16:38 02.01.2020
1486 Clouds 23 1019 69 10000 7.2 120 16:38 02.01.2020
1487 Clouds 23 1019 69 10000 7.2 120 16:20 02.01.2020
1488 Clouds 23 1019 69 10000 6.2 120 15:56 02.01.2020
1489 Clouds 23 1019 69 10000 6.2 120 15:37 02.01.2020
1490 Clouds 23 1019 73 10000 6.7 120 15:19 02.01.2020
1491 Clouds 23 1019 73 10000 6.7 120 14:54 02.01.2020
1492 Clouds 22 1019 73 10000 6.7 120 14:36 02.01.2020
1493 Clouds 22 1019 73 10000 6.7 120 14:18 02.01.2020
1494 Clouds 22 1019 77 10000 6.7 110 13:47 02.01.2020
1495 Clouds 22 1019 77 10000 6.7 110 13:29 02.01.2020
1496 Clouds 22 1018 77 10000 6.2 120 12:44 02.01.2020
1497 Clouds 21 1017 82 10000 4.6 120 12:24 02.01.2020
1498 Clouds 20 1017 82 10000 4.6 120 11:43 02.01.2020
1499 Clouds 20 1017 82 10000 4.6 120 11:25 02.01.2020
1500 Clouds 20 1017 77 10000 6.7 130 10:57 02.01.2020
1501 Clouds 20 1017 77 10000 6.7 130 10:38 02.01.2020
1502 Clouds 19 1017 77 10000 6.7 130 10:19 02.01.2020
1503 Clouds 19 1016 82 10000 5.1 130 09:41 02.01.2020
1504 Clouds 19 1016 82 10000 5.1 130 09:22 02.01.2020
1505 Clouds 19 1016 82 10000 5.1 130 08:44 02.01.2020
1506 Clouds 19 1016 82 10000 5.1 130 08:25 02.01.2020
1507 Clouds 19 1015 77 10000 6.2 140 07:49 02.01.2020
1508 Clouds 19 1015 77 10000 6.2 140 07:30 02.01.2020
1509 Clouds 19 1015 77 10000 6.2 130 06:44 02.01.2020
1510 Clouds 19 1015 77 10000 6.2 130 06:26 02.01.2020
1511 Clouds 20 1015 82 10000 5.1 130 04:41 02.01.2020
1512 Clouds 20 1015 82 10000 5.1 130 04:21 02.01.2020
1513 Clouds 21 1016 77 10000 5.1 140 02:28 02.01.2020
1514 Clouds 20 1015 82 10000 6.2 160 01:58 02.01.2020
1515 Clouds 20 1015 82 10000 6.2 160 01:32 02.01.2020
1516 Clouds 21 1014 82 10000 6.7 170 00:53 02.01.2020
1517 Clouds 21 1014 82 10000 6.7 170 00:33 02.01.2020
1518 Rain 21 1014 88 10000 6.7 160 23:49 01.01.2020
1519 Rain 21 1014 88 10000 6.7 160 23:26 01.01.2020
1520 Rain 21 1014 77 8000 6.2 160 22:56 01.01.2020
1521 Rain 21 1014 77 8000 6.2 160 22:37 01.01.2020
1522 Rain 22 1014 83 10000 5.7 150 22:19 01.01.2020
1523 Clouds 22 1013 73 10000 6.7 150 21:55 01.01.2020
1524 Clouds 22 1013 73 10000 6.7 150 21:37 01.01.2020
1525 Clouds 22 1013 73 10000 6.7 150 21:18 01.01.2020
1526 Clouds 22 1014 78 10000 7.7 160 20:42 01.01.2020
1527 Clouds 22 1014 78 10000 7.7 160 20:22 01.01.2020
1528 Clouds 23 1014 73 10000 5.7 150 19:58 01.01.2020
1529 Clouds 23 1014 73 10000 5.7 150 19:40 01.01.2020
1530 Clouds 23 1014 73 10000 5.7 150 19:21 01.01.2020
1531 Clouds 23 1014 69 10000 8.2 170 18:59 01.01.2020
1532 Clouds 23 1014 69 10000 8.2 170 18:39 01.01.2020
1533 Clouds 23 1014 69 10000 8.2 170 18:20 01.01.2020
1534 Clouds 23 1013 69 10000 7.2 150 17:59 01.01.2020
1535 Clouds 23 1013 69 10000 7.2 150 17:40 01.01.2020
1536 Clouds 23 1013 69 10000 7.2 150 17:20 01.01.2020
1537 Clouds 23 1014 64 10000 6.2 140 16:59 01.01.2020
1538 Clouds 23 1014 64 10000 6.2 140 16:59 01.01.2020
1539 Clouds 24 1014 64 10000 6.2 140 16:38 01.01.2020
1540 Clouds 23 1014 64 10000 6.2 140 16:20 01.01.2020
1541 Clouds 23 1013 73 10000 7.7 150 15:57 01.01.2020
1542 Clouds 23 1013 73 10000 7.7 150 15:38 01.01.2020
1543 Clouds 23 1013 73 10000 7.7 150 15:20 01.01.2020
1544 Clouds 22 1013 73 10000 7.2 160 14:56 01.01.2020
1545 Clouds 22 1013 73 10000 7.2 160 14:38 01.01.2020
1546 Clouds 22 1013 73 10000 7.2 160 14:19 01.01.2020
1547 Clouds 22 1012 73 10000 7.2 140 13:55 01.01.2020
1548 Clouds 22 1012 73 10000 7.2 140 13:55 01.01.2020
1549 Clouds 22 1012 73 10000 7.2 140 13:37 01.01.2020
1550 Clouds 22 1012 73 10000 7.2 140 13:18 01.01.2020
1551 Clouds 22 1012 83 10000 7.7 150 12:55 01.01.2020
1552 Clouds 22 1012 83 10000 7.7 150 12:36 01.01.2020
1553 Clouds 22 1012 83 10000 7.7 150 12:18 01.01.2020
1554 Clouds 21 1011 88 10000 5.1 150 11:42 01.01.2020
1555 Clouds 21 1011 88 10000 5.1 150 11:21 01.01.2020
1556 Clouds 21 1011 77 10000 6.7 170 10:57 01.01.2020
1557 Clouds 21 1011 77 10000 6.7 170 10:38 01.01.2020
1558 Clouds 20 1011 77 10000 6.7 170 10:19 01.01.2020
1559 Clouds 21 1010 88 10000 6.2 170 09:42 01.01.2020
1560 Clouds 21 1010 88 10000 6.2 170 09:22 01.01.2020
1561 Clouds 21 1009 88 10000 7.7 150 08:57 01.01.2020
1562 Clouds 21 1009 88 10000 7.7 150 08:39 01.01.2020
1563 Clouds 21 1009 88 10000 7.7 150 08:20 01.01.2020
1564 Clouds 21 1009 88 10000 6.7 150 07:58 01.01.2020
1565 Clouds 21 1009 88 10000 6.7 150 07:40 01.01.2020
1566 Clouds 21 1009 88 10000 6.7 150 07:20 01.01.2020
1567 Clouds 21 1009 94 10000 6.2 150 06:40 01.01.2020
1568 Clouds 21 1009 94 10000 6.2 150 06:18 01.01.2020
1569 Clouds 21 1009 88 10000 7.2 140 04:36 01.01.2020
1570 Clouds 21 1008 94 10000 6.2 150 03:40 01.01.2020
1571 Clouds 21 1008 94 10000 6.2 150 03:21 01.01.2020
1572 Clouds 21 1008 94 10000 7.7 150 02:43 01.01.2020
1573 Clouds 21 1008 94 10000 7.7 150 02:24 01.01.2020
1574 Clouds 21 1008 94 10000 6.7 150 01:45 01.01.2020
1575 Clouds 21 1008 94 10000 6.7 150 01:23 01.01.2020
1576 Clouds 21 1007 94 10000 6.2 160 00:45 01.01.2020
1577 Drizzle 22 1007 88 2000 7.7 170 00:26 01.01.2020
1578 Drizzle 22 1007 88 3000 7.7 160 23:58 31.12.2019
1579 Drizzle 22 1006 88 3000 7.7 160 23:38 31.12.2019
1580 Drizzle 22 1006 88 3000 7.7 160 23:18 31.12.2019
1581 Mist 22 1005 88 5000 6.7 160 22:56 31.12.2019
1582 Mist 22 1005 88 5000 6.7 160 22:37 31.12.2019
1583 Mist 22 1005 88 5000 6.7 160 22:18 31.12.2019
1584 Clouds 23 1004 83 10000 7.7 170 21:43 31.12.2019
1585 Clouds 24 1004 83 10000 7.7 170 21:25 31.12.2019
1586 Clouds 24 1004 83 10000 6.7 160 20:57 31.12.2019
1587 Clouds 25 1004 83 10000 6.7 160 20:39 31.12.2019
1588 Clouds 25 1004 83 10000 6.7 160 20:21 31.12.2019
1589 Clouds 25 1004 88 10000 5.1 220 19:58 31.12.2019
1590 Clouds 25 1004 88 10000 5.1 220 19:40 31.12.2019
1591 Clouds 25 1004 88 10000 5.1 220 19:22 31.12.2019
1592 Clouds 26 1004 74 10000 3.1 300 18:57 31.12.2019
1593 Clouds 26 1004 74 10000 3.1 300 18:38 31.12.2019
1594 Clouds 26 1004 74 10000 3.1 300 18:38 31.12.2019
1595 Clouds 27 1004 74 10000 3.1 300 18:19 31.12.2019
1596 Clouds 26 1004 88 8000 4.1 350 17:56 31.12.2019
1597 Clouds 25 1004 88 8000 4.1 350 17:56 31.12.2019
1598 Clouds 26 1004 88 8000 4.1 350 17:36 31.12.2019
1599 Clouds 26 1004 88 8000 4.1 350 17:18 31.12.2019
1600 Clouds 26 1004 88 8000 4.1 350 17:18 31.12.2019
1601 Clouds 26 1004 83 5000 4.1 10 16:56 31.12.2019
1602 Drizzle 25 1004 88 6000 4.1 330 16:37 31.12.2019
1603 Drizzle 25 1004 88 6000 4.1 330 16:18 31.12.2019
1604 Clouds 25 1004 94 10000 4.6 10 15:56 31.12.2019
1605 Clouds 25 1004 94 10000 4.6 10 15:38 31.12.2019
1606 Drizzle 25 1005 88 2000 5.1 360 15:19 31.12.2019
1607 Drizzle 24 1005 94 2000 5.1 20 14:55 31.12.2019
1608 Rain 23 1005 94 5000 5.1 20 14:37 31.12.2019
1609 Rain 23 1005 94 5000 5.1 20 14:18 31.12.2019
1610 Drizzle 23 1005 94 3000 4.6 40 13:56 31.12.2019
1611 Rain 23 1005 94 3000 6.2 40 13:38 31.12.2019
1612 Rain 23 1005 94 3000 6.2 40 13:19 31.12.2019
1613 Rain 22 1006 94 3000 2.1 60 12:55 31.12.2019
1614 Rain 22 1006 94 3000 2.1 60 12:37 31.12.2019
1615 Rain 22 1006 94 3000 2.1 60 12:18 31.12.2019
1616 Rain 22 1006 94 3000 4.6 330 11:55 31.12.2019
1617 Rain 22 1006 94 3000 4.6 330 11:37 31.12.2019
1618 Rain 22 1006 94 3000 4.6 330 11:19 31.12.2019
1619 Rain 22 1006 94 3000 4.6 330 11:19 31.12.2019
1620 Rain 22 1005 100 4000 1 0 10:56 31.12.2019
1621 Rain 22 1005 100 4000 1 0 10:37 31.12.2019
1622 Rain 22 1005 100 4000 1 0 10:19 31.12.2019
1623 Rain 22 1005 100 5000 1.5 100 09:57 31.12.2019
1624 Rain 22 1005 100 5000 1.5 100 09:57 31.12.2019
1625 Rain 22 1005 100 5000 1.5 100 09:38 31.12.2019
1626 Rain 22 1005 100 5000 1.5 100 09:19 31.12.2019
1627 Rain 22 1005 94 5000 2.1 60 08:42 31.12.2019
1628 Rain 22 1005 94 5000 2.1 60 08:23 31.12.2019
1629 Rain 22 1006 88 7000 3.1 50 07:58 31.12.2019
1630 Rain 22 1006 88 7000 3.1 50 07:40 31.12.2019
1631 Rain 22 1006 88 7000 3.1 50 07:19 31.12.2019
1632 Rain 22 1007 88 5000 3.1 50 06:41 31.12.2019
1633 Clouds 23 1007 88 10000 4.6 60 05:45 31.12.2019
1634 Clouds 23 1008 94 10000 2.1 80 04:27 31.12.2019
1635 Clouds 23 1008 94 10000 4.1 60 03:27 31.12.2019
1636 Rain 22 1008 94 10000 3.6 80 02:39 31.12.2019
1637 Clouds 22 1008 94 10000 5.1 110 01:53 31.12.2019
1638 Clouds 22 1008 94 10000 5.1 110 01:34 31.12.2019
1639 Rain 22 1007 100 5000 2.6 140 00:56 31.12.2019
1640 Rain 22 1007 100 5000 2.6 140 00:37 31.12.2019
1641 Rain 22 1007 100 5000 2.6 140 00:18 31.12.2019
1642 Rain 22 1008 100 6000 4.6 130 23:55 30.12.2019
1643 Rain 22 1008 100 6000 4.6 130 23:37 30.12.2019
1644 Rain 22 1008 100 6000 4.6 130 23:18 30.12.2019
1645 Rain 23 1008 100 3000 3.6 150 22:56 30.12.2019
1646 Rain 23 1008 100 3000 3.6 150 22:37 30.12.2019
1647 Rain 23 1008 100 3000 3.6 150 22:18 30.12.2019
1648 Thunderstorm 23 1010 78 3000 3.1 260 21:55 30.12.2019
1649 Thunderstorm 23 1010 78 3000 3.1 260 21:37 30.12.2019
1650 Thunderstorm 23 1010 78 3000 3.1 260 21:18 30.12.2019
1651 Thunderstorm 23 1008 78 10000 6.2 130 20:56 30.12.2019
1652 Thunderstorm 24 1008 78 10000 6.2 130 20:37 30.12.2019
1653 Thunderstorm 25 1008 78 10000 6.2 130 20:19 30.12.2019
1654 Thunderstorm 25 1009 78 10000 7.97 120 19:55 30.12.2019
1655 Thunderstorm 25 1008 69 10000 6.2 120 19:37 30.12.2019
1656 Thunderstorm 26 1008 69 10000 6.2 120 19:18 30.12.2019
1657 Clouds 26 1009 69 10000 6.2 110 18:56 30.12.2019
1658 Clouds 27 1009 69 10000 6.2 110 18:36 30.12.2019
1659 Clouds 27 1009 69 10000 6.2 110 18:18 30.12.2019
1660 Clouds 27 1010 62 10000 6.2 120 17:54 30.12.2019
1661 Clouds 27 1010 62 10000 6.2 120 17:36 30.12.2019
1662 Clouds 27 1010 62 10000 6.2 120 17:18 30.12.2019
1663 Clouds 27 1010 62 10000 4.6 100 16:41 30.12.2019
1664 Clouds 27 1010 62 10000 4.6 100 16:20 30.12.2019
1665 Clear 27 1011 62 10000 4.6 100 15:57 30.12.2019
1666 Clear 27 1011 62 10000 4.6 100 15:39 30.12.2019
1667 Clear 27 1011 62 10000 4.6 100 15:19 30.12.2019
1668 Clear 27 1011 62 10000 4.6 100 15:19 30.12.2019
1669 Clear 26 1011 69 10000 5.1 110 14:55 30.12.2019
1670 Clear 26 1011 69 10000 5.1 110 14:37 30.12.2019
1671 Clear 26 1011 69 10000 5.1 110 14:37 30.12.2019
1672 Clouds 26 1011 69 10000 5.1 110 14:18 30.12.2019
1673 Clouds 25 1012 73 10000 5.7 110 13:42 30.12.2019
1674 Clouds 25 1012 73 10000 5.7 110 13:24 30.12.2019
1675 Clouds 24 1012 78 10000 5.1 100 12:59 30.12.2019
1676 Clouds 24 1012 78 10000 5.1 100 12:41 30.12.2019
1677 Clouds 24 1012 78 10000 5.1 100 12:19 30.12.2019
1678 Clouds 24 1010 83 10000 5.1 110 11:58 30.12.2019
1679 Clouds 23 1010 83 10000 5.1 110 11:39 30.12.2019
1680 Clouds 24 1010 83 10000 5.1 110 11:18 30.12.2019
1681 Clouds 23 1012 88 10000 5.1 120 10:43 30.12.2019
1682 Clouds 22 1012 88 10000 5.1 120 10:21 30.12.2019
1683 Clouds 22 1011 88 10000 4.1 120 09:55 30.12.2019
1684 Clouds 22 1011 88 10000 4.1 120 09:37 30.12.2019
1685 Clouds 22 1011 88 10000 4.1 120 09:18 30.12.2019
1686 Clouds 22 1011 88 10000 4.6 110 08:46 30.12.2019
1687 Clouds 22 1011 88 10000 4.6 110 08:23 30.12.2019
1688 Clouds 22 1011 88 10000 4.6 120 07:53 30.12.2019
1689 Clouds 22 1011 88 10000 4.6 120 07:33 30.12.2019
1690 Clouds 22 1012 78 10000 3.1 130 06:50 30.12.2019
1691 Clouds 24 1012 69 10000 2.6 90 04:50 30.12.2019
1692 Clouds 24 1013 73 10000 4.1 110 03:52 30.12.2019
1693 Clouds 24 1012 73 10000 5.1 120 02:47 30.12.2019
1694 Clouds 24 1012 73 10000 5.1 120 02:47 30.12.2019
1695 Clouds 24 1012 73 10000 5.1 120 02:29 30.12.2019
1696 Clouds 25 1012 73 10000 5.1 130 01:47 30.12.2019
1697 Clouds 25 1012 73 10000 5.1 130 01:19 30.12.2019
1698 Clouds 25 1011 78 10000 3.1 150 00:42 30.12.2019
1699 Clouds 25 1011 69 10000 6.7 120 23:59 29.12.2019
1700 Clouds 26 1011 69 10000 6.7 120 23:38 29.12.2019
1701 Clouds 26 1011 69 10000 6.7 120 23:20 29.12.2019
1702 Clouds 27 1011 62 10000 5.7 110 22:42 29.12.2019
1703 Clouds 27 1011 62 10000 5.7 110 22:22 29.12.2019
1704 -273 0 0 0 0 0 22:22 29.12.2019
1705 Clouds 28 1011 48 10000 5.1 130 21:57 29.12.2019
1706 Clouds 28 1011 48 10000 5.1 130 21:39 29.12.2019
1707 Clouds 27 1011 48 10000 5.1 130 21:20 29.12.2019
1708 Clouds 29 1012 43 10000 4.6 150 20:57 29.12.2019
1709 Clouds 28 1012 43 10000 4.6 150 20:38 29.12.2019
1710 Clouds 29 1012 43 10000 4.6 150 20:20 29.12.2019
1711 Clouds 29 1012 46 10000 4.6 160 19:58 29.12.2019
1712 Clouds 29 1012 46 10000 4.6 160 19:39 29.12.2019
1713 Clouds 29 1012 46 10000 4.6 160 19:20 29.12.2019
1714 Clouds 29 1012 41 10000 2.6 140 18:56 29.12.2019
1715 Clouds 29 1012 41 10000 2.6 140 18:38 29.12.2019
1716 Clouds 29 1012 41 10000 2.6 140 18:19 29.12.2019
1717 Clouds 29 1013 46 10000 2.6 150 17:57 29.12.2019
1718 Clouds 29 1013 46 10000 2.6 150 17:38 29.12.2019
1719 Clouds 29 1013 46 10000 2.6 150 17:20 29.12.2019
1720 Clouds 28 1013 52 10000 2.6 110 16:56 29.12.2019
1721 Clouds 28 1013 52 10000 2.6 110 16:37 29.12.2019
1722 Clouds 28 1013 52 10000 2.6 110 16:19 29.12.2019
1723 Clouds 28 1013 55 10000 2.6 60 15:56 29.12.2019
1724 Clouds 27 1013 55 10000 2.6 60 15:38 29.12.2019
1725 Clouds 27 1013 55 10000 2.6 60 15:19 29.12.2019
1726 Clouds 27 1013 62 10000 3.6 100 14:55 29.12.2019
1727 Clouds 27 1013 62 10000 3.6 100 14:37 29.12.2019
1728 Clouds 27 1013 62 10000 3.6 100 14:18 29.12.2019
1729 Clouds 26 1013 61 10000 4.6 100 13:55 29.12.2019
1730 Clouds 26 1013 61 10000 4.6 100 13:55 29.12.2019
1731 Clouds 26 1013 61 10000 4.6 100 13:37 29.12.2019
1732 Clouds 26 1013 61 10000 4.6 100 13:18 29.12.2019
1733 Clouds 26 1013 61 10000 4.6 100 13:18 29.12.2019
1734 Clouds 26 1013 69 10000 3.6 110 12:43 29.12.2019
1735 Clouds 26 1013 69 10000 3.6 110 12:25 29.12.2019
1736 Clouds 26 1013 69 10000 3.6 110 12:25 29.12.2019
1737 Clouds 25 1012 78 10000 3.1 100 11:56 29.12.2019
1738 Clouds 25 1012 78 10000 3.1 100 11:38 29.12.2019
1739 Clear 24 1012 78 10000 3.1 100 11:20 29.12.2019
1740 Clear 24 1012 88 10000 2.1 130 10:42 29.12.2019
1741 Clear 23 1012 88 10000 2.1 130 10:23 29.12.2019
1742 Clear 22 1011 88 10000 2.1 140 09:57 29.12.2019
1743 Clear 22 1011 88 10000 2.1 140 09:38 29.12.2019
1744 Clear 22 1011 88 10000 2.1 140 09:20 29.12.2019
1745 Clear 22 1011 83 10000 2.1 150 08:47 29.12.2019
1746 Clouds 22 1011 83 10000 2.1 150 08:24 29.12.2019
1747 Clouds 22 1011 78 10000 0.5 0 07:55 29.12.2019
1748 Clouds 22 1011 78 10000 0.5 0 07:28 29.12.2019
1749 Clouds 22 1012 78 10000 1.5 140 06:55 29.12.2019
1750 Clouds 22 1012 78 10000 1.5 140 06:25 29.12.2019
1751 Clouds 22 1012 69 10000 2.6 30 05:51 29.12.2019
1752 Clouds 22 1012 88 10000 0.5 0 04:36 29.12.2019
1753 Clouds 23 1012 69 10000 3.24 76 03:51 29.12.2019
1754 Clouds 23 1012 69 10000 3.24 76 03:20 29.12.2019
1755 Clouds 24 1012 78 10000 3.66 145 02:20 29.12.2019
1756 Clouds 24 1012 78 10000 1.5 40 01:31 29.12.2019
1757 Clouds 24 1012 78 10000 1.5 40 01:31 29.12.2019
1758 Clouds 25 1012 73 10000 1.5 60 00:58 29.12.2019
1759 Clouds 25 1012 73 10000 1.5 60 00:40 29.12.2019
1760 Clouds 26 1012 73 10000 1.5 60 00:21 29.12.2019
1761 Clouds 26 1011 58 10000 3.1 120 23:43 28.12.2019
1762 Clouds 27 1011 58 10000 3.1 120 23:18 28.12.2019
1763 Clouds 30 1010 35 10000 3.6 130 22:39 28.12.2019
1764 Clouds 30 1010 35 10000 3.6 130 22:39 28.12.2019
1765 Clouds 30 1010 35 10000 3.6 130 22:20 28.12.2019
1766 Clouds 28 1010 58 10000 3.1 210 21:58 28.12.2019
1767 Clouds 28 1010 58 10000 3.1 210 21:39 28.12.2019
1768 Clouds 28 1010 58 10000 3.1 210 21:21 28.12.2019
1769 Clouds 28 1010 58 10000 3.1 360 20:57 28.12.2019
1770 Clouds 28 1010 58 10000 3.1 360 20:37 28.12.2019
1771 Clouds 28 1010 58 10000 3.1 360 20:37 28.12.2019
1772 Rain 28 1010 58 10000 3.1 360 20:19 28.12.2019
1773 Rain 28 1011 66 10000 5.1 30 19:57 28.12.2019
1774 Rain 28 1011 66 10000 5.1 30 19:39 28.12.2019
1775 Rain 28 1011 66 10000 5.1 30 19:20 28.12.2019
1776 Rain 27 1012 78 10000 6.2 80 18:57 28.12.2019
1777 Rain 27 1012 78 10000 6.2 80 18:39 28.12.2019
1778 Rain 26 1012 78 10000 6.2 80 18:18 28.12.2019
1779 Clouds 24 1014 88 10000 6.2 120 17:54 28.12.2019
1780 Clouds 25 1014 88 10000 6.2 120 17:36 28.12.2019
1781 Clouds 24 1014 88 10000 6.2 120 17:18 28.12.2019
1782 Thunderstorm 22 1014 94 8000 4.98 161 16:45 28.12.2019
1783 Thunderstorm 22 1014 94 8000 4.98 161 16:24 28.12.2019
1784 Rain 22 1014 88 2500 4.98 161 15:44 28.12.2019
1785 Clouds 23 1014 88 800 12.9 190 15:23 28.12.2019
1786 Rain 27 1012 58 5000 4.98 161 14:57 28.12.2019
1787 Rain 27 1012 58 5000 4.98 161 14:38 28.12.2019
1788 Clouds 30 1011 66 10000 5.1 330 14:20 28.12.2019
1789 Rain 29 1011 70 10000 6.2 350 13:43 28.12.2019
1790 Rain 29 1011 70 10000 6.2 350 13:22 28.12.2019
1791 Rain 27 1010 78 10000 5.1 360 12:59 28.12.2019
1792 Rain 27 1010 78 10000 5.1 360 12:41 28.12.2019
1793 Rain 27 1010 78 10000 5.1 360 12:22 28.12.2019
1794 Rain 26 1009 83 10000 5.1 360 11:54 28.12.2019
1795 Rain 26 1009 83 10000 5.1 360 11:36 28.12.2019
1796 Rain 26 1009 83 10000 5.1 360 11:18 28.12.2019
1797 Rain 26 1008 88 10000 4.1 20 10:41 28.12.2019
1798 Rain 25 1008 88 10000 4.1 20 10:20 28.12.2019
1799 Rain 25 1009 88 10000 4.1 20 09:55 28.12.2019
1800 Rain 25 1009 88 10000 4.1 20 09:37 28.12.2019
1801 Rain 25 1009 88 10000 4.1 20 09:18 28.12.2019
1802 Rain 25 1009 88 10000 4.1 20 09:18 28.12.2019
1803 Rain 25 1010 88 10000 3.1 20 08:43 28.12.2019
1804 Rain 25 1010 88 10000 3.1 20 08:25 28.12.2019
1805 Rain 26 1010 83 10000 2.1 40 07:49 28.12.2019
1806 Rain 26 1010 83 10000 2.1 40 07:27 28.12.2019
1807 Rain 26 1011 73 10000 2.6 80 05:53 28.12.2019
1808 Rain 25 1012 73 10000 4.6 100 03:52 28.12.2019
1809 Rain 25 1012 73 10000 4.6 100 03:33 28.12.2019
1810 Rain 26 1012 69 10000 5.7 110 02:43 28.12.2019
1811 Clear 26 1011 61 10000 5.1 110 01:59 28.12.2019
1812 Clear 25 1011 61 10000 5.1 110 01:25 28.12.2019
1813 Clouds 25 1011 65 10000 6.7 110 00:51 28.12.2019
1814 Clouds 26 1011 65 10000 6.7 110 00:32 28.12.2019
1815 Clouds 26 1011 61 10000 7.2 110 23:59 27.12.2019
1816 Clouds 26 1011 61 10000 7.2 110 23:41 27.12.2019
1817 Clouds 26 1011 61 10000 7.2 110 23:19 27.12.2019
1818 Clouds 27 1011 61 10000 7.7 120 22:57 27.12.2019
1819 Clouds 27 1011 61 10000 7.7 120 22:57 27.12.2019
1820 Clouds 27 1011 61 10000 7.7 120 22:38 27.12.2019
1821 Clouds 27 1011 61 10000 7.7 120 22:38 27.12.2019
1822 Clouds 27 1011 61 10000 7.7 120 22:20 27.12.2019
1823 Clouds 27 1011 58 10000 6.2 140 21:54 27.12.2019
1824 Clouds 28 1011 58 10000 6.2 140 21:36 27.12.2019
1825 Clouds 28 1011 58 10000 6.2 140 21:18 27.12.2019
1826 Clouds 27 1012 61 10000 7.2 130 20:40 27.12.2019
1827 Clouds 28 1012 61 10000 7.2 130 20:21 27.12.2019
1828 Clouds 28 1012 58 10000 6.2 140 19:42 27.12.2019
1829 Clouds 28 1012 58 10000 6.2 140 19:20 27.12.2019
1830 Clouds 28 1013 55 10000 2.1 140 18:59 27.12.2019
1831 Clouds 28 1013 55 10000 2.1 140 18:38 27.12.2019
1832 Clouds 28 1013 55 10000 2.1 140 18:20 27.12.2019
1833 Clouds 28 1014 62 10000 2.6 90 17:57 27.12.2019
1834 Clouds 28 1014 62 10000 2.6 90 17:39 27.12.2019
1835 Clouds 28 1014 62 10000 2.6 90 17:19 27.12.2019
1836 Rain 27 1014 65 10000 3.6 120 16:58 27.12.2019
1837 Rain 27 1014 65 10000 3.6 120 16:38 27.12.2019
1838 Rain 27 1014 65 10000 3.6 120 16:19 27.12.2019
1839 Rain 26 1014 69 10000 1.5 0 15:44 27.12.2019
1840 Rain 26 1014 69 10000 1.5 0 15:22 27.12.2019
1841 Rain 25 1014 88 10000 1 0 14:57 27.12.2019
1842 Rain 25 1014 88 10000 1 0 14:39 27.12.2019
1843 Rain 24 1014 88 10000 1 0 14:20 27.12.2019
1844 Rain 23 1015 88 10000 1 0 13:48 27.12.2019
1845 Rain 23 1015 88 10000 1 0 13:25 27.12.2019
1846 Rain 23 1015 88 10000 1 0 13:25 27.12.2019
1847 Rain 23 1015 88 10000 2.6 320 12:58 27.12.2019
1848 Rain 23 1015 88 10000 2.6 320 12:40 27.12.2019
1849 Rain 23 1015 88 10000 2.6 320 12:21 27.12.2019
1850 Thunderstorm 22 1014 94 8000 4.1 360 11:45 27.12.2019
1851 Thunderstorm 22 1014 94 8000 4.1 360 11:26 27.12.2019
1852 Clouds 22 1014 88 10000 1 0 10:58 27.12.2019
1853 Clouds 22 1014 88 10000 1 0 10:39 27.12.2019
1854 Clouds 22 1014 88 10000 1 0 10:21 27.12.2019
1855 Rain 21 1014 88 10000 2.1 10 09:43 27.12.2019
1856 Rain 22 1014 88 10000 2.1 10 09:21 27.12.2019
1857 Rain 22 1013 88 10000 1.5 30 08:59 27.12.2019
1858 Rain 22 1013 88 10000 1.5 30 08:36 27.12.2019
1859 Rain 22 1012 88 10000 2.6 40 07:52 27.12.2019
1860 Rain 22 1012 88 10000 2.6 40 07:33 27.12.2019
1861 Rain 23 1013 83 10000 2.6 50 06:38 27.12.2019
1862 Rain 23 1014 83 10000 3.1 40 05:38 27.12.2019
1863 Clouds 22 1014 88 10000 0.5 0 03:47 27.12.2019
1864 Clouds 22 1013 88 10000 5.7 110 02:23 27.12.2019
1865 Clouds 22 1012 88 8000 7.2 110 01:42 27.12.2019
1866 Clouds 22 1012 88 8000 7.2 110 01:20 27.12.2019
1867 Clouds 22 1013 88 7000 6.7 120 00:44 27.12.2019
1868 Clouds 22 1013 88 7000 6.7 120 00:24 27.12.2019
1869 Clouds 22 1013 88 10000 8.2 110 23:42 26.12.2019
1870 Clouds 22 1013 88 10000 8.2 110 23:23 26.12.2019
1871 Clouds 22 1013 94 10000 8.2 110 22:57 26.12.2019
1872 Clouds 22 1013 94 10000 8.2 110 22:37 26.12.2019
1873 Clouds 22 1013 94 10000 8.2 110 22:18 26.12.2019
1874 Clouds 22 1014 88 10000 7.2 120 21:39 26.12.2019
1875 Clouds 22 1014 88 10000 7.2 120 21:39 26.12.2019
1876 Clouds 22 1014 88 10000 7.2 120 21:21 26.12.2019
1877 Clouds 23 1014 73 8000 7.2 140 20:47 26.12.2019
1878 Clouds 23 1014 73 8000 7.2 140 20:24 26.12.2019
1879 Clouds 23 1014 69 10000 7.2 120 19:59 26.12.2019
1880 Clouds 24 1014 69 10000 7.2 120 19:40 26.12.2019
1881 Clouds 25 1014 69 10000 7.2 120 19:22 26.12.2019
1882 Clouds 25 1015 73 10000 7.2 130 18:59 26.12.2019
1883 Clouds 25 1015 73 10000 7.2 130 18:40 26.12.2019
1884 Clouds 25 1015 61 10000 5.1 110 18:20 26.12.2019
1885 Clouds 25 1015 61 10000 6.2 100 17:58 26.12.2019
1886 Clouds 26 1015 61 10000 6.2 100 17:40 26.12.2019
1887 Clouds 26 1015 61 10000 6.2 100 17:19 26.12.2019
1888 Clouds 25 1015 65 10000 5.1 120 16:46 26.12.2019
1889 Clouds 25 1015 65 10000 5.1 120 16:26 26.12.2019
1890 Clouds 25 1015 61 10000 4.1 100 15:56 26.12.2019
1891 Clouds 25 1015 61 10000 4.1 100 15:38 26.12.2019
1892 Clouds 24 1015 61 10000 4.1 100 15:18 26.12.2019
1893 Clouds 24 1015 61 10000 4.1 100 15:18 26.12.2019
1894 Clouds 23 1016 73 10000 4.1 140 14:41 26.12.2019
1895 Clouds 23 1016 73 10000 4.1 140 14:23 26.12.2019
1896 Clouds 22 1016 78 10000 4.1 90 13:45 26.12.2019
1897 Clouds 21 1016 78 10000 4.1 90 13:24 26.12.2019
1898 Clouds 21 1016 73 10000 3.1 90 12:59 26.12.2019
1899 Clouds 21 1016 73 10000 3.1 90 12:59 26.12.2019
1900 Clouds 21 1016 73 10000 3.1 90 12:40 26.12.2019
1901 Clouds 21 1016 73 10000 3.1 90 12:21 26.12.2019
1902 Clouds 20 1016 82 10000 3.1 120 11:58 26.12.2019
1903 Clouds 20 1016 82 10000 3.1 120 11:58 26.12.2019
1904 Clouds 19 1016 82 10000 3.1 120 11:40 26.12.2019
1905 Clouds 19 1016 82 10000 3.1 120 11:20 26.12.2019
1906 Clouds 19 1016 72 10000 3.1 110 10:49 26.12.2019
1907 Clouds 17 1016 72 10000 3.1 110 10:24 26.12.2019
1908 Clouds 17 1016 72 10000 3.6 110 09:54 26.12.2019
1909 Clouds 17 1016 72 10000 3.6 110 09:32 26.12.2019
1910 Clouds 17 1016 72 10000 3.6 120 08:58 26.12.2019
1911 Clouds 17 1016 72 10000 3.6 120 08:39 26.12.2019
1912 Clouds 18 1016 72 10000 3.6 120 08:20 26.12.2019
1913 Clouds 18 1016 68 10000 5.1 100 07:35 26.12.2019
1914 Clouds 19 1016 72 10000 5.1 110 06:57 26.12.2019
1915 Clouds 18 1016 72 10000 5.1 110 06:37 26.12.2019
1916 Clouds 18 1016 72 10000 5.1 110 06:19 26.12.2019
1917 Clouds 18 1017 68 10000 4.6 120 05:40 26.12.2019
1918 Clouds 18 1017 72 10000 5.7 130 04:32 26.12.2019
1919 Clouds 17 1017 77 10000 6.2 130 03:31 26.12.2019
1920 Rain 16 1017 82 10000 5.7 140 02:46 26.12.2019
1921 Rain 16 1017 82 10000 5.7 140 02:25 26.12.2019
1922 Rain 17 1017 82 6000 5.1 160 01:44 26.12.2019
1923 Rain 17 1016 77 8000 7.2 120 01:24 26.12.2019
1924 Rain 17 1015 68 10000 7.2 130 00:43 26.12.2019
1925 Clouds 18 1015 59 10000 7.7 140 00:22 26.12.2019
1926 Clouds 18 1015 77 10000 9.3 150 23:57 25.12.2019
1927 Clouds 19 1015 77 10000 9.3 150 23:36 25.12.2019
1928 Clouds 19 1015 77 10000 9.3 150 23:18 25.12.2019
1929 Clouds 20 1015 60 10000 5.1 180 22:55 25.12.2019
1930 Clouds 20 1015 60 10000 5.1 180 22:37 25.12.2019
1931 Clouds 20 1015 60 10000 5.1 180 22:18 25.12.2019
1932 Clouds 22 1014 56 10000 6.2 180 21:41 25.12.2019
1933 Clouds 22 1014 56 10000 6.2 180 21:23 25.12.2019
1934 Clouds 23 1014 47 10000 7.2 180 20:59 25.12.2019
1935 Clouds 23 1014 47 10000 7.2 180 20:40 25.12.2019
1936 Clouds 23 1014 47 10000 7.2 180 20:19 25.12.2019
1937 Clouds 24 1015 33 10000 10.3 180 19:57 25.12.2019
1938 Clouds 24 1015 33 10000 10.3 180 19:39 25.12.2019
1939 Clouds 24 1015 33 10000 10.3 180 19:21 25.12.2019
1940 Clouds 25 1014 32 10000 6.2 150 18:39 25.12.2019
1941 Clouds 25 1014 32 10000 6.2 150 18:20 25.12.2019
1942 Clouds 25 1015 34 10000 8.2 150 17:57 25.12.2019
1943 Clouds 25 1015 34 10000 8.2 150 17:36 25.12.2019
1944 Clouds 25 1015 34 10000 8.2 150 17:18 25.12.2019
1945 Clear 24 1015 33 10000 8.2 180 16:39 25.12.2019
1946 Clear 24 1015 33 10000 8.2 180 16:20 25.12.2019
1947 Clouds 23 1015 31 10000 6.2 150 15:58 25.12.2019
1948 Clouds 23 1015 31 10000 6.2 150 15:40 25.12.2019
1949 Clouds 24 1015 31 10000 6.2 150 15:21 25.12.2019
1950 Clouds 24 1015 46 10000 7.7 180 14:59 25.12.2019
1951 Clouds 24 1015 46 10000 7.7 180 14:40 25.12.2019
1952 Clouds 24 1015 46 10000 7.7 180 14:22 25.12.2019
1953 Clouds 23 1015 49 10000 10.3 180 13:57 25.12.2019
1954 Clouds 23 1015 49 10000 10.3 180 13:39 25.12.2019
1955 Clouds 23 1015 49 10000 10.3 180 13:19 25.12.2019
1956 Clouds 22 1014 56 10000 10.3 180 12:43 25.12.2019
1957 Clouds 22 1014 56 10000 10.3 180 12:21 25.12.2019
1958 Clouds 21 1013 56 10000 8.2 180 11:57 25.12.2019
1959 Clouds 21 1013 56 10000 8.2 180 11:39 25.12.2019
1960 Clouds 21 1013 56 10000 8.2 180 11:19 25.12.2019
1961 Clouds 21 1012 60 10000 7.2 190 10:39 25.12.2019
1962 Clouds 21 1012 60 10000 7.2 190 10:21 25.12.2019
1963 Clear 21 1011 64 10000 8.2 170 09:51 25.12.2019
1964 Clear 21 1011 64 10000 8.2 170 09:33 25.12.2019
1965 Clear 21 1010 68 10000 8.2 170 08:51 25.12.2019
1966 Clear 21 1010 68 10000 8.2 170 08:51 25.12.2019
1967 Clear 21 1010 68 10000 8.2 170 08:31 25.12.2019
1968 Clear 21 1009 73 10000 8.2 190 07:59 25.12.2019
1969 Clear 21 1009 73 10000 8.2 190 07:37 25.12.2019
1970 Clear 21 1009 73 10000 8.2 190 07:19 25.12.2019
1971 Clear 21 1008 73 10000 7.2 180 06:23 25.12.2019
1972 Clear 21 1008 52 10000 8.2 200 05:43 25.12.2019
1973 Clear 21 1006 43 10000 2.6 20 04:39 25.12.2019
1974 Clear 21 1006 43 10000 2.6 20 04:20 25.12.2019
1975 Clear 22 1006 40 10000 3.6 350 03:43 25.12.2019
1976 Clear 22 1005 36 10000 2.6 360 02:57 25.12.2019
1977 Clear 24 1005 36 10000 2.6 360 02:28 25.12.2019
1978 Clear 25 1005 31 10000 3.1 350 01:36 25.12.2019
1979 Clear 25 1005 31 10000 3.1 350 01:18 25.12.2019
1980 Clear 28 1004 24 10000 3.1 10 00:40 25.12.2019
1981 Clear 31 1004 24 10000 3.1 10 00:22 25.12.2019
1982 Clear 31 1004 24 10000 3.1 10 00:22 25.12.2019
1983 Clear 32 1003 21 10000 6.7 340 23:39 24.12.2019
1984 Clear 32 1003 21 10000 6.7 340 23:20 24.12.2019
1985 Clear 33 1003 17 10000 6.2 320 22:42 24.12.2019
1986 Clear 33 1003 17 10000 6.2 320 22:23 24.12.2019
1987 Clear 34 1003 18 10000 7.2 320 21:59 24.12.2019
1988 Clear 34 1003 18 10000 7.2 320 21:40 24.12.2019
1989 Clear 34 1003 18 10000 7.2 320 21:19 24.12.2019
1990 Clear 34 1004 18 10000 8.2 320 20:42 24.12.2019
1991 Clear 34 1004 18 10000 8.2 320 20:22 24.12.2019
1992 Clear 34 1004 20 10000 7.7 320 19:49 24.12.2019
1993 Clear 34 1004 20 10000 7.7 320 19:22 24.12.2019
1994 Clear 33 1005 22 10000 7.7 350 18:59 24.12.2019
1995 Clear 33 1005 22 10000 7.7 350 18:40 24.12.2019
1996 Clear 33 1005 22 10000 7.7 350 18:18 24.12.2019
1997 Clear 32 1006 24 10000 9.3 350 17:44 24.12.2019
1998 Clear 32 1006 24 10000 9.3 350 17:22 24.12.2019
1999 Clear 31 1006 25 10000 7.7 340 16:58 24.12.2019
2000 Clear 31 1006 25 10000 7.7 340 16:39 24.12.2019
2001 Clear 30 1006 25 10000 7.7 340 16:21 24.12.2019
2002 Clear 29 1007 30 10000 8.2 340 15:57 24.12.2019
2003 Clear 29 1007 30 10000 8.2 340 15:37 24.12.2019
2004 Clear 29 1007 30 10000 8.2 340 15:19 24.12.2019
2005 Clear 28 1008 34 10000 9.3 350 14:58 24.12.2019
2006 Clear 28 1008 34 10000 9.3 350 14:39 24.12.2019
2007 Clouds 27 1008 34 10000 9.3 350 14:21 24.12.2019
2008 Clouds 27 1008 34 10000 9.3 350 14:21 24.12.2019
2009 Clouds 26 1009 38 10000 7.7 340 13:56 24.12.2019
2010 Clouds 26 1009 38 10000 7.7 340 13:38 24.12.2019
2011 Clouds 26 1009 38 10000 7.7 340 13:19 24.12.2019
2012 Clouds 23 1009 49 10000 5.1 350 12:56 24.12.2019
2013 Clouds 22 1009 49 10000 5.1 350 12:38 24.12.2019
2014 Clouds 22 1009 49 10000 5.1 350 12:19 24.12.2019
2015 Clouds 22 1009 49 10000 5.1 350 12:19 24.12.2019
2016 Clouds 19 1009 63 10000 5.1 360 11:56 24.12.2019
2017 Clouds 18 1009 63 10000 5.1 360 11:37 24.12.2019
2018 Clouds 18 1009 63 10000 5.1 360 11:19 24.12.2019
2019 Clouds 18 1009 71 10000 4.1 360 10:56 24.12.2019
2020 Clouds 18 1009 71 10000 4.1 360 10:56 24.12.2019
2021 Clouds 18 1009 71 10000 4.1 360 10:56 24.12.2019
2022 Clouds 17 1009 71 10000 4.1 360 10:38 24.12.2019
2023 Clouds 16 1009 71 10000 4.1 360 10:19 24.12.2019
2024 Clouds 15 1009 67 10000 4.6 20 09:55 24.12.2019
2025 Clouds 15 1009 67 10000 4.6 20 09:37 24.12.2019
2026 Clouds 15 1009 67 10000 4.6 20 09:19 24.12.2019
2027 Clouds 16 1009 63 10000 2.1 20 08:46 24.12.2019
2028 Clear 16 1009 63 10000 2.1 20 08:24 24.12.2019
2029 Clouds 16 1009 59 10000 2.6 20 07:46 24.12.2019
2030 Clouds 17 1009 59 10000 2.6 20 07:27 24.12.2019
2031 Clouds 17 1009 55 10000 3.1 40 06:59 24.12.2019
2032 Clouds 17 1009 55 10000 3.1 40 06:39 24.12.2019
2033 Clouds 17 1009 55 10000 3.1 40 06:19 24.12.2019
2034 Clouds 18 1010 52 10000 2.6 30 05:49 24.12.2019
2035 Clear 18 1010 52 10000 2.6 30 05:18 24.12.2019
2036 Clear 20 1010 37 10000 3.1 30 03:55 24.12.2019
2037 Clear 20 1010 37 10000 3.1 30 03:33 24.12.2019
2038 Clear 22 1010 37 10000 3.6 50 02:28 24.12.2019
2039 Clouds 22 1010 38 10000 3.1 60 01:53 24.12.2019
2040 Clouds 22 1010 38 10000 3.1 60 01:23 24.12.2019
2041 Clouds 23 1011 56 10000 3.1 80 00:55 24.12.2019
2042 Clouds 23 1011 56 10000 3.1 80 00:37 24.12.2019
2043 Clouds 24 1011 56 10000 3.1 80 00:19 24.12.2019
2044 Clouds 26 1011 22 10000 1.5 280 23:41 23.12.2019
2045 Clouds 26 1011 22 10000 1.5 280 23:23 23.12.2019
2046 Clouds 27 1011 20 10000 2.1 270 22:56 23.12.2019
2047 Clouds 28 1011 20 10000 2.1 270 22:37 23.12.2019
2048 Clouds 28 1011 20 10000 2.1 270 22:19 23.12.2019
2049 Clouds 27 1012 21 10000 3.1 240 21:55 23.12.2019
2050 Clouds 27 1012 21 10000 3.1 240 21:36 23.12.2019
2051 Clouds 27 1012 21 10000 3.1 240 21:18 23.12.2019
2052 Clouds 27 1012 19 10000 3.6 270 20:57 23.12.2019
2053 Clouds 27 1012 19 10000 3.6 270 20:39 23.12.2019
2054 Clouds 27 1012 19 10000 3.6 270 20:18 23.12.2019
2055 Clouds 27 1013 31 10000 5.1 270 19:56 23.12.2019
2056 Clouds 27 1013 31 10000 5.1 270 19:38 23.12.2019
2057 Clouds 26 1013 31 10000 5.1 270 19:19 23.12.2019
2058 Clouds 27 1013 30 10000 6.2 270 18:58 23.12.2019
2059 Clouds 27 1013 30 10000 6.2 270 18:39 23.12.2019
2060 Clouds 26 1013 30 10000 6.2 270 18:20 23.12.2019
2061 Clouds 26 1014 28 10000 6.2 280 17:57 23.12.2019
2062 Clouds 26 1014 28 10000 6.2 280 17:39 23.12.2019
2063 Clear 26 1014 28 10000 6.2 280 17:19 23.12.2019
2064 Clear 26 1014 28 10000 6.2 280 17:19 23.12.2019
2065 Clear 25 1014 33 10000 7.2 280 16:55 23.12.2019
2066 Clear 25 1014 33 10000 7.2 280 16:37 23.12.2019
2067 Clear 25 1014 33 10000 7.2 280 16:18 23.12.2019
2068 Clear 24 1014 41 10000 5.1 270 15:55 23.12.2019
2069 Clear 24 1014 41 10000 5.1 270 15:36 23.12.2019
2070 Clear 24 1014 41 10000 5.1 270 15:18 23.12.2019
2071 Clear 22 1014 49 10000 4.6 300 14:55 23.12.2019
2072 Clear 22 1014 49 10000 4.6 300 14:36 23.12.2019
2073 Clear 20 1014 49 10000 4.6 300 14:18 23.12.2019
2074 Clear 20 1014 68 10000 3.1 330 13:55 23.12.2019
2075 Clear 20 1014 68 10000 3.1 330 13:37 23.12.2019
2076 Clear 20 1014 68 10000 3.1 330 13:19 23.12.2019
2077 Clear 18 1014 82 10000 3.1 330 12:41 23.12.2019
2078 Clear 17 1014 82 10000 3.1 330 12:21 23.12.2019
2079 Clear 14 1014 82 10000 1.5 330 11:59 23.12.2019
2080 Clear 13 1014 82 10000 1.5 330 11:41 23.12.2019
2081 Clear 13 1014 82 10000 1.5 330 11:22 23.12.2019
2082 Clear 14 1013 93 10000 1.5 360 10:55 23.12.2019
2083 Clear 15 1013 93 10000 1.5 360 10:37 23.12.2019
2084 Clear 15 1013 93 10000 1.5 360 10:37 23.12.2019
2085 Clear 15 1013 93 10000 1.5 360 10:18 23.12.2019
2086 Clouds 14 1013 93 10000 1.5 330 09:56 23.12.2019
2087 Clouds 15 1013 93 10000 1.5 330 09:37 23.12.2019
2088 Clouds 15 1013 93 10000 1.5 330 09:19 23.12.2019
2089 Clear 15 1013 93 10000 1.5 330 08:41 23.12.2019
2090 Clear 15 1013 93 10000 1.5 330 08:22 23.12.2019
2091 Clear 14 1013 93 10000 2.1 310 07:56 23.12.2019
2092 Clear 15 1013 93 10000 2.1 310 07:38 23.12.2019
2093 Clear 15 1013 93 10000 2.1 310 07:18 23.12.2019
2094 Clear 15 1014 87 10000 1.5 350 06:39 23.12.2019
2095 Clear 15 1014 87 10000 1.5 350 06:21 23.12.2019
2096 Clear 16 1014 87 10000 1.5 300 05:44 23.12.2019
2097 Clear 17 1015 72 10000 1.5 230 04:44 23.12.2019
2098 Clear 17 1015 72 10000 2.6 200 03:58 23.12.2019
2099 Clear 16 1015 72 10000 4.1 190 02:47 23.12.2019
2100 Clear 16 1015 72 10000 4.1 190 02:19 23.12.2019
2101 Clear 16 1015 72 10000 4.6 190 01:50 23.12.2019
2102 Clear 16 1015 72 10000 4.6 190 01:31 23.12.2019
2103 Clear 18 1014 72 10000 4.6 190 00:48 23.12.2019
2104 Clear 18 1014 72 10000 4.6 190 00:27 23.12.2019
2105 Clear 19 1014 68 10000 6.2 180 23:57 22.12.2019
2106 Clear 18 1014 68 10000 6.2 180 23:37 22.12.2019
2107 Clear 19 1014 68 10000 6.2 180 23:19 22.12.2019
2108 Clear 19 1014 63 10000 7.2 180 22:55 22.12.2019
2109 Clear 19 1014 63 10000 7.2 180 22:37 22.12.2019
2110 Clear 19 1014 63 10000 7.2 180 22:18 22.12.2019
2111 Clear 20 1014 64 10000 7.7 200 21:54 22.12.2019
2112 Clear 20 1014 64 10000 7.7 200 21:36 22.12.2019
2113 Clear 20 1014 64 10000 7.7 200 21:18 22.12.2019
2114 Clouds 20 1015 52 10000 7.7 200 20:40 22.12.2019
2115 Clouds 20 1015 52 10000 7.7 200 20:19 22.12.2019
2116 Clouds 20 1015 56 10000 7.7 210 19:57 22.12.2019
2117 Clouds 20 1015 56 10000 7.7 210 19:39 22.12.2019
2118 Clouds 20 1015 56 10000 7.7 210 19:20 22.12.2019
2119 Clouds 20 1015 63 10000 7.2 190 18:55 22.12.2019
2120 Clouds 20 1015 63 10000 7.2 190 18:37 22.12.2019
2121 Clouds 20 1015 63 10000 7.2 190 18:18 22.12.2019
2122 Clouds 20 1016 60 10000 7.2 190 17:54 22.12.2019
2123 Clouds 20 1016 60 10000 7.2 190 17:36 22.12.2019
2124 Clouds 20 1016 60 10000 7.2 190 17:18 22.12.2019
2125 Clouds 19 1016 59 10000 5.1 200 16:42 22.12.2019
2126 Clouds 19 1016 59 10000 5.1 200 16:23 22.12.2019
2127 Clouds 19 1015 68 10000 7.7 200 15:57 22.12.2019
2128 Clouds 19 1015 68 10000 7.7 200 15:39 22.12.2019
2129 Clouds 19 1015 68 10000 7.7 200 15:21 22.12.2019
2130 Clouds 19 1014 63 10000 7.2 210 14:57 22.12.2019
2131 Clouds 19 1014 63 10000 7.2 210 14:38 22.12.2019
2132 Clouds 18 1014 63 10000 7.2 210 14:19 22.12.2019
2133 Clouds 18 1015 72 10000 7.2 200 13:56 22.12.2019
2134 Clouds 18 1015 72 10000 7.2 200 13:38 22.12.2019
2135 Clouds 18 1015 72 10000 7.2 200 13:19 22.12.2019
2136 Clouds 18 1014 77 10000 6.7 190 12:57 22.12.2019
2137 Clouds 17 1014 77 10000 6.7 190 12:38 22.12.2019
2138 Clouds 17 1014 77 10000 6.7 190 12:19 22.12.2019
2139 Clouds 17 1013 77 10000 7.7 200 11:56 22.12.2019
2140 Clouds 17 1013 77 10000 7.7 200 11:38 22.12.2019
2141 Clouds 16 1013 77 10000 7.7 200 11:19 22.12.2019
2142 Clouds 17 1012 72 10000 7.2 210 10:56 22.12.2019
2143 Clouds 17 1012 72 10000 7.2 210 10:38 22.12.2019
2144 Clouds 18 1012 72 10000 7.2 210 10:19 22.12.2019
2145 Clouds 17 1011 72 10000 8.2 200 09:57 22.12.2019
2146 Clouds 17 1011 72 10000 8.2 200 09:39 22.12.2019
2147 Clouds 17 1011 72 10000 8.2 200 09:20 22.12.2019
2148 Clouds 17 1010 72 10000 9.3 200 08:42 22.12.2019
2149 Clouds 17 1010 72 10000 9.3 200 08:22 22.12.2019
2150 Clouds 17 1010 77 10000 9.8 200 07:44 22.12.2019
2151 Clouds 17 1010 77 10000 9.8 200 07:21 22.12.2019
2152 Clouds 17 1010 77 10000 8.7 210 06:53 22.12.2019
2153 Clouds 17 1010 77 10000 8.7 210 06:26 22.12.2019
2154 Clouds 17 1010 82 10000 7.2 210 05:33 22.12.2019
2155 Clouds 17 1010 77 10000 8.2 210 04:46 22.12.2019
2156 Clouds 17 1010 77 10000 8.2 210 04:25 22.12.2019
2157 Clouds 17 1010 82 10000 8.2 210 02:46 22.12.2019
2158 Rain 16 1010 87 10000 8.7 210 02:21 22.12.2019
2159 Rain 16 1010 87 10000 8.7 210 01:31 22.12.2019
2160 Rain 17 1009 82 10000 9.8 220 00:56 22.12.2019
2161 Rain 17 1009 82 10000 9.8 220 00:36 22.12.2019
2162 Rain 17 1009 82 10000 9.8 220 00:18 22.12.2019
2163 Rain 17 1010 87 10000 8.2 210 23:40 21.12.2019
2164 Rain 16 1010 87 10000 8.2 210 23:21 21.12.2019
2165 Rain 17 1009 77 10000 7.7 210 22:56 21.12.2019
2166 Rain 17 1009 77 10000 7.7 210 22:37 21.12.2019
2167 Rain 17 1009 77 10000 7.7 210 22:18 21.12.2019
2168 Rain 18 1009 93 10000 9.3 210 21:54 21.12.2019
2169 Rain 18 1009 93 10000 9.3 210 21:36 21.12.2019
2170 Rain 18 1009 93 10000 9.3 210 21:18 21.12.2019
2171 Clouds 19 1008 82 10000 8.7 220 20:55 21.12.2019
2172 Clouds 19 1008 82 10000 8.7 220 20:37 21.12.2019
2173 Clouds 19 1008 82 10000 8.7 220 20:18 21.12.2019
2174 Clouds 18 1008 77 10000 10.3 220 19:55 21.12.2019
2175 Clouds 18 1008 77 10000 10.3 220 19:36 21.12.2019
2176 Clouds 18 1008 77 10000 10.3 220 19:18 21.12.2019
2177 Clouds 18 1008 88 10000 8.2 220 18:40 21.12.2019
2178 Clouds 18 1008 88 10000 8.2 220 18:22 21.12.2019
2179 Drizzle 18 1007 77 9000 10.8 220 17:55 21.12.2019
2180 Drizzle 18 1007 77 9000 10.8 220 17:37 21.12.2019
2181 Drizzle 18 1007 77 9000 10.8 220 17:18 21.12.2019
2182 Drizzle 19 1006 72 7000 9.3 220 16:54 21.12.2019
2183 Drizzle 18 1006 72 7000 9.3 220 16:36 21.12.2019
2184 Drizzle 18 1006 72 7000 9.3 220 16:36 21.12.2019
2185 Drizzle 18 1006 72 7000 9.3 220 16:18 21.12.2019
2186 Drizzle 18 1006 72 6000 8.7 220 15:55 21.12.2019
2187 Clouds 19 1006 68 10000 11.3 210 15:36 21.12.2019
2188 Clouds 19 1006 68 10000 11.3 210 15:18 21.12.2019
2189 Clouds 19 1005 77 0 10.3 210 14:40 21.12.2019
2190 Clouds 19 1005 77 0 10.3 210 14:22 21.12.2019
2191 Drizzle 18 1005 82 6000 10.3 210 13:58 21.12.2019
2192 Drizzle 18 1005 82 6000 10.3 210 13:39 21.12.2019
2193 Drizzle 18 1005 82 6000 10.3 210 13:19 21.12.2019
2194 Drizzle 17 1005 88 8000 9.3 220 12:56 21.12.2019
2195 Drizzle 17 1005 88 8000 9.3 220 12:38 21.12.2019
2196 Drizzle 17 1005 88 8000 9.3 220 12:19 21.12.2019
2197 Drizzle 18 1005 88 4000 9.8 230 11:46 21.12.2019
2198 Rain 18 1005 100 8000 9.3 220 11:27 21.12.2019
2199 Drizzle 18 1004 88 8000 9.8 220 10:58 21.12.2019
2200 Drizzle 18 1004 88 8000 9.8 220 10:39 21.12.2019
2201 Drizzle 18 1004 88 3000 8.7 220 10:21 21.12.2019
2202 Drizzle 18 1003 93 7000 7.2 220 09:57 21.12.2019
2203 Drizzle 18 1003 93 7000 7.2 220 09:39 21.12.2019
2204 Drizzle 18 1003 93 7000 7.2 220 09:19 21.12.2019
2205 Drizzle 18 1003 88 5000 7.2 220 08:47 21.12.2019
2206 Drizzle 19 1002 93 10000 7.2 210 08:26 21.12.2019
2207 Drizzle 19 1002 94 10000 4.6 230 07:47 21.12.2019
2208 Drizzle 19 1002 94 10000 4.6 230 07:23 21.12.2019
2209 Rain 19 1004 100 8000 4.1 240 06:49 21.12.2019
2210 Rain 19 1004 100 8000 4.1 240 06:31 21.12.2019
2211 Drizzle 20 1004 100 3000 1.5 280 05:59 21.12.2019
2212 Clouds 20 1005 94 10000 13.92 176 04:59 21.12.2019
2213 Clouds 20 1005 94 10000 13.92 176 04:34 21.12.2019
2214 Clouds 20 1005 94 10000 13.92 176 03:56 21.12.2019
2215 Rain 20 1005 88 10000 13.92 176 02:23 21.12.2019
2216 Rain 20 1003 94 8000 6.7 100 01:43 21.12.2019
2217 Rain 21 1003 94 8000 6.7 100 01:24 21.12.2019
2218 Rain 21 1006 94 7000 3.1 110 00:40 21.12.2019
2219 Rain 21 1006 94 7000 5.7 90 00:21 21.12.2019
2220 Rain 21 1007 88 6000 2.6 160 23:39 20.12.2019
2221 Rain 21 1007 88 6000 2.6 160 23:20 20.12.2019
2222 Rain 21 1008 88 3000 5.7 200 22:57 20.12.2019
2223 Rain 21 1008 88 3000 5.7 200 22:38 20.12.2019
2224 Rain 21 1008 88 3000 5.7 200 22:18 20.12.2019
2225 Clouds 21 1008 88 10000 7.2 180 21:41 20.12.2019
2226 Clouds 21 1008 88 10000 7.2 180 21:21 20.12.2019
2227 Clouds 21 1007 83 10000 6.2 190 20:59 20.12.2019
2228 Clouds 21 1007 83 10000 6.2 190 20:38 20.12.2019
2229 Rain 21 1007 83 10000 9.3 180 20:19 20.12.2019
2230 Rain 22 1006 88 10000 5.1 190 19:43 20.12.2019
2231 Rain 22 1006 88 10000 5.1 190 19:21 20.12.2019
2232 Rain 22 1006 78 10000 8.2 190 18:58 20.12.2019
2233 Rain 22 1006 78 10000 8.2 190 18:40 20.12.2019
2234 Rain 22 1006 78 10000 8.2 190 18:21 20.12.2019
2235 Thunderstorm 26 1005 69 8000 6.7 140 17:57 20.12.2019
2236 Thunderstorm 26 1005 69 8000 6.7 140 17:39 20.12.2019
2237 Thunderstorm 26 1005 69 8000 6.7 140 17:39 20.12.2019
2238 Thunderstorm 26 1005 69 8000 6.7 140 17:20 20.12.2019
2239 Clouds 28 1006 55 10000 5.1 40 16:56 20.12.2019
2240 Clouds 28 1006 55 10000 5.1 40 16:38 20.12.2019
2241 Clouds 28 1006 55 10000 5.1 40 16:19 20.12.2019
2242 Clouds 28 1008 58 10000 5.1 90 15:54 20.12.2019
2243 Clouds 28 1008 58 10000 5.1 90 15:36 20.12.2019
2244 Clouds 27 1008 58 10000 5.1 90 15:18 20.12.2019
2245 Clouds 27 1009 65 10000 5.1 30 14:42 20.12.2019
2246 Clouds 26 1009 65 10000 5.1 30 14:24 20.12.2019
2247 Clouds 27 1009 65 10000 6.2 40 13:57 20.12.2019
2248 Clouds 26 1009 65 10000 6.2 40 13:37 20.12.2019
2249 Clouds 26 1009 65 10000 6.2 40 13:18 20.12.2019
2250 Clouds 26 1009 65 10000 6.2 40 13:18 20.12.2019
2251 Clouds 25 1010 73 10000 6.2 30 12:55 20.12.2019
2252 Clouds 25 1010 73 10000 6.2 30 12:36 20.12.2019
2253 Clouds 25 1010 73 10000 6.2 30 12:18 20.12.2019
2254 Clouds 24 1009 78 10000 6.2 40 11:57 20.12.2019
2255 Clouds 23 1009 78 10000 6.2 40 11:38 20.12.2019
2256 Clouds 23 1009 78 10000 6.2 40 11:18 20.12.2019
2257 Clouds 22 1009 83 10000 3.1 20 10:55 20.12.2019
2258 Clouds 23 1009 83 10000 3.1 20 10:37 20.12.2019
2259 Clouds 22 1009 83 10000 3.1 20 10:19 20.12.2019
2260 Rain 22 1009 83 10000 2.6 30 09:42 20.12.2019
2261 Rain 22 1009 83 10000 2.6 30 09:21 20.12.2019
2262 Rain 22 1009 83 10000 3.1 40 08:54 20.12.2019
2263 Rain 22 1009 83 10000 3.1 40 08:54 20.12.2019
2264 Rain 22 1009 83 10000 3.1 40 08:36 20.12.2019
2265 Clouds 22 1009 83 10000 3.1 40 08:18 20.12.2019
2266 Clouds 22 1009 78 10000 6.13 12 07:55 20.12.2019
2267 Clouds 22 1009 78 10000 6.13 12 07:36 20.12.2019
2268 Clouds 22 1009 78 10000 6.13 12 07:18 20.12.2019
2269 Clouds 22 1009 83 10000 2.1 110 06:43 20.12.2019
2270 Clouds 22 1009 83 10000 2.1 110 06:25 20.12.2019
2271 Clouds 22 1010 88 10000 2.6 110 05:47 20.12.2019
2272 Clouds 22 1011 88 10000 3.1 130 04:57 20.12.2019
2273 Clouds 23 1011 73 10000 4.1 130 03:48 20.12.2019
2274 Clouds 23 1010 64 10000 5.1 100 02:46 20.12.2019
2275 Clear 23 1010 60 10000 6.2 110 01:59 20.12.2019
2276 Clear 23 1010 60 10000 6.2 110 01:35 20.12.2019
2277 Clear 23 1010 64 10000 5.7 110 00:54 20.12.2019
2278 Clear 24 1010 64 10000 5.7 110 00:35 20.12.2019
2279 Clear 25 1010 42 10000 5.7 120 23:57 19.12.2019
2280 Clear 25 1010 42 10000 5.7 120 23:39 19.12.2019
2281 Clear 25 1010 42 10000 5.7 120 23:19 19.12.2019
2282 Clear 25 1010 42 10000 5.7 120 23:19 19.12.2019
2283 Clear 27 1010 37 10000 7.2 130 22:39 19.12.2019
2284 Clear 27 1010 37 10000 7.2 130 22:21 19.12.2019
2285 Clear 27 1010 30 10000 5.7 120 21:56 19.12.2019
2286 Clear 27 1010 30 10000 5.7 120 21:38 19.12.2019
2287 Clear 28 1010 30 10000 5.7 120 21:19 19.12.2019
2288 Clouds 28 1010 33 10000 6.7 150 20:56 19.12.2019
2289 Clouds 28 1010 33 10000 6.7 150 20:37 19.12.2019
2290 Clouds 28 1010 33 10000 6.7 150 20:19 19.12.2019
2291 Clouds 28 1011 40 10000 6.2 180 19:58 19.12.2019
2292 Clouds 28 1011 40 10000 6.2 180 19:58 19.12.2019
2293 Clouds 28 1011 40 10000 6.2 180 19:39 19.12.2019
2294 Clouds 28 1011 40 10000 6.2 180 19:19 19.12.2019
2295 Clouds 28 1011 40 10000 6.2 180 19:19 19.12.2019
2296 Clouds 28 1011 40 10000 6.2 180 19:19 19.12.2019
2297 Clear 29 1012 40 10000 5.1 180 18:57 19.12.2019
2298 Clear 28 1012 40 10000 5.1 180 18:39 19.12.2019
2299 Clear 28 1012 40 10000 5.1 180 18:19 19.12.2019
2300 Clear 29 1012 31 10000 2.1 120 17:55 19.12.2019
2301 Clear 29 1012 31 10000 2.1 120 17:37 19.12.2019
2302 Clear 28 1012 31 10000 2.1 120 17:18 19.12.2019
2303 Clear 28 1013 39 10000 4.1 350 16:55 19.12.2019
2304 Clear 28 1013 39 10000 4.1 350 16:55 19.12.2019
2305 Clear 28 1013 39 10000 4.1 350 16:37 19.12.2019
2306 Clear 28 1013 39 10000 4.1 350 16:19 19.12.2019
2307 Clear 27 1013 51 10000 4.1 350 15:55 19.12.2019
2308 Clear 27 1013 51 10000 4.1 350 15:37 19.12.2019
2309 Clear 28 1013 51 10000 4.1 350 15:18 19.12.2019
2310 Clear 26 1014 57 10000 5.1 350 14:42 19.12.2019
2311 Clouds 26 1014 57 10000 5.1 350 14:20 19.12.2019
2312 Clouds 24 1014 64 10000 6.2 20 13:58 19.12.2019
2313 Clouds 24 1014 64 10000 6.2 20 13:38 19.12.2019
2314 Clouds 23 1014 64 10000 6.2 20 13:19 19.12.2019
2315 Clouds 22 1014 73 10000 7.2 30 12:57 19.12.2019
2316 Clouds 22 1014 73 10000 7.2 30 12:39 19.12.2019
2317 Clouds 21 1014 73 10000 7.2 30 12:19 19.12.2019
2318 Clouds 21 1014 73 10000 7.2 30 12:19 19.12.2019
2319 Clouds 20 1014 82 10000 7.7 30 11:58 19.12.2019
2320 Clouds 20 1014 82 10000 7.7 30 11:40 19.12.2019
2321 Clouds 20 1014 82 10000 7.7 30 11:18 19.12.2019
2322 Clouds 19 1013 82 10000 4.6 30 10:58 19.12.2019
2323 Clouds 19 1013 82 10000 4.6 30 10:38 19.12.2019
2324 Clouds 18 1013 82 10000 4.6 30 10:20 19.12.2019
2325 Clouds 19 1013 77 10000 4.6 30 09:54 19.12.2019
2326 Clouds 19 1013 77 10000 4.6 30 09:36 19.12.2019
2327 Clouds 19 1013 77 10000 4.6 30 09:18 19.12.2019
2328 Clouds 19 1013 68 10000 5.1 30 08:41 19.12.2019
2329 Clouds 20 1013 68 10000 5.1 30 08:20 19.12.2019
2330 Clouds 20 1012 68 10000 5.7 40 07:59 19.12.2019
2331 Clouds 20 1012 68 10000 5.7 40 07:38 19.12.2019
2332 Clouds 20 1012 68 10000 5.7 40 07:20 19.12.2019
2333 Clouds 21 1013 68 10000 5.1 30 06:50 19.12.2019
2334 Clouds 21 1013 68 10000 5.1 30 06:30 19.12.2019
2335 Clouds 21 1013 68 10000 5.1 40 05:56 19.12.2019
2336 Clouds 21 1013 68 10000 5.1 40 05:36 19.12.2019
2337 Clouds 22 1013 60 10000 5.7 40 04:56 19.12.2019
2338 Clouds 23 1013 47 10000 5.7 40 03:45 19.12.2019
2339 Clouds 25 1013 38 10000 5.7 40 02:24 19.12.2019
2340 Clouds 26 1012 34 10000 2.6 20 01:23 19.12.2019
2341 Clouds 26 1012 32 10000 3.1 20 00:44 19.12.2019
2342 Clouds 29 1012 32 10000 3.1 20 00:24 19.12.2019
2343 Clouds 29 1011 33 10000 5.1 360 23:58 18.12.2019
2344 Clouds 30 1011 33 10000 5.1 360 23:38 18.12.2019
2345 Clouds 30 1011 33 10000 5.1 360 23:19 18.12.2019
2346 Clouds 31 1011 27 10000 6.2 360 22:56 18.12.2019
2347 Clouds 31 1011 27 10000 6.2 360 22:37 18.12.2019
2348 Clouds 31 1011 27 10000 6.2 360 22:19 18.12.2019
2349 Clouds 31 1011 27 10000 7.2 360 21:57 18.12.2019
2350 Clouds 32 1011 27 10000 7.2 360 21:39 18.12.2019
2351 Clouds 31 1011 27 10000 7.2 360 21:19 18.12.2019
2352 Clouds 32 1012 27 10000 7.2 360 20:55 18.12.2019
2353 Clouds 32 1012 27 10000 7.2 360 20:37 18.12.2019
2354 Clouds 32 1012 27 10000 7.2 360 20:37 18.12.2019
2355 Clouds 32 1012 27 10000 7.2 360 20:19 18.12.2019
2356 Clouds 32 1012 29 10000 6.2 350 19:55 18.12.2019
2357 Clouds 32 1012 29 10000 6.2 350 19:37 18.12.2019
2358 Clouds 32 1012 29 10000 6.2 350 19:18 18.12.2019
2359 Clouds 32 1012 29 10000 6.2 350 19:18 18.12.2019
2360 Clouds 32 1013 29 10000 6.2 350 18:44 18.12.2019
2361 Clouds 32 1013 29 10000 6.2 350 18:25 18.12.2019
2362 Clouds 31 1014 33 10000 6.2 340 17:57 18.12.2019
2363 Clouds 31 1014 33 10000 6.2 340 17:39 18.12.2019
2364 Clouds 31 1014 33 10000 6.2 340 17:19 18.12.2019
2365 Clouds 30 1015 40 10000 7.2 360 16:57 18.12.2019
2366 Clouds 30 1015 40 10000 7.2 360 16:57 18.12.2019
2367 Clouds 30 1015 40 10000 7.2 360 16:38 18.12.2019
2368 Clouds 30 1015 40 10000 7.2 360 16:20 18.12.2019
2369 Clear 29 1015 48 10000 7.2 360 15:55 18.12.2019
2370 Clear 29 1015 48 10000 7.2 360 15:37 18.12.2019
2371 Clear 29 1015 48 10000 7.2 360 15:19 18.12.2019
2372 Clear 27 1016 54 10000 6.2 360 14:42 18.12.2019
2373 Clear 27 1016 54 10000 6.2 360 14:42 18.12.2019
2374 Clear 27 1016 54 10000 6.2 360 14:22 18.12.2019
2375 Clear 25 1016 69 10000 9.3 360 13:57 18.12.2019
2376 Clear 24 1016 69 10000 9.3 360 13:38 18.12.2019
2377 Clear 24 1016 69 10000 9.3 360 13:20 18.12.2019
2378 Clear 22 1016 83 10000 8.7 20 12:58 18.12.2019
2379 Clear 22 1016 83 10000 8.7 20 12:38 18.12.2019
2380 Clear 22 1016 83 10000 8.7 20 12:20 18.12.2019
2381 Clear 20 1016 88 10000 7.2 30 11:56 18.12.2019
2382 Clear 19 1016 88 10000 7.2 30 11:38 18.12.2019
2383 Clear 18 1016 88 10000 7.2 30 11:19 18.12.2019
2384 Clouds 17 1015 93 10000 5.1 30 10:55 18.12.2019
2385 Clouds 17 1015 93 10000 5.1 30 10:37 18.12.2019
2386 Clouds 16 1015 93 10000 5.1 30 10:19 18.12.2019
2387 Clear 16 1015 87 10000 4.1 40 09:50 18.12.2019
2388 Clear 16 1015 87 10000 4.1 40 09:50 18.12.2019
2389 Clear 16 1015 87 10000 4.1 40 09:18 18.12.2019
2390 Clear 16 1015 82 10000 1.5 40 08:41 18.12.2019
2391 Clouds 16 1015 82 10000 1.5 40 08:22 18.12.2019
2392 Clouds 16 1015 77 10000 1.5 50 07:45 18.12.2019
2393 Clouds 15 1015 77 10000 1.5 50 07:24 18.12.2019
2394 Clouds 16 1015 72 10000 2.1 80 06:57 18.12.2019
2395 Clouds 16 1015 72 10000 2.1 80 06:28 18.12.2019
2396 Clouds 16 1015 72 10000 3.1 90 05:57 18.12.2019
2397 Clear 16 1015 72 10000 3.1 90 05:22 18.12.2019
2398 Clear 17 1016 63 10000 3.6 90 03:31 18.12.2019
2399 Clear 17 1016 59 10000 5.1 90 02:38 18.12.2019
2400 Clear 18 1016 59 10000 5.1 90 02:20 18.12.2019
2401 Clear 18 1015 63 10000 6.2 100 01:42 18.12.2019
2402 Clear 18 1015 63 10000 6.2 100 01:23 18.12.2019
2403 Clear 19 1015 63 10000 6.7 120 00:42 18.12.2019
2404 Clear 19 1015 63 10000 6.7 120 00:23 18.12.2019
2405 Clear 20 1014 64 10000 7.7 110 23:58 17.12.2019
2406 Clear 20 1014 64 10000 7.7 110 23:39 17.12.2019
2407 Clear 20 1014 64 10000 7.7 110 23:20 17.12.2019
2408 Clouds 21 1014 60 10000 8.7 120 22:56 17.12.2019
2409 Clouds 21 1014 60 10000 8.7 120 22:38 17.12.2019
2410 Clouds 21 1014 60 10000 8.7 120 22:19 17.12.2019
2411 Clouds 22 1014 64 10000 7.2 110 21:56 17.12.2019
2412 Clouds 22 1014 64 10000 7.2 110 21:38 17.12.2019
2413 Clouds 22 1014 64 10000 7.2 110 21:19 17.12.2019
2414 Clouds 22 1014 60 10000 6.7 130 20:57 17.12.2019
2415 Clouds 22 1014 60 10000 6.7 130 20:38 17.12.2019
2416 Clouds 22 1014 60 10000 6.7 130 20:18 17.12.2019
2417 Clouds 23 1014 60 10000 6.7 140 19:56 17.12.2019
2418 Clouds 23 1014 60 10000 6.7 140 19:38 17.12.2019
2419 Clouds 24 1014 60 10000 6.7 140 19:18 17.12.2019
2420 Clouds 24 1014 44 10000 6.2 170 18:54 17.12.2019
2421 Clouds 24 1014 44 10000 6.2 170 18:36 17.12.2019
2422 Clouds 24 1014 44 10000 6.2 170 18:18 17.12.2019
2423 Clouds 24 1014 44 10000 6.2 170 18:18 17.12.2019
2424 Clouds 24 1014 47 10000 6.2 170 17:42 17.12.2019
2425 Clouds 25 1014 47 10000 6.2 170 17:21 17.12.2019
2426 Clouds 25 1014 47 10000 5.7 160 16:57 17.12.2019
2427 Clouds 25 1014 47 10000 5.7 160 16:38 17.12.2019
2428 Clouds 25 1014 47 10000 5.7 160 16:19 17.12.2019
2429 Clear 26 1014 47 10000 4.1 180 15:58 17.12.2019
2430 Clear 26 1014 47 10000 4.1 180 15:37 17.12.2019
2431 Clear 26 1014 47 10000 4.1 180 15:19 17.12.2019
2432 Clouds 25 1014 64 10000 1.5 0 14:56 17.12.2019
2433 Clouds 25 1014 64 10000 1.5 0 14:37 17.12.2019
2434 Clouds 24 1014 64 10000 1.5 0 14:18 17.12.2019
2435 Clouds 24 1014 64 10000 1.5 0 14:18 17.12.2019
2436 Clouds 23 1014 78 10000 3.6 220 13:56 17.12.2019
2437 Clouds 23 1014 78 10000 3.6 220 13:38 17.12.2019
2438 Clouds 23 1014 78 10000 3.6 220 13:19 17.12.2019
2439 Clouds 21 1014 88 10000 1 0 12:55 17.12.2019
2440 Clouds 21 1014 88 10000 1 0 12:37 17.12.2019
2441 Clouds 21 1014 88 10000 1 0 12:18 17.12.2019
2442 Clouds 19 1013 93 10000 1.5 0 11:55 17.12.2019
2443 Clouds 19 1013 93 10000 1.5 0 11:36 17.12.2019
2444 Clouds 20 1013 93 10000 1.5 0 11:18 17.12.2019
2445 Clouds 20 1013 93 10000 1.5 0 11:18 17.12.2019
2446 Clear 19 1012 88 10000 2.6 30 10:55 17.12.2019
2447 Clear 18 1012 88 10000 2.6 30 10:36 17.12.2019
2448 Clear 17 1012 88 10000 2.6 30 10:18 17.12.2019
2449 Clear 16 1012 88 10000 2.1 30 09:42 17.12.2019
2450 Clear 16 1012 88 10000 2.1 30 09:21 17.12.2019
2451 Clouds 16 1011 88 10000 3.1 360 08:58 17.12.2019
2452 Clouds 16 1011 88 10000 3.1 360 08:39 17.12.2019
2453 Clouds 17 1011 88 10000 3.1 360 08:21 17.12.2019
2454 Thunderstorm 17 1012 88 10000 3.6 340 07:57 17.12.2019
2455 Thunderstorm 17 1012 88 10000 3.6 340 07:38 17.12.2019
2456 Thunderstorm 17 1012 88 10000 3.6 340 07:18 17.12.2019
2457 Clouds 17 1012 87 10000 3.1 330 06:36 17.12.2019
2458 Clouds 17 1011 82 10000 2.6 40 06:18 17.12.2019
2459 Clouds 17 1011 82 10000 2.6 40 05:38 17.12.2019
2460 Clouds 17 1012 88 10000 2.1 60 04:46 17.12.2019
2461 Clouds 18 1011 82 10000 2.1 60 03:31 17.12.2019
2462 Thunderstorm 19 1011 77 10000 3.1 120 01:58 17.12.2019
2463 Thunderstorm 19 1011 77 10000 3.1 120 01:21 17.12.2019
2464 Clouds 19 1010 72 10000 3.6 120 00:39 17.12.2019
2465 Clouds 20 1010 72 10000 3.6 120 00:21 17.12.2019
2466 Clouds 20 1010 73 10000 4.6 120 23:43 16.12.2019
2467 Clouds 21 1010 73 10000 4.6 120 23:19 16.12.2019
2468 Clouds 22 1009 56 10000 3.1 160 22:58 16.12.2019
2469 Clouds 22 1009 56 10000 3.1 160 22:38 16.12.2019
2470 Clouds 22 1009 56 10000 3.1 160 22:20 16.12.2019
2471 Clouds 24 1010 53 10000 4.1 180 21:56 16.12.2019
2472 Clouds 24 1010 53 10000 4.1 180 21:38 16.12.2019
2473 Clouds 23 1010 53 10000 4.1 180 21:20 16.12.2019
2474 Clouds 24 1010 41 10000 5.1 200 20:58 16.12.2019
2475 Clouds 24 1010 41 10000 5.1 200 20:39 16.12.2019
2476 Clouds 24 1010 41 10000 5.1 200 20:19 16.12.2019
2477 Clouds 24 1010 44 10000 5.1 240 19:56 16.12.2019
2478 Clouds 24 1010 44 10000 5.1 240 19:37 16.12.2019
2479 Clouds 24 1010 44 10000 5.1 240 19:19 16.12.2019
2480 Clouds 24 1011 50 10000 5.1 250 18:58 16.12.2019
2481 Clouds 24 1011 50 10000 5.1 250 18:58 16.12.2019
2482 Clouds 24 1011 50 10000 5.1 250 18:40 16.12.2019
2483 Clouds 25 1011 50 10000 5.1 250 18:20 16.12.2019
2484 Clouds 24 1011 57 10000 4.6 270 17:57 16.12.2019
2485 Clouds 24 1011 57 10000 4.6 270 17:57 16.12.2019
2486 Clouds 24 1011 57 10000 4.6 270 17:39 16.12.2019
2487 Clouds 24 1011 57 10000 4.6 270 17:21 16.12.2019
2488 Clouds 24 1011 60 10000 4.1 243 16:57 16.12.2019
2489 Clouds 23 1011 60 10000 4.1 243 16:38 16.12.2019
2490 Clouds 23 1011 60 10000 4.1 243 16:19 16.12.2019
2491 Clouds 23 1010 60 10000 3.6 240 15:58 16.12.2019
2492 Clouds 23 1010 60 10000 3.6 240 15:38 16.12.2019
2493 Clouds 23 1010 60 10000 3.6 240 15:20 16.12.2019
2494 Clouds 23 1010 68 10000 3.6 240 14:55 16.12.2019
2495 Clouds 22 1010 68 10000 3.6 240 14:37 16.12.2019
2496 Clouds 22 1010 68 10000 3.6 240 14:19 16.12.2019
2497 Clouds 22 1010 73 10000 3.6 220 13:56 16.12.2019
2498 Clouds 21 1010 73 10000 3.6 220 13:37 16.12.2019
2499 Clouds 21 1010 73 10000 3.6 220 13:19 16.12.2019
2500 Clouds 20 1010 82 10000 2.6 240 12:57 16.12.2019
2501 Clouds 20 1010 82 10000 2.6 240 12:57 16.12.2019
2502 Clouds 20 1010 82 10000 2.6 240 12:39 16.12.2019
2503 Clouds 20 1010 82 10000 2.6 240 12:18 16.12.2019
2504 Clouds 18 1010 88 10000 1 240 11:57 16.12.2019
2505 Clouds 18 1010 88 10000 1 240 11:39 16.12.2019
2506 Clouds 19 1010 88 10000 1 240 11:19 16.12.2019
2507 Clouds 16 1009 93 10000 3.98 213 10:56 16.12.2019
2508 Clouds 16 1009 93 10000 3.88 212 10:36 16.12.2019
2509 Clouds 16 1009 93 10000 3.88 212 10:18 16.12.2019
2510 Clouds 16 1007 87 10000 3.88 212 09:44 16.12.2019
2511 Clouds 16 1007 87 10000 3.88 212 09:44 16.12.2019
2512 Clouds 15 1007 87 10000 3.98 213 09:26 16.12.2019
2513 Clouds 16 1007 82 10000 3.98 213 08:41 16.12.2019
2514 Clouds 16 1007 82 10000 6.58 185 08:21 16.12.2019
2515 Clouds 17 1007 77 10000 2.6 150 07:57 16.12.2019
2516 Clouds 17 1007 77 10000 2.6 150 07:38 16.12.2019
2517 Clouds 17 1007 77 10000 2.6 150 07:19 16.12.2019
2518 Clouds 16 1007 82 10000 3.1 190 06:40 16.12.2019
2519 Clouds 16 1007 82 10000 3.1 190 06:22 16.12.2019
2520 Clouds 16 1007 82 10000 3.1 190 06:22 16.12.2019
2521 Clouds 17 1006 77 10000 3.6 170 05:44 16.12.2019
2522 Clouds 17 1006 77 10000 3.6 170 05:26 16.12.2019
2523 Clouds 18 1007 82 8000 6.7 180 03:41 16.12.2019
2524 Clouds 18 1005 88 10000 8.2 190 01:58 16.12.2019
2525 Clouds 18 1005 88 10000 8.2 190 01:39 16.12.2019
2526 Rain 18 1004 93 10000 7.7 150 00:41 16.12.2019
2527 Rain 18 1004 93 10000 7.7 150 00:23 16.12.2019
2528 Rain 18 1003 93 8000 8.2 170 23:58 15.12.2019
2529 Rain 18 1003 93 8000 8.2 170 23:38 15.12.2019
2530 Rain 18 1003 93 8000 8.2 170 23:19 15.12.2019
2531 Rain 19 1003 93 8000 4.1 200 22:55 15.12.2019
2532 Rain 19 1003 93 8000 4.1 200 22:37 15.12.2019
2533 Rain 19 1003 93 8000 4.1 200 22:18 15.12.2019
2534 Rain 19 1003 88 3000 2.1 250 21:55 15.12.2019
2535 Clouds 21 1003 64 10000 2.6 330 21:37 15.12.2019
2536 Clouds 21 1003 64 10000 2.6 330 21:37 15.12.2019
2537 Clouds 21 1003 64 10000 2.6 330 21:18 15.12.2019
2538 Rain 22 1004 64 4000 3.6 310 20:54 15.12.2019
2539 Rain 22 1004 64 10000 2.6 310 20:36 15.12.2019
2540 Rain 22 1004 64 10000 2.6 310 20:36 15.12.2019
2541 Rain 22 1004 64 10000 2.6 310 20:18 15.12.2019
2542 Clouds 23 1004 69 10000 2.6 340 19:54 15.12.2019
2543 Clouds 23 1004 69 10000 2.6 340 19:36 15.12.2019
2544 Clouds 22 1004 69 10000 2.6 340 19:18 15.12.2019
2545 Clouds 22 1004 78 10000 3.1 20 18:54 15.12.2019
2546 Clouds 22 1004 78 10000 3.1 20 18:36 15.12.2019
2547 Clouds 22 1004 78 10000 3.1 20 18:18 15.12.2019
2548 Clouds 23 1006 78 10000 5.1 350 17:55 15.12.2019
2549 Clouds 23 1006 78 10000 5.1 350 17:36 15.12.2019
2550 Clouds 23 1006 78 10000 5.1 350 17:18 15.12.2019
2551 Clouds 22 1006 78 10000 5.1 10 16:42 15.12.2019
2552 Clouds 22 1006 78 10000 5.1 10 16:22 15.12.2019
2553 Clouds 22 1007 77 10000 5.1 10 15:57 15.12.2019
2554 Clouds 21 1007 77 10000 5.1 10 15:39 15.12.2019
2555 Clouds 21 1007 77 10000 5.1 10 15:19 15.12.2019
2556 Rain 21 1008 82 10000 4.1 10 14:56 15.12.2019
2557 Rain 20 1008 82 10000 4.1 10 14:37 15.12.2019
2558 Rain 20 1008 82 10000 4.1 10 14:19 15.12.2019
2559 Rain 21 1009 83 10000 5.1 20 13:58 15.12.2019
2560 Rain 21 1009 83 10000 5.1 20 13:38 15.12.2019
2561 Rain 21 1009 83 10000 5.1 20 13:19 15.12.2019
2562 Drizzle 21 1008 82 10000 3.1 60 12:57 15.12.2019
2563 Drizzle 21 1008 82 10000 3.1 60 12:39 15.12.2019
2564 Drizzle 21 1008 82 10000 3.1 60 12:21 15.12.2019
2565 Clouds 21 1009 73 10000 1.5 70 11:58 15.12.2019
2566 Clouds 21 1009 73 10000 1.5 70 11:37 15.12.2019
2567 Clouds 21 1009 73 10000 1.5 70 11:19 15.12.2019
2568 Clouds 21 1009 73 10000 2.6 80 10:55 15.12.2019
2569 Clouds 21 1009 73 10000 2.6 80 10:37 15.12.2019
2570 Clouds 20 1009 73 10000 2.6 80 10:19 15.12.2019
2571 Rain 20 1008 73 10000 3.79 65 09:41 15.12.2019
2572 Rain 20 1008 73 10000 3.79 65 09:20 15.12.2019
2573 Rain 21 1010 73 10000 3.79 65 08:59 15.12.2019
2574 Rain 21 1010 73 10000 3.79 65 08:41 15.12.2019
2575 Clouds 21 1010 73 10000 5.3 356 08:22 15.12.2019
2576 Clouds 21 1010 73 10000 5.3 356 08:22 15.12.2019
2577 Clouds 21 1009 73 10000 1.5 60 07:56 15.12.2019
2578 Clouds 21 1009 73 10000 1.5 60 07:36 15.12.2019
2579 Clouds 21 1010 73 10000 2.6 330 06:56 15.12.2019
2580 Clouds 21 1010 73 10000 2.6 330 06:21 15.12.2019
2581 Clouds 22 1010 60 10000 4.1 30 05:37 15.12.2019
2582 Clouds 22 1010 60 10000 4.1 30 05:18 15.12.2019
2583 Clouds 23 1012 53 10000 1.5 340 03:56 15.12.2019
2584 Clouds 22 1011 53 10000 2.1 10 02:35 15.12.2019
2585 Clouds 24 1011 53 10000 1 0 01:55 15.12.2019
2586 Clouds 24 1011 53 10000 1 0 01:37 15.12.2019
2587 Clouds 23 1011 53 10000 1 0 01:18 15.12.2019
2588 Clouds 24 1011 64 10000 2.1 100 00:42 15.12.2019
2589 Clouds 24 1011 64 10000 2.1 100 00:23 15.12.2019
2590 Clouds 24 1011 50 10000 4.1 100 23:40 14.12.2019
2591 Clouds 25 1011 50 10000 4.1 100 23:21 14.12.2019
2592 Clouds 25 1012 47 10000 5.7 100 22:59 14.12.2019
2593 Clouds 25 1012 47 10000 5.7 100 22:40 14.12.2019
2594 Clouds 25 1012 47 10000 5.7 100 22:21 14.12.2019
2595 Clouds 26 1012 47 10000 6.2 130 21:56 14.12.2019
2596 Clouds 26 1012 47 10000 6.2 130 21:38 14.12.2019
2597 Clouds 26 1012 47 10000 6.2 130 21:19 14.12.2019
2598 Clouds 27 1012 28 10000 6.2 180 20:57 14.12.2019
2599 Clouds 27 1012 28 10000 6.2 180 20:39 14.12.2019
2600 Clear 27 1012 28 10000 6.2 180 20:19 14.12.2019
2601 Clear 29 1012 23 10000 5.7 20 19:57 14.12.2019
2602 Clear 29 1012 23 10000 5.7 20 19:37 14.12.2019
2603 Clear 30 1012 23 10000 5.7 20 19:19 14.12.2019
2604 Clear 30 1012 25 10000 5.1 30 18:56 14.12.2019
2605 Clear 29 1012 25 10000 5.1 30 18:37 14.12.2019
2606 Clear 29 1012 25 10000 5.1 30 18:19 14.12.2019
2607 Clear 29 1012 25 10000 5.1 30 18:19 14.12.2019
2608 Clear 29 1014 27 10000 6.7 10 17:43 14.12.2019
2609 Clear 29 1014 27 10000 6.7 10 17:24 14.12.2019
2610 Clear 29 1014 30 10000 6.2 10 16:58 14.12.2019
2611 Clear 29 1014 30 10000 6.2 10 16:38 14.12.2019
2612 Clear 29 1014 30 10000 6.2 10 16:38 14.12.2019
2613 Clear 29 1014 30 10000 6.2 10 16:38 14.12.2019
2614 Clear 29 1014 30 10000 6.2 10 16:18 14.12.2019
2615 Clear 27 1015 36 10000 6.2 10 15:43 14.12.2019
2616 Clear 27 1015 36 10000 6.2 10 15:22 14.12.2019
2617 Clear 25 1016 47 10000 8.2 20 14:59 14.12.2019
2618 Clear 25 1016 47 10000 8.2 20 14:38 14.12.2019
2619 Clouds 25 1016 47 10000 8.2 20 14:19 14.12.2019
2620 Clouds 23 1016 52 10000 7.2 20 13:55 14.12.2019
2621 Clouds 22 1016 52 10000 7.2 20 13:37 14.12.2019
2622 Clouds 22 1016 52 10000 7.2 20 13:18 14.12.2019
2623 Clouds 20 1016 55 10000 7.7 20 12:54 14.12.2019
2624 Clouds 20 1016 55 10000 7.7 20 12:36 14.12.2019
2625 Clouds 20 1016 55 10000 7.7 20 12:18 14.12.2019
2626 Clouds 17 1015 67 10000 7.2 30 11:54 14.12.2019
2627 Clouds 16 1015 67 10000 7.2 30 11:36 14.12.2019
2628 Clouds 17 1015 67 10000 7.2 30 11:18 14.12.2019
2629 Clouds 16 1015 67 10000 4.6 40 10:55 14.12.2019
2630 Clouds 14 1015 67 10000 4.6 40 10:36 14.12.2019
2631 Clouds 15 1015 67 10000 4.6 40 10:18 14.12.2019
2632 Clouds 14 1015 67 10000 3.1 30 09:40 14.12.2019
2633 Clouds 14 1015 67 10000 3.1 30 09:20 14.12.2019
2634 Clouds 14 1015 67 10000 2.6 30 08:44 14.12.2019
2635 Clouds 14 1015 67 10000 2.6 30 08:20 14.12.2019
2636 Clouds 15 1015 62 10000 2.6 30 07:57 14.12.2019
2637 Clouds 15 1015 62 10000 2.6 30 07:38 14.12.2019
2638 Clouds 15 1015 62 10000 2.6 30 07:19 14.12.2019
2639 Clouds 15 1015 62 10000 2.6 30 07:19 14.12.2019
2640 Clouds 16 1015 59 10000 3.6 40 06:39 14.12.2019
2641 Clouds 16 1015 59 10000 3.6 40 06:20 14.12.2019
2642 Clear 16 1015 55 10000 2.6 50 05:22 14.12.2019
2643 Clear 18 1015 45 10000 3.6 80 02:49 14.12.2019
2644 Clouds 19 1015 45 10000 3.6 80 02:22 14.12.2019
2645 Clouds 19 1015 49 10000 4.1 100 01:43 14.12.2019
2646 Clouds 20 1014 42 10000 4.1 120 00:54 14.12.2019
2647 Clouds 20 1014 42 10000 4.1 120 00:36 14.12.2019
2648 Clouds 20 1014 42 10000 4.1 120 00:18 14.12.2019
2649 Clouds 20 1014 37 10000 5.1 100 23:39 13.12.2019
2650 Clouds 20 1014 37 10000 5.1 100 23:19 13.12.2019
2651 Clouds 20 1014 32 10000 5.7 120 22:55 13.12.2019
2652 Clouds 21 1014 32 10000 5.7 120 22:36 13.12.2019
2653 Clouds 21 1014 32 10000 5.7 120 22:18 13.12.2019
2654 Clouds 21 1014 35 10000 4.6 130 21:40 13.12.2019
2655 Clouds 22 1014 35 10000 4.6 130 21:21 13.12.2019
2656 Clouds 22 1015 38 10000 5.7 170 20:57 13.12.2019
2657 Clouds 21 1014 55 0 4.92 141 20:38 13.12.2019
2658 Clouds 22 1015 38 10000 5.7 160 20:19 13.12.2019
2659 Clouds 22 1015 38 10000 5.7 160 19:56 13.12.2019
2660 Clouds 22 1015 38 10000 5.7 160 19:37 13.12.2019
2661 Clouds 22 1015 38 10000 5.7 160 19:18 13.12.2019
2662 Clouds 23 1016 31 10000 4.6 180 18:42 13.12.2019
2663 Clouds 23 1016 31 10000 4.6 180 18:20 13.12.2019
2664 Clouds 23 1016 31 10000 4.6 180 18:20 13.12.2019
2665 Clouds 22 1016 27 10000 2.1 330 17:59 13.12.2019
2666 Clouds 22 1016 27 10000 2.1 330 17:39 13.12.2019
2667 Clouds 22 1016 27 10000 2.1 330 17:18 13.12.2019
2668 Clouds 21 1017 35 10000 4.6 150 16:56 13.12.2019
2669 Clouds 21 1017 35 10000 4.6 150 16:38 13.12.2019
2670 Clouds 21 1017 35 10000 4.6 150 16:19 13.12.2019
2671 Clouds 20 1017 34 10000 2.6 130 15:42 13.12.2019
2672 Clouds 20 1017 34 10000 2.6 130 15:21 13.12.2019
2673 Clouds 19 1017 37 10000 3.6 140 14:57 13.12.2019
2674 Clouds 19 1017 37 10000 3.6 140 14:37 13.12.2019
2675 Clouds 19 1017 37 10000 3.6 140 14:19 13.12.2019
2676 Clouds 18 1017 45 10000 3.1 150 13:43 13.12.2019
2677 Clouds 18 1017 45 10000 3.1 150 13:24 13.12.2019
2678 Clouds 18 1017 45 10000 3.1 150 13:24 13.12.2019
2679 Clouds 18 1017 45 10000 3.1 190 12:57 13.12.2019
2680 Clouds 17 1017 45 10000 3.1 190 12:39 13.12.2019
2681 Clouds 17 1017 45 10000 3.1 190 12:18 13.12.2019
2682 Clouds 16 1017 51 10000 2.62 162 11:43 13.12.2019
2683 Clouds 16 1017 51 10000 2.62 162 11:25 13.12.2019
2684 Clouds 14 1016 54 10000 5.53 195 10:56 13.12.2019
2685 Clouds 14 1016 54 10000 5.53 195 10:38 13.12.2019
2686 Clouds 14 1016 54 10000 5.53 195 10:20 13.12.2019
2687 Clouds 14 1016 54 10000 2.6 210 09:42 13.12.2019
2688 Clouds 14 1016 54 10000 2.6 210 09:21 13.12.2019
2689 Clouds 14 1015 54 10000 3.1 200 08:45 13.12.2019
2690 Clouds 14 1015 54 10000 3.1 200 08:27 13.12.2019
2691 Clear 14 1015 47 10000 5.7 190 07:50 13.12.2019
2692 Clear 14 1015 47 10000 5.7 190 07:27 13.12.2019
2693 Clear 14 1016 47 10000 6.2 200 06:57 13.12.2019
2694 Clear 14 1016 47 10000 6.2 200 06:32 13.12.2019
2695 Clear 15 1015 48 10000 7.2 200 05:52 13.12.2019
2696 Clear 15 1015 48 10000 7.2 200 05:33 13.12.2019
2697 Clouds 16 1015 48 10000 7.7 210 04:54 13.12.2019
2698 Clouds 17 1015 45 10000 7.2 210 03:55 13.12.2019
2699 Clouds 18 1014 52 10000 7.2 200 02:35 13.12.2019
2700 Clouds 18 1013 48 10000 7.2 210 01:54 13.12.2019
2701 Clouds 19 1013 48 10000 7.2 210 01:27 13.12.2019
2702 Clouds 19 1012 55 10000 5.1 200 00:47 13.12.2019
2703 Clouds 20 1012 55 10000 5.1 200 00:26 13.12.2019
2704 Clouds 20 1011 40 10000 7.7 210 23:42 12.12.2019
2705 Clouds 21 1011 40 10000 7.7 210 23:24 12.12.2019
2706 Clouds 22 1011 35 10000 6.2 210 22:56 12.12.2019
2707 Clouds 22 1011 35 10000 6.2 210 22:38 12.12.2019
2708 Clouds 22 1011 35 10000 6.2 210 22:38 12.12.2019
2709 Clouds 22 1011 35 10000 6.2 210 22:20 12.12.2019
2710 Clouds 22 1010 37 10000 6.2 210 21:56 12.12.2019
2711 Clouds 23 1010 37 10000 6.2 210 21:37 12.12.2019
2712 Clouds 22 1010 37 10000 6.2 210 21:19 12.12.2019
2713 Clouds 23 1010 40 10000 7.7 210 20:58 12.12.2019
2714 Clouds 23 1010 40 10000 7.7 210 20:40 12.12.2019
2715 Clouds 23 1010 40 10000 7.7 210 20:21 12.12.2019
2716 Clouds 23 1009 43 10000 7.7 210 19:56 12.12.2019
2717 Clouds 23 1009 43 10000 7.7 210 19:37 12.12.2019
2718 Clouds 23 1009 43 10000 7.7 210 19:18 12.12.2019
2719 Clouds 23 1009 46 10000 10.3 210 18:55 12.12.2019
2720 Clouds 22 1009 46 10000 10.3 210 18:37 12.12.2019
2721 Clouds 22 1009 46 10000 10.3 210 18:19 12.12.2019
2722 Clouds 23 1008 56 10000 8.7 210 17:56 12.12.2019
2723 Clouds 23 1008 56 10000 8.7 210 17:38 12.12.2019
2724 Clouds 23 1008 56 10000 8.7 210 17:19 12.12.2019
2725 Clouds 22 1007 56 10000 8.2 240 16:54 12.12.2019
2726 Clouds 23 1007 56 10000 8.2 240 16:36 12.12.2019
2727 Clouds 23 1007 56 10000 8.2 240 16:18 12.12.2019
2728 Clouds 24 1006 53 10000 7.7 220 15:42 12.12.2019
2729 Clouds 24 1006 53 10000 7.7 220 15:20 12.12.2019
2730 Clouds 24 1006 53 10000 7.7 220 15:20 12.12.2019
2731 Clear 24 1006 49 10000 7.7 240 14:57 12.12.2019
2732 Clear 24 1006 49 10000 7.7 240 14:57 12.12.2019
2733 Clear 24 1006 47 10000 9.3 240 14:37 12.12.2019
2734 Clouds 24 1006 47 10000 9.3 240 14:19 12.12.2019
2735 Clouds 24 1004 41 10000 8.7 260 13:55 12.12.2019
2736 Clouds 24 1005 47 10000 7.7 260 13:37 12.12.2019
2737 Clouds 24 1005 47 10000 7.7 260 13:19 12.12.2019
2738 Clouds 24 1004 69 10000 9.3 270 12:55 12.12.2019
2739 Clouds 24 1004 69 10000 9.3 270 12:37 12.12.2019
2740 Clouds 23 1004 69 10000 9.3 270 12:18 12.12.2019
2741 Clouds 21 1003 77 10000 4.1 300 11:43 12.12.2019
2742 Clouds 20 1003 77 10000 4.1 300 11:22 12.12.2019
2743 Clouds 21 1003 88 10000 2.1 330 10:59 12.12.2019
2744 Clouds 20 1003 88 10000 2.1 330 10:41 12.12.2019
2745 Clouds 20 1003 88 10000 2.1 330 10:23 12.12.2019
2746 Clouds 21 1002 82 10000 2.6 340 09:58 12.12.2019
2747 Clouds 21 1002 82 10000 2.6 340 09:40 12.12.2019
2748 Clouds 21 1002 82 10000 2.6 340 09:21 12.12.2019
2749 Clouds 21 1001 82 10000 3.1 350 08:54 12.12.2019
2750 Clouds 21 1001 82 10000 3.1 350 08:36 12.12.2019
2751 Clouds 19 1001 82 10000 3.1 350 08:18 12.12.2019
2752 Clouds 19 1000 82 10000 7.7 20 07:41 12.12.2019
2753 Clouds 19 1000 82 10000 7.7 20 07:21 12.12.2019
2754 Clouds 20 1004 77 10000 4.6 20 06:43 12.12.2019
2755 Clouds 20 1004 77 10000 4.6 20 06:23 12.12.2019
2756 Thunderstorm 20 1004 77 10000 1.5 90 05:35 12.12.2019
2757 Thunderstorm 22 1006 73 8000 3.1 270 04:49 12.12.2019
2758 Thunderstorm 24 1004 65 10000 9.8 200 02:57 12.12.2019
2759 Thunderstorm 25 1004 65 10000 9.8 200 02:37 12.12.2019
2760 Thunderstorm 25 1004 65 10000 9.8 200 02:18 12.12.2019
2761 Thunderstorm 29 1002 54 10000 6.7 190 01:36 12.12.2019
2762 Clouds 27 1002 42 10000 2.1 110 01:18 12.12.2019
2763 Clouds 27 1002 42 10000 2.1 110 00:40 12.12.2019
2764 Clouds 29 1002 42 10000 2.1 110 00:18 12.12.2019
2765 Clouds 29 1001 31 10000 1 200 23:42 11.12.2019
2766 Clouds 29 1001 31 10000 1 200 23:20 11.12.2019
2767 Clouds 30 1002 29 10000 2.6 240 22:57 11.12.2019
2768 Clouds 30 1002 29 10000 2.6 240 22:57 11.12.2019
2769 Clouds 30 1002 29 10000 2.6 240 22:38 11.12.2019
2770 Clouds 31 1002 29 10000 2.6 240 22:19 11.12.2019
2771 Clouds 32 1002 26 10000 3.1 210 21:57 11.12.2019
2772 Clouds 32 1002 26 10000 3.1 210 21:37 11.12.2019
2773 Clouds 32 1002 26 10000 3.1 210 21:37 11.12.2019
2774 Clouds 32 1002 26 10000 3.1 210 21:19 11.12.2019
2775 Clouds 32 1002 26 10000 3.1 210 21:19 11.12.2019
2776 Clouds 32 1002 26 10000 4.1 230 20:56 11.12.2019
2777 Clouds 31 1002 26 10000 4.1 230 20:37 11.12.2019
2778 Clouds 31 1002 26 10000 4.1 230 20:19 11.12.2019
2779 Clouds 32 1003 30 10000 5.7 160 19:57 11.12.2019
2780 Clouds 31 1003 30 10000 5.7 160 19:38 11.12.2019
2781 Clouds 31 1003 30 10000 5.7 160 19:18 11.12.2019
2782 Rain 28 1003 75 0 1.79 93 18:40 11.12.2019
2783 Clouds 33 1004 30 10000 4.1 300 18:21 11.12.2019
2784 Clouds 31 1005 29 10000 3.6 130 17:57 11.12.2019
2785 Clouds 30 1005 29 10000 3.6 130 17:38 11.12.2019
2786 Clouds 32 1005 29 10000 3.6 130 17:18 11.12.2019
2787 Clouds 30 1006 35 10000 2.1 130 16:57 11.12.2019
2788 Clouds 30 1006 35 10000 2.1 130 16:38 11.12.2019
2789 Clouds 31 1006 35 10000 2.1 130 16:20 11.12.2019
2790 Clouds 31 1007 35 10000 3.1 230 15:58 11.12.2019
2791 Clouds 32 1007 35 10000 3.1 230 15:39 11.12.2019
2792 Clouds 32 1007 35 10000 3.1 230 15:20 11.12.2019
2793 Clouds 31 1007 43 10000 3.1 260 14:56 11.12.2019
2794 Clouds 31 1007 43 10000 3.1 260 14:37 11.12.2019
2795 Clouds 31 1007 43 10000 3.1 260 14:37 11.12.2019
2796 Rain 31 1007 43 10000 3.1 260 14:19 11.12.2019
2797 Rain 29 1008 48 10000 2.1 250 13:54 11.12.2019
2798 Rain 29 1008 48 10000 2.1 250 13:36 11.12.2019
2799 Clouds 29 1008 48 10000 2.1 250 13:18 11.12.2019
2800 Clouds 27 1008 54 10000 1 330 12:54 11.12.2019
2801 Clouds 27 1008 54 10000 1 330 12:36 11.12.2019
2802 Clouds 26 1008 54 10000 1 330 12:18 11.12.2019
2803 Clouds 23 1007 60 10000 1.5 350 11:55 11.12.2019
2804 Clouds 23 1007 60 10000 1.5 350 11:37 11.12.2019
2805 Clouds 23 1007 60 10000 1.5 350 11:18 11.12.2019
2806 Clouds 22 1007 64 10000 1.5 340 10:41 11.12.2019
2807 Clouds 21 1007 64 10000 1.5 340 10:23 11.12.2019
2808 Clouds 21 1006 60 10000 1.5 10 09:58 11.12.2019
2809 Clouds 20 1006 60 10000 1.5 10 09:38 11.12.2019
2810 Clouds 20 1006 60 10000 1.5 10 09:20 11.12.2019
2811 Clouds 22 1006 53 10000 2.1 30 08:56 11.12.2019
2812 Clouds 22 1006 53 10000 2.1 30 08:37 11.12.2019
2813 Clouds 21 1006 53 10000 2.1 30 08:18 11.12.2019
2814 Clouds 21 1007 49 10000 2.6 40 07:45 11.12.2019
2815 Clouds 21 1007 49 10000 2.6 40 07:25 11.12.2019
2816 Clouds 22 1007 46 10000 3.6 30 06:46 11.12.2019
2817 Clouds 22 1007 46 10000 3.6 30 06:25 11.12.2019
2818 Clouds 23 1007 44 10000 1 330 05:56 11.12.2019
2819 Clouds 23 1007 44 10000 1 330 05:37 11.12.2019
2820 Clouds 25 1008 36 10000 1.5 250 04:55 11.12.2019
2821 Clouds 25 1007 39 10000 5.66 26 03:41 11.12.2019
2822 Clouds 26 1007 41 10000 2.1 340 02:40 11.12.2019
2823 Clear 27 1007 39 10000 2.1 320 01:22 11.12.2019
2824 Clouds 32 1007 37 10000 1.5 310 00:45 11.12.2019
2825 Clouds 30 1007 37 10000 1.5 310 00:21 11.12.2019
2826 Clouds 31 1007 38 10000 5.1 270 23:46 10.12.2019
2827 Clouds 31 1007 38 10000 5.1 270 23:27 10.12.2019
2828 Clear 34 1007 31 10000 6.2 270 22:57 10.12.2019
2829 Clear 34 1007 31 10000 6.2 270 22:39 10.12.2019
2830 Clear 34 1007 31 10000 6.2 270 22:21 10.12.2019
2831 Clouds 35 1007 32 10000 7.7 270 21:55 10.12.2019
2832 Clouds 35 1007 32 10000 7.7 270 21:37 10.12.2019
2833 Clouds 34 1007 32 10000 7.7 270 21:18 10.12.2019
2834 Clouds 33 1007 33 10000 9.3 270 20:56 10.12.2019
2835 Clouds 33 1007 33 10000 9.3 270 20:37 10.12.2019
2836 Clouds 33 1007 33 10000 9.3 270 20:18 10.12.2019
2837 Clouds 33 1008 33 10000 9.3 270 19:54 10.12.2019
2838 Clouds 33 1008 33 10000 9.3 270 19:36 10.12.2019
2839 Clouds 33 1008 33 10000 9.3 270 19:36 10.12.2019
2840 Clouds 34 1008 33 10000 9.3 270 19:18 10.12.2019
2841 Clouds 34 1009 31 10000 10.3 270 18:39 10.12.2019
2842 Clouds 34 1009 31 10000 10.3 270 18:20 10.12.2019
2843 Clouds 33 1009 32 10000 8.2 260 17:57 10.12.2019
2844 Clouds 33 1009 32 10000 8.2 260 17:39 10.12.2019
2845 Clouds 33 1009 32 10000 8.2 260 17:20 10.12.2019
2846 Clouds 32 1010 33 10000 10.3 270 16:43 10.12.2019
2847 Clouds 32 1010 33 10000 10.3 270 16:21 10.12.2019
2848 Clouds 32 1010 33 10000 10.3 270 16:21 10.12.2019
2849 Clear 32 1010 33 10000 10.3 270 15:59 10.12.2019
2850 Clear 32 1010 33 10000 10.3 270 15:37 10.12.2019
2851 Clear 32 1010 33 10000 10.3 270 15:18 10.12.2019
2852 Clear 31 1010 35 10000 8.7 270 14:56 10.12.2019
2853 Clear 31 1010 35 10000 8.7 270 14:37 10.12.2019
2854 Clear 31 1010 35 10000 8.7 270 14:37 10.12.2019
2855 Clear 31 1010 35 10000 8.7 270 14:19 10.12.2019
2856 Clear 30 1010 45 10000 5.1 300 13:56 10.12.2019
2857 Clear 30 1010 45 10000 5.1 300 13:38 10.12.2019
2858 Clear 29 1010 45 10000 5.1 300 13:19 10.12.2019
2859 Clear 27 1010 54 10000 6.2 320 12:45 10.12.2019
2860 Clear 27 1010 54 10000 6.2 320 12:45 10.12.2019
2861 Clear 27 1010 54 10000 6.2 320 12:25 10.12.2019
2862 Clear 23 1009 68 10000 6.2 350 11:45 10.12.2019
2863 Clear 22 1009 68 10000 6.2 350 11:25 10.12.2019
2864 Clear 21 1009 64 10000 4.6 340 10:57 10.12.2019
2865 Clear 21 1009 64 10000 4.6 340 10:39 10.12.2019
2866 Clear 21 1009 64 10000 4.6 340 10:39 10.12.2019
2867 Clear 20 1009 64 10000 4.6 340 10:21 10.12.2019
2868 Clear 19 1008 64 10000 6.7 360 09:56 10.12.2019
2869 Clear 19 1008 64 10000 6.7 360 09:38 10.12.2019
2870 Clear 19 1008 64 10000 6.7 360 09:38 10.12.2019
2871 Clear 19 1008 64 10000 6.7 360 09:20 10.12.2019
2872 Clear 20 1008 60 10000 3.6 20 08:57 10.12.2019
2873 Clear 20 1008 60 10000 3.6 20 08:57 10.12.2019
2874 Clear 20 1008 60 10000 3.6 20 08:38 10.12.2019
2875 Clear 20 1008 60 10000 3.6 20 08:19 10.12.2019
2876 Clear 20 1008 56 10000 5.7 20 07:44 10.12.2019
2877 Clear 21 1008 56 10000 5.7 20 07:26 10.12.2019
2878 Clear 21 1008 60 10000 5.1 20 06:49 10.12.2019
2879 Clear 22 1008 60 10000 5.1 20 06:24 10.12.2019
2880 Clear 22 1009 60 10000 5.7 20 05:55 10.12.2019
2881 Clear 23 1009 53 10000 6.2 20 04:58 10.12.2019
2882 Clear 24 1009 53 10000 4.1 30 03:47 10.12.2019
2883 Clear 24 1009 53 10000 1.5 30 02:48 10.12.2019
2884 Clear 24 1009 53 10000 1.5 30 02:48 10.12.2019
2885 Clear 23 1008 57 10000 6.94 69 01:51 10.12.2019
2886 Clear 23 1008 57 10000 7.41 63 01:26 10.12.2019
2887 Clear 23 1008 57 10000 7.41 63 01:26 10.12.2019
2888 Clear 24 1008 53 10000 2.6 90 00:49 10.12.2019
2889 Clear 26 1008 53 10000 2.6 90 00:24 10.12.2019
2890 Clouds 26 1008 48 10000 3.1 90 23:45 09.12.2019
2891 Clouds 26 1008 48 10000 3.1 90 23:24 09.12.2019
2892 Clouds 27 1008 33 10000 2.6 280 22:59 09.12.2019
2893 Clouds 27 1008 33 10000 2.6 280 22:40 09.12.2019
2894 Clouds 27 1008 33 10000 2.6 280 22:21 09.12.2019
2895 Clouds 27 1009 38 10000 4.1 270 21:58 09.12.2019
2896 Clouds 27 1009 38 10000 4.1 270 21:39 09.12.2019
2897 Clouds 27 1009 38 10000 4.1 270 21:19 09.12.2019
2898 Clouds 27 1009 40 10000 3.6 250 20:57 09.12.2019
2899 Clouds 27 1009 40 10000 3.6 250 20:39 09.12.2019
2900 Clouds 27 1009 40 10000 3.6 250 20:20 09.12.2019
2901 Clouds 27 1010 43 10000 3.6 230 19:57 09.12.2019
2902 Clouds 27 1010 43 10000 3.6 230 19:39 09.12.2019
2903 Clouds 27 1010 43 10000 3.6 230 19:20 09.12.2019
2904 Clouds 27 1010 43 10000 3.6 230 19:20 09.12.2019
2905 Clouds 27 1010 43 10000 3.6 230 19:20 09.12.2019
2906 Clouds 27 1011 35 10000 3.1 230 18:59 09.12.2019
2907 Clouds 27 1011 35 10000 3.1 230 18:40 09.12.2019
2908 Clouds 27 1011 35 10000 3.1 230 18:20 09.12.2019
2909 Clear 26 1011 42 10000 6.2 190 17:59 09.12.2019
2910 Clear 26 1011 42 10000 6.2 190 17:59 09.12.2019
2911 Clear 29 1011 42 10000 6.2 190 17:41 09.12.2019
2912 Clear 28 1011 42 10000 6.2 190 17:21 09.12.2019
2913 Clear 29 1011 45 10000 3.6 290 16:57 09.12.2019
2914 -273 0 0 0 0 0 16:39 09.12.2019
2915 Clear 29 1011 45 10000 3.6 290 16:20 09.12.2019
2916 Clear 28 1012 45 10000 4.6 280 15:56 09.12.2019
2917 Clear 29 1012 45 10000 4.6 280 15:38 09.12.2019
2918 Clear 28 1012 45 10000 4.6 280 15:19 09.12.2019
2919 Clear 27 1012 51 10000 3.6 260 14:59 09.12.2019
2920 Clear 27 1012 51 10000 3.6 260 14:40 09.12.2019
2921 Clear 27 1012 51 10000 3.6 260 14:18 09.12.2019
2922 Clouds 26 1012 47 10000 3.1 280 13:55 09.12.2019
2923 Clouds 26 1012 47 10000 3.1 280 13:36 09.12.2019
2924 Clouds 25 1012 47 10000 3.1 280 13:18 09.12.2019
2925 Clouds 24 1012 69 10000 1 0 12:54 09.12.2019
2926 Clouds 23 1012 69 10000 1 0 12:36 09.12.2019
2927 Clouds 23 1012 69 10000 1 0 12:18 09.12.2019
2928 Clear 21 1012 78 10000 1 290 11:40 09.12.2019
2929 Clear 21 1012 78 10000 1 290 11:22 09.12.2019
2930 Clear 18 1011 72 10000 2.11 249 10:59 09.12.2019
2931 Clear 19 1011 72 10000 2.11 249 10:39 09.12.2019
2932 Clear 18 1011 72 10000 2.11 249 10:19 09.12.2019
2933 Clear 17 1011 72 10000 2.11 249 09:45 09.12.2019
2934 Clear 17 1011 72 10000 2.11 249 09:25 09.12.2019
2935 Clear 19 1011 68 10000 2.11 249 08:57 09.12.2019
2936 Clear 19 1011 68 10000 2.11 249 08:39 09.12.2019
2937 Clear 19 1011 68 10000 3.83 300 08:21 09.12.2019
2938 Clear 18 1010 63 10000 3.83 300 07:52 09.12.2019
2939 Clear 17 1010 63 10000 3.83 300 07:33 09.12.2019
2940 Clear 18 1009 59 10000 3.83 300 06:58 09.12.2019
2941 Clear 17 1009 59 10000 3.83 300 06:32 09.12.2019
2942 Clear 19 1010 49 10000 1.5 340 05:48 09.12.2019
2943 Clear 20 1010 49 10000 1.5 340 05:24 09.12.2019
2944 Rain 21 1009 40 10000 3.1 300 04:28 09.12.2019
2945 Rain 24 1011 47 10000 3.6 190 02:35 09.12.2019
2946 Thunderstorm 25 1010 50 10000 6.7 230 01:47 09.12.2019
2947 Thunderstorm 24 1010 50 10000 6.7 230 01:23 09.12.2019
2948 Clouds 25 1008 38 10000 2.1 320 00:34 09.12.2019
2949 Clouds 27 1008 39 10000 4.1 270 23:58 08.12.2019
2950 Clouds 28 1008 39 10000 4.1 270 23:37 08.12.2019
2951 Clear 28 1008 39 10000 4.1 270 23:19 08.12.2019
2952 Clear 28 1007 37 10000 6.2 280 22:56 08.12.2019
2953 Clear 29 1007 37 10000 6.2 280 22:38 08.12.2019
2954 Clear 28 1007 37 10000 6.2 280 22:18 08.12.2019
2955 Clear 29 1008 35 10000 6.2 280 21:57 08.12.2019
2956 Clear 30 1008 35 10000 6.2 280 21:38 08.12.2019
2957 Clear 30 1008 35 10000 6.2 280 21:19 08.12.2019
2958 Clear 29 1009 37 10000 8.2 260 20:56 08.12.2019
2959 Clear 29 1009 37 10000 8.2 260 20:37 08.12.2019
2960 Clear 29 1009 37 10000 8.2 260 20:19 08.12.2019
2961 Clouds 29 1009 35 10000 10.3 270 19:55 08.12.2019
2962 Clouds 29 1009 35 10000 10.3 270 19:37 08.12.2019
2963 Clouds 29 1009 35 10000 10.3 270 19:19 08.12.2019
2964 Clear 29 1010 28 10000 9.3 260 18:55 08.12.2019
2965 Clear 30 1010 28 10000 9.3 260 18:36 08.12.2019
2966 Clear 30 1010 28 10000 9.3 260 18:36 08.12.2019
2967 Clear 30 1010 28 10000 9.3 260 18:18 08.12.2019
2968 Clear 30 1010 27 10000 8.2 270 17:55 08.12.2019
2969 Clear 30 1010 27 10000 8.2 270 17:37 08.12.2019
2970 Clear 29 1010 27 10000 8.2 270 17:19 08.12.2019
2971 Clear 29 1010 28 10000 6.2 280 16:55 08.12.2019
2972 Clear 29 1010 28 10000 6.2 280 16:37 08.12.2019
2973 Clear 29 1010 28 10000 6.2 280 16:18 08.12.2019
2974 Clear 29 1011 32 10000 7.7 300 15:38 08.12.2019
2975 Clear 29 1011 32 10000 7.7 300 15:19 08.12.2019
2976 Clear 29 1011 32 10000 7.7 300 15:19 08.12.2019
2977 Clear 27 1011 36 10000 5.1 340 14:58 08.12.2019
2978 Clear 27 1011 36 10000 5.1 340 14:39 08.12.2019
2979 Clear 27 1011 36 10000 5.1 340 14:39 08.12.2019
2980 Clear 26 1011 36 10000 5.1 340 14:21 08.12.2019
2981 Clear 23 1012 46 10000 5.1 350 13:56 08.12.2019
2982 Clear 23 1012 46 10000 5.1 350 13:56 08.12.2019
2983 Clear 23 1012 46 10000 5.1 350 13:38 08.12.2019
2984 Clear 20 1012 46 10000 5.1 350 13:19 08.12.2019
2985 Clear 19 1012 63 10000 3.1 10 12:54 08.12.2019
2986 Clear 19 1012 63 10000 3.1 10 12:36 08.12.2019
2987 Clear 19 1012 63 10000 3.1 10 12:18 08.12.2019
2988 Clear 15 1012 77 10000 2.6 10 11:38 08.12.2019
2989 Clear 16 1012 77 10000 2.6 10 11:19 08.12.2019
2990 Clear 15 1012 81 10000 4.1 10 10:58 08.12.2019
2991 Clear 14 1012 81 10000 4.1 10 10:38 08.12.2019
2992 Clear 13 1012 81 10000 4.1 10 10:19 08.12.2019
2993 Clear 12 1011 81 10000 4.1 30 09:56 08.12.2019
2994 Clear 12 1011 81 10000 4.1 30 09:37 08.12.2019
2995 Clear 12 1011 81 10000 4.1 30 09:19 08.12.2019
2996 Clear 12 1011 81 10000 4.1 30 09:19 08.12.2019
2997 Clear 13 1012 76 10000 3.6 10 08:57 08.12.2019
2998 Clear 13 1012 76 10000 3.6 10 08:57 08.12.2019
2999 Clear 13 1012 76 10000 3.6 10 08:57 08.12.2019
3000 Clear 13 1012 76 10000 3.6 10 08:36 08.12.2019
3001 Clouds 13 1012 76 10000 3.6 10 08:18 08.12.2019
3002 Clouds 13 1012 76 10000 3.6 20 07:42 08.12.2019
3003 Clouds 13 1012 76 10000 3.6 20 07:19 08.12.2019
3004 Clouds 12 1013 76 10000 2.6 10 06:47 08.12.2019
3005 Clouds 11 1013 76 10000 2.6 10 06:22 08.12.2019
3006 Clouds 12 1013 71 10000 3.1 30 05:43 08.12.2019
3007 Clouds 12 1013 71 10000 1 0 04:59 08.12.2019
3008 Clouds 14 1013 67 10000 1.5 30 03:49 08.12.2019
3009 Clouds 14 1013 67 10000 1.5 30 03:22 08.12.2019
3010 Clouds 14 1014 58 10000 1 0 02:38 08.12.2019
3011 Clouds 15 1013 51 10000 0.5 0 01:54 08.12.2019
3012 Clear 15 1013 51 10000 0.5 0 01:19 08.12.2019
3013 Clear 18 1014 48 10000 1 0 00:40 08.12.2019
3014 Clear 18 1014 48 10000 1 0 00:20 08.12.2019
3015 Clear 18 1014 45 10000 3.6 150 23:40 07.12.2019
3016 Clear 19 1014 45 10000 3.6 150 23:21 07.12.2019
3017 Clear 19 1014 48 10000 4.1 170 22:57 07.12.2019
3018 Clear 19 1014 48 10000 4.1 170 22:39 07.12.2019
3019 Clear 20 1014 48 10000 4.1 170 22:21 07.12.2019
3020 Clear 20 1014 48 10000 4.6 170 21:56 07.12.2019
3021 Clear 19 1014 48 10000 4.6 170 21:38 07.12.2019
3022 Clear 19 1014 48 10000 4.6 170 21:19 07.12.2019
3023 Clear 20 1014 49 10000 4.6 190 20:59 07.12.2019
3024 Clear 20 1014 49 10000 4.6 190 20:36 07.12.2019
3025 Clear 20 1014 49 10000 4.6 190 20:18 07.12.2019
3026 Clear 20 1015 49 10000 4.1 210 19:56 07.12.2019
3027 Clear 20 1015 49 10000 4.1 210 19:38 07.12.2019
3028 Clear 20 1015 49 10000 4.1 210 19:20 07.12.2019
3029 Clear 20 1015 49 10000 4.6 190 18:44 07.12.2019
3030 Clear 20 1015 49 10000 4.6 190 18:19 07.12.2019
3031 Clear 21 1015 40 10000 3.6 250 17:58 07.12.2019
3032 Clear 21 1015 40 10000 3.6 250 17:40 07.12.2019
3033 Clear 21 1015 40 10000 3.6 250 17:21 07.12.2019
3034 Clear 20 1016 43 10000 3.6 250 16:56 07.12.2019
3035 Clear 21 1016 43 10000 3.6 250 16:38 07.12.2019
3036 Clear 20 1016 43 10000 3.6 250 16:20 07.12.2019
3037 Clear 20 1016 45 10000 3.1 250 15:56 07.12.2019
3038 Clear 20 1016 45 10000 3.1 250 15:38 07.12.2019
3039 Clear 19 1016 45 10000 3.1 250 15:18 07.12.2019
3040 Clouds 19 1016 52 10000 4.1 230 14:42 07.12.2019
3041 Clouds 19 1016 52 10000 4.1 230 14:19 07.12.2019
3042 Clouds 18 1016 52 10000 4.1 240 13:55 07.12.2019
3043 Clouds 18 1016 52 10000 4.1 240 13:37 07.12.2019
3044 Clouds 18 1016 52 10000 4.1 240 13:18 07.12.2019
3045 Clouds 17 1016 63 10000 5.1 230 12:41 07.12.2019
3046 Clouds 17 1016 63 10000 5.1 230 12:22 07.12.2019
3047 Clouds 15 1015 82 10000 2.1 250 11:58 07.12.2019
3048 Clouds 15 1015 82 10000 2.1 250 11:40 07.12.2019
3049 Clouds 15 1015 82 10000 2.1 250 11:21 07.12.2019
3050 Clouds 14 1015 81 10000 5.43 214 10:38 07.12.2019
3051 Clouds 14 1015 81 10000 5.43 214 10:20 07.12.2019
3052 Clouds 13 1014 76 10000 5.43 214 09:58 07.12.2019
3053 Clouds 12 1014 76 10000 5.43 214 09:37 07.12.2019
3054 Clouds 12 1014 76 10000 5.43 214 09:18 07.12.2019
3055 Clouds 14 1014 67 10000 1.5 240 08:41 07.12.2019
3056 Clouds 13 1014 67 10000 1.5 240 08:21 07.12.2019
3057 Clouds 14 1014 67 10000 2.6 210 07:46 07.12.2019
3058 Clouds 14 1014 67 10000 2.6 210 07:26 07.12.2019
3059 Clouds 14 1014 72 10000 3.6 190 06:50 07.12.2019
3060 Clouds 14 1014 72 10000 3.6 190 06:25 07.12.2019
3061 Clouds 14 1014 72 10000 2.1 170 05:34 07.12.2019
3062 Clouds 15 1015 72 10000 3.6 160 04:19 07.12.2019
3063 Clouds 16 1014 72 10000 3.6 160 03:44 07.12.2019
3064 Clouds 16 1014 72 10000 3.6 160 02:21 07.12.2019
3065 Clouds 17 1014 67 10000 4.6 160 01:35 07.12.2019
3066 Clear 18 1013 59 10000 4.1 160 00:55 07.12.2019
3067 Clear 18 1013 59 10000 4.1 160 00:20 07.12.2019
3068 Clear 19 1012 60 10000 6.7 150 23:56 06.12.2019
3069 Clear 19 1012 60 10000 6.7 150 23:38 06.12.2019
3070 Clear 20 1012 60 10000 6.7 150 23:18 06.12.2019
3071 Clear 21 1011 46 10000 5.7 170 22:39 06.12.2019
3072 Clear 22 1011 46 10000 5.7 170 22:20 06.12.2019
3073 Clear 23 1011 33 10000 5.7 170 21:58 06.12.2019
3074 Clear 23 1011 33 10000 5.7 170 21:39 06.12.2019
3075 Clear 23 1011 33 10000 5.7 170 21:20 06.12.2019
3076 Clear 23 1011 25 10000 5.1 200 20:43 06.12.2019
3077 Clear 24 1011 25 10000 5.1 200 20:25 06.12.2019
3078 Clouds 23 1011 38 10000 4.1 200 19:59 06.12.2019
3079 Clouds 23 1011 38 10000 4.1 200 19:40 06.12.2019
3080 Clouds 24 1011 38 10000 4.1 200 19:22 06.12.2019
3081 Clouds 24 1011 31 10000 6.2 190 18:57 06.12.2019
3082 Clouds 25 1011 31 10000 6.2 190 18:39 06.12.2019
3083 Clouds 24 1011 31 10000 6.2 190 18:20 06.12.2019
3084 Clouds 25 1010 33 10000 8.2 180 17:56 06.12.2019
3085 Clouds 25 1010 33 10000 8.2 180 17:56 06.12.2019
3086 Clouds 24 1010 33 10000 8.2 180 17:38 06.12.2019
3087 Clear 25 1010 33 10000 8.2 180 17:19 06.12.2019
3088 Clear 25 1010 33 10000 8.2 180 17:19 06.12.2019
3089 Clear 23 1010 41 10000 7.2 190 16:55 06.12.2019
3090 Clear 24 1010 41 10000 7.2 190 16:37 06.12.2019
3091 Clear 24 1010 41 10000 7.2 190 16:18 06.12.2019
3092 Clear 23 1010 46 10000 7.7 220 15:41 06.12.2019
3093 Clear 23 1010 46 10000 7.7 220 15:19 06.12.2019
3094 Clear 23 1010 46 10000 7.7 220 15:19 06.12.2019
3095 Clear 23 1010 46 10000 8.2 250 14:57 06.12.2019
3096 Clear 23 1010 46 10000 8.2 250 14:39 06.12.2019
3097 Clouds 23 1010 46 10000 8.2 250 14:19 06.12.2019
3098 Clouds 22 1009 60 10000 10.3 260 13:44 06.12.2019
3099 Clouds 22 1009 60 10000 10.3 260 13:26 06.12.2019
3100 Clouds 20 1008 40 10000 9.3 300 12:43 06.12.2019
3101 Clouds 19 1009 48 10000 8.2 310 12:23 06.12.2019
3102 Clouds 19 1009 48 10000 8.2 310 12:23 06.12.2019
3103 Clouds 17 1008 59 10000 6.7 340 11:58 06.12.2019
3104 Clouds 17 1008 59 10000 6.7 340 11:40 06.12.2019
3105 Clouds 16 1008 59 10000 6.7 340 11:22 06.12.2019
3106 Clouds 15 1008 62 10000 4.6 330 10:44 06.12.2019
3107 Clouds 14 1008 62 10000 4.6 330 10:22 06.12.2019
3108 Clouds 13 1007 58 10000 5.1 340 09:59 06.12.2019
3109 Clouds 13 1007 58 10000 5.1 340 09:39 06.12.2019
3110 Clouds 14 1007 58 10000 5.1 340 09:20 06.12.2019
3111 Clouds 13 1007 71 10000 3.6 350 08:57 06.12.2019
3112 Clouds 13 1007 71 10000 3.6 350 08:38 06.12.2019
3113 Clouds 13 1007 71 10000 3.6 350 08:38 06.12.2019
3114 Clear 13 1007 71 10000 3.6 350 08:20 06.12.2019
3115 Clear 12 1007 66 10000 2.1 360 07:37 06.12.2019
3116 Clear 12 1007 66 10000 2.1 360 07:19 06.12.2019
3117 Clear 12 1008 71 10000 1.5 360 06:30 06.12.2019
3118 Clear 13 1008 71 10000 2.6 20 05:54 06.12.2019
3119 Clear 13 1008 71 10000 2.6 20 05:35 06.12.2019
3120 Clear 14 1011 71 10000 1.5 20 02:19 06.12.2019
3121 Clear 15 1010 63 10000 3.14 329 01:43 06.12.2019
3122 Clouds 18 1010 59 10000 2.48 33 00:48 06.12.2019
3123 Clouds 17 1010 59 10000 2.48 33 00:22 06.12.2019
3124 Clouds 18 1010 52 10000 3.1 280 23:50 05.12.2019
3125 Clouds 19 1010 52 10000 3.1 280 23:20 05.12.2019
3126 Clouds 19 1010 52 10000 2.1 270 22:58 05.12.2019
3127 Clouds 19 1010 52 10000 2.1 270 22:38 05.12.2019
3128 Clouds 19 1010 52 10000 2.1 270 22:18 05.12.2019
3129 Clouds 19 1011 49 10000 3.6 250 21:55 05.12.2019
3130 Clouds 19 1011 49 10000 3.6 250 21:37 05.12.2019
3131 Clouds 19 1011 49 10000 3.6 250 21:18 05.12.2019
3132 Clouds 19 1011 52 10000 4.6 211 20:40 05.12.2019
3133 Clouds 19 1011 52 10000 4.6 211 20:21 05.12.2019
3134 Clouds 18 1012 55 10000 4.6 240 19:59 05.12.2019
3135 Clouds 18 1012 55 10000 4.6 240 19:40 05.12.2019
3136 Clouds 18 1012 55 10000 4.6 240 19:21 05.12.2019
3137 Clouds 18 1012 59 10000 5.7 240 18:57 05.12.2019
3138 Clouds 17 1012 59 10000 5.7 240 18:38 05.12.2019
3139 Clouds 18 1012 59 10000 5.7 240 18:20 05.12.2019
3140 Clouds 18 1012 59 10000 5.1 240 17:40 05.12.2019
3141 Clouds 18 1012 59 10000 5.1 240 17:20 05.12.2019
3142 Clouds 17 1013 59 10000 5.1 230 16:58 05.12.2019
3143 Clouds 17 1013 59 10000 5.1 230 16:39 05.12.2019
3144 Clouds 16 1013 59 10000 5.1 230 16:21 05.12.2019
3145 Clouds 16 1013 55 10000 6.2 240 15:58 05.12.2019
3146 Clouds 17 1013 55 10000 6.2 240 15:38 05.12.2019
3147 Clouds 17 1013 55 10000 6.2 240 15:20 05.12.2019
3148 Clouds 16 1013 62 10000 6.2 250 14:56 05.12.2019
3149 Clouds 16 1013 62 10000 6.2 250 14:56 05.12.2019
3150 Clouds 16 1013 62 10000 6.2 250 14:37 05.12.2019
3151 Clouds 16 1013 62 10000 6.2 250 14:19 05.12.2019
3152 Clouds 16 1013 62 10000 6.2 250 14:19 05.12.2019
3153 Clouds 16 1012 67 10000 6.2 240 13:56 05.12.2019
3154 Clouds 16 1012 67 10000 6.2 240 13:38 05.12.2019
3155 Clouds 16 1012 67 10000 6.2 240 13:19 05.12.2019
3156 Clouds 16 1012 82 10000 7.2 230 12:57 05.12.2019
3157 Clouds 16 1012 82 10000 7.2 230 12:38 05.12.2019
3158 Clouds 16 1012 82 10000 7.2 230 12:20 05.12.2019
3159 Rain 15 1012 82 10000 5.1 240 11:39 05.12.2019
3160 Rain 14 1012 82 10000 5.1 240 11:21 05.12.2019
3161 Clouds 15 1011 62 10000 4.6 240 10:58 05.12.2019
3162 Clouds 15 1011 62 10000 4.6 240 10:40 05.12.2019
3163 Clouds 15 1011 62 10000 4.6 240 10:19 05.12.2019
3164 Clouds 15 1011 62 10000 5.1 240 09:55 05.12.2019
3165 Clouds 14 1011 62 10000 5.1 240 09:37 05.12.2019
3166 Clouds 14 1011 62 10000 5.1 240 09:18 05.12.2019
3167 Clouds 14 1011 62 10000 6.2 240 08:39 05.12.2019
3168 Clouds 15 1011 62 10000 6.2 240 08:20 05.12.2019
3169 Clouds 15 1011 67 10000 6.2 220 07:58 05.12.2019
3170 Clouds 15 1011 67 10000 6.2 220 07:39 05.12.2019
3171 Clouds 15 1011 67 10000 6.2 220 07:20 05.12.2019
3172 Clouds 15 1011 63 10000 6.7 220 06:46 05.12.2019
3173 Clouds 15 1011 63 10000 6.7 220 06:23 05.12.2019
3174 Clouds 16 1011 67 10000 6.2 220 05:49 05.12.2019
3175 Clouds 16 1011 67 10000 6.2 220 05:24 05.12.2019
3176 Clouds 17 1011 67 10000 6.7 210 04:27 05.12.2019
3177 Rain 17 1011 82 10000 1.5 280 03:31 05.12.2019
3178 Rain 17 1011 82 10000 1.5 280 03:31 05.12.2019
3179 Clouds 15 1011 82 10000 11.55 197 02:40 05.12.2019
3180 Clouds 15 1011 82 10000 5.13 213 02:21 05.12.2019
3181 Clouds 17 1010 72 10000 5.13 213 01:49 05.12.2019
3182 Clouds 16 1010 72 10000 5.13 213 01:21 05.12.2019
3183 Clouds 18 1010 68 10000 2.6 210 00:38 05.12.2019
3184 Clouds 18 1010 68 10000 2.6 210 00:19 05.12.2019
3185 Clouds 19 1010 68 10000 5.1 190 23:45 04.12.2019
3186 Clouds 20 1010 68 10000 5.1 190 23:22 04.12.2019
3187 Clouds 20 1010 68 10000 5.1 190 23:22 04.12.2019
3188 Clouds 20 1010 68 10000 5.7 210 22:57 04.12.2019
3189 Clouds 20 1010 68 10000 5.7 210 22:37 04.12.2019
3190 Clouds 20 1010 68 10000 5.7 210 22:19 04.12.2019
3191 Rain 20 1009 64 10000 2.6 210 21:56 04.12.2019
3192 Rain 21 1009 64 10000 2.6 210 21:37 04.12.2019
3193 Rain 21 1009 64 10000 2.6 210 21:18 04.12.2019
3194 Rain 21 1010 68 10000 4.1 200 20:56 04.12.2019
3195 Rain 21 1010 68 10000 4.1 200 20:38 04.12.2019
3196 Clouds 21 1010 68 10000 4.1 200 20:19 04.12.2019
3197 Clouds 21 1010 77 10000 5.1 190 19:41 04.12.2019
3198 Clouds 21 1010 77 10000 5.1 190 19:22 04.12.2019
3199 Clouds 21 1010 73 10000 5.7 190 18:59 04.12.2019
3200 Clouds 21 1010 73 10000 5.7 190 18:41 04.12.2019
3201 Clouds 22 1010 73 10000 5.7 190 18:22 04.12.2019
3202 Clouds 22 1010 73 10000 5.7 190 18:22 04.12.2019
3203 Clouds 22 1010 60 10000 7.7 240 17:58 04.12.2019
3204 Clouds 22 1010 60 10000 7.7 240 17:58 04.12.2019
3205 Clouds 22 1010 60 10000 7.7 240 17:39 04.12.2019
3206 Clouds 22 1010 60 10000 7.7 240 17:18 04.12.2019
3207 Clouds 22 1010 60 10000 7.7 240 17:18 04.12.2019
3208 Clouds 25 1009 47 10000 6.2 270 16:54 04.12.2019
3209 Clouds 25 1010 44 10000 4.6 270 16:36 04.12.2019
3210 Clouds 25 1010 44 10000 4.6 270 16:18 04.12.2019
3211 Clouds 24 1010 47 10000 5.7 270 15:42 04.12.2019
3212 Clouds 24 1010 47 10000 5.7 270 15:21 04.12.2019
3213 Clouds 23 1010 49 10000 1.5 0 15:00 04.12.2019
3214 Clouds 23 1010 49 10000 1.5 0 14:41 04.12.2019
3215 Clouds 21 1010 49 10000 1.5 0 14:21 04.12.2019
3216 Clouds 21 1011 60 10000 3.1 280 13:56 04.12.2019
3217 Clouds 21 1011 60 10000 3.1 280 13:37 04.12.2019
3218 Clouds 21 1011 60 10000 3.1 280 13:18 04.12.2019
3219 Clouds 20 1010 60 10000 1 0 12:42 04.12.2019
3220 Clouds 20 1010 60 10000 1 0 12:23 04.12.2019
3221 Clouds 18 1011 82 10000 1 10 11:45 04.12.2019
3222 Clouds 18 1011 82 10000 1 10 11:26 04.12.2019
3223 Fog 15 1011 82 10000 3.45 316 10:59 04.12.2019
3224 Fog 13 1011 82 10000 3.45 316 10:40 04.12.2019
3225 Fog 17 1011 82 10000 3.45 316 10:22 04.12.2019
3226 Clouds 13 1010 87 10000 3.45 316 09:44 04.12.2019
3227 Clouds 13 1010 87 10000 3.45 316 09:24 04.12.2019
3228 Clouds 13 1010 82 10000 3.45 316 08:56 04.12.2019
3229 Clouds 13 1010 82 10000 3.45 316 08:38 04.12.2019
3230 Clouds 13 1010 82 10000 1.4 319 08:19 04.12.2019
3231 Clouds 15 1009 67 10000 1.4 319 07:42 04.12.2019
3232 Clouds 15 1009 67 10000 1.4 319 07:22 04.12.2019
3233 Clouds 15 1010 77 10000 1.4 319 06:33 04.12.2019
3234 Clouds 15 1010 72 10000 1.4 319 05:48 04.12.2019
3235 Clouds 16 1010 72 10000 1.54 350 04:58 04.12.2019
3236 Clouds 17 1010 77 10000 1.54 350 03:54 04.12.2019
3237 Clouds 17 1010 77 10000 1.54 350 03:54 04.12.2019
3238 Clouds 18 1010 63 10000 1 0 02:21 04.12.2019
3239 Rain 19 1010 63 10000 4.39 183 00:50 04.12.2019
3240 Rain 19 1010 63 10000 4.39 183 00:23 04.12.2019
3241 Rain 20 1010 68 10000 4.1 230 23:56 03.12.2019
3242 Rain 20 1010 68 10000 4.1 230 23:38 03.12.2019
3243 Rain 20 1010 68 10000 4.1 230 23:19 03.12.2019
3244 Rain 20 1011 52 10000 8.2 270 22:40 03.12.2019
3245 Rain 20 1011 52 10000 8.2 270 22:19 03.12.2019
3246 Rain 20 1011 52 7000 8.7 270 21:58 03.12.2019
3247 Drizzle 22 1010 60 10000 9.3 250 21:37 03.12.2019
3248 Drizzle 22 1010 60 10000 9.3 250 21:19 03.12.2019
3249 Rain 22 1010 60 10000 8.2 250 20:57 03.12.2019
3250 Rain 22 1010 60 10000 8.2 250 20:38 03.12.2019
3251 Clouds 23 1010 53 10000 7.2 240 20:18 03.12.2019
3252 Clouds 26 1010 33 10000 8.2 260 19:54 03.12.2019
3253 Clouds 26 1010 33 10000 8.2 260 19:36 03.12.2019
3254 Clouds 26 1010 33 10000 8.2 260 19:18 03.12.2019
3255 Clouds 26 1010 31 10000 7.2 330 18:55 03.12.2019
3256 Clouds 26 1010 31 10000 7.2 330 18:37 03.12.2019
3257 Clouds 26 1010 31 10000 7.2 330 18:19 03.12.2019
3258 Clouds 26 1010 31 10000 7.2 330 18:19 03.12.2019
3259 Clouds 28 1010 28 10000 6.2 320 17:40 03.12.2019
3260 Clouds 28 1010 28 10000 6.2 320 17:19 03.12.2019
3261 Clouds 26 1011 31 10000 8.2 330 16:59 03.12.2019
3262 Clouds 26 1011 31 10000 8.2 330 16:40 03.12.2019
3263 Clouds 26 1011 31 10000 8.2 330 16:21 03.12.2019
3264 Clouds 25 1012 41 10000 8.2 340 15:59 03.12.2019
3265 Clouds 25 1012 41 10000 8.2 340 15:39 03.12.2019
3266 Clouds 25 1012 41 10000 8.2 340 15:20 03.12.2019
3267 Clouds 25 1012 41 10000 8.2 340 15:20 03.12.2019
3268 Clouds 23 1012 43 10000 6.2 320 14:56 03.12.2019
3269 Clouds 23 1012 43 10000 6.2 320 14:38 03.12.2019
3270 Clouds 23 1012 43 10000 6.2 320 14:18 03.12.2019
3271 Clouds 21 1012 49 10000 6.2 340 13:38 03.12.2019
3272 Clouds 22 1012 49 10000 6.2 340 13:20 03.12.2019
3273 Clouds 22 1012 49 10000 6.2 340 13:20 03.12.2019
3274 Clouds 20 1012 55 10000 6.2 360 12:58 03.12.2019
3275 Clouds 19 1012 55 10000 6.2 360 12:37 03.12.2019
3276 Clouds 19 1012 55 10000 6.2 360 12:37 03.12.2019
3277 Clouds 18 1012 55 10000 6.2 360 12:18 03.12.2019
3278 Clouds 17 1012 63 10000 6.2 360 11:58 03.12.2019
3279 Clouds 16 1012 63 10000 6.2 360 11:38 03.12.2019
3280 Clear 16 1012 63 10000 6.2 360 11:19 03.12.2019
3281 Clear 16 1012 71 10000 3.1 10 10:56 03.12.2019
3282 Clear 15 1012 71 10000 3.1 10 10:38 03.12.2019
3283 Clear 13 1012 71 10000 3.1 10 10:18 03.12.2019
3284 Clear 12 1012 71 10000 3.1 10 09:42 03.12.2019
3285 Clear 12 1012 71 10000 3.1 10 09:24 03.12.2019
3286 Clear 12 1012 66 10000 3.6 10 08:56 03.12.2019
3287 Clear 12 1012 66 10000 3.6 10 08:38 03.12.2019
3288 Clear 12 1012 66 10000 3.6 10 08:20 03.12.2019
3289 Clear 12 1012 58 10000 3.1 30 07:51 03.12.2019
3290 Clear 13 1012 58 10000 3.1 30 07:28 03.12.2019
3291 Clear 13 1012 54 10000 2.6 30 06:42 03.12.2019
3292 Clear 14 1012 54 10000 2.6 30 06:20 03.12.2019
3293 Clear 14 1013 51 10000 3.1 50 04:59 03.12.2019
3294 Clear 15 1014 55 10000 2.6 60 03:42 03.12.2019
3295 Clear 15 1014 55 10000 2.6 60 03:21 03.12.2019
3296 Clear 15 1014 55 10000 2.6 70 02:53 03.12.2019
3297 Clear 16 1014 55 10000 2.6 70 02:32 03.12.2019
3298 Clear 17 1014 51 10000 3.1 70 01:58 03.12.2019
3299 Clear 17 1014 51 10000 3.1 70 01:38 03.12.2019
3300 Clear 17 1014 51 10000 3.1 70 01:18 03.12.2019
3301 Clear 19 1015 51 10000 2.6 90 00:41 03.12.2019
3302 Clear 19 1015 51 10000 2.6 90 00:41 03.12.2019
3303 Clear 20 1015 51 10000 2.6 90 00:23 03.12.2019
3304 Clear 21 1015 27 10000 0.5 350 23:44 02.12.2019
3305 Clear 21 1015 27 10000 0.5 350 23:22 02.12.2019
3306 Clear 21 1015 28 10000 1 160 22:56 02.12.2019
3307 Clear 21 1015 28 10000 1 160 22:37 02.12.2019
3308 Clear 21 1015 28 10000 1 160 22:19 02.12.2019
3309 Clear 22 1016 27 10000 1.5 160 21:39 02.12.2019
3310 Clear 22 1016 27 10000 1.5 160 21:20 02.12.2019
3311 Clear 21 1017 30 10000 3.6 160 20:58 02.12.2019
3312 Clear 21 1017 30 10000 3.6 160 20:39 02.12.2019
3313 Clear 21 1017 30 10000 3.6 160 20:20 02.12.2019
3314 Clear 22 1017 26 10000 4.6 170 19:57 02.12.2019
3315 Clear 22 1017 26 10000 4.6 170 19:39 02.12.2019
3316 Clear 21 1017 26 10000 4.6 170 19:20 02.12.2019
3317 Clear 22 1018 27 10000 3.1 200 18:48 02.12.2019
3318 Clear 22 1018 27 10000 3.1 200 18:24 02.12.2019
3319 Clear 22 1018 25 10000 3.1 180 17:59 02.12.2019
3320 Clear 22 1018 25 10000 3.1 180 17:59 02.12.2019
3321 Clear 22 1018 25 10000 3.1 180 17:59 02.12.2019
3322 Clear 22 1018 25 10000 3.1 180 17:41 02.12.2019
3323 Clear 22 1018 25 10000 3.1 180 17:21 02.12.2019
3324 Clear 22 1018 25 10000 3.1 180 17:21 02.12.2019
3325 Clear 21 1019 32 10000 4.1 190 16:57 02.12.2019
3326 Clear 21 1019 32 10000 4.1 190 16:39 02.12.2019
3327 Clear 21 1019 32 10000 4.1 190 16:39 02.12.2019
3328 Clear 20 1019 32 10000 4.1 190 16:18 02.12.2019
3329 Clear 20 1019 37 10000 4.1 180 15:56 02.12.2019
3330 Clear 20 1019 37 10000 4.1 180 15:38 02.12.2019
3331 Clear 20 1019 37 10000 4.1 180 15:20 02.12.2019
3332 Clear 20 1019 37 10000 4.1 180 15:20 02.12.2019
3333 Clear 19 1019 42 10000 4.1 190 14:55 02.12.2019
3334 Clear 19 1019 42 10000 4.1 190 14:55 02.12.2019
3335 Clear 19 1019 42 10000 4.1 190 14:55 02.12.2019
3336 Clear 20 1019 42 10000 4.1 190 14:37 02.12.2019
3337 Clear 19 1019 42 10000 4.1 190 14:18 02.12.2019
3338 Clear 19 1019 52 10000 3.6 180 13:54 02.12.2019
3339 Clear 19 1019 52 10000 3.6 180 13:36 02.12.2019
3340 Clear 18 1019 52 10000 3.6 180 13:18 02.12.2019
3341 Clear 17 1019 55 10000 3.6 170 12:41 02.12.2019
3342 Clear 17 1019 45 10000 4.1 200 12:20 02.12.2019
3343 Clear 16 1019 63 10000 2.1 190 11:57 02.12.2019
3344 Clear 16 1019 55 10000 3.6 210 11:37 02.12.2019
3345 Clear 17 1019 55 10000 3.6 210 11:19 02.12.2019
3346 Clear 16 1019 62 10000 4.1 210 10:56 02.12.2019
3347 Clear 14 1019 62 10000 4.1 210 10:38 02.12.2019
3348 Clear 13 1019 62 10000 4.1 210 10:20 02.12.2019
3349 Clear 13 1018 58 10000 4.6 210 09:42 02.12.2019
3350 Clear 14 1018 58 10000 4.6 210 09:19 02.12.2019
3351 Clouds 14 1019 67 10000 3.6 210 08:58 02.12.2019
3352 Clouds 14 1019 67 10000 3.6 210 08:40 02.12.2019
3353 Clouds 13 1019 67 10000 3.6 210 08:21 02.12.2019
3354 Clouds 14 1019 67 10000 3.6 210 07:45 02.12.2019
3355 Clouds 15 1019 67 10000 3.6 210 07:24 02.12.2019
3356 Clouds 15 1020 67 10000 4.1 200 06:59 02.12.2019
3357 Clouds 13 1020 67 10000 4.1 200 06:39 02.12.2019
3358 Clouds 15 1020 67 10000 3.6 200 05:36 02.12.2019
3359 Clouds 15 1021 67 10000 3.1 190 04:55 02.12.2019
3360 Clouds 15 1021 63 10000 2.6 170 02:56 02.12.2019
3361 Clouds 15 1021 63 10000 2.6 170 02:38 02.12.2019
3362 Clear 15 1020 63 10000 2.1 160 01:30 02.12.2019
3363 Clear 17 1020 59 10000 2.6 150 00:59 02.12.2019
3364 Clear 17 1020 59 10000 2.6 150 00:30 02.12.2019
3365 Clear 18 1020 45 10000 3.6 170 23:57 01.12.2019
3366 Clear 18 1020 45 10000 3.6 170 23:38 01.12.2019
3367 Clear 18 1020 45 10000 3.6 170 23:19 01.12.2019
3368 Clear 19 1019 45 10000 6.2 170 22:56 01.12.2019
3369 Clear 19 1019 45 10000 6.2 170 22:37 01.12.2019
3370 Clear 19 1019 45 10000 6.2 170 22:18 01.12.2019
3371 Clear 19 1019 37 10000 7.7 200 21:56 01.12.2019
3372 Clear 19 1019 37 10000 7.7 200 21:56 01.12.2019
3373 Clear 20 1019 37 10000 7.7 200 21:38 01.12.2019
3374 Clear 20 1019 37 10000 7.7 200 21:38 01.12.2019
3375 Clear 20 1019 37 10000 7.7 200 21:18 01.12.2019
3376 Clear 20 1020 40 10000 6.2 200 20:56 01.12.2019
3377 Clear 20 1020 40 10000 6.2 200 20:37 01.12.2019
3378 Clear 21 1020 40 10000 6.2 200 20:19 01.12.2019
3379 Clear 20 1020 39 10000 8.2 230 19:55 01.12.2019
3380 Clear 20 1020 39 10000 8.2 230 19:36 01.12.2019
3381 Clear 20 1020 39 10000 8.2 230 19:36 01.12.2019
3382 Clear 20 1020 39 10000 8.2 230 19:18 01.12.2019
3383 Clear 20 1020 37 10000 8.2 210 18:55 01.12.2019
3384 Clear 20 1020 37 10000 8.2 210 18:37 01.12.2019
3385 Clear 20 1020 37 10000 8.2 210 18:18 01.12.2019
3386 Clear 20 1020 37 10000 8.2 210 18:18 01.12.2019
3387 Clear 20 1020 37 10000 11.3 200 17:55 01.12.2019
3388 Clear 19 1020 37 10000 11.3 200 17:37 01.12.2019
3389 Clear 20 1020 37 10000 11.3 200 17:19 01.12.2019
3390 Clear 20 1020 32 10000 10.3 200 16:43 01.12.2019
3391 Clear 20 1020 32 10000 10.3 200 16:24 01.12.2019
3392 Clear 20 1020 28 10000 11.3 200 15:53 01.12.2019
3393 Clear 20 1020 28 10000 11.3 200 15:33 01.12.2019
3394 Clear 20 1020 34 10000 10.3 200 14:59 01.12.2019
3395 Clear 20 1020 34 10000 10.3 200 14:38 01.12.2019
3396 Clear 20 1020 34 10000 10.3 200 14:19 01.12.2019
3397 Clear 19 1020 37 10000 8.7 210 13:40 01.12.2019
3398 Clear 19 1020 37 10000 8.7 210 13:40 01.12.2019
3399 Clear 20 1020 37 10000 8.7 210 13:21 01.12.2019
3400 Clear 19 1009 36 10000 7.7 200 12:47 01.12.2019
3401 Clear 19 1009 36 10000 7.7 200 12:19 01.12.2019
3402 Clear 18 1017 45 10000 5.1 200 11:44 01.12.2019
3403 Clear 17 1017 45 10000 5.1 200 11:24 01.12.2019
3404 Clear 17 1017 44 10000 4.6 210 10:55 01.12.2019
3405 Clear 16 1017 44 10000 4.6 210 10:37 01.12.2019
3406 Clear 16 1017 44 10000 4.6 210 10:18 01.12.2019
3407 Clear 15 1016 55 10000 3.1 210 09:41 01.12.2019
3408 Clear 16 1016 55 10000 3.1 210 09:21 01.12.2019
3409 Clear 15 1016 55 10000 3.6 200 08:49 01.12.2019
3410 Clear 15 1016 55 10000 3.6 200 08:23 01.12.2019
3411 Clear 15 1016 51 10000 3.6 190 07:53 01.12.2019
3412 Clear 15 1016 51 10000 3.6 190 07:32 01.12.2019
3413 Clouds 16 1016 55 10000 5.7 190 06:58 01.12.2019
3414 Clouds 16 1016 55 10000 5.7 190 06:40 01.12.2019
3415 Clouds 16 1015 55 10000 7.7 180 05:55 01.12.2019
3416 Clear 17 1015 55 10000 7.2 180 04:53 01.12.2019
3417 Clear 17 1015 55 10000 7.2 180 04:21 01.12.2019
3418 Clouds 18 1013 63 10000 6.7 160 02:38 01.12.2019
3419 Clouds 18 1013 63 10000 6.7 160 02:20 01.12.2019
3420 Clouds 19 1011 55 10000 6.2 150 01:52 01.12.2019
3421 Clouds 19 1011 55 10000 6.2 150 01:26 01.12.2019
3422 Clear 21 1010 60 10000 3.6 130 00:44 01.12.2019
3423 Clear 22 1010 60 10000 3.6 130 00:26 01.12.2019
3424 Clear 22 1009 44 10000 4.1 260 23:45 30.11.2019
3425 Clear 23 1009 44 10000 4.1 260 23:25 30.11.2019
3426 Clear 24 1009 36 10000 5.7 270 22:58 30.11.2019
3427 Clear 24 1009 36 10000 5.7 270 22:39 30.11.2019
3428 Clear 24 1009 36 10000 5.7 270 22:20 30.11.2019
3429 Clear 25 1009 30 10000 6.7 280 21:47 30.11.2019
3430 Clear 26 1009 30 10000 6.7 280 21:28 30.11.2019
3431 Clear 25 1009 30 10000 6.7 280 21:28 30.11.2019
3432 Clear 25 1008 47 10000 5.1 190 20:58 30.11.2019
3433 Clear 25 1008 47 10000 5.1 190 20:39 30.11.2019
3434 Clear 26 1008 47 10000 5.1 190 20:19 30.11.2019
3435 Clear 26 1008 32 10000 6.2 280 19:56 30.11.2019
3436 Clear 27 1008 32 10000 6.2 280 19:38 30.11.2019
3437 Clear 27 1008 32 10000 6.2 280 19:20 30.11.2019
3438 Clear 26 1008 28 10000 5.7 250 18:58 30.11.2019
3439 Clear 26 1008 28 10000 5.7 250 18:38 30.11.2019
3440 Clear 26 1008 28 10000 5.7 250 18:20 30.11.2019
3441 Clear 26 1008 31 10000 8.2 250 17:58 30.11.2019
3442 Clear 26 1008 31 10000 8.2 250 17:39 30.11.2019
3443 Clear 26 1008 31 10000 8.2 250 17:20 30.11.2019
3444 Clear 26 1008 30 10000 8.2 250 16:57 30.11.2019
3445 Clear 26 1008 30 10000 8.2 250 16:39 30.11.2019
3446 Clear 26 1008 30 10000 8.2 250 16:20 30.11.2019
3447 Clear 26 1009 41 10000 8.2 260 15:42 30.11.2019
3448 Clear 26 1009 41 10000 8.2 260 15:42 30.11.2019
3449 Clear 26 1009 41 10000 8.2 260 15:19 30.11.2019
3450 Clear 26 1009 22 10000 7.7 260 14:57 30.11.2019
3451 Clear 26 1009 22 10000 7.7 260 14:38 30.11.2019
3452 Clear 26 1009 22 10000 7.7 260 14:19 30.11.2019
3453 Clear 26 1009 44 10000 3.1 290 13:58 30.11.2019
3454 Clear 26 1009 44 10000 3.1 290 13:38 30.11.2019
3455 Clear 26 1009 44 10000 3.1 290 13:19 30.11.2019
3456 Clear 23 1009 69 10000 2.6 290 12:47 30.11.2019
3457 Clear 23 1009 69 10000 2.6 290 12:29 30.11.2019
3458 Clear 22 1008 93 8000 0.5 0 11:58 30.11.2019
3459 Clear 21 1008 93 8000 0.5 0 11:39 30.11.2019
3460 Clear 21 1008 93 8000 0.5 0 11:18 30.11.2019
3461 Fog 20 1008 93 8000 1 0 10:45 30.11.2019
3462 Fog 21 1008 93 8000 1 0 10:21 30.11.2019
3463 Fog 20 1007 93 10000 1.5 320 09:50 30.11.2019
3464 Fog 21 1007 93 10000 1.5 320 09:30 30.11.2019
3465 Clear 21 1007 88 10000 1.5 290 08:57 30.11.2019
3466 Clear 21 1007 88 10000 1.5 290 08:38 30.11.2019
3467 Clouds 22 1007 88 10000 1.5 290 08:19 30.11.2019
3468 Clouds 21 1007 82 10000 1 0 07:43 30.11.2019
3469 Clouds 22 1007 82 10000 1 0 07:24 30.11.2019
3470 Clouds 21 1007 77 10000 2.1 10 06:46 30.11.2019
3471 Clouds 21 1007 77 10000 2.1 10 06:27 30.11.2019
3472 Clouds 22 1007 82 10000 1.5 300 05:23 30.11.2019
3473 Clouds 21 1006 68 10000 1.5 350 03:38 30.11.2019
3474 Clouds 19 1005 77 10000 2.6 330 02:26 30.11.2019
3475 Clouds 19 1005 77 10000 2.6 330 02:26 30.11.2019
3476 Thunderstorm 19 1004 77 10000 1.5 330 01:51 30.11.2019
3477 Thunderstorm 19 1004 77 10000 1.5 330 01:24 30.11.2019
3478 Clouds 20 1004 77 10000 4.1 350 00:45 30.11.2019
3479 Clouds 20 1004 77 10000 4.1 350 00:27 30.11.2019
3480 Clouds 20 1005 82 10000 3.1 325 23:45 29.11.2019
3481 Clouds 20 1005 82 10000 3.1 325 23:25 29.11.2019
3482 Clouds 21 1004 64 10000 5.1 150 22:58 29.11.2019
3483 Clouds 24 1004 64 10000 5.1 150 22:39 29.11.2019
3484 Rain 23 1004 73 8000 7.7 210 22:21 29.11.2019
3485 Thunderstorm 25 1007 60 10000 8.7 280 21:41 29.11.2019
3486 Thunderstorm 25 1005 44 10000 4.1 280 21:22 29.11.2019
3487 Thunderstorm 26 1005 47 10000 5.1 240 20:56 29.11.2019
3488 Clouds 27 1005 44 10000 8.2 230 20:37 29.11.2019
3489 Clear 27 1005 44 10000 8.2 230 20:18 29.11.2019
3490 Rain 28 1005 28 10000 5.1 300 19:55 29.11.2019
3491 Rain 29 1005 28 10000 5.1 300 19:37 29.11.2019
3492 Rain 29 1005 28 10000 5.1 300 19:37 29.11.2019
3493 Rain 29 1005 28 10000 5.1 300 19:18 29.11.2019
3494 Rain 29 1005 28 10000 5.1 300 19:18 29.11.2019
3495 Clear 30 1004 27 10000 9.3 360 18:42 29.11.2019
3496 Clear 31 1004 27 10000 9.3 360 18:24 29.11.2019
3497 Clear 30 1004 32 10000 12.9 360 17:57 29.11.2019
3498 Clear 30 1004 32 10000 12.9 360 17:39 29.11.2019
3499 Clear 30 1004 32 10000 12.9 360 17:20 29.11.2019
3500 Clear 29 1005 37 10000 8.7 360 16:43 29.11.2019
3501 Clear 29 1005 37 10000 8.7 360 16:21 29.11.2019
3502 Clear 28 1007 39 10000 10.3 360 15:56 29.11.2019
3503 Clear 27 1007 39 10000 10.3 360 15:37 29.11.2019
3504 Clear 27 1007 39 10000 10.3 360 15:19 29.11.2019
3505 Clear 26 1008 47 10000 9.3 360 14:40 29.11.2019
3506 Clear 26 1008 47 10000 9.3 360 14:40 29.11.2019
3507 Clouds 25 1008 47 10000 9.3 360 14:21 29.11.2019
3508 Clouds 25 1008 53 10000 10.3 350 13:57 29.11.2019
3509 Clouds 24 1008 53 10000 10.3 350 13:37 29.11.2019
3510 Clouds 24 1008 53 10000 10.3 350 13:19 29.11.2019
3511 Clouds 23 1009 56 10000 9.3 350 12:42 29.11.2019
3512 Clouds 22 1009 56 10000 9.3 350 12:24 29.11.2019
3513 Clouds 20 1009 68 10000 8.2 10 11:56 29.11.2019
3514 Clouds 20 1009 68 10000 8.2 10 11:56 29.11.2019
3515 Clouds 19 1009 68 10000 8.2 10 11:38 29.11.2019
3516 Clear 19 1009 68 10000 8.2 10 11:19 29.11.2019
3517 Clear 19 1009 63 10000 4.6 20 10:57 29.11.2019
3518 Clear 17 1009 63 10000 4.6 20 10:39 29.11.2019
3519 Clear 17 1009 63 10000 4.6 20 10:20 29.11.2019
3520 Clear 17 1009 63 10000 4.6 20 09:57 29.11.2019
3521 Clear 16 1009 63 10000 4.6 20 09:38 29.11.2019
3522 Clear 16 1009 63 10000 4.6 20 09:20 29.11.2019
3523 Clear 16 1009 55 10000 3.6 10 08:55 29.11.2019
3524 Clear 15 1009 55 10000 3.6 10 08:36 29.11.2019
3525 Clear 17 1009 55 10000 3.6 10 08:18 29.11.2019
3526 Clear 17 1009 59 10000 2.6 360 07:41 29.11.2019
3527 Clear 16 1009 59 10000 2.6 360 07:23 29.11.2019
3528 Clear 18 1009 55 10000 4.1 10 06:47 29.11.2019
3529 Clear 18 1009 55 10000 4.1 10 06:28 29.11.2019
3530 Clear 19 1009 49 10000 4.1 10 05:32 29.11.2019
3531 Clear 19 1010 52 10000 4.1 10 04:56 29.11.2019
3532 Clear 21 1010 52 10000 4.1 20 03:37 29.11.2019
3533 Clear 21 1010 52 10000 4.1 20 03:18 29.11.2019
3534 Clear 21 1010 52 10000 4.1 20 03:18 29.11.2019
3535 Clear 21 1010 52 10000 3.1 30 02:22 29.11.2019
3536 Clear 22 1010 56 10000 2.6 70 01:40 29.11.2019
3537 Clear 22 1010 56 10000 2.6 70 01:20 29.11.2019
3538 Clear 22 1010 56 10000 2.6 70 01:20 29.11.2019
3539 Clear 23 1010 46 10000 4.1 100 00:40 29.11.2019
3540 Clear 24 1010 46 10000 4.1 100 00:18 29.11.2019
3541 Clear 24 1010 46 10000 4.1 100 00:18 29.11.2019
3542 Clouds 25 1010 41 10000 5.1 100 23:42 28.11.2019
3543 Clouds 25 1010 41 10000 5.1 100 23:21 28.11.2019
3544 Clouds 27 1010 37 10000 5.1 100 22:57 28.11.2019
3545 Clouds 27 1010 37 10000 5.1 100 22:37 28.11.2019
3546 Clouds 26 1010 37 10000 5.1 100 22:19 28.11.2019
3547 Clouds 27 1011 28 10000 2.1 270 21:55 28.11.2019
3548 Clouds 27 1011 28 10000 2.1 270 21:36 28.11.2019
3549 Clouds 27 1011 28 10000 2.1 270 21:18 28.11.2019
3550 Clouds 27 1011 26 10000 3.1 260 20:42 28.11.2019
3551 Clouds 27 1011 26 10000 3.1 260 20:22 28.11.2019
3552 Clouds 27 1012 32 10000 3.6 170 19:58 28.11.2019
3553 Clouds 27 1012 32 10000 3.6 170 19:40 28.11.2019
3554 Clouds 27 1012 32 10000 3.6 170 19:21 28.11.2019
3555 Clouds 28 1013 32 10000 5.1 260 18:59 28.11.2019
3556 Clouds 28 1013 32 10000 5.1 260 18:39 28.11.2019
3557 Clouds 27 1013 32 10000 5.1 260 18:18 28.11.2019
3558 Clouds 27 1013 32 10000 5.1 260 18:18 28.11.2019
3559 Clouds 27 1014 30 10000 7.2 270 17:59 28.11.2019
3560 Clouds 27 1014 30 10000 7.2 270 17:41 28.11.2019
3561 Clouds 27 1014 30 10000 7.2 270 17:21 28.11.2019
3562 Clouds 26 1014 32 10000 6.2 260 16:56 28.11.2019
3563 Clouds 26 1014 32 10000 6.2 260 16:55 28.11.2019
3564 Clouds 26 1014 32 10000 6.2 260 16:37 28.11.2019
3565 Clouds 26 1014 32 10000 6.2 260 16:18 28.11.2019
3566 Clouds 26 1015 32 10000 5.1 300 15:41 28.11.2019
3567 Clouds 26 1015 32 10000 5.1 300 15:20 28.11.2019
3568 Clouds 25 1015 41 10000 3.1 0 14:58 28.11.2019
3569 Clouds 25 1015 41 10000 3.1 0 14:39 28.11.2019
3570 Clouds 25 1015 41 10000 3.1 0 14:20 28.11.2019
3571 Clouds 23 1015 64 10000 3.1 330 13:55 28.11.2019
3572 Clouds 23 1015 64 10000 3.1 330 13:37 28.11.2019
3573 Clear 22 1015 64 10000 3.1 330 13:19 28.11.2019
3574 Mist 20 1015 77 7000 4.1 350 12:41 28.11.2019
3575 Mist 20 1015 77 7000 4.1 350 12:22 28.11.2019
3576 Mist 18 1014 93 6000 2.6 20 11:56 28.11.2019
3577 Mist 17 1014 93 6000 2.6 20 11:38 28.11.2019
3578 Mist 17 1014 93 6000 2.6 20 11:19 28.11.2019
3579 Mist 15 1014 93 8000 5.83 70 10:42 28.11.2019
3580 Mist 15 1014 93 8000 5.83 70 10:42 28.11.2019
3581 Mist 16 1014 93 8000 5.83 70 10:22 28.11.2019
3582 Clouds 16 1013 93 10000 1 0 09:59 28.11.2019
3583 Clouds 15 1013 93 10000 1 0 09:40 28.11.2019
3584 Clouds 15 1013 93 10000 1 0 09:20 28.11.2019
3585 Clouds 15 1013 93 10000 1 0 09:20 28.11.2019
3586 Clear 15 1013 82 10000 2.6 100 08:44 28.11.2019
3587 Clear 16 1013 82 10000 2.6 100 08:23 28.11.2019
3588 Clear 16 1013 88 10000 4.1 120 07:58 28.11.2019
3589 Clear 16 1013 88 10000 4.1 120 07:58 28.11.2019
3590 Clear 16 1013 88 10000 4.1 120 07:58 28.11.2019
3591 Clear 16 1013 88 10000 4.1 120 07:40 28.11.2019
3592 Clear 16 1013 88 10000 4.1 120 07:22 28.11.2019
3593 Clear 16 1013 82 10000 3.1 130 06:43 28.11.2019
3594 Clear 16 1013 82 10000 3.1 130 06:18 28.11.2019
3595 Clear 16 1013 82 10000 3.1 150 05:44 28.11.2019
3596 Clear 17 1014 88 10000 3.1 160 04:54 28.11.2019
3597 Clear 18 1013 52 10000 1.5 330 02:33 28.11.2019
3598 Clear 20 1013 48 10000 1.5 280 01:28 28.11.2019
3599 Clear 22 1012 48 10000 2.6 290 00:42 28.11.2019
3600 Clear 22 1012 48 10000 2.6 290 00:20 28.11.2019
3601 Clear 24 1012 38 10000 3.6 280 23:40 27.11.2019
3602 Clear 24 1012 38 10000 3.6 280 23:21 27.11.2019
3603 Clear 25 1012 31 10000 6.2 280 22:58 27.11.2019
3604 Clear 25 1012 31 10000 6.2 280 22:38 27.11.2019
3605 Clear 25 1012 31 10000 6.2 280 22:19 27.11.2019
3606 Clear 25 1012 29 10000 5.1 280 21:56 27.11.2019
3607 Clear 25 1012 29 10000 5.1 280 21:37 27.11.2019
3608 Clear 25 1012 29 10000 5.1 280 21:19 27.11.2019
3609 Clouds 25 1013 27 10000 4.6 280 20:57 27.11.2019
3610 Clouds 25 1013 27 10000 4.6 280 20:38 27.11.2019
3611 Clouds 25 1013 27 10000 4.6 280 20:19 27.11.2019
3612 Clouds 23 1013 37 10000 3.6 270 19:56 27.11.2019
3613 Clouds 24 1013 37 10000 3.6 270 19:38 27.11.2019
3614 Clouds 24 1013 37 10000 3.6 270 19:19 27.11.2019
3615 Clouds 24 1013 37 10000 3.6 270 19:19 27.11.2019
3616 Clouds 24 1014 31 10000 5.1 260 18:58 27.11.2019
3617 Clouds 24 1014 31 10000 5.1 260 18:36 27.11.2019
3618 Clouds 24 1014 31 10000 5.1 260 18:18 27.11.2019
3619 Clouds 24 1014 36 10000 4.1 250 17:55 27.11.2019
3620 Clouds 24 1014 36 10000 4.1 250 17:37 27.11.2019
3621 Clouds 23 1014 36 10000 4.1 250 17:18 27.11.2019
3622 -273 0 0 0 0 0 16:56 27.11.2019
3623 Clouds 23 1014 43 10000 5.1 240 16:55 27.11.2019
3624 Clouds 23 1014 43 10000 5.1 240 16:55 27.11.2019
3625 Clouds 23 1014 43 10000 5.1 240 16:36 27.11.2019
3626 Clouds 23 1014 43 10000 5.1 240 16:18 27.11.2019
3627 -273 0 0 0 0 0 15:56 27.11.2019
3628 Clouds 22 1014 56 10000 6.2 260 15:37 27.11.2019
3629 Clouds 22 1014 56 10000 6.2 260 15:19 27.11.2019
3630 Clouds 22 1013 56 10000 2.1 210 14:55 27.11.2019
3631 Clouds 22 1013 56 10000 2.1 210 14:55 27.11.2019
3632 Clouds 21 1013 56 10000 2.1 210 14:37 27.11.2019
3633 Clouds 21 1013 56 10000 2.1 210 14:19 27.11.2019
3634 Clouds 21 1013 64 10000 3.6 230 13:55 27.11.2019
3635 Clouds 21 1013 64 10000 3.6 230 13:36 27.11.2019
3636 Clouds 21 1013 64 10000 3.6 230 13:18 27.11.2019
3637 Clouds 21 1013 72 10000 2.6 200 12:41 27.11.2019
3638 Clouds 20 1013 72 10000 2.6 200 12:21 27.11.2019
3639 Clouds 18 1012 68 10000 3.6 200 11:55 27.11.2019
3640 Clear 15 1012 93 10000 1 0 11:36 27.11.2019
3641 Fog 14 1011 93 10000 5.11 195 11:18 27.11.2019
3642 Fog 17 1011 93 10000 5.11 195 10:43 27.11.2019
3643 Fog 13 1011 93 10000 5.11 195 10:24 27.11.2019
3644 Fog 12 1011 100 10000 5.11 195 09:57 27.11.2019
3645 Fog 12 1011 100 10000 5.11 195 09:38 27.11.2019
3646 Fog 12 1011 100 10000 5.11 195 09:18 27.11.2019
3647 Fog 12 1011 93 10000 5.11 195 08:42 27.11.2019
3648 Fog 12 1011 93 10000 5.09 188 08:22 27.11.2019
3649 Fog 13 1011 93 10000 5.09 188 07:47 27.11.2019
3650 Fog 13 1011 93 10000 5.09 188 07:29 27.11.2019
3651 Fog 14 1011 87 10000 5.09 188 06:54 27.11.2019
3652 Fog 14 1011 87 10000 5.09 188 06:35 27.11.2019
3653 Clouds 17 1011 77 10000 1 140 05:47 27.11.2019
3654 Clouds 17 1011 77 10000 1 140 05:21 27.11.2019
3655 Clouds 17 1011 68 10000 2.6 160 04:48 27.11.2019
3656 Clouds 17 1011 68 10000 2.6 160 04:29 27.11.2019
3657 Clouds 18 1011 72 10000 3.1 150 03:40 27.11.2019
3658 Clouds 18 1011 72 10000 3.1 150 03:19 27.11.2019
3659 Clouds 18 1011 77 10000 2.1 160 02:21 27.11.2019
3660 Rain 18 1010 93 10000 2.1 200 00:50 27.11.2019
3661 Rain 19 1010 93 10000 2.1 200 00:30 27.11.2019
3662 Rain 19 1009 93 6000 3.1 180 23:55 26.11.2019
3663 Rain 19 1009 93 6000 3.1 180 23:37 26.11.2019
3664 Rain 19 1009 93 6000 3.1 180 23:18 26.11.2019
3665 Thunderstorm 19 1010 93 6000 4.1 200 22:39 26.11.2019
3666 Thunderstorm 19 1010 93 6000 4.1 200 22:20 26.11.2019
3667 Thunderstorm 20 1010 88 8000 4.1 210 21:59 26.11.2019
3668 Rain 20 1010 88 10000 6.2 210 21:38 26.11.2019
3669 Clouds 20 1010 88 10000 6.2 210 21:20 26.11.2019
3670 Clouds 20 1010 88 8000 5.1 210 20:57 26.11.2019
3671 Clouds 21 1010 88 8000 5.1 210 20:37 26.11.2019
3672 Clouds 21 1010 88 8000 5.1 210 20:19 26.11.2019
3673 Rain 20 1010 88 6000 4.1 200 19:55 26.11.2019
3674 Rain 20 1010 88 6000 4.1 200 19:55 26.11.2019
3675 Rain 20 1010 88 6000 4.1 200 19:37 26.11.2019
3676 Rain 20 1010 88 6000 4.1 200 19:19 26.11.2019
3677 Clouds 20 1010 94 5000 4.1 205 18:57 26.11.2019
3678 Mist 20 1009 94 8000 3.6 240 18:38 26.11.2019
3679 Rain 20 1009 88 2000 3.1 240 18:20 26.11.2019
3680 Rain 20 1009 88 2000 3.1 240 18:20 26.11.2019
3681 Rain 20 1009 88 2000 3.1 240 17:57 26.11.2019
3682 Drizzle 20 1009 77 10000 4.1 230 17:38 26.11.2019
3683 Drizzle 21 1009 77 10000 4.1 230 17:20 26.11.2019
3684 Clouds 21 1009 78 10000 5.1 360 16:56 26.11.2019
3685 Clouds 21 1009 78 10000 5.1 360 16:37 26.11.2019
3686 Clouds 21 1009 78 10000 5.1 360 16:18 26.11.2019
3687 Clouds 21 1009 73 10000 2.6 360 15:57 26.11.2019
3688 Clouds 21 1009 73 10000 2.6 360 15:37 26.11.2019
3689 Clouds 21 1009 73 10000 2.6 360 15:19 26.11.2019
3690 Clouds 21 1009 82 10000 2.6 350 14:45 26.11.2019
3691 Clouds 20 1009 82 10000 2.6 350 14:24 26.11.2019
3692 Clouds 20 1009 82 10000 4.1 20 13:45 26.11.2019
3693 Clouds 20 1009 82 10000 4.1 20 13:25 26.11.2019
3694 Clouds 19 1009 82 10000 5.1 10 12:58 26.11.2019
3695 Clouds 19 1009 82 10000 5.1 10 12:38 26.11.2019
3696 Clouds 19 1008 77 10000 2.6 20 12:19 26.11.2019
3697 Clouds 19 1008 77 10000 2.6 20 11:56 26.11.2019
3698 Clouds 19 1008 88 10000 5.1 30 11:38 26.11.2019
3699 Clouds 19 1008 88 10000 5.1 30 11:38 26.11.2019
3700 Clouds 19 1008 88 10000 5.1 30 11:19 26.11.2019
3701 Rain 19 1007 82 10000 3.1 40 10:56 26.11.2019
3702 Rain 19 1007 82 10000 3.1 40 10:38 26.11.2019
3703 Rain 18 1007 82 10000 3.1 40 10:20 26.11.2019
3704 Rain 18 1007 82 10000 6.7 30 09:43 26.11.2019
3705 Rain 19 1007 82 10000 6.7 30 09:24 26.11.2019
3706 Rain 18 1007 82 10000 4.6 40 08:58 26.11.2019
3707 Rain 18 1007 82 10000 4.6 40 08:38 26.11.2019
3708 Rain 18 1007 82 10000 4.6 40 08:18 26.11.2019
3709 Rain 18 1007 82 10000 2.1 20 07:43 26.11.2019
3710 Rain 18 1007 82 10000 2.1 20 07:24 26.11.2019
3711 Rain 19 1008 77 10000 4.1 30 06:53 26.11.2019
3712 Rain 19 1008 72 10000 5.1 50 05:59 26.11.2019
3713 Rain 19 1008 72 10000 5.1 50 05:36 26.11.2019
3714 Rain 20 1008 72 10000 4.1 50 03:22 26.11.2019
3715 Rain 19 1008 72 10000 5.1 60 01:53 26.11.2019
3716 Rain 19 1008 72 10000 5.1 60 01:28 26.11.2019
3717 Clouds 20 1007 72 10000 5.7 50 00:48 26.11.2019
3718 Clouds 20 1007 72 10000 5.7 50 00:21 26.11.2019
3719 Clouds 20 1007 82 10000 4.6 60 23:39 25.11.2019
3720 Clouds 20 1007 82 10000 4.6 60 23:39 25.11.2019
3721 Clouds 20 1007 82 10000 4.6 60 23:19 25.11.2019
3722 Clouds 20 1007 82 10000 4.6 60 23:19 25.11.2019
3723 Rain 21 1007 82 10000 5.1 60 22:56 25.11.2019
3724 Rain 21 1005 88 10000 12.9 30 22:37 25.11.2019
3725 Rain 21 1005 88 10000 12.9 30 22:18 25.11.2019
3726 Rain 21 1008 68 10000 5.7 30 21:56 25.11.2019
3727 Rain 22 1008 68 10000 5.7 30 21:38 25.11.2019
3728 Rain 22 1008 68 10000 5.7 30 21:18 25.11.2019
3729 Rain 22 1010 60 10000 5.1 50 20:54 25.11.2019
3730 Rain 22 1010 60 10000 5.1 50 20:54 25.11.2019
3731 Rain 23 1010 60 10000 5.1 50 20:36 25.11.2019
3732 Rain 23 1010 60 10000 5.1 50 20:18 25.11.2019
3733 Rain 23 1010 60 10000 5.1 50 20:18 25.11.2019
3734 Rain 23 1010 60 10000 5.1 50 20:18 25.11.2019
3735 Clouds 23 1010 53 10000 4.1 60 19:54 25.11.2019
3736 Clouds 23 1010 53 10000 4.1 60 19:36 25.11.2019
3737 Clouds 23 1010 53 10000 4.1 60 19:18 25.11.2019
3738 Clouds 22 1010 50 10000 6.2 70 18:55 25.11.2019
3739 Clouds 22 1010 50 10000 6.2 70 18:37 25.11.2019
3740 Clouds 23 1012 53 10000 5.1 50 18:18 25.11.2019
3741 Clouds 23 1012 53 10000 5.1 50 17:55 25.11.2019
3742 Clouds 23 1012 53 10000 5.1 50 17:36 25.11.2019
3743 Clouds 23 1012 53 10000 6.2 50 17:18 25.11.2019
3744 Clouds 23 1012 53 10000 6.2 50 16:42 25.11.2019
3745 Clouds 23 1012 53 10000 6.2 50 16:23 25.11.2019
3746 Clouds 22 1012 53 10000 8.2 50 15:58 25.11.2019
3747 Clouds 22 1012 53 10000 8.2 50 15:58 25.11.2019
3748 Clouds 22 1012 53 10000 8.2 50 15:39 25.11.2019
3749 Clouds 22 1012 53 10000 8.2 50 15:20 25.11.2019
3750 Clouds 21 1013 56 10000 7.7 40 14:56 25.11.2019
3751 Clouds 21 1013 56 10000 7.7 40 14:37 25.11.2019
3752 Clouds 21 1013 56 10000 7.7 40 14:19 25.11.2019
3753 Clouds 20 1012 60 10000 10.3 50 13:39 25.11.2019
3754 Clouds 20 1012 60 10000 10.3 50 13:21 25.11.2019
3755 Clouds 19 1012 67 10000 7.7 80 12:59 25.11.2019
3756 Clouds 18 1012 67 10000 7.7 80 12:40 25.11.2019
3757 Clouds 18 1012 67 10000 7.7 80 12:40 25.11.2019
3758 Clouds 18 1012 67 10000 7.7 80 12:20 25.11.2019
3759 Clouds 17 1014 67 10000 6.7 90 11:56 25.11.2019
3760 Clouds 17 1014 67 10000 6.7 90 11:38 25.11.2019
3761 Clouds 17 1014 67 10000 6.7 90 11:38 25.11.2019
3762 Clouds 16 1014 67 10000 6.7 90 11:19 25.11.2019
3763 Clouds 16 1014 67 10000 6.7 90 10:42 25.11.2019
3764 Clouds 16 1014 67 10000 6.7 90 10:22 25.11.2019
3765 Clouds 15 1014 72 10000 6.2 90 09:55 25.11.2019
3766 Clouds 15 1014 72 10000 6.2 90 09:37 25.11.2019
3767 Clouds 15 1014 72 10000 6.2 90 09:18 25.11.2019
3768 Clouds 15 1014 72 10000 6.2 90 09:18 25.11.2019
3769 Clouds 16 1015 67 10000 3.6 90 08:39 25.11.2019
3770 Clear 16 1015 67 10000 3.6 90 08:20 25.11.2019
3771 Clear 16 1015 67 10000 5.1 90 07:42 25.11.2019
3772 Clear 16 1015 67 10000 5.1 90 07:24 25.11.2019
3773 Clear 15 1015 67 10000 4.1 90 06:48 25.11.2019
3774 Clear 15 1015 67 10000 4.1 90 06:21 25.11.2019
3775 Clear 15 1015 67 10000 3.6 90 05:38 25.11.2019
3776 Clear 16 1015 67 10000 4.1 90 04:52 25.11.2019
3777 Clear 18 1015 63 10000 5.1 80 02:52 25.11.2019
3778 Clear 18 1015 63 10000 5.1 80 02:20 25.11.2019
3779 Clear 19 1015 55 10000 6.7 70 01:40 25.11.2019
3780 Clear 19 1015 55 10000 6.7 70 01:21 25.11.2019
3781 Clear 20 1014 60 10000 5.1 100 00:23 25.11.2019
3782 Clear 20 1014 60 10000 5.1 100 23:58 24.11.2019
3783 Clear 21 1014 60 10000 5.1 100 23:39 24.11.2019
3784 Clear 21 1014 60 10000 5.1 100 23:19 24.11.2019
3785 Clear 21 1014 56 10000 6.7 120 22:55 24.11.2019
3786 Clear 22 1014 56 10000 6.7 120 22:36 24.11.2019
3787 Clear 22 1014 56 10000 6.7 120 22:18 24.11.2019
3788 Clear 22 1014 56 10000 7.7 110 21:42 24.11.2019
3789 Clear 22 1014 56 10000 7.7 110 21:21 24.11.2019
3790 Clear 23 1015 56 10000 7.7 110 20:59 24.11.2019
3791 Clear 23 1015 56 10000 7.7 110 20:59 24.11.2019
3792 Clear 23 1015 56 10000 7.7 110 20:40 24.11.2019
3793 Clear 22 1015 56 10000 7.7 110 20:20 24.11.2019
3794 Clear 23 1016 56 10000 7.2 120 19:57 24.11.2019
3795 Clear 23 1017 50 10000 6.2 110 19:39 24.11.2019
3796 Clear 23 1017 50 10000 6.2 110 19:21 24.11.2019
3797 Clear 23 1016 53 10000 8.2 120 18:59 24.11.2019
3798 Clear 24 1017 41 10000 7.2 60 18:38 24.11.2019
3799 Clear 23 1019 49 10000 6.2 120 18:20 24.11.2019
3800 Clear 23 1019 49 10000 6.2 120 17:58 24.11.2019
3801 Clear 23 1019 49 10000 6.2 120 17:58 24.11.2019
3802 Clouds 22 1019 43 10000 6.7 60 17:40 24.11.2019
3803 Clouds 22 1019 43 10000 6.7 60 17:22 24.11.2019
3804 Clouds 22 1019 46 10000 6.7 60 16:58 24.11.2019
3805 Clouds 22 1019 46 10000 6.7 60 16:39 24.11.2019
3806 Clouds 22 1019 46 10000 6.7 60 16:21 24.11.2019
3807 Clouds 21 1020 46 10000 6.7 50 15:56 24.11.2019
3808 Clouds 21 1020 46 10000 6.7 50 15:37 24.11.2019
3809 Clouds 21 1020 46 10000 6.7 50 15:37 24.11.2019
3810 Clouds 21 1020 46 10000 6.7 50 15:19 24.11.2019
3811 Clouds 21 1021 52 10000 7.2 60 14:39 24.11.2019
3812 Clouds 20 1021 52 10000 7.2 60 14:19 24.11.2019
3813 Clouds 20 1021 55 10000 7.7 40 13:59 24.11.2019
3814 Clouds 19 1021 55 10000 7.7 40 13:38 24.11.2019
3815 Clouds 19 1021 55 10000 7.7 40 13:19 24.11.2019
3816 Clear 18 1021 63 10000 5.7 70 12:56 24.11.2019
3817 Clear 18 1021 63 10000 5.7 70 12:38 24.11.2019
3818 Clear 17 1021 52 10000 6.2 90 12:18 24.11.2019
3819 Clouds 16 1021 77 10000 3.6 80 11:38 24.11.2019
3820 Clouds 16 1021 77 10000 3.6 80 11:19 24.11.2019
3821 Clouds 16 1021 71 10000 4.1 80 10:57 24.11.2019
3822 Clouds 15 1021 71 10000 4.1 80 10:38 24.11.2019
3823 Clouds 15 1021 71 10000 4.1 80 10:38 24.11.2019
3824 Clouds 15 1021 71 10000 4.1 80 10:20 24.11.2019
3825 Clouds 15 1021 71 10000 4.1 80 10:20 24.11.2019
3826 Clouds 13 1020 76 10000 3.6 80 09:39 24.11.2019
3827 Clouds 13 1020 76 10000 3.6 80 09:20 24.11.2019
3828 Clouds 14 1020 71 10000 3.1 70 08:57 24.11.2019
3829 Clouds 14 1020 71 10000 3.1 70 08:57 24.11.2019
3830 Clouds 14 1020 71 10000 3.1 70 08:39 24.11.2019
3831 Clouds 14 1020 71 10000 3.1 70 08:20 24.11.2019
3832 Clouds 14 1021 71 10000 3.1 60 07:52 24.11.2019
3833 Clouds 14 1021 71 10000 3.1 60 07:52 24.11.2019
3834 Clouds 14 1021 71 10000 3.1 60 07:25 24.11.2019
3835 Clouds 14 1021 71 10000 3.1 60 06:52 24.11.2019
3836 Clouds 15 1022 67 10000 2.6 70 05:40 24.11.2019
3837 Clouds 15 1022 67 10000 2.6 60 04:42 24.11.2019
3838 Clouds 16 1022 59 10000 5.1 90 02:43 24.11.2019
3839 Clouds 18 1022 55 10000 7.7 100 01:56 24.11.2019
3840 Clouds 18 1022 55 10000 7.7 100 01:34 24.11.2019
3841 Clouds 17 1022 55 10000 6.7 120 00:57 24.11.2019
3842 Clouds 18 1022 55 10000 6.7 120 00:38 24.11.2019
3843 Clouds 18 1022 55 10000 6.7 120 00:19 24.11.2019
3844 Clouds 18 1022 63 10000 6.2 110 23:43 23.11.2019
3845 Clouds 18 1022 63 10000 6.2 110 23:20 23.11.2019
3846 Clouds 19 1022 52 10000 7.7 110 22:57 23.11.2019
3847 Clouds 19 1022 52 10000 7.7 110 22:37 23.11.2019
3848 Clouds 19 1022 52 10000 7.7 110 22:19 23.11.2019
3849 Clouds 19 1022 52 10000 7.7 120 21:56 23.11.2019
3850 Clouds 19 1022 52 10000 7.7 120 21:37 23.11.2019
3851 Clouds 20 1022 52 10000 7.7 120 21:19 23.11.2019
3852 Clouds 20 1023 49 10000 7.7 120 20:38 23.11.2019
3853 Clouds 20 1023 49 10000 7.7 120 20:38 23.11.2019
3854 Clouds 20 1023 49 10000 7.7 120 20:20 23.11.2019
3855 Clouds 20 1023 49 10000 7.2 110 19:57 23.11.2019
3856 Clouds 20 1023 49 10000 7.2 110 19:57 23.11.2019
3857 Clouds 20 1023 49 10000 7.2 110 19:39 23.11.2019
3858 Clouds 20 1023 49 10000 7.2 110 19:19 23.11.2019
3859 Clouds 20 1023 49 10000 7.2 120 18:57 23.11.2019
3860 Clouds 20 1023 49 10000 7.2 120 18:39 23.11.2019
3861 Clouds 21 1023 52 10000 7.2 130 18:19 23.11.2019
3862 Clouds 21 1023 46 10000 6.2 110 17:44 23.11.2019
3863 Clouds 21 1023 46 10000 6.2 110 17:22 23.11.2019
3864 Clouds 20 1024 52 10000 7.7 120 16:57 23.11.2019
3865 Clouds 20 1024 52 10000 7.7 120 16:38 23.11.2019
3866 Clouds 20 1024 52 10000 7.7 120 16:38 23.11.2019
3867 Clouds 21 1024 52 10000 7.7 120 16:20 23.11.2019
3868 Clouds 20 1024 52 10000 6.2 110 15:58 23.11.2019
3869 Clouds 20 1024 52 10000 6.2 110 15:39 23.11.2019
3870 Clouds 20 1024 52 10000 6.2 110 15:19 23.11.2019
3871 Clouds 20 1024 56 10000 7.2 110 14:57 23.11.2019
3872 Clouds 20 1024 56 10000 7.2 110 14:57 23.11.2019
3873 Clouds 20 1024 56 10000 7.2 110 14:38 23.11.2019
3874 Clouds 20 1024 56 10000 7.2 110 14:20 23.11.2019
3875 Clouds 19 1024 59 10000 6.2 120 13:44 23.11.2019
3876 Clouds 19 1024 59 10000 6.2 120 13:22 23.11.2019
3877 Clouds 19 1022 68 10000 5.1 120 12:59 23.11.2019
3878 Clouds 19 1022 68 10000 5.1 120 12:40 23.11.2019
3879 Clouds 18 1022 67 10000 4.1 120 12:22 23.11.2019
3880 Clouds 18 1022 67 10000 4.1 120 11:43 23.11.2019
3881 Clouds 18 1021 59 10000 5.7 150 11:21 23.11.2019
3882 Clouds 18 1021 59 10000 5.7 150 10:45 23.11.2019
3883 Clouds 17 1021 59 10000 5.7 150 10:22 23.11.2019
3884 Clouds 16 1021 63 10000 6.2 140 09:43 23.11.2019
3885 Clouds 16 1021 63 10000 6.2 140 09:21 23.11.2019
3886 Clouds 16 1020 63 10000 6.2 140 08:56 23.11.2019
3887 Clouds 16 1020 63 10000 6.2 140 08:37 23.11.2019
3888 Clouds 16 1020 63 10000 6.2 140 08:18 23.11.2019
3889 Clouds 16 1020 67 10000 6.2 140 07:39 23.11.2019
3890 Clouds 16 1020 72 10000 7.2 150 06:50 23.11.2019
3891 Clouds 16 1020 72 10000 7.2 150 06:23 23.11.2019
3892 Clouds 16 1020 72 10000 7.2 150 05:53 23.11.2019
3893 Clouds 16 1020 72 10000 5.7 150 05:31 23.11.2019
3894 Clouds 16 1020 72 10000 5.7 150 04:50 23.11.2019
3895 Clouds 16 1020 72 10000 5.7 150 04:29 23.11.2019
3896 Clouds 16 1020 72 10000 5.7 160 03:20 23.11.2019
3897 Clouds 16 1020 72 10000 5.1 160 02:27 23.11.2019
3898 Clouds 16 1019 63 10000 5.7 160 01:38 23.11.2019
3899 Clouds 16 1018 63 10000 6.2 160 00:45 23.11.2019
3900 Clouds 17 1018 63 10000 6.2 160 00:19 23.11.2019
3901 Clear 17 1018 63 10000 8.2 160 23:43 22.11.2019
3902 Clouds 18 1018 63 10000 8.2 160 23:23 22.11.2019
3903 Clouds 19 1017 63 10000 10.3 160 22:59 22.11.2019
3904 Clouds 19 1017 63 10000 10.3 160 22:59 22.11.2019
3905 Clouds 19 1017 63 10000 10.3 160 22:41 22.11.2019
3906 Clouds 19 1017 63 10000 10.3 160 22:23 22.11.2019
3907 Clouds 19 1017 63 10000 11.3 170 21:59 22.11.2019
3908 Clouds 19 1017 63 10000 11.3 170 21:40 22.11.2019
3909 Clouds 19 1017 63 10000 11.3 170 21:20 22.11.2019
3910 Clouds 19 1017 68 10000 10.3 160 20:44 22.11.2019
3911 Clouds 20 1017 68 10000 10.3 160 20:22 22.11.2019
3912 Clouds 20 1017 72 10000 10.3 160 19:58 22.11.2019
3913 Clouds 20 1017 72 10000 10.3 160 19:39 22.11.2019
3914 Clouds 20 1017 72 10000 10.3 160 19:19 22.11.2019
3915 Clouds 20 1016 77 10000 9.8 170 18:58 22.11.2019
3916 Clouds 20 1016 77 10000 9.8 170 18:36 22.11.2019
3917 Clouds 20 1016 77 10000 9.8 170 18:18 22.11.2019
3918 Clouds 20 1016 77 10000 9.8 170 18:18 22.11.2019
3919 Clouds 20 1016 88 10000 10.3 170 17:41 22.11.2019
3920 Clouds 20 1016 88 10000 10.3 170 17:22 22.11.2019
3921 Clouds 20 1015 88 10000 10.3 170 16:48 22.11.2019
3922 Clouds 19 1015 88 10000 10.3 170 16:29 22.11.2019
3923 Clouds 19 1015 88 10000 10.3 170 16:29 22.11.2019
3924 Clouds 19 1015 88 10000 10.3 170 15:54 22.11.2019
3925 Clouds 19 1015 88 10000 10.3 170 15:36 22.11.2019
3926 Clouds 19 1015 88 10000 10.3 170 15:18 22.11.2019
3927 Clouds 20 1014 94 10000 9.3 170 14:54 22.11.2019
3928 Clouds 20 1014 94 10000 9.3 170 14:36 22.11.2019
3929 Clouds 21 1014 94 10000 9.3 170 14:18 22.11.2019
3930 Clouds 21 1014 94 10000 9.3 170 14:18 22.11.2019
3931 Clouds 21 1014 94 10000 5.1 190 13:38 22.11.2019
3932 Clouds 22 1014 94 10000 5.1 190 13:19 22.11.2019
3933 Clouds 21 1013 94 10000 2.6 210 12:58 22.11.2019
3934 Clouds 21 1013 94 10000 2.6 210 12:40 22.11.2019
3935 Clouds 21 1013 94 10000 2.6 210 12:19 22.11.2019
3936 Clouds 21 1012 94 10000 2.6 320 11:56 22.11.2019
3937 Clouds 20 1012 94 10000 2.6 320 11:36 22.11.2019
3938 Clouds 20 1012 94 10000 2.6 320 11:36 22.11.2019
3939 Clouds 20 1012 94 10000 2.6 320 11:18 22.11.2019
3940 Rain 20 1011 88 10000 5.1 20 10:42 22.11.2019
3941 Rain 19 1011 88 10000 5.1 20 10:23 22.11.2019
3942 Thunderstorm 20 1012 93 5000 5.7 30 09:59 22.11.2019
3943 Thunderstorm 20 1012 93 5000 5.7 30 09:40 22.11.2019
3944 Thunderstorm 21 1012 94 5000 6.2 310 09:21 22.11.2019
3945 Rain 21 1010 88 10000 2.1 250 08:57 22.11.2019
3946 Clouds 22 1010 88 10000 2.1 250 08:38 22.11.2019
3947 Clouds 22 1010 88 10000 2.1 250 08:20 22.11.2019
3948 Rain 22 1010 88 10000 1.5 290 07:42 22.11.2019
3949 Clouds 22 1010 94 10000 2.1 40 07:20 22.11.2019
3950 Clouds 22 1010 78 10000 3.1 20 06:47 22.11.2019
3951 Clouds 23 1010 78 10000 3.1 20 06:27 22.11.2019
3952 Clouds 23 1010 78 10000 4.1 130 05:33 22.11.2019
3953 Clouds 23 1011 88 10000 5.7 130 03:26 22.11.2019
3954 Clouds 23 1011 88 10000 6.7 150 02:43 22.11.2019
3955 Clouds 23 1011 88 10000 6.7 150 02:23 22.11.2019
3956 Clouds 23 1011 78 10000 5.1 140 01:43 22.11.2019
3957 Clouds 24 1011 78 10000 5.1 140 01:18 22.11.2019
3958 Clouds 24 1010 78 10000 5.1 130 00:43 22.11.2019
3959 Clouds 24 1010 78 10000 5.1 130 00:22 22.11.2019
3960 Clouds 25 1011 88 10000 8.7 150 23:43 21.11.2019
3961 Clouds 24 1011 88 10000 8.7 150 23:24 21.11.2019
3962 Clouds 26 1010 58 10000 5.1 110 22:57 21.11.2019
3963 Clouds 27 1010 58 10000 5.1 110 22:38 21.11.2019
3964 Clouds 27 1010 58 10000 5.1 110 22:20 21.11.2019
3965 Clouds 28 1010 55 10000 5.1 120 21:55 21.11.2019
3966 Clouds 28 1010 55 10000 5.1 120 21:37 21.11.2019
3967 Clouds 28 1010 55 10000 5.1 120 21:37 21.11.2019
3968 Clouds 28 1010 55 10000 5.1 120 21:18 21.11.2019
3969 Clouds 28 1010 55 10000 5.1 140 20:57 21.11.2019
3970 Clouds 28 1010 55 10000 5.1 140 20:37 21.11.2019
3971 Clouds 29 1010 55 10000 5.1 140 20:18 21.11.2019
3972 Clouds 29 1011 62 10000 6.2 180 19:57 21.11.2019
3973 Clouds 29 1011 62 10000 6.2 180 19:38 21.11.2019
3974 Clouds 29 1011 62 10000 6.2 180 19:19 21.11.2019
3975 Clouds 30 1011 33 10000 4.1 360 18:54 21.11.2019
3976 Clouds 30 1011 33 10000 4.1 360 18:36 21.11.2019
3977 Clouds 30 1011 33 10000 4.1 360 18:36 21.11.2019
3978 Clouds 31 1011 33 10000 4.1 360 18:18 21.11.2019
3979 Clouds 30 1012 38 10000 6.2 360 17:40 21.11.2019
3980 Clouds 29 1012 38 10000 6.2 360 17:22 21.11.2019
3981 Clouds 29 1013 35 10000 6.2 180 16:59 21.11.2019
3982 Clouds 29 1013 35 10000 6.2 180 16:40 21.11.2019
3983 Clouds 29 1013 35 10000 6.2 180 16:21 21.11.2019
3984 Clouds 29 1013 40 10000 6.2 30 15:56 21.11.2019
3985 Clouds 29 1013 40 10000 6.2 30 15:37 21.11.2019
3986 Clouds 28 1013 40 10000 6.2 30 15:19 21.11.2019
3987 Clouds 26 1014 61 10000 5.1 60 14:39 21.11.2019
3988 Clouds 26 1014 61 10000 5.1 60 14:21 21.11.2019
3989 Mist 25 1014 73 8000 5.1 90 13:59 21.11.2019
3990 Mist 25 1014 73 8000 5.1 90 13:38 21.11.2019
3991 Mist 25 1014 73 8000 5.1 90 13:19 21.11.2019
3992 Mist 25 1014 73 8000 5.1 90 13:19 21.11.2019
3993 Clouds 23 1015 88 10000 6.2 110 12:54 21.11.2019
3994 Clouds 23 1015 88 10000 6.2 110 12:36 21.11.2019
3995 Clouds 23 1015 88 10000 6.2 110 12:18 21.11.2019
3996 Clouds 23 1015 83 10000 7.2 130 11:40 21.11.2019
3997 Clouds 23 1015 83 10000 7.2 130 11:21 21.11.2019
3998 Clouds 22 1014 68 10000 5.1 180 10:57 21.11.2019
3999 Clouds 22 1014 68 10000 5.1 180 10:57 21.11.2019
4000 Clouds 22 1014 68 10000 5.1 180 10:39 21.11.2019
4001 Clouds 22 1014 68 10000 5.1 180 10:20 21.11.2019
4002 Clear 22 1012 77 10000 3.18 35 09:43 21.11.2019
4003 Clear 20 1012 77 10000 3.18 35 09:23 21.11.2019
4004 Clear 21 1012 77 10000 1 80 08:59 21.11.2019
4005 Clear 22 1012 77 10000 1 80 08:40 21.11.2019
4006 Clear 22 1012 77 10000 1 80 08:40 21.11.2019
4007 Clear 22 1012 77 10000 1 80 08:18 21.11.2019
4008 Clear 22 1013 73 10000 2.1 20 07:40 21.11.2019
4009 Clear 22 1013 73 10000 2.1 20 07:18 21.11.2019
4010 Clear 22 1013 64 10000 2.1 40 06:51 21.11.2019
4011 Clear 23 1013 64 10000 2.1 40 06:33 21.11.2019
4012 Clear 23 1013 53 10000 1.5 90 05:31 21.11.2019
4013 Clear 26 1013 47 10000 3.1 80 03:32 21.11.2019
4014 Clear 25 1013 61 10000 2.6 100 02:40 21.11.2019
4015 Clear 26 1012 65 10000 3.1 120 01:53 21.11.2019
4016 Clear 26 1012 65 10000 3.1 120 01:26 21.11.2019
4017 Clear 26 1012 69 10000 3.6 110 00:54 21.11.2019
4018 Clear 26 1012 69 10000 3.6 110 00:54 21.11.2019
4019 Clear 27 1012 69 10000 3.6 110 00:21 21.11.2019
4020 Clear 28 1012 33 10000 3.6 130 23:55 20.11.2019
4021 Clear 28 1012 33 10000 3.6 130 23:37 20.11.2019
4022 Clear 28 1012 33 10000 3.6 130 23:19 20.11.2019
4023 Clear 30 1012 31 10000 4.1 140 22:55 20.11.2019
4024 Clear 30 1012 31 10000 4.1 140 22:36 20.11.2019
4025 Clear 30 1012 31 10000 4.1 140 22:18 20.11.2019
4026 Clear 30 1012 31 10000 4.1 140 22:18 20.11.2019
4027 Clear 31 1012 29 10000 5.1 160 21:54 20.11.2019
4028 Clear 31 1012 29 10000 5.1 160 21:36 20.11.2019
4029 Clear 31 1012 29 10000 5.1 160 21:18 20.11.2019
4030 Clear 32 1012 30 10000 4.6 170 20:54 20.11.2019
4031 Clear 31 1012 30 10000 4.6 170 20:36 20.11.2019
4032 Clear 32 1012 30 10000 4.6 170 20:18 20.11.2019
4033 Clear 32 1013 30 10000 2.1 30 19:54 20.11.2019
4034 Clear 32 1013 30 10000 2.1 30 19:36 20.11.2019
4035 Clear 32 1013 30 10000 2.1 30 19:18 20.11.2019
4036 Clear 32 1013 30 10000 2.6 320 18:40 20.11.2019
4037 Clear 32 1013 30 10000 2.6 320 18:22 20.11.2019
4038 Clear 30 1013 29 10000 3.1 330 17:59 20.11.2019
4039 Clear 31 1013 29 10000 3.1 330 17:39 20.11.2019
4040 Clear 32 1013 29 10000 3.1 330 17:21 20.11.2019
4041 Clear 32 1014 29 10000 5.1 340 16:59 20.11.2019
4042 Clear 32 1014 29 10000 5.1 340 16:41 20.11.2019
4043 Clear 32 1014 29 10000 5.1 340 16:20 20.11.2019
4044 Clear 31 1014 35 10000 4.6 360 15:57 20.11.2019
4045 Clear 31 1014 35 10000 4.6 360 15:38 20.11.2019
4046 Clear 30 1014 35 10000 4.6 360 15:19 20.11.2019
4047 Clear 29 1015 45 10000 5.7 10 14:55 20.11.2019
4048 Clear 28 1015 45 10000 5.7 10 14:37 20.11.2019
4049 Clear 28 1015 45 10000 5.7 10 14:18 20.11.2019
4050 Clear 26 1015 50 10000 5.1 10 13:55 20.11.2019
4051 Clear 26 1015 50 10000 5.1 10 13:36 20.11.2019
4052 Clear 25 1015 50 10000 5.1 10 13:18 20.11.2019
4053 Clear 24 1015 53 10000 6.7 10 12:38 20.11.2019
4054 Clear 23 1015 53 10000 6.7 10 12:19 20.11.2019
4055 Clear 21 1015 72 10000 4.6 10 11:46 20.11.2019
4056 Clear 21 1015 72 10000 4.6 10 11:23 20.11.2019
4057 Clear 21 1014 72 10000 4.6 30 10:59 20.11.2019
4058 Clear 21 1014 72 10000 4.6 30 10:39 20.11.2019
4059 Clear 20 1014 72 10000 4.6 30 10:20 20.11.2019
4060 Clear 20 1013 77 10000 4.1 20 09:59 20.11.2019
4061 Clear 19 1013 77 10000 4.1 20 09:41 20.11.2019
4062 Clear 20 1013 77 10000 4.1 20 09:19 20.11.2019
4063 Clear 20 1013 77 10000 4.6 20 08:43 20.11.2019
4064 Clear 20 1013 77 10000 4.6 20 08:24 20.11.2019
4065 Clear 20 1013 82 10000 3.1 20 07:52 20.11.2019
4066 Clear 21 1013 82 10000 3.1 20 07:34 20.11.2019
4067 Clear 21 1013 77 10000 3.6 30 06:58 20.11.2019
4068 Clear 21 1013 77 10000 3.6 30 06:38 20.11.2019
4069 Clear 21 1013 77 10000 3.6 30 06:18 20.11.2019
4070 Clear 22 1014 73 10000 4.1 60 04:41 20.11.2019
4071 Clouds 23 1014 78 10000 3.6 100 02:28 20.11.2019
4072 Clouds 23 1014 78 10000 3.1 110 01:37 20.11.2019
4073 Clouds 22 1014 88 10000 5.1 120 00:46 20.11.2019
4074 Clouds 23 1014 88 10000 5.1 120 00:21 20.11.2019
4075 Clear 23 1014 53 10000 6.2 120 23:41 19.11.2019
4076 Clear 23 1014 53 10000 6.2 120 23:41 19.11.2019
4077 Clear 23 1014 53 10000 6.2 120 23:22 19.11.2019
4078 Clouds 25 1014 54 10000 6.2 130 22:56 19.11.2019
4079 Clouds 24 1014 54 10000 6.2 130 22:37 19.11.2019
4080 Clouds 24 1014 54 10000 6.2 130 22:18 19.11.2019
4081 Clouds 25 1014 54 10000 6.2 160 21:54 19.11.2019
4082 Clouds 25 1014 54 10000 6.2 160 21:36 19.11.2019
4083 Clouds 25 1014 54 10000 6.2 160 21:18 19.11.2019
4084 Clouds 26 1015 58 10000 6.2 180 20:54 19.11.2019
4085 Clouds 26 1015 58 10000 6.2 180 20:36 19.11.2019
4086 Clouds 26 1015 58 10000 6.2 180 20:18 19.11.2019
4087 Clouds 26 1015 58 10000 6.2 180 19:41 19.11.2019
4088 Clouds 26 1015 58 10000 6.2 180 19:20 19.11.2019
4089 Clouds 27 1016 69 10000 4.1 150 18:58 19.11.2019
4090 Clouds 27 1016 69 10000 4.1 150 18:39 19.11.2019
4091 Clouds 27 1016 61 10000 6.2 180 18:20 19.11.2019
4092 Clouds 27 1016 61 10000 6.2 180 17:57 19.11.2019
4093 Clouds 27 1016 61 10000 6.2 180 17:39 19.11.2019
4094 Clouds 26 1016 61 10000 6.2 180 17:20 19.11.2019
4095 Clear 26 1016 54 10000 2.6 130 16:59 19.11.2019
4096 Clear 27 1016 54 10000 2.6 130 16:39 19.11.2019
4097 Clear 27 1016 54 10000 2.6 130 16:19 19.11.2019
4098 Clear 28 1017 51 10000 3.1 190 15:45 19.11.2019
4099 Clear 28 1017 51 10000 3.1 190 15:26 19.11.2019
4100 Clear 27 1017 48 10000 2.1 150 14:57 19.11.2019
4101 Clear 27 1017 48 10000 2.1 150 14:39 19.11.2019
4102 Clear 26 1017 48 10000 2.1 150 14:20 19.11.2019
4103 Clear 25 1017 61 10000 2.1 10 13:42 19.11.2019
4104 Clouds 25 1017 61 10000 2.1 10 13:21 19.11.2019
4105 Clouds 23 1018 64 10000 2.1 20 12:56 19.11.2019
4106 Clouds 24 1018 64 10000 2.1 20 12:38 19.11.2019
4107 Clouds 24 1018 64 10000 2.1 20 12:19 19.11.2019
4108 Clouds 22 1017 77 10000 1.5 30 11:55 19.11.2019
4109 Clouds 22 1017 77 10000 1.5 30 11:36 19.11.2019
4110 Clear 21 1017 77 10000 1.5 30 11:18 19.11.2019
4111 Fog 20 1016 93 7000 4.03 143 10:44 19.11.2019
4112 Fog 20 1016 93 7000 4.03 143 10:20 19.11.2019
4113 Clear 19 1015 93 7000 4.03 143 09:43 19.11.2019
4114 Clear 19 1015 93 7000 4.03 143 09:21 19.11.2019
4115 Clear 19 1015 93 10000 4.03 143 08:57 19.11.2019
4116 Clear 19 1015 93 10000 4.03 143 08:39 19.11.2019
4117 Clear 19 1015 93 10000 1.11 68 08:20 19.11.2019
4118 Clear 19 1015 93 10000 1.11 68 07:55 19.11.2019
4119 Clear 19 1015 93 10000 1.11 68 07:36 19.11.2019
4120 Clear 19 1015 93 10000 1.11 68 07:18 19.11.2019
4121 Clear 19 1015 88 10000 1.11 68 06:42 19.11.2019
4122 Clear 19 1015 88 10000 1.11 68 06:18 19.11.2019
4123 Clear 19 1015 88 10000 2.1 40 05:18 19.11.2019
4124 Thunderstorm 21 1016 88 6000 2.6 70 03:39 19.11.2019
4125 Thunderstorm 21 1016 88 6000 2.6 70 03:19 19.11.2019
4126 Thunderstorm 21 1016 88 6000 2.6 60 02:45 19.11.2019
4127 Thunderstorm 22 1015 83 6000 1.5 150 01:48 19.11.2019
4128 Thunderstorm 23 1015 78 7000 2.34 19 00:48 19.11.2019
4129 Thunderstorm 24 1014 60 10000 2.1 50 00:19 19.11.2019
4130 Clouds 26 1014 47 10000 3.6 140 23:40 18.11.2019
4131 Clouds 26 1014 47 10000 3.6 140 23:19 18.11.2019
4132 Rain 26 1014 61 10000 6.2 170 22:46 18.11.2019
4133 Clouds 26 1014 57 10000 5.1 220 22:24 18.11.2019
4134 Clouds 26 1014 51 10000 6.2 220 21:59 18.11.2019
4135 Clouds 26 1014 51 10000 6.2 220 21:40 18.11.2019
4136 Clouds 26 1014 51 10000 6.2 220 21:21 18.11.2019
4137 Clouds 27 1013 39 10000 5.1 230 20:59 18.11.2019
4138 Clouds 27 1013 39 10000 5.1 230 20:59 18.11.2019
4139 Clouds 28 1013 39 10000 5.1 230 20:41 18.11.2019
4140 Clouds 28 1013 39 10000 5.1 230 20:19 18.11.2019
4141 Clouds 30 1013 31 10000 2.1 260 19:57 18.11.2019
4142 Clouds 30 1013 31 10000 2.1 260 19:38 18.11.2019
4143 Clouds 30 1013 31 10000 2.1 260 19:38 18.11.2019
4144 Clouds 30 1013 31 10000 2.1 260 19:38 18.11.2019
4145 Clouds 30 1013 31 10000 2.1 260 19:20 18.11.2019
4146 Clouds 31 1013 31 10000 5.1 320 18:56 18.11.2019
4147 Clouds 32 1013 31 10000 5.1 320 18:38 18.11.2019
4148 Clouds 32 1013 31 10000 5.1 320 18:38 18.11.2019
4149 Clouds 32 1013 31 10000 5.1 320 18:19 18.11.2019
4150 Clouds 32 1014 33 10000 5.1 310 17:56 18.11.2019
4151 Clouds 32 1014 33 10000 5.1 310 17:56 18.11.2019
4152 Clouds 32 1014 33 10000 5.1 310 17:37 18.11.2019
4153 Clouds 32 1014 33 10000 5.1 310 17:18 18.11.2019
4154 Clouds 31 1014 38 10000 6.2 310 16:42 18.11.2019
4155 Clouds 31 1014 38 10000 6.2 310 16:24 18.11.2019
4156 Clouds 31 1014 37 10000 6.2 320 15:58 18.11.2019
4157 Clouds 30 1014 37 10000 6.2 320 15:39 18.11.2019
4158 Clouds 30 1014 37 10000 6.2 320 15:39 18.11.2019
4159 Clouds 30 1014 37 10000 6.2 320 15:20 18.11.2019
4160 Clouds 30 1014 37 10000 6.2 320 15:20 18.11.2019
4161 Clouds 29 1014 42 10000 4.6 340 14:56 18.11.2019
4162 Clouds 29 1014 42 10000 4.6 340 14:37 18.11.2019
4163 Rain 29 1014 42 10000 4.6 340 14:18 18.11.2019
4164 Rain 26 1014 54 10000 3.1 340 13:42 18.11.2019
4165 Rain 25 1014 54 10000 3.1 340 13:23 18.11.2019
4166 Rain 25 1014 60 10000 3.1 350 12:40 18.11.2019
4167 Rain 25 1014 60 10000 3.1 350 12:20 18.11.2019
4168 Rain 23 1013 68 10000 3.1 10 11:56 18.11.2019
4169 Rain 22 1013 68 10000 3.1 10 11:38 18.11.2019
4170 Rain 22 1013 68 10000 3.1 10 11:19 18.11.2019
4171 Clouds 22 1012 72 10000 2.6 360 10:43 18.11.2019
4172 Clouds 21 1012 72 10000 2.6 360 10:25 18.11.2019
4173 Rain 21 1012 68 10000 2.6 10 09:57 18.11.2019
4174 Rain 20 1012 68 10000 2.6 10 09:38 18.11.2019
4175 Rain 19 1012 68 10000 2.6 10 09:20 18.11.2019
4176 Rain 20 1011 64 10000 2.1 360 08:47 18.11.2019
4177 Rain 20 1011 64 10000 2.1 360 08:24 18.11.2019
4178 Rain 21 1011 56 10000 4.95 146 07:58 18.11.2019
4179 Rain 21 1011 56 10000 4.95 146 07:39 18.11.2019
4180 Rain 21 1011 56 10000 4.95 146 07:20 18.11.2019
4181 Rain 21 1011 64 10000 2.6 10 06:43 18.11.2019
4182 Rain 21 1011 64 10000 2.6 10 06:25 18.11.2019
4183 Rain 21 1012 72 10000 2.1 10 05:41 18.11.2019
4184 Clouds 23 1012 77 10000 4.01 341 03:59 18.11.2019
4185 Clouds 24 1010 60 10000 1.5 50 01:40 18.11.2019
4186 Clouds 24 1010 64 10000 2.6 80 00:54 18.11.2019
4187 Clouds 25 1010 64 10000 2.6 80 00:19 18.11.2019
4188 Clouds 26 1010 44 10000 1 0 23:41 17.11.2019
4189 Clouds 26 1010 44 10000 1 0 23:21 17.11.2019
4190 Clouds 27 1009 45 10000 1.5 0 22:57 17.11.2019
4191 Clouds 27 1009 45 10000 1.5 0 22:39 17.11.2019
4192 Clouds 27 1009 45 10000 1.5 0 22:39 17.11.2019
4193 Clouds 27 1009 45 10000 1.5 0 22:20 17.11.2019
4194 Clouds 28 1009 37 10000 4.1 240 21:55 17.11.2019
4195 Clouds 28 1009 37 10000 4.1 240 21:36 17.11.2019
4196 Clouds 28 1009 37 10000 4.1 240 21:18 17.11.2019
4197 Clouds 28 1009 37 10000 4.1 240 21:18 17.11.2019
4198 Clouds 28 1010 40 10000 5.1 260 20:54 17.11.2019
4199 Clouds 29 1010 40 10000 5.1 260 20:36 17.11.2019
4200 Clear 29 1010 40 10000 5.1 260 20:18 17.11.2019
4201 Clear 29 1010 38 10000 4.1 250 19:54 17.11.2019
4202 Clear 29 1010 38 10000 4.1 250 19:36 17.11.2019
4203 Clear 29 1010 38 10000 4.1 250 19:18 17.11.2019
4204 Clear 30 1010 38 10000 4.6 290 18:54 17.11.2019
4205 Clear 30 1010 38 10000 4.6 290 18:54 17.11.2019
4206 Clear 30 1010 38 10000 4.6 290 18:36 17.11.2019
4207 Clear 30 1010 38 10000 4.6 290 18:18 17.11.2019
4208 Clear 29 1011 35 10000 5.1 340 17:56 17.11.2019
4209 Clear 29 1011 35 10000 5.1 340 17:38 17.11.2019
4210 Clear 29 1011 35 10000 5.1 340 17:18 17.11.2019
4211 Clear 28 1011 39 10000 5.1 320 16:42 17.11.2019
4212 Clear 28 1011 39 10000 5.1 320 16:22 17.11.2019
4213 Clear 27 1011 42 10000 4.1 350 15:57 17.11.2019
4214 Clear 27 1011 42 10000 4.1 350 15:39 17.11.2019
4215 Clear 28 1011 42 10000 4.1 350 15:19 17.11.2019
4216 Clear 27 1012 47 10000 4.1 350 14:57 17.11.2019
4217 Clear 27 1012 47 10000 4.1 350 14:39 17.11.2019
4218 Clear 27 1012 47 10000 4.1 350 14:20 17.11.2019
4219 Clear 24 1012 64 10000 3.6 10 13:59 17.11.2019
4220 Clear 24 1012 64 10000 3.6 10 13:40 17.11.2019
4221 Clear 23 1012 64 10000 3.6 10 13:19 17.11.2019
4222 Clouds 22 1012 77 10000 3.6 10 12:45 17.11.2019
4223 Clouds 22 1012 77 10000 3.6 10 12:24 17.11.2019
4224 Clouds 20 1012 93 10000 1.5 50 11:59 17.11.2019
4225 Clouds 19 1012 93 10000 1.5 50 11:40 17.11.2019
4226 Clouds 19 1012 93 10000 1.5 50 11:21 17.11.2019
4227 Clouds 19 1012 93 10000 1.5 50 11:21 17.11.2019
4228 Clouds 19 1011 87 10000 1.5 30 10:58 17.11.2019
4229 Clouds 18 1011 87 10000 1.5 30 10:40 17.11.2019
4230 Clouds 18 1011 87 10000 1.5 30 10:21 17.11.2019
4231 Clouds 17 1011 87 10000 2.1 30 09:42 17.11.2019
4232 Clouds 17 1011 87 10000 2.1 30 09:23 17.11.2019
4233 Clouds 19 1011 87 10000 2.6 80 08:44 17.11.2019
4234 Clear 19 1011 87 10000 2.6 80 08:25 17.11.2019
4235 Clear 19 1010 87 10000 3.46 328 07:57 17.11.2019
4236 Clear 18 1010 87 10000 3.46 328 07:39 17.11.2019
4237 Clear 20 1010 87 10000 3.46 328 07:19 17.11.2019
4238 Clear 20 1010 82 10000 3.46 328 06:51 17.11.2019
4239 Clear 20 1010 82 10000 3.46 328 06:29 17.11.2019
4240 Clear 20 1010 82 10000 3.46 328 06:29 17.11.2019
4241 Clear 20 1010 82 10000 3.46 328 06:29 17.11.2019
4242 Clear 19 1010 77 10000 3.1 360 04:57 17.11.2019
4243 Clear 21 1010 77 10000 1 10 03:59 17.11.2019
4244 Clear 21 1010 77 10000 1 10 03:59 17.11.2019
4245 Clear 21 1010 77 10000 1 10 03:35 17.11.2019
4246 Clear 21 1010 82 10000 3.77 323 02:59 17.11.2019
4247 Clouds 21 1010 68 10000 1 20 01:54 17.11.2019
4248 Clouds 22 1010 64 10000 1.5 20 00:59 17.11.2019
4249 Clouds 22 1010 64 10000 1.5 20 00:38 17.11.2019
4250 Clouds 22 1010 64 10000 1.5 20 00:19 17.11.2019
4251 Clouds 23 1009 73 10000 2.1 310 23:42 16.11.2019
4252 Clouds 23 1009 73 10000 2.1 310 23:42 16.11.2019
4253 Clouds 23 1009 73 10000 2.1 310 23:19 16.11.2019
4254 Clouds 23 1009 69 10000 5.7 360 22:43 16.11.2019
4255 Clouds 24 1009 69 10000 5.7 360 22:20 16.11.2019
4256 Clouds 22 1010 77 10000 5.1 10 21:59 16.11.2019
4257 Clouds 23 1010 77 10000 5.1 10 21:40 16.11.2019
4258 Clouds 23 1010 77 10000 5.1 10 21:21 16.11.2019
4259 Clouds 23 1010 73 10000 5.7 360 20:58 16.11.2019
4260 Clouds 23 1010 73 10000 5.7 360 20:39 16.11.2019
4261 Clouds 22 1010 73 10000 5.7 360 20:19 16.11.2019
4262 Rain 22 1012 83 10000 2.6 10 19:54 16.11.2019
4263 Rain 22 1012 83 10000 2.6 10 19:36 16.11.2019
4264 Rain 22 1012 83 10000 2.6 10 19:18 16.11.2019
4265 Rain 22 1012 83 5000 2.6 10 18:40 16.11.2019
4266 Rain 22 1012 83 5000 2.6 10 18:20 16.11.2019
4267 Rain 22 1012 73 7000 2.6 310 17:55 16.11.2019
4268 Rain 22 1012 60 4000 3.6 300 17:37 16.11.2019
4269 Rain 22 1012 60 4000 3.6 300 17:18 16.11.2019
4270 Clouds 23 1012 60 10000 5.1 270 16:45 16.11.2019
4271 Clouds 23 1012 60 10000 5.1 270 16:26 16.11.2019
4272 Clouds 24 1013 53 10000 7.2 270 15:56 16.11.2019
4273 Clouds 24 1013 53 10000 7.2 270 15:37 16.11.2019
4274 Clouds 24 1013 53 10000 7.2 270 15:19 16.11.2019
4275 Clouds 23 1012 68 10000 7.2 270 14:41 16.11.2019
4276 Clouds 23 1012 68 10000 7.2 270 14:21 16.11.2019
4277 Clouds 23 1012 68 10000 6.7 320 13:57 16.11.2019
4278 Clouds 23 1012 68 10000 6.7 320 13:39 16.11.2019
4279 Clouds 23 1012 68 10000 6.7 320 13:39 16.11.2019
4280 Clouds 23 1012 68 10000 6.7 320 13:19 16.11.2019
4281 Clouds 21 1010 77 10000 6.7 10 12:59 16.11.2019
4282 Clouds 21 1010 77 10000 6.7 10 12:40 16.11.2019
4283 Clouds 20 1010 77 10000 6.7 10 12:20 16.11.2019
4284 Clouds 20 1010 72 10000 5.1 350 11:45 16.11.2019
4285 Clouds 20 1010 72 10000 5.1 350 11:27 16.11.2019
4286 Clouds 18 1009 77 10000 4.6 350 10:58 16.11.2019
4287 Clouds 18 1009 77 10000 4.6 350 10:39 16.11.2019
4288 Clouds 17 1009 77 10000 4.6 350 10:21 16.11.2019
4289 Clear 17 1009 77 10000 4.1 10 09:45 16.11.2019
4290 Clear 17 1009 77 10000 4.1 10 09:22 16.11.2019
4291 Clear 16 1009 77 10000 4.6 20 08:59 16.11.2019
4292 Clear 17 1009 77 10000 4.6 20 08:39 16.11.2019
4293 Clear 17 1009 77 10000 4.6 20 08:19 16.11.2019
4294 Clear 17 1010 77 10000 3.6 10 07:43 16.11.2019
4295 Clear 17 1010 77 10000 3.6 10 07:21 16.11.2019
4296 Clear 17 1010 77 10000 3.1 10 06:55 16.11.2019
4297 Clear 17 1010 77 10000 3.1 10 06:34 16.11.2019
4298 Clear 18 1011 67 10000 3.6 30 05:40 16.11.2019
4299 Clear 19 1011 63 10000 3.6 20 04:20 16.11.2019
4300 Clear 19 1011 63 10000 2.6 50 03:25 16.11.2019
4301 Clouds 20 1011 72 10000 2.6 70 01:55 16.11.2019
4302 Clouds 20 1011 72 10000 2.6 70 01:27 16.11.2019
4303 Clouds 20 1011 64 10000 2.6 90 00:46 16.11.2019
4304 Clouds 21 1011 64 10000 2.6 90 00:27 16.11.2019
4305 Clouds 22 1011 46 10000 4.1 100 23:40 15.11.2019
4306 Clear 23 1011 46 10000 4.1 100 23:21 15.11.2019
4307 Clear 24 1012 38 10000 3.6 100 22:58 15.11.2019
4308 Clear 24 1012 38 10000 3.6 100 22:38 15.11.2019
4309 Clear 24 1012 38 10000 3.6 100 22:18 15.11.2019
4310 Clear 24 1012 38 10000 3.6 130 21:54 15.11.2019
4311 Clear 24 1012 38 10000 3.6 130 21:36 15.11.2019
4312 Clear 24 1012 38 10000 3.6 130 21:18 15.11.2019
4313 Clear 25 1013 39 10000 4.1 170 20:54 15.11.2019
4314 Clear 25 1013 39 10000 4.1 170 20:36 15.11.2019
4315 Clear 24 1013 39 10000 4.1 170 20:18 15.11.2019
4316 Clear 24 1013 39 10000 4.1 170 20:18 15.11.2019
4317 Clear 24 1013 50 10000 5.1 200 19:56 15.11.2019
4318 Clear 23 1013 50 10000 5.1 200 19:36 15.11.2019
4319 Clear 24 1013 50 10000 5.1 200 19:18 15.11.2019
4320 Clouds 25 1014 47 10000 4.1 180 18:41 15.11.2019
4321 Clouds 24 1014 47 10000 4.1 180 18:23 15.11.2019
4322 Clear 24 1014 41 10000 1 0 17:55 15.11.2019
4323 Clear 24 1014 41 10000 1 0 17:37 15.11.2019
4324 Clear 23 1014 41 10000 1 0 17:18 15.11.2019
4325 Clear 23 1014 47 10000 2.1 60 16:40 15.11.2019
4326 Clear 23 1014 47 10000 2.1 60 16:40 15.11.2019
4327 Clear 22 1014 47 10000 2.1 60 16:22 15.11.2019
4328 Clear 22 1015 49 10000 1 0 15:59 15.11.2019
4329 Clear 22 1015 49 10000 1 0 15:36 15.11.2019
4330 Clear 22 1015 49 10000 1 0 15:18 15.11.2019
4331 Clear 20 1015 60 10000 1 0 14:55 15.11.2019
4332 Clear 20 1015 60 10000 1 0 14:37 15.11.2019
4333 Clouds 20 1015 60 10000 1 0 14:18 15.11.2019
4334 Clouds 20 1015 72 10000 1 0 13:54 15.11.2019
4335 Clouds 20 1015 72 10000 1 0 13:54 15.11.2019
4336 Clouds 19 1015 72 10000 1 0 13:36 15.11.2019
4337 Clouds 19 1015 72 10000 1 0 13:18 15.11.2019
4338 Clouds 19 1015 82 8000 1 0 12:56 15.11.2019
4339 Clouds 18 1015 82 8000 1 0 12:37 15.11.2019
4340 Clouds 18 1015 82 8000 1 0 12:18 15.11.2019
4341 Mist 16 1014 100 5000 1 0 11:39 15.11.2019
4342 Mist 16 1014 100 5000 1 0 11:21 15.11.2019
4343 Fog 17 1014 87 10000 2.99 165 10:58 15.11.2019
4344 Fog 17 1014 87 10000 2.99 165 10:39 15.11.2019
4345 Fog 16 1014 87 10000 2.99 165 10:20 15.11.2019
4346 Clouds 14 1013 93 10000 2.99 165 09:41 15.11.2019
4347 Clouds 14 1013 93 10000 2.99 165 09:20 15.11.2019
4348 Clouds 15 1013 82 10000 2.99 165 08:57 15.11.2019
4349 Clouds 15 1013 82 10000 2.99 165 08:57 15.11.2019
4350 Clouds 15 1013 82 10000 2.99 165 08:39 15.11.2019
4351 Clouds 16 1013 82 10000 4.58 137 08:20 15.11.2019
4352 Clouds 16 1013 82 10000 4.58 137 07:42 15.11.2019
4353 Clouds 16 1013 82 10000 4.58 137 07:23 15.11.2019
4354 Clear 16 1012 92 0 4.58 137 06:36 15.11.2019
4355 Clear 16 1013 82 10000 2.1 170 05:52 15.11.2019
4356 Clear 17 1013 82 10000 2.1 170 05:31 15.11.2019
4357 Clear 17 1013 77 10000 2.6 160 04:45 15.11.2019
4358 Clear 17 1013 72 10000 3.1 170 03:39 15.11.2019
4359 Clear 19 1013 63 10000 4.1 180 02:34 15.11.2019
4360 Clear 19 1013 59 10000 3.6 190 01:55 15.11.2019
4361 Clouds 19 1013 59 10000 3.6 190 01:32 15.11.2019
4362 Clouds 19 1013 59 10000 3.6 190 01:32 15.11.2019
4363 Clouds 19 1012 68 10000 4.6 200 00:40 15.11.2019
4364 Clouds 19 1012 68 10000 4.6 200 00:21 15.11.2019
4365 Clouds 20 1012 64 10000 4.1 200 23:46 14.11.2019
4366 Clouds 21 1012 64 10000 4.1 200 23:26 14.11.2019
4367 Clouds 21 1011 60 10000 5.1 190 22:42 14.11.2019
4368 Clouds 22 1011 60 10000 5.1 190 22:23 14.11.2019
4369 Clouds 23 1011 57 10000 6.2 180 21:58 14.11.2019
4370 Clouds 23 1011 57 10000 6.2 180 21:40 14.11.2019
4371 Clouds 23 1011 57 10000 6.2 180 21:40 14.11.2019
4372 Clouds 23 1011 57 10000 6.2 180 21:40 14.11.2019
4373 Clouds 23 1011 57 10000 6.2 180 21:22 14.11.2019
4374 Clouds 23 1011 57 10000 6.2 180 20:55 14.11.2019
4375 Clouds 23 1011 57 10000 6.2 180 20:37 14.11.2019
4376 Clouds 23 1011 57 10000 6.2 180 20:18 14.11.2019
4377 Clouds 23 1011 69 10000 7.2 190 19:55 14.11.2019
4378 Clouds 23 1011 69 10000 7.2 190 19:36 14.11.2019
4379 Clouds 23 1011 69 10000 7.2 190 19:18 14.11.2019
4380 Clouds 23 1011 64 10000 6.2 210 18:42 14.11.2019
4381 Clouds 23 1011 64 10000 6.2 210 18:24 14.11.2019
4382 Clouds 23 1011 64 10000 6.2 210 17:57 14.11.2019
4383 Clouds 24 1011 64 10000 7.2 180 17:38 14.11.2019
4384 Clouds 24 1010 60 10000 5.1 210 17:20 14.11.2019
4385 Clouds 24 1010 60 10000 5.1 210 16:58 14.11.2019
4386 Clouds 24 1010 60 10000 5.1 210 16:37 14.11.2019
4387 Clouds 24 1010 60 10000 5.1 210 16:19 14.11.2019
4388 Clouds 23 1010 68 10000 4.1 220 15:58 14.11.2019
4389 Clouds 23 1010 68 10000 4.1 220 15:38 14.11.2019
4390 Clouds 23 1010 68 10000 4.1 220 15:20 14.11.2019
4391 Clouds 22 1010 73 10000 2.1 190 14:57 14.11.2019
4392 Clouds 22 1010 73 10000 2.1 190 14:38 14.11.2019
4393 Clouds 22 1010 73 10000 2.1 190 14:38 14.11.2019
4394 Clouds 22 1010 73 10000 2.1 190 14:20 14.11.2019
4395 Mist 21 1010 100 5000 2.1 190 13:42 14.11.2019
4396 Mist 21 1010 100 5000 2.1 190 13:23 14.11.2019
4397 Mist 22 1010 100 1500 5.89 200 12:57 14.11.2019
4398 Fog 22 1009 100 250 2.1 140 12:38 14.11.2019
4399 Fog 22 1009 100 250 2.1 140 12:38 14.11.2019
4400 Fog 22 1009 100 250 2.1 140 12:20 14.11.2019
4401 Fog 21 1009 100 100 1.5 160 11:55 14.11.2019
4402 Fog 20 1009 100 100 1.5 160 11:36 14.11.2019
4403 Fog 20 1009 100 100 1.5 160 11:18 14.11.2019
4404 Mist 19 1008 100 1500 5.37 269 10:56 14.11.2019
4405 Mist 19 1008 100 1500 5.37 269 10:56 14.11.2019
4406 Fog 19 1008 100 700 5.37 269 10:37 14.11.2019
4407 Fog 19 1008 100 700 5.37 269 10:19 14.11.2019
4408 Fog 19 1007 100 150 5.37 269 09:41 14.11.2019
4409 Fog 18 1007 100 150 5.37 269 09:23 14.11.2019
4410 Fog 18 1007 100 150 5.37 269 08:56 14.11.2019
4411 Fog 18 1007 100 150 5.37 269 08:38 14.11.2019
4412 Fog 18 1007 100 150 1.53 261 08:19 14.11.2019
4413 Fog 18 1007 100 300 1.53 261 07:40 14.11.2019
4414 Fog 18 1007 100 300 1.53 261 07:22 14.11.2019
4415 Mist 20 1008 94 8000 1.53 261 06:46 14.11.2019
4416 Mist 20 1008 94 8000 1.53 261 06:19 14.11.2019
4417 Clouds 20 1008 88 10000 1.5 150 05:20 14.11.2019
4418 Clear 20 1008 91 0 0.69 208 04:35 14.11.2019
4419 Mist 19 1008 88 5000 0.69 208 02:50 14.11.2019
4420 Clouds 21 1008 83 10000 0.69 208 02:29 14.11.2019
4421 Clouds 21 1007 83 10000 1.82 125 01:40 14.11.2019
4422 Clouds 22 1007 78 10000 2.4 115 00:55 14.11.2019
4423 Clouds 22 1007 78 10000 2.4 115 00:36 14.11.2019
4424 Clouds 24 1007 78 10000 2.4 115 00:18 14.11.2019
4425 Clouds 24 1007 65 10000 3.1 90 23:38 13.11.2019
4426 Clouds 24 1007 65 10000 3.1 90 23:38 13.11.2019
4427 Clouds 24 1007 65 10000 3.1 90 23:19 13.11.2019
4428 Clouds 25 1006 57 10000 3.6 170 22:42 13.11.2019
4429 Clouds 25 1006 57 10000 3.6 170 22:23 13.11.2019
4430 Clouds 26 1006 54 10000 2.6 190 21:57 13.11.2019
4431 Clouds 26 1006 54 10000 2.6 190 21:39 13.11.2019
4432 Clouds 26 1006 54 10000 2.6 190 21:21 13.11.2019
4433 Clouds 27 1006 61 10000 4.1 200 20:58 13.11.2019
4434 Clouds 27 1006 61 10000 4.1 200 20:38 13.11.2019
4435 Clouds 27 1006 61 10000 4.1 200 20:38 13.11.2019
4436 Clouds 27 1006 61 10000 4.1 200 20:20 13.11.2019
4437 Clouds 26 1007 61 10000 4.6 180 19:59 13.11.2019
4438 Clouds 26 1007 61 10000 4.6 180 19:40 13.11.2019
4439 Clouds 26 1007 61 10000 4.6 180 19:18 13.11.2019
4440 Clouds 27 1008 58 10000 3.1 200 18:55 13.11.2019
4441 Clouds 26 1008 58 10000 3.1 200 18:37 13.11.2019
4442 Clouds 26 1008 58 10000 3.1 200 18:18 13.11.2019
4443 Clouds 26 1008 58 10000 4.1 210 17:56 13.11.2019
4444 Clouds 26 1008 58 10000 4.1 210 17:38 13.11.2019
4445 Clouds 26 1008 58 10000 4.1 210 17:19 13.11.2019
4446 Clouds 26 1008 61 10000 4.1 200 16:56 13.11.2019
4447 Clouds 26 1008 61 10000 4.1 200 16:37 13.11.2019
4448 Clouds 25 1008 61 10000 4.1 200 16:19 13.11.2019
4449 Clouds 25 1008 65 10000 1.5 0 15:57 13.11.2019
4450 Clouds 26 1008 65 10000 1.5 0 15:37 13.11.2019
4451 Clouds 26 1008 65 10000 1.5 0 15:18 13.11.2019
4452 Clouds 25 1009 69 10000 2.6 320 14:41 13.11.2019
4453 Clouds 25 1009 69 10000 2.6 320 14:21 13.11.2019
4454 Clouds 23 1009 83 10000 2.1 340 13:54 13.11.2019
4455 Clouds 24 1009 83 10000 2.1 340 13:36 13.11.2019
4456 Clouds 24 1009 83 10000 2.1 340 13:18 13.11.2019
4457 Clouds 23 1009 88 10000 4.6 20 12:42 13.11.2019
4458 Clouds 22 1009 88 10000 4.6 20 12:23 13.11.2019
4459 Clouds 21 1009 94 10000 4.1 30 11:58 13.11.2019
4460 Clouds 21 1009 94 10000 4.1 30 11:38 13.11.2019
4461 Clouds 20 1009 94 10000 4.1 30 11:19 13.11.2019
4462 Clouds 21 1009 93 10000 1.5 40 10:57 13.11.2019
4463 Clouds 20 1009 93 10000 1.5 40 10:39 13.11.2019
4464 Clouds 19 1009 93 10000 1.5 40 10:19 13.11.2019
4465 Clouds 19 1009 93 10000 1 50 09:43 13.11.2019
4466 Clouds 18 1009 93 10000 1 50 09:21 13.11.2019
4467 Clouds 18 1009 93 10000 1 50 09:21 13.11.2019
4468 Clouds 18 1009 93 10000 1 50 09:21 13.11.2019
4469 Clouds 18 1009 93 10000 1 50 09:21 13.11.2019
4470 Clouds 18 1009 93 10000 1 50 09:21 13.11.2019
4471 Clouds 19 1008 93 10000 1 50 08:46 13.11.2019
4472 Clouds 19 1008 93 10000 1 50 08:28 13.11.2019
4473 Clouds 19 1009 88 10000 2.6 40 07:59 13.11.2019
4474 Clouds 19 1009 88 10000 2.6 40 07:41 13.11.2019
4475 Clouds 20 1009 88 10000 2.6 40 07:19 13.11.2019
4476 Clouds 20 1010 88 10000 4.1 40 06:43 13.11.2019
4477 Clouds 20 1010 88 10000 4.1 40 06:19 13.11.2019
4478 Clouds 20 1010 88 10000 4.1 40 06:19 13.11.2019
4479 Clouds 20 1010 88 10000 4.1 40 06:19 13.11.2019
4480 Clouds 20 1010 88 10000 4.1 40 06:19 13.11.2019
4481 Clouds 20 1010 88 10000 4.1 40 06:19 13.11.2019
4482 Clouds 20 1011 88 10000 2.6 60 05:48 13.11.2019
4483 Clouds 20 1011 88 10000 2.6 60 05:29 13.11.2019
4484 Clouds 20 1011 82 10000 2.6 80 04:19 13.11.2019
4485 Clouds 21 1012 82 10000 2.6 130 01:52 13.11.2019
4486 Clouds 20 1012 82 10000 2.6 130 01:27 13.11.2019
4487 Clouds 20 1011 82 10000 1.5 150 00:43 13.11.2019
4488 Clouds 22 1010 69 10000 4.6 40 23:58 12.11.2019
4489 Clouds 22 1010 69 10000 4.6 40 23:40 12.11.2019
4490 Clouds 22 1010 69 10000 4.6 40 23:20 12.11.2019
4491 Clouds 23 1010 61 10000 7.2 60 22:43 12.11.2019
4492 Clouds 23 1010 61 10000 7.2 60 22:20 12.11.2019
4493 Clouds 23 1011 61 10000 4.1 60 21:58 12.11.2019
4494 Clouds 24 1011 61 10000 4.1 60 21:39 12.11.2019
4495 Clouds 23 1011 61 10000 4.1 60 21:21 12.11.2019
4496 Clouds 24 1012 54 10000 5.1 50 20:56 12.11.2019
4497 Clouds 24 1012 54 10000 5.1 50 20:37 12.11.2019
4498 Clouds 24 1012 54 10000 5.1 50 20:37 12.11.2019
4499 Clouds 25 1012 54 10000 5.1 50 20:18 12.11.2019
4500 Clouds 24 1013 61 10000 4.1 30 19:57 12.11.2019
4501 Clouds 24 1013 61 10000 4.1 30 19:38 12.11.2019
4502 Clouds 24 1013 61 10000 4.1 30 19:19 12.11.2019
4503 Clouds 24 1014 61 10000 4.6 40 18:57 12.11.2019
4504 Clouds 24 1014 61 10000 4.6 40 18:39 12.11.2019
4505 Clouds 23 1014 61 10000 4.6 40 18:21 12.11.2019
4506 Clouds 22 1015 64 10000 5.1 50 17:56 12.11.2019
4507 Clouds 22 1015 64 10000 5.1 50 17:56 12.11.2019
4508 Clouds 23 1015 64 10000 5.1 50 17:37 12.11.2019
4509 Clouds 23 1015 64 10000 5.1 50 17:19 12.11.2019
4510 Clouds 23 1015 64 10000 6.2 50 16:44 12.11.2019
4511 Clouds 23 1015 64 10000 6.2 50 16:25 12.11.2019
4512 Clouds 23 1016 64 10000 7.2 40 15:57 12.11.2019
4513 Clouds 23 1016 64 10000 7.2 40 15:39 12.11.2019
4514 Clouds 23 1016 64 10000 7.2 40 15:20 12.11.2019
4515 Clouds 22 1017 73 10000 7.2 40 14:55 12.11.2019
4516 Clouds 22 1017 73 10000 7.2 40 14:36 12.11.2019
4517 Clouds 22 1017 73 10000 7.2 40 14:36 12.11.2019
4518 Clouds 22 1017 73 10000 7.2 40 14:18 12.11.2019
4519 Clouds 21 1015 73 10000 6.7 40 13:54 12.11.2019
4520 Clouds 21 1015 73 10000 6.7 40 13:36 12.11.2019
4521 Clouds 21 1015 73 10000 6.7 40 13:18 12.11.2019
4522 Clouds 18 1018 82 10000 5.7 40 12:40 12.11.2019
4523 Clouds 18 1018 82 10000 5.7 40 12:19 12.11.2019
4524 Clouds 18 1018 82 10000 5.7 40 12:19 12.11.2019
4525 Clouds 17 1018 77 10000 2.1 70 11:56 12.11.2019
4526 Clouds 17 1018 77 10000 2.1 70 11:38 12.11.2019
4527 Clouds 17 1018 77 10000 2.1 70 11:20 12.11.2019
4528 Clear 16 1018 87 10000 2.6 90 10:55 12.11.2019
4529 Clear 16 1018 87 10000 2.6 90 10:36 12.11.2019
4530 Clear 15 1018 87 10000 2.6 90 10:18 12.11.2019
4531 Clear 15 1018 87 10000 3.1 80 09:39 12.11.2019
4532 Clouds 15 1018 87 10000 3.1 80 09:20 12.11.2019
4533 Clouds 15 1018 87 10000 2.6 100 08:50 12.11.2019
4534 Clear 15 1018 82 10000 2.1 70 08:29 12.11.2019
4535 Clear 16 1018 82 10000 2.1 70 07:43 12.11.2019
4536 Clear 16 1018 82 10000 2.1 70 07:25 12.11.2019
4537 Clear 16 1019 77 10000 3.1 80 06:54 12.11.2019
4538 Clear 16 1019 77 10000 3.1 80 06:29 12.11.2019
4539 Clear 16 1019 72 10000 5.7 60 05:57 12.11.2019
4540 Clear 16 1019 72 10000 5.7 60 05:57 12.11.2019
4541 Clear 16 1019 72 10000 5.7 60 05:29 12.11.2019
4542 Clear 17 1019 72 10000 5.7 60 04:39 12.11.2019
4543 Clear 18 1019 68 10000 5.7 70 02:48 12.11.2019
4544 Clouds 19 1019 63 10000 6.7 70 01:39 12.11.2019
4545 Clouds 19 1019 63 10000 6.7 70 01:19 12.11.2019
4546 Clouds 20 1019 56 10000 5.1 70 00:44 12.11.2019
4547 Clouds 20 1019 56 10000 5.1 70 00:21 12.11.2019
4548 Clouds 19 1018 72 10000 4.6 100 23:42 11.11.2019
4549 Clouds 19 1018 72 10000 4.6 100 23:21 11.11.2019
4550 Clouds 19 1018 72 10000 4.6 100 23:21 11.11.2019
4551 Clouds 20 1019 68 10000 5.1 110 22:40 11.11.2019
4552 Clouds 20 1019 68 10000 5.1 110 22:20 11.11.2019
4553 Clouds 20 1019 64 10000 5.1 100 21:59 11.11.2019
4554 Clouds 20 1019 64 10000 5.1 100 21:40 11.11.2019
4555 Clouds 20 1019 64 10000 5.1 100 21:21 11.11.2019
4556 Clouds 21 1020 68 10000 5.1 110 20:59 11.11.2019
4557 Clouds 21 1020 68 10000 5.1 110 20:41 11.11.2019
4558 Clouds 21 1020 68 10000 5.1 110 20:20 11.11.2019
4559 Clouds 22 1020 56 10000 5.1 90 19:56 11.11.2019
4560 Clouds 22 1020 56 10000 5.1 90 19:38 11.11.2019
4561 Clouds 21 1020 56 10000 5.1 90 19:18 11.11.2019
4562 Clouds 21 1020 56 10000 5.1 90 19:18 11.11.2019
4563 Clouds 22 1021 50 10000 6.7 50 18:41 11.11.2019
4564 Clouds 22 1021 50 10000 6.7 50 18:21 11.11.2019
4565 Clouds 22 1022 50 10000 6.2 40 17:59 11.11.2019
4566 Clouds 22 1022 50 10000 6.2 40 17:40 11.11.2019
4567 Clouds 22 1022 50 10000 6.2 40 17:22 11.11.2019
4568 Clouds 22 1022 53 10000 7.2 70 16:39 11.11.2019
4569 Clouds 22 1022 53 10000 7.2 70 16:20 11.11.2019
4570 Clouds 21 1023 60 10000 3.6 120 15:57 11.11.2019
4571 Clouds 21 1023 60 10000 3.6 120 15:38 11.11.2019
4572 Clouds 20 1023 60 10000 3.6 120 15:19 11.11.2019
4573 Clouds 20 1023 64 10000 6.7 70 14:42 11.11.2019
4574 Clouds 20 1023 64 10000 6.7 70 14:42 11.11.2019
4575 Clouds 20 1023 64 10000 6.7 70 14:24 11.11.2019
4576 Clouds 19 1024 72 10000 5.7 100 13:58 11.11.2019
4577 Clouds 18 1024 72 10000 5.7 100 13:37 11.11.2019
4578 Clouds 18 1024 72 10000 5.7 100 13:19 11.11.2019
4579 Clouds 18 1024 77 10000 5.1 90 12:56 11.11.2019
4580 Clouds 18 1024 77 10000 5.1 90 12:38 11.11.2019
4581 Clouds 18 1024 77 10000 5.1 90 12:20 11.11.2019
4582 Clouds 17 1024 77 10000 4.6 110 11:42 11.11.2019
4583 Clear 17 1024 77 10000 4.6 110 11:22 11.11.2019
4584 Clear 16 1023 87 10000 2.1 100 10:56 11.11.2019
4585 Clear 15 1023 87 10000 2.1 100 10:38 11.11.2019
4586 Clear 14 1023 87 10000 2.1 100 10:18 11.11.2019
4587 Clear 14 1023 87 10000 2.6 100 09:43 11.11.2019
4588 Clear 14 1023 87 10000 2.6 100 09:21 11.11.2019
4589 Clear 14 1022 87 10000 2.6 120 08:59 11.11.2019
4590 Clear 14 1022 87 10000 2.6 120 08:37 11.11.2019
4591 Clear 14 1022 87 10000 2.6 120 08:18 11.11.2019
4592 Clear 14 1022 87 10000 3.1 90 07:54 11.11.2019
4593 Clear 14 1022 87 10000 3.1 90 07:36 11.11.2019
4594 Clear 14 1022 87 10000 3.1 90 07:18 11.11.2019
4595 Clear 14 1022 87 10000 2.6 110 06:40 11.11.2019
4596 Clear 14 1022 87 10000 2.6 110 06:20 11.11.2019
4597 Clear 14 1022 87 10000 3.1 90 05:49 11.11.2019
4598 Clear 16 1023 82 10000 3.1 90 03:56 11.11.2019
4599 Clear 16 1022 82 10000 6.7 100 02:55 11.11.2019
4600 Clear 17 1022 82 10000 6.7 100 02:19 11.11.2019
4601 Clouds 17 1022 82 10000 7.2 100 01:51 11.11.2019
4602 Clouds 17 1022 82 10000 7.2 100 01:31 11.11.2019
4603 Clouds 18 1022 77 10000 7.7 120 00:41 11.11.2019
4604 Clouds 18 1021 68 10000 5.7 120 23:58 10.11.2019
4605 Clouds 19 1021 68 10000 5.7 120 23:39 10.11.2019
4606 Clouds 19 1021 68 10000 5.7 120 23:19 10.11.2019
4607 Clouds 20 1021 56 10000 7.2 110 22:57 10.11.2019
4608 Clouds 20 1021 56 10000 7.2 110 22:38 10.11.2019
4609 Clouds 21 1021 56 10000 7.2 110 22:20 10.11.2019
4610 Clouds 21 1021 53 10000 6.2 110 21:57 10.11.2019
4611 Clouds 21 1021 53 10000 6.2 110 21:38 10.11.2019
4612 Clouds 21 1021 53 10000 6.2 110 21:20 10.11.2019
4613 Clouds 21 1021 53 10000 6.2 120 20:43 10.11.2019
4614 Clouds 21 1021 53 10000 6.2 120 20:22 10.11.2019
4615 Clouds 21 1021 53 10000 6.2 120 20:22 10.11.2019
4616 Clouds 22 1022 56 10000 5.1 120 19:57 10.11.2019
4617 Clouds 22 1022 56 10000 5.1 120 19:38 10.11.2019
4618 Clouds 22 1022 56 10000 5.1 120 19:19 10.11.2019
4619 Clouds 22 1022 56 10000 6.2 130 18:58 10.11.2019
4620 Clouds 22 1022 56 10000 6.2 130 18:40 10.11.2019
4621 Clouds 22 1022 56 10000 6.2 130 18:20 10.11.2019
4622 Clouds 22 1022 56 10000 6.2 130 18:20 10.11.2019
4623 Clouds 22 1022 60 10000 4.1 110 17:57 10.11.2019
4624 Clouds 22 1022 60 10000 4.1 110 17:39 10.11.2019
4625 Clouds 22 1022 60 10000 4.1 110 17:20 10.11.2019
4626 Clouds 22 1022 60 10000 4.6 110 16:59 10.11.2019
4627 Clouds 22 1022 60 10000 4.6 110 16:41 10.11.2019
4628 Clouds 22 1022 60 10000 4.6 110 16:22 10.11.2019
4629 Clouds 22 1022 68 10000 5.7 120 15:56 10.11.2019
4630 Clouds 21 1022 68 10000 5.7 120 15:37 10.11.2019
4631 Clouds 21 1022 68 10000 5.7 120 15:18 10.11.2019
4632 Clouds 21 1021 73 10000 6.2 120 14:55 10.11.2019
4633 Clouds 21 1021 73 10000 6.2 120 14:36 10.11.2019
4634 Clouds 20 1021 73 10000 6.2 120 14:18 10.11.2019
4635 Clouds 20 1021 72 10000 7.7 120 13:43 10.11.2019
4636 Clouds 20 1021 72 10000 7.7 120 13:21 10.11.2019
4637 Clouds 19 1021 77 10000 5.7 120 12:58 10.11.2019
4638 Clouds 20 1021 77 10000 5.7 120 12:40 10.11.2019
4639 Clouds 19 1021 77 10000 5.7 120 12:18 10.11.2019
4640 Clear 18 1020 88 10000 4.1 120 11:55 10.11.2019
4641 Clear 18 1020 88 10000 4.1 120 11:36 10.11.2019
4642 Clear 18 1020 88 10000 4.1 120 11:18 10.11.2019
4643 Clear 18 1020 88 10000 4.1 120 11:18 10.11.2019
4644 Clear 18 1020 82 10000 3.1 120 10:42 10.11.2019
4645 Clear 18 1020 82 10000 3.1 120 10:42 10.11.2019
4646 Clear 17 1020 82 10000 3.1 120 10:20 10.11.2019
4647 Clear 16 1019 87 10000 3.6 130 09:55 10.11.2019
4648 Clear 16 1019 87 10000 3.6 130 09:37 10.11.2019
4649 Clear 16 1019 87 10000 3.6 130 09:18 10.11.2019
4650 Clear 16 1019 87 10000 3.6 120 08:39 10.11.2019
4651 Clear 16 1019 87 10000 3.6 120 08:20 10.11.2019
4652 Clouds 16 1019 87 10000 3.6 110 07:44 10.11.2019
4653 Clouds 16 1019 87 10000 3.6 110 07:26 10.11.2019
4654 Clouds 16 1019 82 10000 4.1 120 06:54 10.11.2019
4655 Clouds 17 1020 82 10000 4.6 110 05:51 10.11.2019
4656 Clouds 17 1019 82 10000 5.7 120 03:28 10.11.2019
4657 Clouds 17 1019 77 10000 5.7 120 02:22 10.11.2019
4658 Clear 18 1019 72 10000 6.7 120 01:20 10.11.2019
4659 Clear 18 1018 68 10000 6.2 130 00:48 10.11.2019
4660 Clear 18 1018 68 10000 6.2 130 00:23 10.11.2019
4661 Clouds 18 1017 72 10000 6.7 130 23:40 09.11.2019
4662 Clouds 18 1017 72 10000 6.7 130 23:19 09.11.2019
4663 Clouds 19 1017 68 10000 8.2 130 22:42 09.11.2019
4664 Clouds 19 1017 68 10000 8.2 130 22:22 09.11.2019
4665 Clouds 20 1016 64 10000 7.2 140 21:58 09.11.2019
4666 Clouds 20 1016 64 10000 7.2 140 21:39 09.11.2019
4667 Clouds 20 1017 60 10000 6.2 140 21:20 09.11.2019
4668 Clouds 20 1016 73 10000 7.2 120 20:56 09.11.2019
4669 Clouds 21 1016 73 10000 7.2 120 20:37 09.11.2019
4670 Clouds 21 1016 73 10000 7.2 120 20:18 09.11.2019
4671 Clouds 21 1016 68 10000 7.2 110 19:41 09.11.2019
4672 Clouds 21 1016 68 10000 7.2 110 19:23 09.11.2019
4673 Clouds 21 1016 68 10000 6.2 120 18:59 09.11.2019
4674 Clouds 21 1016 68 10000 6.2 120 18:39 09.11.2019
4675 Clouds 21 1016 68 10000 6.2 120 18:19 09.11.2019
4676 Clouds 21 1017 73 10000 6.2 120 17:43 09.11.2019
4677 Clouds 21 1017 73 10000 6.2 120 17:23 09.11.2019
4678 Clouds 21 1017 77 10000 4.6 140 16:59 09.11.2019
4679 Clouds 21 1017 77 10000 4.6 140 16:40 09.11.2019
4680 Clouds 21 1017 77 10000 4.6 140 16:20 09.11.2019
4681 Clouds 21 1017 77 10000 3.1 150 15:43 09.11.2019
4682 Clouds 21 1017 77 10000 3.1 150 15:24 09.11.2019
4683 Clouds 19 1018 82 10000 2.6 120 14:57 09.11.2019
4684 Clouds 20 1018 82 10000 2.6 120 14:39 09.11.2019
4685 Clouds 19 1018 82 10000 2.6 120 14:18 09.11.2019
4686 Clouds 18 1018 82 10000 2.6 150 13:55 09.11.2019
4687 Clouds 18 1018 82 10000 2.6 150 13:36 09.11.2019
4688 Clouds 18 1018 82 10000 2.6 150 13:18 09.11.2019
4689 Clouds 18 1018 88 10000 3.1 150 12:42 09.11.2019
4690 Clouds 18 1018 88 10000 2.6 190 12:23 09.11.2019
4691 Rain 17 1018 82 10000 1 150 11:56 09.11.2019
4692 Rain 17 1018 82 10000 1 150 11:38 09.11.2019
4693 Rain 17 1018 82 10000 1 150 11:18 09.11.2019
4694 Rain 16 1017 82 10000 1.5 140 10:41 09.11.2019
4695 Rain 16 1017 82 10000 1.5 140 10:19 09.11.2019
4696 Rain 16 1016 77 10000 2.6 80 09:56 09.11.2019
4697 Rain 16 1016 77 10000 2.6 80 09:38 09.11.2019
4698 Rain 16 1016 77 10000 2.6 80 09:18 09.11.2019
4699 Rain 17 1016 82 10000 2.1 80 08:43 09.11.2019
4700 Rain 17 1016 82 10000 2.1 80 08:24 09.11.2019
4701 Clouds 17 1016 77 10000 2.6 110 07:47 09.11.2019
4702 Clouds 17 1016 77 10000 2.6 110 07:24 09.11.2019
4703 Clouds 17 1017 77 10000 2.6 110 06:56 09.11.2019
4704 Clouds 17 1017 77 10000 2.6 110 06:38 09.11.2019
4705 Clouds 17 1017 77 10000 2.6 110 06:19 09.11.2019
4706 Clouds 17 1017 77 10000 3.6 100 05:37 09.11.2019
4707 Clouds 17 1016 77 10000 3.6 110 03:57 09.11.2019
4708 Clouds 18 1016 72 10000 6.7 110 02:45 09.11.2019
4709 Clouds 18 1016 72 10000 6.7 110 02:22 09.11.2019
4710 Clouds 18 1014 77 10000 7.7 120 00:57 09.11.2019
4711 Clouds 18 1014 77 10000 7.7 120 00:39 09.11.2019
4712 Clouds 19 1014 77 10000 7.7 120 00:20 09.11.2019
4713 Clouds 19 1014 72 10000 6.2 120 23:40 08.11.2019
4714 Clouds 19 1014 72 10000 6.2 120 23:21 08.11.2019
4715 Clouds 19 1013 64 10000 7.2 120 22:50 08.11.2019
4716 Clouds 20 1013 64 10000 7.2 120 22:22 08.11.2019
4717 Clouds 20 1013 60 10000 7.2 120 21:59 08.11.2019
4718 Clouds 20 1013 60 10000 7.2 120 21:40 08.11.2019
4719 Clouds 20 1013 60 10000 7.2 120 21:22 08.11.2019
4720 Clouds 20 1014 60 10000 6.7 110 20:57 08.11.2019
4721 Clouds 20 1014 60 10000 6.7 110 20:38 08.11.2019
4722 Clear 20 1014 60 10000 6.7 110 20:18 08.11.2019
4723 Clear 21 1014 60 10000 6.2 110 19:40 08.11.2019
4724 Clear 20 1014 60 10000 6.2 110 19:19 08.11.2019
4725 Clear 20 1015 60 10000 6.2 110 18:56 08.11.2019
4726 Clear 20 1015 60 10000 6.2 110 18:38 08.11.2019
4727 Clear 20 1015 60 10000 6.2 110 18:20 08.11.2019
4728 Clear 20 1016 52 10000 6.2 100 17:56 08.11.2019
4729 Clear 20 1016 52 10000 6.2 100 17:38 08.11.2019
4730 Clear 20 1016 52 10000 6.2 100 17:20 08.11.2019
4731 Clear 19 1016 56 10000 6.7 100 16:59 08.11.2019
4732 Clear 19 1016 56 10000 6.7 100 16:40 08.11.2019
4733 Clear 19 1016 56 10000 6.7 100 16:20 08.11.2019
4734 Clear 19 1017 59 10000 6.2 100 15:59 08.11.2019
4735 Clear 19 1017 59 10000 6.2 100 15:40 08.11.2019
4736 Clear 19 1017 59 10000 6.2 100 15:22 08.11.2019
4737 Clear 19 1017 59 10000 6.2 100 15:22 08.11.2019
4738 Clouds 19 1017 52 10000 6.2 110 14:56 08.11.2019
4739 Clouds 19 1017 52 10000 6.2 110 14:37 08.11.2019
4740 Clouds 18 1017 52 10000 6.2 110 14:19 08.11.2019
4741 Clouds 18 1017 67 10000 6.2 100 13:58 08.11.2019
4742 Clouds 18 1017 67 10000 6.2 100 13:58 08.11.2019
4743 Clouds 17 1017 67 10000 6.2 100 13:39 08.11.2019
4744 Clouds 17 1017 67 10000 6.2 100 13:20 08.11.2019
4745 Clouds 17 1017 72 10000 6.7 120 12:44 08.11.2019
4746 Clouds 16 1017 72 10000 6.7 120 12:26 08.11.2019
4747 Clouds 16 1017 77 10000 5.7 120 11:58 08.11.2019
4748 Clouds 16 1017 77 10000 5.7 120 11:40 08.11.2019
4749 Clouds 16 1017 77 10000 5.7 120 11:20 08.11.2019
4750 Clouds 16 1016 67 10000 4.6 140 10:57 08.11.2019
4751 Clouds 16 1016 67 10000 4.6 140 10:39 08.11.2019
4752 Clouds 16 1016 67 10000 4.6 140 10:21 08.11.2019
4753 Clouds 16 1015 63 10000 4.6 140 09:55 08.11.2019
4754 Clouds 16 1015 63 10000 4.6 140 09:36 08.11.2019
4755 Clouds 16 1015 63 10000 4.6 140 09:18 08.11.2019
4756 Clear 15 1015 67 10000 4.6 130 08:41 08.11.2019
4757 Clear 15 1015 67 10000 4.6 130 08:19 08.11.2019
4758 Clear 15 1015 67 10000 5.1 130 07:41 08.11.2019
4759 Clear 15 1015 67 10000 5.1 130 07:23 08.11.2019
4760 Clear 16 1015 55 10000 6.2 140 06:43 08.11.2019
4761 Clear 16 1015 55 10000 6.2 140 06:25 08.11.2019
4762 Clear 16 1015 51 10000 5.7 140 05:57 08.11.2019
4763 Clear 16 1015 51 10000 5.7 140 05:25 08.11.2019
4764 Clear 16 1015 51 10000 6.2 150 04:19 08.11.2019
4765 Clear 16 1015 59 10000 5.7 150 03:42 08.11.2019
4766 Clear 16 1015 63 10000 7.2 160 02:55 08.11.2019
4767 Clear 17 1015 59 10000 7.2 160 01:50 08.11.2019
4768 Clear 17 1015 59 10000 7.2 160 01:32 08.11.2019
4769 Clear 18 1014 67 10000 6.7 160 00:38 08.11.2019
4770 Clear 18 1014 67 10000 6.7 160 00:20 08.11.2019
4771 Clear 18 1013 63 10000 7.2 170 23:44 07.11.2019
4772 Clear 19 1013 63 10000 7.2 170 23:25 07.11.2019
4773 Clear 19 1013 56 10000 7.2 180 22:57 07.11.2019
4774 Clear 19 1013 56 10000 7.2 180 22:37 07.11.2019
4775 Clear 20 1013 56 10000 7.2 180 22:19 07.11.2019
4776 Clear 21 1012 64 10000 9.3 170 21:39 07.11.2019
4777 Clear 21 1012 64 10000 9.3 170 21:20 07.11.2019
4778 Clear 24 1011 54 10000 6.2 250 20:58 07.11.2019
4779 Clear 24 1011 54 10000 6.2 250 20:40 07.11.2019
4780 Clear 24 1011 54 10000 6.2 250 20:21 07.11.2019
4781 Clear 26 1011 50 10000 6.2 280 19:57 07.11.2019
4782 Clear 26 1011 50 10000 6.2 280 19:57 07.11.2019
4783 Clear 26 1011 50 10000 6.2 280 19:57 07.11.2019
4784 Clear 27 1011 50 10000 6.2 280 19:38 07.11.2019
4785 Clear 27 1011 50 10000 6.2 280 19:20 07.11.2019
4786 Clear 27 1012 39 10000 6.2 260 18:57 07.11.2019
4787 Clear 27 1012 39 10000 6.2 260 18:38 07.11.2019
4788 Clear 27 1012 39 10000 6.2 260 18:19 07.11.2019
4789 Clear 27 1012 39 10000 6.7 260 17:55 07.11.2019
4790 Clear 27 1012 39 10000 6.7 260 17:37 07.11.2019
4791 Clear 27 1011 39 10000 6.7 280 17:19 07.11.2019
4792 Clear 27 1011 39 10000 6.7 280 16:54 07.11.2019
4793 Clear 27 1012 39 10000 5.7 270 16:36 07.11.2019
4794 Clear 27 1012 39 10000 5.7 270 16:18 07.11.2019
4795 Clear 26 1013 41 10000 4.6 270 15:40 07.11.2019
4796 Clear 26 1013 41 10000 4.6 270 15:20 07.11.2019
4797 Clear 25 1013 47 10000 5.1 300 14:57 07.11.2019
4798 Clear 25 1013 47 10000 5.1 300 14:37 07.11.2019
4799 Clear 24 1013 47 10000 5.1 300 14:19 07.11.2019
4800 Clear 22 1013 60 10000 2.6 310 13:55 07.11.2019
4801 Clear 22 1013 60 10000 2.6 310 13:36 07.11.2019
4802 Clear 20 1013 68 10000 4.1 340 13:18 07.11.2019
4803 Clear 20 1013 68 10000 4.1 340 12:55 07.11.2019
4804 Clear 19 1013 68 10000 4.1 340 12:37 07.11.2019
4805 Clear 17 1014 77 10000 3.1 330 12:18 07.11.2019
4806 Clear 17 1014 77 10000 3.1 330 12:18 07.11.2019
4807 Clear 17 1014 77 10000 3.1 330 11:41 07.11.2019
4808 Clear 16 1014 77 10000 3.1 330 11:22 07.11.2019
4809 Clear 15 1012 76 10000 4.1 350 10:42 07.11.2019
4810 Clear 15 1012 76 10000 4.1 350 10:42 07.11.2019
4811 Clear 15 1012 76 10000 4.1 350 10:19 07.11.2019
4812 Clear 15 1012 76 10000 4.1 350 10:19 07.11.2019
4813 Clear 14 1012 76 10000 6.7 326 09:55 07.11.2019
4814 Clear 14 1012 76 10000 6.7 326 09:37 07.11.2019
4815 Clear 14 1012 76 10000 6.7 326 09:19 07.11.2019
4816 Clear 14 1012 76 10000 2.6 360 08:41 07.11.2019
4817 Clouds 15 1012 76 10000 2.6 360 08:22 07.11.2019
4818 Clouds 15 1012 76 10000 2.1 360 07:57 07.11.2019
4819 Clouds 15 1012 76 10000 2.1 360 07:39 07.11.2019
4820 Clouds 15 1012 76 10000 2.1 360 07:38 07.11.2019
4821 Clouds 15 1012 76 10000 2.1 360 07:20 07.11.2019
4822 Clouds 16 1012 67 10000 3.6 10 06:45 07.11.2019
4823 Clouds 16 1012 67 10000 3.6 10 06:25 07.11.2019
4824 Clouds 17 1013 67 10000 3.1 20 05:49 07.11.2019
4825 Clouds 17 1013 67 10000 3.1 20 05:31 07.11.2019
4826 -273 0 0 0 0 0 04:51 07.11.2019
4827 Clouds 18 1013 59 10000 3.6 20 04:50 07.11.2019
4828 Clouds 18 1013 59 10000 3.6 20 04:28 07.11.2019
4829 Clouds 21 1013 56 10000 3.1 30 01:27 07.11.2019
4830 Clouds 22 1013 56 10000 2.1 30 00:27 07.11.2019
4831 Clouds 22 1014 56 10000 4.1 350 23:56 06.11.2019
4832 Clouds 22 1014 56 10000 4.1 350 23:38 06.11.2019
4833 Clouds 22 1014 56 10000 4.1 350 23:18 06.11.2019
4834 Clouds 24 1014 50 10000 6.2 350 22:39 06.11.2019
4835 Clouds 24 1014 50 10000 6.2 350 22:20 06.11.2019
4836 Clouds 24 1014 47 10000 7.7 350 21:57 06.11.2019
4837 Clouds 24 1014 47 10000 7.7 350 21:57 06.11.2019
4838 Clouds 25 1014 47 10000 7.7 350 21:39 06.11.2019
4839 Clouds 25 1014 47 10000 7.7 350 21:19 06.11.2019
4840 Clouds 25 1014 47 10000 4.1 350 20:56 06.11.2019
4841 Clouds 26 1015 39 10000 6.2 330 20:38 06.11.2019
4842 Clouds 26 1015 39 10000 6.2 330 20:20 06.11.2019
4843 Clouds 25 1015 47 10000 6.2 320 19:56 06.11.2019
4844 Clouds 25 1015 47 10000 6.2 320 19:36 06.11.2019
4845 Clouds 25 1015 47 10000 6.2 320 19:18 06.11.2019
4846 Clouds 25 1015 41 10000 4.6 330 18:54 06.11.2019
4847 Clouds 24 1016 50 10000 6.2 340 18:36 06.11.2019
4848 Clouds 25 1016 50 10000 6.2 340 18:18 06.11.2019
4849 Clouds 26 1016 44 10000 6.2 330 17:41 06.11.2019
4850 Clouds 25 1016 44 10000 6.2 330 17:23 06.11.2019
4851 Clouds 25 1017 47 10000 7.2 350 16:57 06.11.2019
4852 Clouds 24 1017 47 10000 7.2 350 16:39 06.11.2019
4853 Clouds 24 1017 47 10000 7.2 350 16:20 06.11.2019
4854 Clouds 24 1018 46 10000 5.7 340 15:57 06.11.2019
4855 Clouds 24 1018 46 10000 5.7 340 15:37 06.11.2019
4856 Clouds 23 1018 46 10000 5.7 340 15:19 06.11.2019
4857 Clouds 23 1018 49 10000 6.2 340 14:57 06.11.2019
4858 Clouds 23 1018 49 10000 6.2 340 14:39 06.11.2019
4859 Clear 23 1018 49 10000 6.2 340 14:20 06.11.2019
4860 Clear 20 1018 59 10000 6.2 350 13:58 06.11.2019
4861 Clear 20 1018 59 10000 6.2 350 13:37 06.11.2019
4862 Clouds 20 1018 59 10000 6.2 350 13:18 06.11.2019
4863 Clear 20 1018 59 10000 6.2 350 13:18 06.11.2019
4864 Clouds 18 1018 63 10000 6.2 360 12:55 06.11.2019
4865 Clouds 18 1018 63 10000 6.2 360 12:37 06.11.2019
4866 Clouds 17 1018 63 10000 6.2 360 12:18 06.11.2019
4867 Clouds 15 1017 67 10000 6.2 30 11:54 06.11.2019
4868 Clouds 15 1017 67 10000 6.2 30 11:36 06.11.2019
4869 Clear 15 1017 67 10000 6.2 30 11:18 06.11.2019
4870 Clear 14 1017 76 10000 3.6 20 10:42 06.11.2019
4871 Clear 13 1017 76 10000 3.6 20 10:24 06.11.2019
4872 Clear 13 1017 71 10000 3.1 10 09:58 06.11.2019
4873 Clear 13 1017 71 10000 3.1 10 09:39 06.11.2019
4874 Clear 13 1017 71 10000 3.1 10 09:20 06.11.2019
4875 Clear 13 1017 66 10000 4.1 40 08:55 06.11.2019
4876 Clear 13 1017 66 10000 4.1 40 08:37 06.11.2019
4877 Clear 13 1017 66 10000 4.1 40 08:18 06.11.2019
4878 Clear 14 1017 66 10000 3.1 30 07:44 06.11.2019
4879 Clear 14 1017 66 10000 3.1 30 07:26 06.11.2019
4880 Clear 15 1016 58 10000 5.1 30 06:48 06.11.2019
4881 Clear 15 1016 58 10000 5.1 30 06:30 06.11.2019
4882 Clear 15 1017 58 10000 4.6 30 05:50 06.11.2019
4883 Clear 15 1017 82 10000 5.44 9 03:35 06.11.2019
4884 Clear 16 1016 72 10000 1.5 70 01:42 06.11.2019
4885 Clear 18 1016 63 10000 2.6 120 00:47 06.11.2019
4886 Clear 19 1016 59 10000 2.6 130 00:00 06.11.2019
4887 Clear 19 1016 59 10000 2.6 130 23:41 05.11.2019
4888 Clear 20 1016 59 10000 2.6 130 23:22 05.11.2019
4889 Clear 21 1015 38 10000 1.5 240 22:58 05.11.2019
4890 Clear 21 1015 38 10000 1.5 240 22:40 05.11.2019
4891 Clear 22 1015 38 10000 1.5 240 22:18 05.11.2019
4892 Clear 21 1014 38 10000 3.1 270 21:55 05.11.2019
4893 Clear 21 1014 38 10000 3.1 270 21:37 05.11.2019
4894 Clear 21 1014 38 10000 3.1 270 21:18 05.11.2019
4895 Clear 22 1015 31 10000 4.3 87 20:55 05.11.2019
4896 Clear 22 1015 31 10000 4.3 87 20:36 05.11.2019
4897 Clear 22 1015 31 10000 3.87 115 20:18 05.11.2019
4898 Clear 22 1015 33 10000 2.1 130 19:42 05.11.2019
4899 Clear 22 1015 33 10000 2.1 130 19:22 05.11.2019
4900 Clear 21 1015 35 10000 2.1 60 18:58 05.11.2019
4901 Clear 21 1015 35 10000 2.1 60 18:39 05.11.2019
4902 Clear 21 1015 35 10000 2.1 60 18:21 05.11.2019
4903 Clear 21 1015 35 10000 2.6 130 17:59 05.11.2019
4904 Clear 22 1015 35 10000 2.6 130 17:39 05.11.2019
4905 Clear 21 1015 35 10000 2.6 130 17:20 05.11.2019
4906 Rain 21 1015 37 10000 3.6 100 16:57 05.11.2019
4907 Rain 21 1015 37 10000 3.6 100 16:39 05.11.2019
4908 Rain 21 1015 37 10000 3.6 100 16:19 05.11.2019
4909 Rain 21 1015 37 10000 3.6 100 16:19 05.11.2019
4910 Clear 20 1016 45 10000 4.1 110 15:39 05.11.2019
4911 Clear 20 1016 45 10000 4.1 110 15:20 05.11.2019
4912 Clear 20 1015 40 10000 4.1 130 14:59 05.11.2019
4913 Clear 20 1015 40 10000 4.1 130 14:40 05.11.2019
4914 Clouds 20 1015 40 10000 4.1 130 14:21 05.11.2019
4915 Clouds 19 1014 48 10000 5.1 120 13:58 05.11.2019
4916 Clouds 19 1014 48 10000 5.1 120 13:39 05.11.2019
4917 Clouds 19 1014 48 10000 5.1 120 13:21 05.11.2019
4918 Clouds 18 1013 63 10000 4.1 120 12:40 05.11.2019
4919 Clouds 18 1013 63 10000 4.1 120 12:21 05.11.2019
4920 Clouds 18 1013 63 10000 4.1 120 12:21 05.11.2019
4921 Clouds 17 1013 82 10000 2.6 140 11:56 05.11.2019
4922 Clouds 17 1013 82 10000 2.6 140 11:37 05.11.2019
4923 Rain 16 1013 82 10000 2.6 140 11:19 05.11.2019
4924 Rain 17 1012 82 10000 3.1 160 10:45 05.11.2019
4925 Rain 16 1012 82 10000 3.1 160 10:27 05.11.2019
4926 Clouds 16 1011 93 10000 5.1 180 09:59 05.11.2019
4927 Clouds 16 1011 93 10000 5.1 180 09:59 05.11.2019
4928 Clouds 15 1011 93 10000 5.1 180 09:41 05.11.2019
4929 Clouds 15 1011 93 10000 5.1 180 09:20 05.11.2019
4930 Clouds 16 1011 88 10000 4.6 180 08:56 05.11.2019
4931 Clouds 16 1011 88 10000 4.6 180 08:37 05.11.2019
4932 Clouds 17 1011 88 10000 4.6 180 08:18 05.11.2019
4933 Clouds 17 1010 100 10000 1.5 200 07:45 05.11.2019
4934 Clouds 17 1010 100 10000 1.5 200 07:25 05.11.2019
4935 Clouds 17 1009 93 10000 10.6 154 06:51 05.11.2019
4936 Clouds 17 1009 93 10000 10.6 154 06:28 05.11.2019
4937 Clouds 17 1009 100 10000 1.5 220 05:40 05.11.2019
4938 Mist 16 1009 93 5000 3.59 20 05:19 05.11.2019
4939 Rain 16 1008 93 10000 3.59 20 04:22 05.11.2019
4940 Rain 16 1008 93 10000 2.1 290 03:29 05.11.2019
4941 Rain 17 1007 88 10000 2.6 20 02:43 05.11.2019
4942 Rain 17 1010 88 6000 7.7 200 01:53 05.11.2019
4943 Clouds 18 1005 82 10000 4.23 96 00:46 05.11.2019
4944 Clouds 17 1005 82 10000 4.23 96 00:26 05.11.2019
4945 Clouds 17 1005 88 10000 5.1 10 23:42 04.11.2019
4946 Clouds 18 1005 88 10000 5.1 10 23:19 04.11.2019
4947 Clouds 18 1005 88 10000 5.1 350 22:57 04.11.2019
4948 Clouds 18 1005 88 10000 5.1 350 22:57 04.11.2019
4949 Clouds 18 1005 88 10000 5.1 350 22:39 04.11.2019
4950 Clouds 18 1005 88 10000 5.1 350 22:20 04.11.2019
4951 Clouds 18 1005 88 10000 5.1 350 22:20 04.11.2019
4952 Clouds 18 1005 88 10000 5.1 350 22:20 04.11.2019
4953 Clouds 18 1003 72 10000 8.2 30 21:55 04.11.2019
4954 Clouds 19 1005 88 10000 5.7 30 21:37 04.11.2019
4955 Clouds 19 1005 88 10000 5.7 30 21:18 04.11.2019
4956 Clouds 19 1005 88 10000 5.7 30 21:18 04.11.2019
4957 Clouds 18 1004 100 8000 8.2 50 20:55 04.11.2019
4958 Clouds 18 1004 100 8000 8.2 50 20:37 04.11.2019
4959 Rain 19 1004 100 8000 8.2 50 20:19 04.11.2019
4960 Rain 18 1005 100 6000 5.7 60 19:56 04.11.2019
4961 Rain 19 1005 82 4000 3.1 30 19:38 04.11.2019
4962 Rain 19 1005 82 4000 3.1 30 19:20 04.11.2019
4963 Rain 20 1005 100 1000 3.6 70 18:41 04.11.2019
4964 Rain 20 1006 94 4000 2.1 170 18:23 04.11.2019
4965 Rain 20 1005 88 7000 2.1 50 17:59 04.11.2019
4966 Rain 20 1005 88 7000 2.1 50 17:38 04.11.2019
4967 Rain 20 1005 88 7000 2.1 50 17:19 04.11.2019
4968 Rain 20 1005 88 9000 1.5 60 16:55 04.11.2019
4969 Rain 20 1005 88 9000 1.5 60 16:55 04.11.2019
4970 Rain 20 1005 88 9000 1.5 60 16:55 04.11.2019
4971 Thunderstorm 20 1005 82 2000 1 30 16:36 04.11.2019
4972 Thunderstorm 20 1005 82 2000 1 30 16:36 04.11.2019
4973 Thunderstorm 20 1005 82 2000 1 30 16:18 04.11.2019
4974 Thunderstorm 20 1005 82 2000 1 30 16:18 04.11.2019
4975 Rain 19 1005 93 8000 4.1 30 15:41 04.11.2019
4976 Rain 19 1005 93 8000 4.1 30 15:21 04.11.2019
4977 Clouds 19 1006 88 10000 4.6 10 14:59 04.11.2019
4978 Clouds 19 1006 88 10000 4.6 10 14:40 04.11.2019
4979 Clouds 19 1006 88 10000 4.6 10 14:21 04.11.2019
4980 Clouds 18 1006 82 10000 5.7 10 13:58 04.11.2019
4981 Clouds 18 1006 82 10000 5.7 10 13:40 04.11.2019
4982 Clouds 18 1006 82 10000 5.7 10 13:21 04.11.2019
4983 Clouds 18 1006 82 10000 5.7 10 13:21 04.11.2019
4984 Clouds 18 1007 88 10000 5.1 20 12:57 04.11.2019
4985 Clouds 17 1007 88 10000 5.1 20 12:39 04.11.2019
4986 Clouds 17 1007 88 10000 5.1 20 12:20 04.11.2019
4987 Rain 17 1007 82 10000 2.1 20 11:43 04.11.2019
4988 Rain 17 1007 82 10000 2.1 20 11:24 04.11.2019
4989 Rain 17 1007 87 10000 5.7 30 10:59 04.11.2019
4990 Rain 17 1007 87 10000 5.7 30 10:41 04.11.2019
4991 Rain 17 1007 87 10000 5.7 30 10:41 04.11.2019
4992 Rain 17 1007 87 10000 5.7 30 10:23 04.11.2019
4993 Clouds 16 1007 87 10000 3.6 30 09:46 04.11.2019
4994 Clouds 16 1007 87 10000 3.6 30 09:28 04.11.2019
4995 Clouds 16 1008 82 10000 2.6 20 08:59 04.11.2019
4996 Clouds 16 1008 82 10000 2.6 20 08:38 04.11.2019
4997 Clouds 16 1008 82 10000 2.6 20 08:19 04.11.2019
4998 Clouds 16 1007 77 10000 4.1 40 07:44 04.11.2019
4999 Clouds 16 1007 77 10000 4.1 40 07:24 04.11.2019
5000 Clouds 16 1008 82 10000 2.1 20 06:57 04.11.2019
5001 Clouds 16 1008 82 10000 2.1 20 06:33 04.11.2019
5002 Clouds 16 1008 87 10000 8.59 22 05:48 04.11.2019
5003 Clear 15 1008 87 10000 5.24 43 04:44 04.11.2019
5004 Clear 16 1008 87 10000 5.24 43 04:21 04.11.2019
5005 Clear 16 1008 87 10000 5.24 43 04:21 04.11.2019
5006 Clear 17 1008 88 10000 3.6 90 02:32 04.11.2019
5007 Clear 17 1008 88 10000 4.1 120 01:22 04.11.2019
5008 Clear 17 1009 82 10000 4.6 120 00:41 04.11.2019
5009 Clear 17 1009 82 10000 4.6 120 00:20 04.11.2019
5010 Clear 18 1009 77 10000 4.6 100 23:43 03.11.2019
5011 Clear 18 1009 77 10000 4.6 100 23:22 03.11.2019
5012 Clear 19 1009 72 10000 4.6 130 22:59 03.11.2019
5013 Clear 19 1009 72 10000 4.6 130 22:41 03.11.2019
5014 Clear 19 1009 72 10000 4.6 130 22:20 03.11.2019
5015 Clouds 20 1009 64 10000 4.6 110 21:58 03.11.2019
5016 Clouds 20 1009 64 10000 4.6 110 21:40 03.11.2019
5017 Clouds 20 1009 64 10000 4.6 110 21:20 03.11.2019
5018 Clouds 20 1010 64 10000 4.6 170 20:56 03.11.2019
5019 Clouds 20 1010 64 10000 4.6 170 20:36 03.11.2019
5020 Clouds 20 1010 64 10000 4.6 170 20:18 03.11.2019
5021 Clouds 21 1010 53 10000 3.1 190 19:55 03.11.2019
5022 Clouds 21 1010 53 10000 3.1 190 19:37 03.11.2019
5023 Clouds 21 1010 53 10000 3.1 190 19:19 03.11.2019
5024 Clouds 21 1011 60 10000 1.5 80 18:39 03.11.2019
5025 Clouds 21 1011 60 10000 1.5 80 18:19 03.11.2019
5026 Clouds 21 1012 56 10000 4.6 20 17:58 03.11.2019
5027 Clouds 21 1012 56 10000 4.6 20 17:40 03.11.2019
5028 Clouds 20 1012 56 10000 4.6 20 17:19 03.11.2019
5029 Clouds 20 1012 60 10000 2.6 10 16:55 03.11.2019
5030 Clouds 20 1012 60 10000 2.6 10 16:37 03.11.2019
5031 Clouds 20 1012 60 10000 2.6 10 16:19 03.11.2019
5032 Clouds 19 1013 64 10000 2.6 50 15:56 03.11.2019
5033 Clouds 19 1013 64 10000 2.6 50 15:38 03.11.2019
5034 Clouds 19 1013 64 10000 2.6 50 15:20 03.11.2019
5035 Clouds 19 1013 68 10000 2.34 109 14:40 03.11.2019
5036 Clouds 18 1013 68 10000 2.04 128 14:19 03.11.2019
5037 Clouds 18 1013 68 10000 2.04 128 14:19 03.11.2019
5038 Clouds 18 1013 68 10000 2.04 128 14:19 03.11.2019
5039 Clouds 18 1013 68 10000 2.04 128 14:19 03.11.2019
5040 Clouds 18 1014 82 10000 2.6 120 13:56 03.11.2019
5041 Clouds 18 1014 82 10000 2.6 120 13:37 03.11.2019
5042 Clouds 17 1014 82 10000 2.6 120 13:18 03.11.2019
5043 Clouds 16 1014 87 10000 2.1 120 12:38 03.11.2019
5044 Clouds 16 1014 87 10000 2.1 120 12:19 03.11.2019
5045 Clouds 16 1014 82 10000 2.6 150 11:56 03.11.2019
5046 Clouds 16 1014 82 10000 2.6 150 11:37 03.11.2019
5047 Clouds 16 1014 82 10000 2.6 150 11:19 03.11.2019
5048 Clouds 16 1013 82 10000 3.6 160 10:40 03.11.2019
5049 Clouds 16 1013 82 10000 3.6 160 10:22 03.11.2019
5050 Clouds 16 1013 82 10000 3.6 160 10:22 03.11.2019
5051 Clouds 16 1013 82 10000 3.6 160 10:22 03.11.2019
5052 Clouds 16 1013 82 10000 3.6 160 10:22 03.11.2019
5053 Clouds 15 1012 82 10000 5.1 180 09:58 03.11.2019
5054 Clouds 15 1012 82 10000 5.1 180 09:40 03.11.2019
5055 Clouds 15 1012 82 10000 5.1 180 09:21 03.11.2019
5056 Clouds 16 1012 82 10000 4.6 180 08:43 03.11.2019
5057 Clouds 15 1012 82 10000 4.6 180 08:24 03.11.2019
5058 Clouds 15 1012 82 10000 4.6 180 08:24 03.11.2019
5059 Clouds 16 1012 82 10000 2.6 190 07:47 03.11.2019
5060 Clouds 16 1012 82 10000 2.6 190 07:28 03.11.2019
5061 Clouds 16 1012 82 10000 3.1 190 06:54 03.11.2019
5062 Clouds 16 1012 82 10000 3.1 190 06:35 03.11.2019
5063 Clouds 17 1012 88 10000 3.6 170 05:40 03.11.2019
5064 Clouds 17 1012 88 10000 3.6 170 05:18 03.11.2019
5065 Clouds 18 1012 88 10000 3.6 170 04:45 03.11.2019
5066 Clear 18 1012 77 10000 4.1 200 03:39 03.11.2019
5067 Mist 18 1012 93 5000 2.1 300 02:45 03.11.2019
5068 Mist 19 1012 93 5000 2.1 300 02:20 03.11.2019
5069 Clouds 20 1011 82 10000 2.1 350 01:43 03.11.2019
5070 Clouds 20 1011 82 10000 2.1 350 01:21 03.11.2019
5071 Clouds 20 1011 77 10000 2.1 270 00:46 03.11.2019
5072 Clouds 20 1011 77 10000 2.1 270 00:27 03.11.2019
5073 Clouds 20 1011 83 10000 2.8 166 23:58 02.11.2019
5074 Clouds 20 1011 83 10000 2.8 166 23:38 02.11.2019
5075 Clouds 20 1011 83 10000 1.93 143 23:19 02.11.2019
5076 Clouds 20 1011 83 10000 1.93 143 23:19 02.11.2019
5077 Clouds 21 1011 73 10000 1.93 143 22:56 02.11.2019
5078 Clouds 21 1011 73 10000 1.93 143 22:37 02.11.2019
5079 Clouds 21 1011 73 10000 1.93 143 22:19 02.11.2019
5080 Clouds 22 1011 83 10000 1.93 143 21:56 02.11.2019
5081 Clouds 22 1011 83 10000 1.93 143 21:38 02.11.2019
5082 Clouds 22 1011 83 10000 1.93 143 21:18 02.11.2019
5083 Clouds 22 1011 78 10000 4.1 200 20:59 02.11.2019
5084 Clouds 23 1011 78 10000 4.1 200 20:39 02.11.2019
5085 Clouds 23 1011 78 10000 4.1 200 20:20 02.11.2019
5086 Clouds 22 1011 83 10000 5.7 220 19:55 02.11.2019
5087 Clouds 21 1011 83 10000 5.7 220 19:36 02.11.2019
5088 Clouds 21 1011 83 10000 5.7 220 19:18 02.11.2019
5089 Clouds 21 1011 88 10000 5.1 200 18:42 02.11.2019
5090 Clouds 21 1011 88 10000 5.1 200 18:24 02.11.2019
5091 Clouds 21 1011 94 10000 5.1 240 17:59 02.11.2019
5092 Clouds 21 1011 94 10000 5.1 240 17:39 02.11.2019
5093 Clouds 21 1011 94 10000 5.1 240 17:21 02.11.2019
5094 Clouds 21 1011 94 10000 4.6 220 16:57 02.11.2019
5095 Clouds 22 1011 94 10000 4.6 220 16:37 02.11.2019
5096 Clouds 22 1011 94 10000 4.6 220 16:18 02.11.2019
5097 Clouds 22 1011 94 10000 2.1 210 15:42 02.11.2019
5098 Clouds 22 1011 94 10000 2.1 210 15:20 02.11.2019
5099 Clouds 22 1011 94 10000 2.1 240 14:43 02.11.2019
5100 Clouds 21 1011 94 10000 2.1 240 14:24 02.11.2019
5101 Clouds 20 1010 94 10000 3.6 30 13:58 02.11.2019
5102 Clouds 20 1010 94 10000 3.6 30 13:39 02.11.2019
5103 Clouds 20 1010 94 10000 3.6 30 13:19 02.11.2019
5104 Rain 20 1010 100 1500 2.6 240 12:41 02.11.2019
5105 Rain 19 1010 100 1500 2.6 240 12:23 02.11.2019
5106 Drizzle 19 1010 100 1500 2.1 280 11:59 02.11.2019
5107 Drizzle 19 1010 100 1500 2.1 280 11:40 02.11.2019
5108 Drizzle 19 1010 100 1500 2.1 280 11:22 02.11.2019
5109 Thunderstorm 19 1009 100 1500 2.6 260 10:55 02.11.2019
5110 Thunderstorm 19 1008 100 3000 2.1 340 10:36 02.11.2019
5111 Thunderstorm 19 1008 100 3000 2.1 340 10:18 02.11.2019
5112 Thunderstorm 19 1009 93 7000 3.6 360 09:40 02.11.2019
5113 Thunderstorm 19 1009 93 7000 3.6 360 09:21 02.11.2019
5114 Rain 19 1009 93 10000 4.1 20 08:50 02.11.2019
5115 Clouds 19 1009 93 10000 4.1 20 08:23 02.11.2019
5116 Rain 19 1009 93 10000 4.1 20 07:52 02.11.2019
5117 Rain 19 1009 93 10000 4.1 20 07:33 02.11.2019
5118 Rain 19 1009 93 10000 3.6 30 06:58 02.11.2019
5119 Rain 19 1009 93 10000 3.6 30 06:39 02.11.2019
5120 Thunderstorm 19 1009 93 3000 3.6 30 06:18 02.11.2019
5121 Thunderstorm 20 1010 88 8000 4.1 50 05:33 02.11.2019
5122 Rain 20 1012 88 10000 2.1 50 04:23 02.11.2019
5123 Rain 20 1012 88 10000 3.6 20 03:50 02.11.2019
5124 Thunderstorm 20 1012 77 10000 5.7 270 02:49 02.11.2019
5125 Thunderstorm 21 1010 77 10000 6.2 30 01:57 02.11.2019
5126 Rain 21 1011 77 10000 5.7 30 01:27 02.11.2019
5127 Clouds 21 1010 73 10000 6.2 40 00:55 02.11.2019
5128 Clouds 21 1010 73 10000 6.2 40 00:28 02.11.2019
5129 Clouds 21 1010 73 10000 7.7 30 23:50 01.11.2019
5130 Clouds 21 1010 73 10000 7.7 30 23:25 01.11.2019
5131 Clouds 22 1011 68 10000 7.2 50 22:59 01.11.2019
5132 Clouds 22 1011 68 10000 7.2 50 22:41 01.11.2019
5133 Clouds 22 1011 68 10000 7.2 50 22:20 01.11.2019
5134 Clouds 22 1012 68 10000 7.2 40 21:42 01.11.2019
5135 Clouds 22 1012 68 10000 7.2 40 21:24 01.11.2019
5136 Clouds 22 1012 68 10000 8.2 30 20:59 01.11.2019
5137 Clouds 22 1012 68 10000 8.2 30 20:40 01.11.2019
5138 Clouds 22 1012 68 10000 8.2 30 20:21 01.11.2019
5139 Clouds 22 1013 68 10000 9.3 40 19:57 01.11.2019
5140 Clouds 22 1013 68 10000 9.3 40 19:39 01.11.2019
5141 Clouds 23 1013 68 10000 9.3 40 19:20 01.11.2019
5142 Clouds 23 1014 64 10000 8.7 20 18:40 01.11.2019
5143 Clouds 23 1014 64 10000 8.7 20 18:21 01.11.2019
5144 Clouds 22 1016 56 10000 8.2 40 17:56 01.11.2019
5145 Clouds 22 1016 56 10000 8.2 40 17:56 01.11.2019
5146 Clouds 23 1016 56 10000 8.2 40 17:38 01.11.2019
5147 Clouds 23 1016 56 10000 8.2 40 17:19 01.11.2019
5148 Clouds 22 1016 64 10000 9.3 30 16:39 01.11.2019
5149 Clouds 22 1016 64 10000 9.3 30 16:20 01.11.2019
5150 Clouds 22 1016 64 10000 9.3 30 16:20 01.11.2019
5151 Clouds 21 1017 64 10000 10.3 30 15:56 01.11.2019
5152 Clouds 21 1017 64 10000 10.3 30 15:38 01.11.2019
5153 Clouds 21 1017 64 10000 10.3 30 15:19 01.11.2019
5154 Clouds 21 1018 60 10000 9.3 30 14:43 01.11.2019
5155 Clouds 21 1018 60 10000 9.3 30 14:24 01.11.2019
5156 Clouds 20 1019 68 10000 10.3 50 13:57 01.11.2019
5157 Clouds 20 1019 68 10000 10.3 50 13:39 01.11.2019
5158 Clouds 19 1019 68 10000 10.3 50 13:20 01.11.2019
5159 Clouds 18 1017 72 10000 5.1 50 12:44 01.11.2019
5160 Clouds 17 1017 72 10000 5.1 50 12:26 01.11.2019
5161 Clouds 16 1020 93 10000 4.1 70 11:59 01.11.2019
5162 Clouds 16 1020 93 10000 4.1 70 11:40 01.11.2019
5163 Clear 15 1020 93 10000 4.1 70 11:22 01.11.2019
5164 Clear 15 1020 87 10000 3.6 90 10:42 01.11.2019
5165 Clear 14 1020 87 10000 3.6 90 10:22 01.11.2019
5166 Clear 14 1020 87 10000 2.6 90 09:58 01.11.2019
5167 Clear 14 1020 87 10000 2.6 90 09:40 01.11.2019
5168 Clear 14 1020 87 10000 2.6 90 09:20 01.11.2019
5169 Clear 14 1020 82 10000 2.6 100 08:45 01.11.2019
5170 Clear 14 1020 82 10000 2.6 100 08:22 01.11.2019
5171 Clear 14 1020 82 10000 4.6 90 07:57 01.11.2019
5172 Clear 14 1020 82 10000 4.6 90 07:38 01.11.2019
5173 Clear 14 1020 82 10000 4.6 90 07:20 01.11.2019
5174 Clear 15 1020 82 10000 5.1 100 06:46 01.11.2019
5175 Clear 15 1020 82 10000 5.1 100 06:22 01.11.2019
5176 Clear 15 1020 82 10000 5.7 80 05:43 01.11.2019
5177 Clear 16 1021 82 10000 6.2 90 04:28 01.11.2019
5178 Clear 17 1020 72 10000 6.2 80 02:49 01.11.2019
5179 Clear 17 1019 77 10000 6.2 100 01:35 01.11.2019
5180 Clear 18 1019 82 10000 7.2 100 00:42 01.11.2019
5181 Clear 18 1019 82 10000 7.2 100 00:18 01.11.2019
5182 Clear 18 1018 68 10000 6.7 110 23:43 31.10.2019
5183 Clear 18 1018 68 10000 6.7 110 23:23 31.10.2019
5184 Clear 19 1018 64 10000 6.7 120 22:56 31.10.2019
5185 Clear 19 1018 64 10000 6.7 120 22:38 31.10.2019
5186 Clear 19 1018 64 10000 6.7 120 22:19 31.10.2019
5187 Clear 19 1019 60 10000 7.7 110 21:43 31.10.2019
5188 Clear 19 1019 60 10000 7.7 110 21:20 31.10.2019
5189 Clear 20 1020 49 10000 6.7 120 20:57 31.10.2019
5190 Clear 20 1020 49 10000 6.7 120 20:39 31.10.2019
5191 Clear 20 1020 49 10000 6.7 120 20:20 31.10.2019
5192 Clouds 21 1021 46 10000 5.1 100 19:42 31.10.2019
5193 Clouds 20 1021 46 10000 5.1 100 19:22 31.10.2019
5194 Clouds 21 1021 43 10000 4.6 90 18:57 31.10.2019
5195 Clouds 21 1021 43 10000 4.6 90 18:39 31.10.2019
5196 Clouds 20 1021 43 10000 4.6 90 18:19 31.10.2019
5197 Clear 20 1021 49 10000 4.6 90 17:42 31.10.2019
5198 Clear 20 1021 49 10000 4.6 90 17:22 31.10.2019
5199 Clear 19 1021 52 10000 5.1 120 16:58 31.10.2019
5200 Clear 20 1021 52 10000 5.1 120 16:40 31.10.2019
5201 Clear 20 1021 52 10000 5.1 120 16:20 31.10.2019
5202 Clear 19 1021 49 10000 5.7 130 15:56 31.10.2019
5203 Clear 19 1021 49 10000 5.7 130 15:37 31.10.2019
5204 Clear 19 1021 49 10000 5.7 130 15:19 31.10.2019
5205 Clear 19 1021 49 10000 5.1 130 14:54 31.10.2019
5206 Clear 19 1021 49 10000 5.1 130 14:36 31.10.2019
5207 Clear 19 1021 49 10000 5.1 130 14:18 31.10.2019
5208 Clear 19 1021 55 10000 4.6 120 13:40 31.10.2019
5209 Clear 19 1021 55 10000 4.6 120 13:20 31.10.2019
5210 Clear 19 1021 55 10000 4.6 120 13:20 31.10.2019
5211 Clear 18 1022 63 10000 4.1 130 12:59 31.10.2019
5212 Clear 18 1022 63 10000 4.1 130 12:41 31.10.2019
5213 Clear 18 1022 63 10000 4.1 130 12:22 31.10.2019
5214 Clear 16 1021 72 10000 2.6 170 11:55 31.10.2019
5215 Clear 16 1021 72 10000 2.6 170 11:36 31.10.2019
5216 Clear 16 1021 72 10000 2.6 170 11:18 31.10.2019
5217 Clear 15 1020 67 10000 4.6 150 10:40 31.10.2019
5218 Clear 15 1020 67 10000 4.6 150 10:40 31.10.2019
5219 Clear 15 1020 67 10000 4.6 150 10:22 31.10.2019
5220 Clear 14 1020 72 10000 4.6 150 09:59 31.10.2019
5221 Clear 15 1020 72 10000 4.6 150 09:41 31.10.2019
5222 Clear 15 1020 72 10000 4.6 150 09:18 31.10.2019
5223 Clear 15 1020 77 10000 4.6 150 08:49 31.10.2019
5224 Clear 15 1020 77 10000 4.6 150 08:30 31.10.2019
5225 Clear 15 1019 77 10000 5.1 150 07:55 31.10.2019
5226 Clear 15 1019 77 10000 5.1 150 07:36 31.10.2019
5227 Clear 15 1019 77 10000 5.1 150 07:18 31.10.2019
5228 Clear 15 1020 82 10000 5.1 150 06:38 31.10.2019
5229 Clear 15 1020 82 10000 5.1 150 06:18 31.10.2019
5230 Clear 17 1019 82 10000 6.2 150 03:43 31.10.2019
5231 Clouds 16 1019 87 10000 6.2 160 02:41 31.10.2019
5232 Clouds 16 1018 87 10000 5.1 160 01:53 31.10.2019
5233 Clouds 16 1018 87 10000 5.1 160 01:53 31.10.2019
5234 Clouds 17 1017 87 10000 6.7 180 00:39 31.10.2019
5235 Clouds 17 1017 87 10000 6.7 180 00:20 31.10.2019
5236 Clouds 17 1016 72 10000 8.2 170 23:30 30.10.2019
5237 Clouds 18 1015 68 10000 6.2 140 22:44 30.10.2019
5238 Clouds 19 1015 68 10000 6.2 140 22:23 30.10.2019
5239 Clouds 19 1013 68 10000 6.2 100 21:57 30.10.2019
5240 Clouds 19 1013 68 10000 6.2 100 21:38 30.10.2019
5241 Clouds 19 1013 68 10000 6.2 100 21:19 30.10.2019
5242 Clouds 18 1013 82 10000 6.7 120 20:59 30.10.2019
5243 Clouds 18 1013 82 10000 6.7 120 20:41 30.10.2019
5244 Rain 18 1014 77 10000 5.1 120 20:22 30.10.2019
5245 Clouds 18 1014 77 10000 7.7 150 19:59 30.10.2019
5246 Clouds 18 1014 77 10000 7.7 150 19:39 30.10.2019
5247 Clouds 18 1014 77 10000 7.7 150 19:20 30.10.2019
5248 Clouds 18 1014 77 10000 8.2 150 18:58 30.10.2019
5249 Clouds 18 1014 77 10000 8.2 150 18:37 30.10.2019
5250 Clouds 19 1014 77 10000 8.2 150 18:18 30.10.2019
5251 Clouds 19 1014 77 10000 8.2 140 17:41 30.10.2019
5252 Clouds 19 1014 77 10000 8.2 140 17:20 30.10.2019
5253 Clouds 19 1013 72 10000 9.3 150 16:59 30.10.2019
5254 Clouds 19 1013 72 10000 9.3 150 16:41 30.10.2019
5255 Clouds 19 1013 72 10000 9.3 150 16:22 30.10.2019
5256 Clouds 18 1012 82 10000 7.7 140 15:57 30.10.2019
5257 Clouds 19 1012 82 10000 7.2 130 15:38 30.10.2019
5258 Clouds 18 1012 82 10000 7.2 130 15:19 30.10.2019
5259 Clouds 19 1013 82 10000 5.7 110 14:56 30.10.2019
5260 Clouds 18 1013 82 10000 6.7 120 14:38 30.10.2019
5261 Clouds 18 1013 82 10000 6.7 120 14:20 30.10.2019
5262 Clouds 18 1012 82 10000 6.7 120 13:54 30.10.2019
5263 Clouds 18 1012 82 10000 6.7 120 13:36 30.10.2019
5264 Clouds 18 1012 82 10000 6.7 120 13:18 30.10.2019
5265 Clouds 18 1011 88 10000 7.2 100 12:42 30.10.2019
5266 Clouds 18 1011 88 10000 7.2 100 12:23 30.10.2019
5267 Clouds 17 1011 93 10000 6.7 100 11:54 30.10.2019
5268 Clouds 17 1011 93 10000 6.7 100 11:36 30.10.2019
5269 Clouds 17 1011 93 10000 6.7 100 11:36 30.10.2019
5270 Clouds 17 1011 93 10000 6.7 100 11:18 30.10.2019
5271 Clouds 17 1011 82 10000 6.7 120 10:41 30.10.2019
5272 Clouds 16 1011 82 10000 6.7 120 10:23 30.10.2019
5273 Clouds 16 1011 82 10000 6.7 130 09:42 30.10.2019
5274 Clouds 16 1011 82 10000 6.7 130 09:22 30.10.2019
5275 Clouds 16 1011 82 10000 5.7 130 08:57 30.10.2019
5276 Clouds 16 1011 82 10000 5.7 130 08:38 30.10.2019
5277 Clouds 16 1011 82 10000 5.7 130 08:19 30.10.2019
5278 Clouds 16 1011 82 10000 6.7 120 07:43 30.10.2019
5279 Clouds 16 1011 82 10000 4.6 120 06:59 30.10.2019
5280 Clouds 16 1011 82 10000 4.6 120 06:41 30.10.2019
5281 Clouds 16 1012 87 10000 5.1 100 05:58 30.10.2019
5282 Clouds 16 1012 87 10000 5.1 100 05:40 30.10.2019
5283 Clouds 16 1012 87 10000 6.7 110 04:26 30.10.2019
5284 Clouds 16 1011 87 10000 5.1 130 03:43 30.10.2019
5285 Clouds 16 1011 87 10000 5.7 120 02:50 30.10.2019
5286 Clouds 16 1011 87 10000 4.6 120 01:51 30.10.2019
5287 Clouds 16 1010 87 10000 4.1 110 00:55 30.10.2019
5288 Clouds 16 1010 87 10000 4.1 110 00:28 30.10.2019
5289 Clouds 16 1010 87 10000 5.7 100 23:42 29.10.2019
5290 Clouds 16 1010 87 10000 5.7 100 23:22 29.10.2019
5291 Clouds 17 1010 82 10000 5.7 140 22:46 29.10.2019
5292 Clouds 17 1010 82 10000 5.7 140 22:20 29.10.2019
5293 Clouds 17 1009 88 10000 4.6 110 21:58 29.10.2019
5294 Clouds 17 1009 88 10000 4.6 110 21:40 29.10.2019
5295 Clouds 17 1009 88 10000 4.6 110 21:20 29.10.2019
5296 Clouds 17 1009 88 10000 4.1 140 20:56 29.10.2019
5297 Clouds 17 1009 88 10000 4.1 140 20:37 29.10.2019
5298 Clouds 17 1009 88 10000 4.1 140 20:19 29.10.2019
5299 Clouds 18 1010 77 10000 4.6 130 19:55 29.10.2019
5300 Clouds 18 1010 77 10000 4.6 130 19:37 29.10.2019
5301 Clouds 18 1010 77 10000 4.6 130 19:18 29.10.2019
5302 Clouds 18 1009 72 10000 6.2 140 18:55 29.10.2019
5303 Clouds 19 1009 72 10000 6.2 140 18:36 29.10.2019
5304 Clouds 18 1009 72 10000 6.2 140 18:18 29.10.2019
5305 Clouds 18 1010 72 10000 5.1 180 17:40 29.10.2019
5306 Clouds 18 1010 72 10000 5.1 180 17:21 29.10.2019
5307 Clouds 18 1010 77 10000 5.1 140 16:58 29.10.2019
5308 Clouds 18 1010 77 10000 5.1 140 16:38 29.10.2019
5309 Clouds 18 1010 77 10000 5.1 140 16:19 29.10.2019
5310 Clouds 18 1010 77 10000 3.6 130 15:55 29.10.2019
5311 Clouds 18 1010 77 10000 3.6 130 15:37 29.10.2019
5312 Clouds 18 1010 77 10000 3.6 130 15:19 29.10.2019
5313 Clouds 17 1009 82 10000 4.6 130 14:54 29.10.2019
5314 Clouds 17 1009 82 10000 4.6 130 14:54 29.10.2019
5315 Clouds 17 1009 82 10000 4.6 130 14:36 29.10.2019
5316 Clouds 17 1009 82 10000 4.6 130 14:18 29.10.2019
5317 Clouds 17 1009 82 10000 3.6 130 13:40 29.10.2019
5318 Clouds 17 1009 82 10000 3.6 130 13:21 29.10.2019
5319 Clouds 16 1008 87 10000 6.2 150 12:45 29.10.2019
5320 Clouds 16 1008 87 10000 6.2 150 12:25 29.10.2019
5321 Clouds 16 1007 93 10000 6.7 160 11:59 29.10.2019
5322 Clouds 16 1007 93 10000 6.7 160 11:40 29.10.2019
5323 Clouds 16 1007 93 10000 6.7 160 11:19 29.10.2019
5324 Clouds 16 1007 93 10000 4.1 170 10:57 29.10.2019
5325 Clouds 16 1007 93 10000 4.1 170 10:38 29.10.2019
5326 Clouds 16 1007 93 10000 4.1 170 10:20 29.10.2019
5327 Clouds 16 1006 93 10000 4.6 180 09:54 29.10.2019
5328 Clouds 16 1006 93 10000 4.6 180 09:36 29.10.2019
5329 Clouds 16 1006 93 10000 4.6 180 09:18 29.10.2019
5330 Clouds 16 1007 93 10000 3.1 170 08:43 29.10.2019
5331 Clouds 16 1007 93 10000 3.1 170 08:23 29.10.2019
5332 Clouds 16 1005 93 10000 7.2 190 07:54 29.10.2019
5333 Clouds 16 1005 93 10000 7.2 190 07:36 29.10.2019
5334 Clouds 16 1005 93 10000 7.2 190 07:18 29.10.2019
5335 Clouds 16 1005 93 10000 5.7 210 06:42 29.10.2019
5336 Clouds 16 1005 93 10000 5.7 210 06:20 29.10.2019
5337 Clouds 16 1006 100 10000 6.2 200 05:50 29.10.2019
5338 Clouds 17 1006 100 10000 6.2 200 05:19 29.10.2019
5339 Fog 17 1005 100 800 3.6 210 03:55 29.10.2019
5340 Mist 18 1004 93 5000 2.6 250 02:32 29.10.2019
5341 Clouds 18 1004 93 6000 1.09 97 01:43 29.10.2019
5342 Clouds 19 1003 93 8000 2.1 70 01:18 29.10.2019
5343 Clouds 19 1004 93 10000 3.48 172 00:30 29.10.2019
5344 Mist 19 1003 100 3000 4.1 160 23:43 28.10.2019
5345 Mist 19 1003 100 3000 4.1 160 23:20 28.10.2019
5346 Mist 19 1003 94 3000 2.1 120 22:57 28.10.2019
5347 Mist 19 1003 94 3000 2.1 120 22:37 28.10.2019
5348 Mist 19 1003 94 3000 2.1 120 22:18 28.10.2019
5349 Mist 20 1003 94 3000 3.1 130 21:55 28.10.2019
5350 Mist 20 1003 94 3000 3.1 130 21:37 28.10.2019
5351 Mist 20 1003 94 3000 3.1 130 21:18 28.10.2019
5352 Mist 20 1003 94 4000 3.1 110 20:44 28.10.2019
5353 Rain 20 1003 94 4000 3.1 110 20:24 28.10.2019
5354 Rain 20 1003 94 5000 3.1 150 19:58 28.10.2019
5355 Rain 20 1003 94 5000 3.1 150 19:39 28.10.2019
5356 Rain 21 1003 94 3000 3.6 130 19:20 28.10.2019
5357 Rain 21 1003 94 3000 3.6 130 19:20 28.10.2019
5358 Rain 20 1003 94 10000 3.1 100 18:58 28.10.2019
5359 Rain 20 1003 94 10000 3.1 100 18:39 28.10.2019
5360 Rain 20 1003 94 2000 4.6 150 18:21 28.10.2019
5361 Thunderstorm 20 1004 94 4000 5.1 190 17:56 28.10.2019
5362 Thunderstorm 21 1003 88 10000 2.6 170 17:38 28.10.2019
5363 Thunderstorm 21 1003 88 10000 2.6 170 17:19 28.10.2019
5364 Thunderstorm 22 1004 78 10000 2.6 160 16:57 28.10.2019
5365 Thunderstorm 22 1004 78 10000 2.6 160 16:39 28.10.2019
5366 Thunderstorm 23 1004 78 10000 2.6 160 16:20 28.10.2019
5367 Thunderstorm 22 1005 88 10000 4.1 340 15:58 28.10.2019
5368 Thunderstorm 23 1005 88 10000 4.1 340 15:39 28.10.2019
5369 Thunderstorm 23 1005 88 10000 4.1 340 15:20 28.10.2019
5370 Clouds 23 1004 83 10000 5.7 20 14:56 28.10.2019
5371 Clouds 22 1004 83 10000 5.7 20 14:38 28.10.2019
5372 Clouds 22 1004 83 10000 5.7 20 14:18 28.10.2019
5373 Clouds 22 1003 88 10000 8.7 40 13:55 28.10.2019
5374 Clouds 21 1003 88 10000 8.7 40 13:37 28.10.2019
5375 Clouds 21 1003 88 10000 8.7 40 13:18 28.10.2019
5376 Clouds 21 1003 88 10000 8.7 40 13:18 28.10.2019
5377 Clouds 20 1004 88 10000 7.7 30 12:42 28.10.2019
5378 Rain 20 1004 88 10000 7.7 30 12:20 28.10.2019
5379 Rain 19 1004 100 8000 8.2 70 11:40 28.10.2019
5380 Thunderstorm 19 1010 100 3000 7.7 100 11:21 28.10.2019
5381 Thunderstorm 19 1006 93 10000 5.73 23 10:57 28.10.2019
5382 Thunderstorm 19 1006 93 10000 5.73 23 10:38 28.10.2019
5383 Thunderstorm 19 1006 93 10000 5.73 23 10:20 28.10.2019
5384 Clouds 19 1005 100 10000 1 50 09:55 28.10.2019
5385 Clouds 19 1005 100 10000 1 50 09:37 28.10.2019
5386 Clouds 19 1005 100 10000 1 50 09:18 28.10.2019
5387 Clouds 19 1005 100 10000 2.6 70 08:56 28.10.2019
5388 Clouds 19 1005 100 10000 2.6 70 08:37 28.10.2019
5389 Clouds 18 1005 100 10000 2.6 70 08:18 28.10.2019
5390 Clouds 18 1006 100 8000 2.6 110 07:54 28.10.2019
5391 Clouds 18 1006 100 8000 2.6 110 07:36 28.10.2019
5392 Clouds 18 1006 100 8000 2.6 110 07:18 28.10.2019
5393 Mist 18 1006 93 5000 3.1 120 06:39 28.10.2019
5394 Clouds 18 1007 93 10000 3.1 130 05:33 28.10.2019
5395 Clouds 19 1008 93 8000 2.6 130 03:45 28.10.2019
5396 Clouds 19 1009 93 10000 2.6 130 02:46 28.10.2019
5397 Clouds 19 1008 82 10000 3.6 130 01:52 28.10.2019
5398 Clouds 20 1006 82 10000 4.6 130 00:53 28.10.2019
5399 Clouds 20 1006 82 10000 4.6 130 00:26 28.10.2019
5400 Clouds 20 1006 82 10000 4.6 130 23:46 27.10.2019
5401 Clouds 20 1006 82 10000 4.6 130 23:22 27.10.2019
5402 Clouds 21 1006 77 10000 3.6 150 22:57 27.10.2019
5403 Clouds 21 1006 77 10000 3.6 150 22:57 27.10.2019
5404 Clouds 21 1006 77 10000 3.6 150 22:39 27.10.2019
5405 Clouds 22 1006 77 10000 3.6 150 22:20 27.10.2019
5406 Clouds 22 1006 73 10000 2.6 90 21:57 27.10.2019
5407 Clouds 22 1006 73 10000 2.6 90 21:39 27.10.2019
5408 Clouds 22 1006 73 10000 2.6 90 21:20 27.10.2019
5409 Rain 22 1006 68 10000 3.6 100 20:54 27.10.2019
5410 Rain 22 1006 68 10000 3.6 100 20:36 27.10.2019
5411 Clouds 23 1006 68 10000 3.6 100 20:18 27.10.2019
5412 Clouds 22 1008 73 10000 3.6 170 19:39 27.10.2019
5413 Clouds 22 1008 73 10000 3.6 170 19:20 27.10.2019
5414 Clouds 23 1007 60 10000 2.1 150 18:57 27.10.2019
5415 Clouds 23 1007 60 10000 2.1 150 18:57 27.10.2019
5416 Clouds 23 1007 60 10000 2.1 150 18:39 27.10.2019
5417 Clouds 23 1007 60 10000 2.1 150 18:39 27.10.2019
5418 Clouds 23 1007 60 10000 2.1 150 18:21 27.10.2019
5419 Clouds 23 1008 61 10000 4.1 40 17:57 27.10.2019
5420 Clouds 23 1008 61 10000 4.1 40 17:38 27.10.2019
5421 Clouds 23 1008 61 10000 4.1 40 17:19 27.10.2019
5422 Clouds 23 1007 61 10000 3.6 40 16:57 27.10.2019
5423 Clouds 23 1007 61 10000 3.6 40 16:38 27.10.2019
5424 Clouds 23 1007 61 10000 3.6 40 16:20 27.10.2019
5425 Clouds 23 1009 61 10000 1 320 15:55 27.10.2019
5426 Clouds 23 1009 61 10000 1 320 15:37 27.10.2019
5427 Clouds 23 1009 61 10000 1 320 15:19 27.10.2019
5428 Clouds 23 1008 60 10000 2.1 60 14:42 27.10.2019
5429 Clear 23 1008 60 10000 2.1 60 14:20 27.10.2019
5430 Clear 22 1009 64 10000 1.5 10 13:57 27.10.2019
5431 Clear 23 1009 64 10000 1.5 10 13:38 27.10.2019
5432 Clear 23 1009 64 10000 1.5 10 13:19 27.10.2019
5433 Clear 21 1007 72 10000 2.6 70 12:45 27.10.2019
5434 Clear 21 1007 72 10000 2.6 70 12:24 27.10.2019
5435 Rain 20 1006 72 10000 3.1 100 11:59 27.10.2019
5436 Rain 20 1006 72 10000 3.1 100 11:59 27.10.2019
5437 Rain 19 1006 72 10000 3.1 100 11:40 27.10.2019
5438 Rain 20 1006 72 10000 3.1 100 11:21 27.10.2019
5439 Clouds 20 1004 63 10000 9.3 60 10:44 27.10.2019
5440 Clouds 19 1004 63 10000 9.3 60 10:25 27.10.2019
5441 Clouds 19 1008 68 10000 2.6 330 09:56 27.10.2019
5442 Clouds 19 1008 68 10000 2.6 330 09:38 27.10.2019
5443 Clouds 19 1008 68 10000 2.6 330 09:18 27.10.2019
5444 Clouds 19 1008 68 10000 2.6 330 09:18 27.10.2019
5445 Clear 20 1007 63 10000 5.1 60 08:42 27.10.2019
5446 Rain 20 1007 63 10000 5.1 60 08:22 27.10.2019
5447 Rain 20 1009 72 10000 4.1 90 07:59 27.10.2019
5448 Rain 19 1009 72 10000 4.1 90 07:41 27.10.2019
5449 Rain 19 1009 72 10000 4.1 90 07:20 27.10.2019
5450 Rain 19 1009 60 10000 1.5 180 06:47 27.10.2019
5451 Rain 19 1009 60 10000 1.5 180 06:26 27.10.2019
5452 Rain 19 1009 64 10000 2.1 120 05:39 27.10.2019
5453 Clouds 20 1009 60 10000 1.5 120 04:51 27.10.2019
5454 Thunderstorm 21 1010 68 10000 2.6 200 02:54 27.10.2019
5455 Thunderstorm 23 1008 46 10000 4.1 200 01:49 27.10.2019
5456 Thunderstorm 25 1006 36 10000 2.6 20 01:20 27.10.2019
5457 Thunderstorm 25 1006 33 10000 4.1 50 00:46 27.10.2019
5458 Clouds 26 1006 44 10000 4.6 20 00:22 27.10.2019
5459 Clear 27 1007 39 10000 5.1 20 23:55 26.10.2019
5460 Clear 27 1007 39 10000 5.1 20 23:37 26.10.2019
5461 Clear 27 1007 39 10000 5.1 20 23:19 26.10.2019
5462 Clear 28 1007 37 10000 7.7 10 22:55 26.10.2019
5463 Clear 29 1007 37 10000 7.7 10 22:36 26.10.2019
5464 Clear 29 1007 37 10000 7.7 10 22:18 26.10.2019
5465 Clear 29 1007 37 10000 6.2 30 21:42 26.10.2019
5466 Clear 28 1007 37 10000 6.2 30 21:21 26.10.2019
5467 Clear 28 1008 37 10000 7.7 20 20:46 26.10.2019
5468 Clear 29 1008 37 10000 7.7 20 20:20 26.10.2019
5469 Clear 28 1009 39 10000 10.3 30 19:59 26.10.2019
5470 Clear 28 1009 39 10000 10.3 30 19:40 26.10.2019
5471 Clear 28 1009 39 10000 10.3 30 19:20 26.10.2019
5472 Clear 28 1011 42 10000 8.7 20 18:56 26.10.2019
5473 Clear 28 1011 42 10000 8.7 20 18:56 26.10.2019
5474 Clear 28 1011 42 10000 8.7 20 18:37 26.10.2019
5475 Clear 28 1011 42 10000 8.7 20 18:18 26.10.2019
5476 Clear 27 1012 44 10000 8.2 10 17:56 26.10.2019
5477 Clear 27 1012 44 10000 8.2 10 17:36 26.10.2019
5478 Clear 27 1012 44 10000 8.2 10 17:18 26.10.2019
5479 Clear 26 1013 41 10000 6.7 20 16:43 26.10.2019
5480 -273 0 0 0 0 0 16:24 26.10.2019
5481 Clear 26 1013 41 10000 6.7 20 16:24 26.10.2019
5482 Clear 26 1013 44 10000 6.2 30 15:43 26.10.2019
5483 Clear 26 1013 44 10000 6.2 30 15:21 26.10.2019
5484 Clear 23 1014 43 10000 5.1 10 14:56 26.10.2019
5485 Clear 23 1014 43 10000 5.1 10 14:37 26.10.2019
5486 Clear 23 1014 43 10000 5.1 10 14:18 26.10.2019
5487 Clear 19 1014 74 0 3.98 346 13:42 26.10.2019
5488 Clear 19 1014 74 0 3.98 346 13:22 26.10.2019
5489 Clear 17 1005 62 0 2.24 276 12:49 26.10.2019
5490 Clear 18 1013 72 10000 4.1 30 12:49 26.10.2019
5491 Clear 17 1013 77 10000 2.1 330 12:25 26.10.2019
5492 Clear 17 1013 77 10000 2.1 330 11:56 26.10.2019
5493 Clear 17 1013 77 10000 2.1 330 11:36 26.10.2019
5494 Clear 17 1013 77 10000 2.1 330 11:36 26.10.2019
5495 Clear 17 1013 77 10000 2.1 330 11:18 26.10.2019
5496 Clear 16 1012 72 10000 2.6 340 10:42 26.10.2019
5497 Clear 16 1012 72 10000 2.6 340 10:23 26.10.2019
5498 Clear 16 1012 72 10000 2.1 340 09:45 26.10.2019
5499 Clear 16 1012 72 10000 2.1 340 09:27 26.10.2019
5500 Clear 16 1013 77 10000 2.1 340 08:44 26.10.2019
5501 Clear 16 1013 77 10000 2.1 340 08:25 26.10.2019
5502 Clear 16 1013 77 10000 2.1 340 08:25 26.10.2019
5503 Clear 17 1013 72 10000 2.1 360 07:56 26.10.2019
5504 Clear 17 1013 72 10000 2.1 360 07:31 26.10.2019
5505 Clear 17 1013 72 10000 3.1 360 06:47 26.10.2019
5506 Clear 17 1013 72 10000 3.1 360 06:28 26.10.2019
5507 Clear 18 1014 68 10000 3.6 10 05:21 26.10.2019
5508 Clear 18 1014 68 10000 3.1 10 04:44 26.10.2019
5509 Clear 18 1014 63 10000 2.1 10 03:22 26.10.2019
5510 Clear 19 1014 56 10000 1.5 330 01:58 26.10.2019
5511 Clear 19 1014 56 10000 1.5 330 01:37 26.10.2019
5512 Clear 23 1014 60 10000 2.1 270 00:27 26.10.2019
5513 Clear 25 1014 50 10000 3.1 270 23:47 25.10.2019
5514 Clear 25 1014 50 10000 3.1 270 23:21 25.10.2019
5515 Clouds 26 1013 44 10000 5.1 270 22:43 25.10.2019
5516 Clouds 26 1013 44 10000 5.1 270 22:25 25.10.2019
5517 Clouds 26 1014 44 10000 6.2 290 21:58 25.10.2019
5518 Clouds 26 1014 44 10000 6.2 290 21:40 25.10.2019
5519 Clouds 26 1014 44 10000 6.2 290 21:22 25.10.2019
5520 Clouds 26 1015 44 10000 6.7 290 20:59 25.10.2019
5521 Clouds 26 1015 44 10000 6.7 290 20:59 25.10.2019
5522 Clouds 26 1015 44 10000 6.7 290 20:41 25.10.2019
5523 Clouds 25 1015 44 10000 6.7 290 20:19 25.10.2019
5524 Clouds 25 1015 44 10000 6.7 290 20:19 25.10.2019
5525 Clouds 25 1015 44 10000 7.7 270 19:45 25.10.2019
5526 Clouds 25 1015 44 10000 7.7 270 19:27 25.10.2019
5527 Clear 25 1016 41 10000 6.7 270 18:47 25.10.2019
5528 Clear 25 1016 41 10000 6.7 270 18:29 25.10.2019
5529 Clear 24 1016 49 10000 4.6 280 17:56 25.10.2019
5530 Clear 24 1016 49 10000 4.6 280 17:36 25.10.2019
5531 Clear 24 1016 49 10000 4.6 280 17:18 25.10.2019
5532 Clear 23 1016 56 10000 5.1 270 16:43 25.10.2019
5533 Clear 23 1016 56 10000 5.1 270 16:22 25.10.2019
5534 Clear 22 1017 60 10000 6.7 280 15:55 25.10.2019
5535 Clear 22 1017 60 10000 6.7 280 15:37 25.10.2019
5536 Clouds 22 1017 60 10000 6.7 280 15:18 25.10.2019
5537 Clouds 19 1017 59 10000 4.1 290 14:42 25.10.2019
5538 Clouds 19 1017 59 10000 4.1 290 14:23 25.10.2019
5539 Clouds 17 1016 67 10000 4.1 330 13:44 25.10.2019
5540 Clouds 17 1016 67 10000 4.1 330 13:25 25.10.2019
5541 Clouds 16 1016 76 10000 3.6 320 12:59 25.10.2019
5542 Clouds 15 1016 76 10000 3.6 320 12:41 25.10.2019
5543 Clouds 15 1016 76 10000 3.6 320 12:20 25.10.2019
5544 Clouds 15 1015 71 10000 5.79 309 11:56 25.10.2019
5545 Clouds 15 1015 71 10000 5.79 309 11:37 25.10.2019
5546 Clouds 15 1015 71 10000 5.79 309 11:18 25.10.2019
5547 Clouds 15 1015 76 10000 1 360 10:40 25.10.2019
5548 Clouds 15 1015 76 10000 1 360 10:21 25.10.2019
5549 Clouds 15 1014 76 10000 0.5 10 09:57 25.10.2019
5550 Clouds 15 1014 76 10000 0.5 10 09:38 25.10.2019
5551 Clouds 15 1014 76 10000 0.5 10 09:19 25.10.2019
5552 Clouds 14 1014 76 10000 1.5 20 08:45 25.10.2019
5553 Clouds 14 1014 76 10000 1.5 20 08:27 25.10.2019
5554 Clouds 14 1015 76 10000 0.5 360 07:53 25.10.2019
5555 Clouds 14 1015 76 10000 0.5 360 07:34 25.10.2019
5556 Clouds 14 1015 71 10000 3.47 307 06:42 25.10.2019
5557 Clouds 16 1015 71 10000 3.02 296 05:51 25.10.2019
5558 Clouds 16 1015 71 10000 3.02 296 05:33 25.10.2019
5559 Clouds 16 1015 81 9000 3.02 296 04:52 25.10.2019
5560 Clouds 17 1015 67 10000 0.5 30 03:36 25.10.2019
5561 Clouds 18 1014 52 10000 3.19 302 01:54 25.10.2019
5562 Clouds 18 1014 55 10000 3.19 302 00:57 25.10.2019
5563 Clear 18 1014 55 10000 4.6 269 00:20 25.10.2019
5564 Clear 19 1014 49 10000 2.6 270 23:40 24.10.2019
5565 Clear 19 1014 49 10000 2.6 270 23:22 24.10.2019
5566 Clear 20 1014 52 10000 4.6 280 22:55 24.10.2019
5567 Clear 20 1014 52 10000 4.6 280 22:55 24.10.2019
5568 Clear 20 1014 52 10000 4.6 280 22:37 24.10.2019
5569 Clear 20 1014 52 10000 4.6 280 22:18 24.10.2019
5570 Clear 20 1014 52 10000 4.1 260 21:56 24.10.2019
5571 Clear 20 1014 52 10000 4.1 260 21:37 24.10.2019
5572 Clear 20 1014 52 10000 4.1 260 21:37 24.10.2019
5573 Clear 19 1014 52 10000 4.1 260 21:18 24.10.2019
5574 Clouds 19 1014 40 10000 6.7 250 20:56 24.10.2019
5575 Clouds 19 1014 40 10000 6.7 250 20:56 24.10.2019
5576 Clouds 19 1014 40 10000 6.7 250 20:37 24.10.2019
5577 Clouds 19 1014 40 10000 6.7 250 20:19 24.10.2019
5578 Clear 20 1015 52 10000 4.6 260 19:43 24.10.2019
5579 Clear 19 1015 52 10000 4.6 260 19:23 24.10.2019
5580 Clouds 18 1015 52 10000 5.7 280 18:58 24.10.2019
5581 Clouds 18 1015 52 10000 5.7 280 18:39 24.10.2019
5582 Clouds 18 1015 52 10000 5.7 280 18:21 24.10.2019
5583 Clouds 18 1015 52 10000 5.7 280 17:57 24.10.2019
5584 Clouds 18 1015 52 10000 5.7 280 17:38 24.10.2019
5585 Clouds 18 1015 52 10000 5.7 280 17:38 24.10.2019
5586 Clouds 18 1015 52 10000 5.7 280 17:19 24.10.2019
5587 Clouds 18 1015 52 10000 5.7 280 17:19 24.10.2019
5588 Clouds 17 1015 55 10000 4.1 250 16:54 24.10.2019
5589 Clouds 17 1015 55 10000 4.1 250 16:36 24.10.2019
5590 Clouds 17 1015 55 10000 4.1 250 16:18 24.10.2019
5591 Clouds 17 1015 55 10000 4.6 240 15:54 24.10.2019
5592 Clouds 17 1015 55 10000 4.6 240 15:36 24.10.2019
5593 Clouds 17 1015 55 10000 4.6 240 15:18 24.10.2019
5594 Clouds 16 1015 59 10000 4.1 260 14:41 24.10.2019
5595 Clouds 16 1015 59 10000 4.1 260 14:22 24.10.2019
5596 Clear 15 1015 76 10000 2.1 280 13:57 24.10.2019
5597 Clear 15 1015 76 10000 2.1 280 13:37 24.10.2019
5598 Clear 15 1015 76 10000 2.1 280 13:18 24.10.2019
5599 Clear 13 1015 93 10000 1.5 0 12:55 24.10.2019
5600 Clear 13 1015 93 10000 1.5 0 12:37 24.10.2019
5601 Clear 13 1015 93 10000 1.5 0 12:18 24.10.2019
5602 Clouds 13 1014 93 10000 1.5 320 11:54 24.10.2019
5603 Clouds 13 1014 93 10000 1.5 320 11:36 24.10.2019
5604 Clouds 13 1014 93 10000 1.5 320 11:18 24.10.2019
5605 Clear 14 1014 93 9000 2.1 310 10:41 24.10.2019
5606 Clear 14 1014 93 9000 2.1 310 10:23 24.10.2019
5607 Clear 14 1014 93 9000 2.1 310 10:23 24.10.2019
5608 Clear 14 1013 93 9000 2.1 330 09:39 24.10.2019
5609 Clear 14 1013 93 9000 2.1 330 09:19 24.10.2019
5610 Clear 14 1013 87 8000 2.1 320 08:58 24.10.2019
5611 Clear 14 1013 87 8000 2.1 320 08:38 24.10.2019
5612 Clear 14 1013 87 8000 2.1 320 08:19 24.10.2019
5613 Mist 14 1014 87 5000 2.1 330 07:47 24.10.2019
5614 Mist 14 1014 87 5000 2.1 330 07:23 24.10.2019
5615 Mist 14 1014 87 5000 2.1 330 07:23 24.10.2019
5616 Mist 14 1014 87 5000 1.5 330 06:53 24.10.2019
5617 Mist 14 1014 87 5000 1.5 330 06:34 24.10.2019
5618 Clear 15 1014 87 7000 2.1 340 05:54 24.10.2019
5619 Clear 15 1014 87 7000 2.1 340 05:54 24.10.2019
5620 Clear 15 1014 87 7000 2.1 340 05:30 24.10.2019
5621 Clouds 15 1014 81 8000 1 310 04:22 24.10.2019
5622 Clouds 15 1014 81 8000 1 310 04:22 24.10.2019
5623 Clouds 15 1014 76 8000 1 330 03:33 24.10.2019
5624 Clear 15 1014 71 10000 1.5 330 02:37 24.10.2019
5625 Clear 15 1014 71 10000 1.5 330 02:18 24.10.2019
5626 Clouds 15 1014 71 10000 2.1 320 01:30 24.10.2019
5627 Clouds 16 1013 67 10000 3.6 270 00:53 24.10.2019
5628 Clouds 17 1013 67 10000 3.6 270 00:25 24.10.2019
5629 Clouds 17 1013 55 10000 5.1 270 23:45 23.10.2019
5630 Clouds 17 1013 55 10000 5.1 270 23:27 23.10.2019
5631 Clouds 18 1013 55 10000 6.2 280 22:58 23.10.2019
5632 Clouds 18 1013 55 10000 6.2 280 22:39 23.10.2019
5633 Clouds 18 1013 55 10000 6.2 280 22:19 23.10.2019
5634 Clouds 18 1013 55 10000 6.2 280 22:19 23.10.2019
5635 Clouds 18 1014 55 10000 6.7 280 21:58 23.10.2019
5636 Clouds 18 1014 55 10000 6.7 280 21:40 23.10.2019
5637 Clouds 18 1014 55 10000 6.7 280 21:21 23.10.2019
5638 Clouds 17 1014 55 10000 6.7 270 20:59 23.10.2019
5639 Clouds 17 1014 55 10000 6.7 270 20:40 23.10.2019
5640 Clouds 17 1014 55 10000 6.7 270 20:40 23.10.2019
5641 Clouds 17 1014 55 10000 6.7 270 20:21 23.10.2019
5642 Clouds 17 1015 55 10000 5.7 260 19:59 23.10.2019
5643 Clouds 17 1015 55 10000 5.7 260 19:41 23.10.2019
5644 Clouds 17 1015 55 10000 5.7 260 19:19 23.10.2019
5645 Clouds 17 1015 59 10000 6.2 270 18:57 23.10.2019
5646 Clouds 17 1015 59 10000 6.2 270 18:38 23.10.2019
5647 Clouds 17 1015 59 10000 6.2 270 18:19 23.10.2019
5648 Clouds 17 1015 59 10000 6.2 270 18:19 23.10.2019
5649 Clouds 17 1015 63 10000 7.2 270 17:46 23.10.2019
5650 Clouds 17 1015 63 10000 7.2 270 17:21 23.10.2019
5651 Clouds 16 1016 76 10000 6.2 260 16:58 23.10.2019
5652 Clouds 16 1016 76 10000 6.2 260 16:40 23.10.2019
5653 Clouds 16 1016 76 10000 6.2 260 16:20 23.10.2019
5654 Clouds 16 1016 67 10000 7.2 260 15:54 23.10.2019
5655 Clouds 16 1016 67 10000 7.2 260 15:36 23.10.2019
5656 Clouds 16 1016 67 10000 7.2 260 15:18 23.10.2019
5657 Clouds 15 1015 72 10000 7.2 240 14:54 23.10.2019
5658 Clouds 15 1015 72 10000 7.2 240 14:36 23.10.2019
5659 Clouds 15 1015 72 10000 7.2 240 14:18 23.10.2019
5660 Clouds 14 1015 87 10000 3.1 280 13:42 23.10.2019
5661 Clouds 14 1015 87 10000 3.1 280 13:23 23.10.2019
5662 Clear 13 1015 87 10000 4.1 310 12:57 23.10.2019
5663 Clear 12 1015 87 10000 4.1 310 12:38 23.10.2019
5664 Clear 12 1015 87 10000 4.1 310 12:18 23.10.2019
5665 Clear 11 1014 81 10000 2.1 330 11:57 23.10.2019
5666 Clear 11 1014 81 10000 2.1 330 11:39 23.10.2019
5667 Clear 11 1014 81 10000 2.1 330 11:39 23.10.2019
5668 Clear 11 1014 81 10000 2.1 330 11:20 23.10.2019
5669 Clear 10 1014 76 10000 2.6 330 10:46 23.10.2019
5670 Clear 11 1014 76 10000 2.6 330 10:26 23.10.2019
5671 Clear 11 1013 81 10000 3.1 300 09:57 23.10.2019
5672 Clear 11 1013 81 10000 3.1 300 09:38 23.10.2019
5673 Clear 11 1013 81 10000 3.1 300 09:38 23.10.2019
5674 Clear 11 1013 81 10000 3.1 300 09:20 23.10.2019
5675 Clear 11 1013 81 10000 1.5 340 08:43 23.10.2019
5676 Clear 11 1013 81 10000 1.5 340 08:25 23.10.2019
5677 Clear 11 1013 71 10000 2.6 340 07:47 23.10.2019
5678 Clear 12 1013 71 10000 2.6 340 07:25 23.10.2019
5679 Clear 12 1013 71 10000 3.6 340 06:48 23.10.2019
5680 Clear 12 1013 71 10000 3.6 340 06:22 23.10.2019
5681 Clear 12 1014 66 10000 1.5 350 05:55 23.10.2019
5682 Clear 12 1014 66 10000 1.5 340 04:59 23.10.2019
5683 Clear 13 1014 66 10000 2.6 350 03:35 23.10.2019
5684 Clouds 14 1014 66 10000 1.5 340 02:41 23.10.2019
5685 Clouds 15 1014 58 10000 1.5 330 01:34 23.10.2019
5686 Clouds 16 1014 44 10000 3.1 300 00:56 23.10.2019
5687 Clouds 16 1014 44 10000 3.1 300 00:29 23.10.2019
5688 Clouds 18 1013 34 10000 6.2 280 23:41 22.10.2019
5689 Clouds 18 1013 34 10000 6.2 280 23:19 22.10.2019
5690 Clouds 19 1014 48 10000 8.2 270 22:57 22.10.2019
5691 Clouds 19 1014 48 10000 8.2 270 22:39 22.10.2019
5692 Clouds 19 1014 48 10000 8.2 270 22:21 22.10.2019
5693 Clouds 19 1014 52 10000 6.7 270 21:56 22.10.2019
5694 Clouds 19 1014 52 10000 6.7 270 21:38 22.10.2019
5695 Clouds 19 1014 52 10000 6.7 270 21:18 22.10.2019
5696 Clear 19 1014 55 10000 6.7 270 20:58 22.10.2019
5697 Clear 19 1014 55 10000 6.7 270 20:39 22.10.2019
5698 Clear 19 1014 55 10000 6.7 270 20:21 22.10.2019
5699 Clear 19 1015 55 10000 6.7 280 19:55 22.10.2019
5700 Clear 18 1015 55 10000 6.7 280 19:37 22.10.2019
5701 Clear 18 1015 55 10000 6.7 280 19:19 22.10.2019
5702 Clear 19 1015 52 10000 6.2 270 18:41 22.10.2019
5703 Clear 19 1015 52 10000 6.2 270 18:41 22.10.2019
5704 Clear 19 1015 52 10000 6.2 270 18:22 22.10.2019
5705 Clear 19 1015 48 10000 6.7 270 17:59 22.10.2019
5706 Clear 19 1015 48 10000 6.7 270 17:39 22.10.2019
5707 Clear 19 1015 48 10000 6.7 270 17:20 22.10.2019
5708 Clear 19 1015 48 10000 6.7 270 17:20 22.10.2019
5709 Clear 19 1015 48 10000 6.7 270 17:20 22.10.2019
5710 Clouds 19 1015 72 10000 6.7 270 16:57 22.10.2019
5711 Clouds 19 1015 72 10000 6.7 270 16:57 22.10.2019
5712 Clouds 19 1015 72 10000 6.7 270 16:38 22.10.2019
5713 Clouds 18 1015 72 10000 6.7 270 16:19 22.10.2019
5714 Clouds 18 1016 82 10000 4.1 240 15:58 22.10.2019
5715 Clouds 18 1016 82 10000 4.1 240 15:39 22.10.2019
5716 Clouds 17 1016 82 10000 4.1 240 15:18 22.10.2019
5717 Clear 17 1015 82 10000 4.6 310 14:43 22.10.2019
5718 Clear 16 1015 82 10000 4.6 310 14:20 22.10.2019
5719 Clear 14 1015 93 10000 4.1 320 13:43 22.10.2019
5720 Clear 14 1015 93 10000 4.1 320 13:23 22.10.2019
5721 Clear 12 1015 87 10000 4.1 340 12:59 22.10.2019
5722 Clear 12 1015 87 10000 4.1 340 12:40 22.10.2019
5723 Clear 11 1015 87 10000 4.1 340 12:21 22.10.2019
5724 Clear 11 1015 100 10000 2.1 360 11:57 22.10.2019
5725 Mist 10 1015 100 5000 2.1 350 11:38 22.10.2019
5726 Mist 9 1015 100 5000 2.1 350 11:20 22.10.2019
5727 Clear 9 1015 100 10000 2.1 360 10:57 22.10.2019
5728 Clear 9 1015 100 10000 2.1 360 10:37 22.10.2019
5729 Clear 9 1015 100 10000 2.1 360 10:18 22.10.2019
5730 Mist 9 1015 100 5000 2.1 350 09:55 22.10.2019
5731 Mist 9 1015 93 1000 1.5 330 09:36 22.10.2019
5732 Mist 9 1015 93 1000 1.5 330 09:18 22.10.2019
5733 Mist 9 1015 100 5000 3.89 319 08:42 22.10.2019
5734 Mist 9 1015 100 5000 3.89 319 08:42 22.10.2019
5735 Mist 9 1015 100 5000 3.89 319 08:21 22.10.2019
5736 Mist 9 1015 100 5000 3.89 319 08:21 22.10.2019
5737 Mist 10 1015 93 5000 1.5 10 07:48 22.10.2019
5738 Mist 10 1015 93 2000 2.1 350 07:26 22.10.2019
5739 Mist 10 1016 100 5000 3.89 319 06:51 22.10.2019
5740 Mist 10 1016 100 5000 3.89 319 06:31 22.10.2019
5741 Mist 10 1016 100 5000 3.89 319 06:31 22.10.2019
5742 Mist 10 1016 100 2500 1.5 340 05:57 22.10.2019
5743 Mist 11 1016 100 2500 1.5 340 05:21 22.10.2019
5744 Clouds 12 1016 87 10000 2.1 70 02:47 22.10.2019
5745 Clouds 12 1016 87 10000 2.1 70 02:28 22.10.2019
5746 Clouds 13 1016 82 10000 3.13 55 01:28 22.10.2019
5747 Clouds 13 1015 76 10000 2.1 170 00:57 22.10.2019
5748 Clouds 13 1015 76 10000 2.1 170 00:39 22.10.2019
5749 Clouds 14 1015 76 10000 2.1 170 00:20 22.10.2019
5750 Clouds 14 1015 72 10000 2.1 160 23:55 21.10.2019
5751 Clouds 15 1015 72 10000 2.1 160 23:37 21.10.2019
5752 Clouds 15 1015 72 10000 2.1 160 23:18 21.10.2019
5753 Clouds 15 1015 72 10000 2.1 160 23:18 21.10.2019
5754 Clouds 15 1015 72 10000 2.6 180 22:56 21.10.2019
5755 Clouds 15 1015 72 10000 2.6 180 22:37 21.10.2019
5756 Clouds 15 1015 72 10000 2.6 180 22:19 21.10.2019
5757 Clouds 15 1016 77 10000 3.1 170 21:41 21.10.2019
5758 Clouds 15 1016 77 10000 3.1 170 21:23 21.10.2019
5759 Clouds 15 1016 76 10000 2.6 190 20:59 21.10.2019
5760 Clouds 15 1016 76 10000 2.6 190 20:41 21.10.2019
5761 Clouds 15 1016 76 10000 2.6 190 20:21 21.10.2019
5762 Clouds 15 1016 77 10000 4.1 160 19:59 21.10.2019
5763 Clouds 15 1016 77 10000 4.1 160 19:40 21.10.2019
5764 Clouds 15 1016 77 10000 4.1 160 19:22 21.10.2019
5765 Clouds 15 1016 77 10000 3.1 160 18:56 21.10.2019
5766 Clouds 15 1016 77 10000 3.1 160 18:37 21.10.2019
5767 Clouds 14 1016 77 10000 3.1 160 18:19 21.10.2019
5768 Clouds 15 1017 67 10000 1.5 90 17:57 21.10.2019
5769 Clouds 15 1017 67 10000 1.5 90 17:38 21.10.2019
5770 Clouds 15 1017 67 10000 1.5 90 17:18 21.10.2019
5771 Clouds 14 1017 76 10000 1.5 160 16:56 21.10.2019
5772 Clouds 14 1017 76 10000 1.5 160 16:38 21.10.2019
5773 Clouds 14 1017 76 10000 1.5 160 16:20 21.10.2019
5774 Clouds 14 1017 82 10000 1.5 110 15:47 21.10.2019
5775 Clouds 14 1017 82 10000 1.5 110 15:25 21.10.2019
5776 Clouds 14 1017 93 10000 2.1 100 14:58 21.10.2019
5777 Clouds 14 1017 93 10000 2.1 100 14:39 21.10.2019
5778 Clouds 14 1017 87 10000 2.6 90 14:20 21.10.2019
5779 Clouds 13 1017 93 10000 2.1 90 13:57 21.10.2019
5780 Rain 13 1017 100 3000 2.1 100 13:38 21.10.2019
5781 Rain 13 1017 100 3000 2.1 100 13:19 21.10.2019
5782 Rain 13 1018 93 3000 1.5 110 12:42 21.10.2019
5783 Rain 13 1018 93 3000 1.5 110 12:22 21.10.2019
5784 Rain 12 1017 93 7000 3.84 40.702 11:57 21.10.2019
5785 Rain 13 1017 93 7000 3.84 40.702 11:39 21.10.2019
5786 Rain 13 1017 93 7000 3.84 40.702 11:20 21.10.2019
5787 Rain 13 1017 93 7000 3.84 40.702 11:20 21.10.2019
5788 Rain 13 1017 93 10000 3.84 40.702 10:57 21.10.2019
5789 Rain 13 1017 93 10000 3.84 40.702 10:38 21.10.2019
5790 Rain 13 1017 93 10000 3.84 40.702 10:19 21.10.2019
5791 Rain 13 1018 87 10000 3.84 40.702 09:46 21.10.2019
5792 Rain 13 1018 87 10000 3.84 40.702 09:26 21.10.2019
5793 Rain 13 1017 82 10000 2.6 110 08:57 21.10.2019
5794 Rain 13 1017 82 10000 2.6 110 08:37 21.10.2019
5795 Rain 13 1017 82 10000 2.6 110 08:19 21.10.2019
5796 Rain 14 1018 82 10000 2.6 110 07:39 21.10.2019
5797 Rain 14 1018 82 10000 2.6 110 07:21 21.10.2019
5798 Clear 14 1018 76 10000 3.6 120 06:56 21.10.2019
5799 Clear 14 1018 76 10000 3.6 120 06:36 21.10.2019
5800 Clear 14 1018 76 10000 3.6 120 06:36 21.10.2019
5801 Clouds 14 1018 76 10000 4.1 110 05:56 21.10.2019
5802 Clouds 14 1018 76 10000 4.1 110 04:46 21.10.2019
5803 Clouds 14 1019 76 10000 3.6 110 03:38 21.10.2019
5804 Clouds 14 1019 76 10000 4.1 100 02:25 21.10.2019
5805 Clouds 14 1019 76 10000 4.6 110 01:59 21.10.2019
5806 Mist 14 1019 76 10000 4.6 110 01:23 21.10.2019
5807 Mist 14 1019 82 5000 4.1 120 00:50 21.10.2019
5808 Mist 14 1019 82 5000 4.1 120 00:27 21.10.2019
5809 Mist 15 1019 82 5000 5.1 110 23:43 20.10.2019
5810 Mist 14 1019 82 5000 5.1 110 23:22 20.10.2019
5811 Clouds 14 1019 82 10000 5.1 110 22:57 20.10.2019
5812 Clouds 14 1019 82 10000 5.1 110 22:39 20.10.2019
5813 Clouds 15 1019 82 10000 5.1 110 22:19 20.10.2019
5814 Clouds 15 1019 76 10000 6.2 120 21:59 20.10.2019
5815 Clouds 15 1019 76 10000 6.2 120 21:39 20.10.2019
5816 Clouds 15 1019 76 10000 6.2 120 21:21 20.10.2019
5817 Clouds 15 1021 77 10000 2.6 150 20:42 20.10.2019
5818 Clouds 15 1021 77 10000 2.6 150 20:20 20.10.2019
5819 Clouds 15 1021 72 10000 4.1 150 19:57 20.10.2019
5820 Clouds 15 1021 72 10000 4.1 150 19:39 20.10.2019
5821 Clouds 15 1021 72 10000 4.1 150 19:39 20.10.2019
5822 Clouds 16 1021 72 10000 4.1 150 19:20 20.10.2019
5823 Clouds 16 1021 72 10000 4.6 150 18:58 20.10.2019
5824 Clouds 15 1021 72 10000 4.6 150 18:40 20.10.2019
5825 Clouds 15 1021 72 10000 4.6 150 18:20 20.10.2019
5826 Clouds 15 1021 67 10000 4.1 120 17:56 20.10.2019
5827 Clouds 15 1021 67 10000 4.1 120 17:37 20.10.2019
5828 Clouds 15 1021 67 10000 4.1 120 17:18 20.10.2019
5829 Clouds 14 1021 67 10000 4.1 100 16:42 20.10.2019
5830 Clouds 14 1021 67 10000 4.1 100 16:23 20.10.2019
5831 Clouds 14 1022 66 10000 4.1 120 15:58 20.10.2019
5832 Clouds 14 1022 66 10000 4.1 120 15:38 20.10.2019
5833 Clouds 14 1022 66 10000 4.1 120 15:20 20.10.2019
5834 Clouds 13 1022 87 10000 3.1 80 14:57 20.10.2019
5835 Clouds 13 1022 87 10000 3.1 80 14:37 20.10.2019
5836 Clouds 12 1022 87 10000 3.1 80 14:19 20.10.2019
5837 Clouds 11 1022 87 10000 3.6 80 13:55 20.10.2019
5838 Clouds 11 1022 87 10000 3.6 80 13:36 20.10.2019
5839 Clouds 11 1022 87 10000 3.6 80 13:18 20.10.2019
5840 Clear 10 1022 93 10000 2.1 120 12:56 20.10.2019
5841 Clear 10 1022 93 10000 2.1 120 12:37 20.10.2019
5842 Clear 10 1022 93 10000 2.1 120 12:19 20.10.2019
5843 Fog 10 1021 93 10000 5.72 78.78 11:54 20.10.2019
5844 Clouds 10 1021 87 3000 5.72 78.78 11:36 20.10.2019
5845 Clouds 8 1021 87 3000 5.72 78.78 11:18 20.10.2019
5846 Clouds 8 1021 87 1000 1.5 360 10:40 20.10.2019
5847 Clouds 8 1021 87 1000 1.5 360 10:22 20.10.2019
5848 Mist 8 1021 93 2000 5.72 78.78 09:57 20.10.2019
5849 Mist 9 1021 93 2000 5.72 78.78 09:39 20.10.2019
5850 Mist 9 1021 93 2000 6.14 94.11 09:20 20.10.2019
5851 Mist 10 1021 93 4000 1 40 08:45 20.10.2019
5852 Mist 10 1021 93 4000 1 40 08:22 20.10.2019
5853 Clouds 11 1021 87 10000 3.1 110 07:50 20.10.2019
5854 Clouds 11 1021 87 10000 3.1 110 07:30 20.10.2019
5855 Clouds 11 1021 87 10000 3.1 110 07:30 20.10.2019
5856 Clouds 10 1022 87 10000 2.1 110 06:34 20.10.2019
5857 Clouds 11 1022 87 10000 3.1 120 05:58 20.10.2019
5858 Clear 12 1023 81 10000 2.1 130 04:25 20.10.2019
5859 Clear 12 1023 81 10000 2.1 130 03:41 20.10.2019
5860 Clear 12 1023 81 10000 2.1 130 03:20 20.10.2019
5861 Clouds 12 1023 76 10000 2.6 120 02:36 20.10.2019
5862 Clear 13 1023 82 10000 4.6 140 01:58 20.10.2019
5863 Clear 13 1023 82 10000 4.6 140 01:23 20.10.2019
5864 Clear 13 1023 71 10000 3.6 120 00:55 20.10.2019
5865 Clear 14 1023 71 10000 3.6 120 00:22 20.10.2019
5866 Clear 15 1023 67 10000 5.1 170 23:59 19.10.2019
5867 Clear 15 1023 67 10000 5.1 170 23:41 19.10.2019
5868 Clear 15 1023 67 10000 5.1 170 23:22 19.10.2019
5869 Clear 16 1023 67 10000 5.1 170 22:56 19.10.2019
5870 Clear 16 1023 67 10000 5.1 170 22:37 19.10.2019
5871 Clear 16 1023 67 10000 5.1 170 22:18 19.10.2019
5872 Clear 16 1023 67 10000 2.6 170 21:45 19.10.2019
5873 Clear 17 1023 67 10000 2.6 170 21:22 19.10.2019
5874 Clear 17 1023 67 10000 3.6 170 20:45 19.10.2019
5875 Clear 17 1023 67 10000 3.6 170 20:45 19.10.2019
5876 Clear 17 1023 67 10000 3.6 170 20:22 19.10.2019
5877 Clear 17 1024 68 10000 3.1 170 19:57 19.10.2019
5878 Clear 17 1024 68 10000 3.1 170 19:39 19.10.2019
5879 Clear 17 1024 68 10000 3.1 170 19:20 19.10.2019
5880 Clear 17 1024 63 10000 4.6 220 18:42 19.10.2019
5881 Clear 18 1024 63 10000 4.6 220 18:23 19.10.2019
5882 Clouds 18 1025 68 10000 2.1 270 17:55 19.10.2019
5883 Clouds 18 1025 68 10000 2.1 270 17:36 19.10.2019
5884 Clouds 18 1025 68 10000 2.1 270 17:18 19.10.2019
5885 Clouds 18 1025 67 10000 4.6 210 16:39 19.10.2019
5886 Clouds 18 1025 67 10000 4.6 210 16:20 19.10.2019
5887 Clear 18 1024 67 10000 2.1 210 15:44 19.10.2019
5888 Clear 17 1024 67 10000 2.1 210 15:26 19.10.2019
5889 Clear 17 1024 77 10000 4.1 270 14:56 19.10.2019
5890 Clear 16 1024 77 10000 4.1 270 14:38 19.10.2019
5891 Clear 16 1024 77 10000 4.1 270 14:19 19.10.2019
5892 Clear 15 1024 82 10000 5.81 208.873 13:54 19.10.2019
5893 Clear 14 1024 82 10000 5.81 208.873 13:36 19.10.2019
5894 Clear 14 1024 82 10000 5.75 200.595 13:18 19.10.2019
5895 Mist 11 1022 93 10000 5.75 200.595 12:39 19.10.2019
5896 Mist 11 1022 93 10000 5.49 197.772 12:21 19.10.2019
5897 Mist 13 1023 93 5000 2.6 340 11:56 19.10.2019
5898 Fog 11 1023 100 3000 1.5 330 11:37 19.10.2019
5899 Fog 12 1023 100 1000 2.1 320 11:18 19.10.2019
5900 Fog 11 1022 93 10000 5.49 197.772 10:41 19.10.2019
5901 Fog 11 1022 93 10000 5.49 197.772 10:23 19.10.2019
5902 Clear 12 1022 87 10000 5.49 197.772 09:58 19.10.2019
5903 Clear 12 1022 87 10000 5.49 197.772 09:39 19.10.2019
5904 Clear 12 1022 87 10000 5.27 206.2 09:21 19.10.2019
5905 Clouds 13 1022 93 10000 1.5 200 08:41 19.10.2019
5906 Clouds 13 1022 93 10000 1.5 200 08:23 19.10.2019
5907 Clear 13 1021 93 10000 5.98 204.834 07:59 19.10.2019
5908 Clear 13 1021 93 10000 5.98 204.834 07:41 19.10.2019
5909 Clear 13 1021 93 10000 5.98 204.834 07:23 19.10.2019
5910 Clear 14 1021 82 10000 5.98 204.834 06:35 19.10.2019
5911 Clear 15 1022 82 10000 2.6 190 05:51 19.10.2019
5912 Clear 15 1021 82 10000 1.5 280 04:26 19.10.2019
5913 Clear 15 1021 82 10000 1.5 280 04:26 19.10.2019
5914 Clear 16 1021 71 10000 1.5 310 03:18 19.10.2019
5915 Clear 15 1020 62 10000 2.1 270 02:20 19.10.2019
5916 Clear 16 1019 63 10000 2.6 250 01:48 19.10.2019
5917 Clear 17 1019 67 10000 3.6 210 00:52 19.10.2019
5918 Clear 17 1019 67 10000 3.6 210 00:29 19.10.2019
5919 Clear 18 1018 59 10000 5.1 210 23:57 18.10.2019
5920 Clear 18 1018 59 10000 5.1 210 23:38 18.10.2019
5921 Clear 18 1018 59 10000 5.1 210 23:20 18.10.2019
5922 Clear 19 1018 52 10000 7.7 210 22:54 18.10.2019
5923 Clear 19 1018 52 10000 7.7 210 22:36 18.10.2019
5924 Clear 19 1018 52 10000 7.7 210 22:18 18.10.2019
5925 Clear 19 1018 52 10000 7.7 210 22:18 18.10.2019
5926 Clear 19 1018 52 10000 6.7 230 21:55 18.10.2019
5927 Clear 19 1018 52 10000 6.7 230 21:36 18.10.2019
5928 Clear 19 1018 52 10000 6.7 230 21:36 18.10.2019
5929 Clear 19 1018 52 10000 6.7 230 21:18 18.10.2019
5930 Clear 19 1017 55 10000 7.7 220 20:42 18.10.2019
5931 Clear 19 1017 55 10000 7.7 220 20:22 18.10.2019
5932 Clear 19 1017 55 10000 7.7 220 20:22 18.10.2019
5933 Clear 20 1017 56 10000 9.3 240 19:58 18.10.2019
5934 Clear 20 1017 56 10000 9.3 240 19:40 18.10.2019
5935 Clear 20 1017 56 10000 9.3 240 19:22 18.10.2019
5936 Clouds 20 1017 56 10000 7.7 240 18:58 18.10.2019
5937 Clouds 20 1017 56 10000 7.7 240 18:40 18.10.2019
5938 Clouds 19 1017 56 10000 7.7 240 18:22 18.10.2019
5939 Clouds 19 1017 63 10000 7.2 250 17:55 18.10.2019
5940 Clouds 19 1017 63 10000 7.2 250 17:36 18.10.2019
5941 Clouds 19 1017 63 10000 7.2 250 17:18 18.10.2019
5942 Clouds 18 1017 72 10000 6.7 260 16:39 18.10.2019
5943 Clouds 18 1017 72 10000 6.7 260 16:20 18.10.2019
5944 Clouds 18 1017 68 10000 7.7 250 15:57 18.10.2019
5945 Clouds 18 1017 68 10000 7.7 250 15:38 18.10.2019
5946 Clouds 18 1017 68 10000 7.7 250 15:19 18.10.2019
5947 Clear 18 1016 77 10000 6.2 240 14:56 18.10.2019
5948 Clear 17 1016 77 10000 6.2 240 14:38 18.10.2019
5949 Clear 17 1016 77 10000 6.2 240 14:19 18.10.2019
5950 -273 0 0 0 0 0 13:55 18.10.2019
5951 Clear 16 1016 87 10000 4.6 240 13:36 18.10.2019
5952 Clear 16 1016 87 10000 4.6 240 13:18 18.10.2019
5953 -273 0 0 0 0 0 12:54 18.10.2019
5954 Clouds 15 1016 93 10000 4.1 250 12:36 18.10.2019
5955 Clouds 15 1016 93 10000 4.1 250 12:18 18.10.2019
5956 Clouds 15 1014 100 10000 3.6 260 11:41 18.10.2019
5957 Clouds 14 1014 100 10000 3.6 260 11:20 18.10.2019
5958 Clouds 15 1014 93 10000 2.6 280 10:57 18.10.2019
5959 Clouds 15 1014 93 10000 2.6 280 10:39 18.10.2019
5960 Clouds 15 1014 93 10000 2.6 280 10:19 18.10.2019
5961 Clouds 15 1013 100 10000 3.1 250 09:57 18.10.2019
5962 Clouds 15 1013 100 10000 3.1 250 09:39 18.10.2019
5963 Clouds 15 1013 100 10000 3.1 250 09:18 18.10.2019
5964 Clouds 16 1013 100 10000 4.1 260 08:43 18.10.2019
5965 Clouds 16 1013 100 10000 4.1 260 08:24 18.10.2019
5966 Rain 16 1013 100 2500 1.5 290 07:51 18.10.2019
5967 Rain 16 1013 100 8000 7.51 255.1 07:30 18.10.2019
5968 Drizzle 17 1013 100 3000 7.51 255.1 06:48 18.10.2019
5969 Drizzle 17 1013 100 4000 7.51 255.1 06:30 18.10.2019
5970 Clouds 17 1013 100 10000 6.66 330.497 05:59 18.10.2019
5971 Clouds 17 1013 100 10000 6.66 330.497 05:24 18.10.2019
5972 Clouds 17 1013 100 10000 1.5 60 04:56 18.10.2019
5973 Clouds 16 1013 100 10000 6.66 330.497 03:35 18.10.2019
5974 Clouds 17 1013 100 10000 3.1 90 02:51 18.10.2019
5975 Clouds 17 1013 100 10000 3.1 90 02:32 18.10.2019
5976 Drizzle 16 1013 93 10000 3.6 100 01:39 18.10.2019
5977 Drizzle 17 1013 93 10000 3.6 100 01:18 18.10.2019
5978 Clear 17 1013 93 10000 3.6 70 00:40 18.10.2019
5979 Clear 16 1013 93 10000 3.6 70 00:19 18.10.2019
5980 Clear 16 1013 93 10000 3.6 70 00:19 18.10.2019
5981 Drizzle 17 1013 93 7000 3.1 110 23:38 17.10.2019
5982 Drizzle 17 1013 93 7000 3.1 110 23:20 17.10.2019
5983 Rain 17 1013 93 8000 3.6 60 22:56 17.10.2019
5984 -273 0 0 0 0 0 22:56 17.10.2019
5985 Rain 17 1013 93 8000 3.6 60 22:38 17.10.2019
5986 Rain 17 1013 93 8000 3.6 60 22:19 17.10.2019
5987 Rain 17 1013 88 8000 4.6 70 21:56 17.10.2019
5988 Rain 17 1013 88 8000 4.6 70 21:38 17.10.2019
5989 Rain 17 1013 88 8000 4.6 70 21:20 17.10.2019
5990 Rain 16 1014 93 10000 3.1 80 20:57 17.10.2019
5991 Rain 16 1014 93 10000 3.1 80 20:38 17.10.2019
5992 Rain 16 1014 93 10000 3.1 80 20:19 17.10.2019
5993 Rain 17 1015 88 10000 5.1 60 19:56 17.10.2019
5994 Rain 16 1015 88 10000 5.1 60 19:37 17.10.2019
5995 Rain 16 1015 88 10000 5.1 60 19:18 17.10.2019
5996 Drizzle 17 1014 88 4000 5.1 80 18:42 17.10.2019
5997 Drizzle 17 1014 88 4000 5.1 80 18:42 17.10.2019
5998 Clouds 16 1015 88 10000 5.7 70 18:21 17.10.2019
5999 Clouds 16 1016 93 10000 5.1 80 17:55 17.10.2019
6000 Clouds 16 1016 93 10000 5.1 80 17:37 17.10.2019
6001 Clouds 16 1016 93 10000 5.1 80 17:19 17.10.2019
6002 Drizzle 16 1016 87 3500 5.7 80 16:55 17.10.2019
6003 Drizzle 16 1016 87 1500 5.1 80 16:36 17.10.2019
6004 Drizzle 16 1016 87 1500 5.1 80 16:18 17.10.2019
6005 Mist 16 1017 77 3000 3.1 100 15:41 17.10.2019
6006 Clouds 16 1017 77 3000 5.1 110 15:21 17.10.2019
6007 Clouds 17 1016 82 10000 6.2 70 14:59 17.10.2019
6008 Clouds 17 1016 82 10000 6.2 70 14:41 17.10.2019
6009 Clouds 17 1016 82 10000 6.2 70 14:23 17.10.2019
6010 Clouds 16 1017 87 10000 6.7 80 13:42 17.10.2019
6011 Clouds 16 1017 87 10000 6.7 80 13:21 17.10.2019
6012 Clouds 16 1018 82 10000 5.1 90 12:59 17.10.2019
6013 Clouds 16 1018 82 10000 5.1 90 12:40 17.10.2019
6014 Clouds 16 1018 82 10000 5.1 90 12:20 17.10.2019
6015 Clouds 16 1018 82 10000 5.1 100 11:57 17.10.2019
6016 Clouds 16 1018 82 10000 5.1 100 11:39 17.10.2019
6017 Clouds 16 1018 82 10000 5.1 100 11:18 17.10.2019
6018 Clouds 15 1018 87 10000 5.7 100 10:42 17.10.2019
6019 Clouds 16 1018 87 10000 5.7 100 10:21 17.10.2019
6020 Clouds 16 1018 87 10000 5.7 100 10:21 17.10.2019
6021 Clouds 16 1019 87 10000 4.6 110 09:59 17.10.2019
6022 Clouds 15 1019 87 10000 4.6 110 09:41 17.10.2019
6023 Clouds 15 1019 87 10000 4.6 110 09:41 17.10.2019
6024 Clouds 15 1019 87 10000 4.6 110 09:21 17.10.2019
6025 Clouds 15 1020 87 10000 4.6 100 08:58 17.10.2019
6026 Clouds 15 1020 87 10000 4.6 100 08:58 17.10.2019
6027 Clouds 16 1020 87 10000 4.6 100 08:39 17.10.2019
6028 Clouds 16 1020 87 10000 4.6 100 08:20 17.10.2019
6029 Clouds 15 1020 87 10000 4.1 110 07:54 17.10.2019
6030 Clouds 15 1020 87 10000 4.1 110 07:36 17.10.2019
6031 Clouds 15 1020 87 10000 4.1 110 07:18 17.10.2019
6032 Clouds 15 1021 87 10000 5.7 110 06:39 17.10.2019
6033 Clouds 15 1021 87 10000 5.7 110 06:20 17.10.2019
6034 Clouds 15 1021 82 10000 5.1 110 05:49 17.10.2019
6035 Clouds 15 1021 82 10000 5.1 110 05:30 17.10.2019
6036 Clouds 15 1021 87 10000 5.7 110 04:51 17.10.2019
6037 Clouds 15 1022 82 10000 6.2 110 03:54 17.10.2019
6038 Clouds 16 1022 87 10000 6.2 110 02:36 17.10.2019
6039 Clouds 16 1021 87 10000 5.7 100 00:56 17.10.2019
6040 Clouds 16 1021 87 10000 5.7 100 00:38 17.10.2019
6041 Clouds 16 1021 87 10000 5.7 100 00:18 17.10.2019
6042 Clouds 16 1021 82 10000 5.7 100 23:42 16.10.2019
6043 Clouds 16 1021 82 10000 5.7 100 23:21 16.10.2019
6044 Clouds 16 1021 82 10000 5.7 100 23:21 16.10.2019
6045 Clouds 16 1021 77 10000 6.2 100 22:55 16.10.2019
6046 Clouds 16 1021 77 10000 6.2 100 22:36 16.10.2019
6047 Clouds 16 1021 77 10000 6.2 100 22:36 16.10.2019
6048 Clouds 16 1021 77 10000 6.2 100 22:18 16.10.2019
6049 Clouds 17 1021 77 10000 6.2 100 21:56 16.10.2019
6050 Clouds 17 1021 77 10000 6.2 100 21:37 16.10.2019
6051 Clouds 17 1021 77 10000 6.2 100 21:18 16.10.2019
6052 Clouds 17 1022 72 10000 6.2 110 20:57 16.10.2019
6053 Clouds 17 1022 72 10000 6.2 110 20:38 16.10.2019
6054 Clouds 17 1022 72 10000 6.2 110 20:20 16.10.2019
6055 Clouds 18 1022 72 10000 6.2 100 19:57 16.10.2019
6056 Clouds 18 1022 72 10000 6.2 100 19:38 16.10.2019
6057 Clouds 18 1022 72 10000 6.2 100 19:20 16.10.2019
6058 -273 0 0 0 0 0 18:39 16.10.2019
6059 Clouds 17 1023 72 10000 7.2 120 18:39 16.10.2019
6060 Clouds 17 1023 72 10000 7.2 120 18:19 16.10.2019
6061 Clouds 17 1023 68 10000 6.7 90 17:58 16.10.2019
6062 Clouds 17 1023 68 10000 6.7 90 17:39 16.10.2019
6063 Clouds 17 1023 68 10000 6.7 90 17:21 16.10.2019
6064 Clouds 16 1024 77 10000 5.1 100 16:59 16.10.2019
6065 Clouds 16 1024 77 10000 5.1 100 16:41 16.10.2019
6066 Clouds 16 1024 77 10000 5.1 100 16:41 16.10.2019
6067 Clouds 16 1024 77 10000 5.1 100 16:20 16.10.2019
6068 Clouds 16 1024 77 10000 5.7 90 15:56 16.10.2019
6069 Clouds 16 1024 77 10000 5.7 90 15:56 16.10.2019
6070 Rain 17 1014 72 0 0.89 116 15:37 16.10.2019
6071 Clouds 16 1025 82 10000 7.2 100 15:18 16.10.2019
6072 Clouds 16 1025 82 10000 7.2 100 14:56 16.10.2019
6073 Clouds 16 1025 82 10000 7.2 100 14:38 16.10.2019
6074 Clouds 16 1025 82 10000 7.2 100 14:18 16.10.2019
6075 Clouds 15 1025 87 10000 8.2 100 13:56 16.10.2019
6076 Clouds 15 1025 87 10000 8.2 100 13:56 16.10.2019
6077 Clouds 15 1025 87 10000 8.2 100 13:56 16.10.2019
6078 Clouds 14 1025 87 10000 8.2 100 13:37 16.10.2019
6079 Clouds 15 1025 87 10000 8.2 100 13:18 16.10.2019
6080 Clouds 14 1025 93 10000 6.2 110 12:41 16.10.2019
6081 Clouds 14 1025 93 10000 6.2 110 12:19 16.10.2019
6082 Drizzle 14 1025 82 10000 6.2 110 11:43 16.10.2019
6083 Drizzle 14 1025 82 10000 6.2 110 11:18 16.10.2019
6084 Drizzle 13 1025 82 10000 7.2 120 10:41 16.10.2019
6085 Drizzle 13 1025 82 10000 7.2 120 10:22 16.10.2019
6086 Drizzle 13 1025 82 10000 5.1 130 09:58 16.10.2019
6087 Drizzle 13 1025 82 10000 5.1 130 09:38 16.10.2019
6088 Drizzle 13 1025 82 10000 5.1 130 09:20 16.10.2019
6089 Drizzle 13 1026 82 10000 4.1 140 08:43 16.10.2019
6090 Drizzle 13 1026 82 10000 4.1 140 08:25 16.10.2019
6091 Drizzle 13 1026 82 10000 4.1 100 07:56 16.10.2019
6092 Drizzle 13 1026 82 10000 4.1 100 07:56 16.10.2019
6093 Drizzle 13 1026 82 10000 4.1 100 07:38 16.10.2019
6094 Drizzle 13 1026 82 10000 4.1 100 07:19 16.10.2019
6095 Drizzle 13 1026 76 10000 6.7 100 06:40 16.10.2019
6096 Drizzle 13 1026 76 10000 6.7 100 06:19 16.10.2019
6097 Drizzle 13 1028 76 10000 6.7 110 03:33 16.10.2019
6098 Drizzle 13 1028 76 10000 6.7 120 02:50 16.10.2019
6099 Rain 13 1027 76 10000 8.2 110 01:20 16.10.2019
6100 -273 0 0 0 0 0 00:54 16.10.2019
6101 Drizzle 13 1027 81 6000 6.2 90 00:35 16.10.2019
6102 Rain 12 1027 81 6000 6.2 90 23:42 15.10.2019
6103 Rain 12 1027 81 6000 6.2 90 23:22 15.10.2019
6104 Rain 13 1027 76 4000 7.7 90 22:57 15.10.2019
6105 Rain 13 1027 82 3000 8.2 120 22:38 15.10.2019
6106 Drizzle 13 1027 76 8000 7.7 100 22:20 15.10.2019
6107 Drizzle 13 1028 76 10000 6.2 110 21:57 15.10.2019
6108 Drizzle 13 1028 76 10000 6.2 110 21:38 15.10.2019
6109 Drizzle 13 1028 76 10000 6.2 110 21:20 15.10.2019
6110 Clouds 13 1028 76 10000 6.7 110 20:58 15.10.2019
6111 Clouds 13 1028 76 10000 6.7 110 20:39 15.10.2019
6112 Clouds 13 1028 76 10000 6.7 110 20:21 15.10.2019
6113 Clouds 14 1029 76 10000 6.7 110 19:59 15.10.2019
6114 Clouds 14 1029 76 10000 6.7 110 19:40 15.10.2019
6115 Clouds 14 1029 76 10000 6.7 110 19:20 15.10.2019
6116 -273 0 0 0 0 0 18:55 15.10.2019
6117 Clouds 13 1029 76 10000 6.2 100 18:36 15.10.2019
6118 Clouds 13 1029 76 10000 6.2 100 18:18 15.10.2019
6119 Clouds 13 1029 87 10000 5.7 110 17:41 15.10.2019
6120 Clouds 13 1029 87 10000 5.7 110 17:41 15.10.2019
6121 Clouds 13 1029 87 10000 5.7 110 17:20 15.10.2019
6122 Clouds 13 1029 87 10000 5.7 110 17:20 15.10.2019
6123 Drizzle 13 1030 71 8000 5.7 110 16:58 15.10.2019
6124 Drizzle 13 1030 71 8000 5.7 110 16:39 15.10.2019
6125 Clouds 13 1030 71 10000 6.2 120 16:20 15.10.2019
6126 Clouds 13 1030 71 10000 5.1 120 15:55 15.10.2019
6127 Clouds 13 1030 71 10000 5.1 120 15:55 15.10.2019
6128 Clouds 13 1030 71 10000 5.1 120 15:36 15.10.2019
6129 Clouds 13 1030 71 10000 5.1 120 15:18 15.10.2019
6130 Rain 13 1031 71 10000 5.1 120 14:38 15.10.2019
6131 Rain 13 1031 71 10000 5.1 120 14:38 15.10.2019
6132 Rain 13 1031 71 10000 5.1 120 14:20 15.10.2019
6133 Clouds 13 1030 76 10000 4.1 120 13:58 15.10.2019
6134 Clouds 13 1030 76 10000 4.1 120 13:40 15.10.2019
6135 Clouds 13 1030 76 10000 4.1 120 13:19 15.10.2019
6136 Clouds 12 1030 71 10000 3.1 130 12:44 15.10.2019
6137 Clouds 12 1030 71 10000 3.1 130 12:22 15.10.2019
6138 Clouds 12 1030 66 10000 4.1 130 11:57 15.10.2019
6139 Clouds 12 1030 66 10000 4.1 130 11:38 15.10.2019
6140 Clouds 12 1030 66 10000 4.1 130 11:19 15.10.2019
6141 Clouds 11 1030 62 10000 5.1 110 10:45 15.10.2019
6142 Clouds 11 1030 62 10000 5.1 110 10:22 15.10.2019
6143 Clouds 11 1030 62 10000 5.1 110 09:59 15.10.2019
6144 Clouds 11 1030 62 10000 5.1 120 09:40 15.10.2019
6145 Clouds 11 1030 62 10000 5.1 120 09:20 15.10.2019
6146 -273 0 0 0 0 0 08:57 15.10.2019
6147 Clouds 11 1030 62 10000 4.6 110 08:57 15.10.2019
6148 Clouds 11 1030 62 10000 4.6 110 08:37 15.10.2019
6149 Clouds 11 1030 62 10000 4.6 110 08:18 15.10.2019
6150 Clouds 11 1030 62 10000 4.6 110 08:18 15.10.2019
6151 Clouds 11 1030 62 10000 6.7 120 07:43 15.10.2019
6152 Clouds 11 1030 62 10000 6.7 120 07:21 15.10.2019
6153 -273 0 0 0 0 0 06:55 15.10.2019
6154 Clouds 11 1031 66 10000 6.2 120 06:37 15.10.2019
6155 Clouds 11 1031 71 10000 6.2 130 05:56 15.10.2019
6156 Clouds 11 1031 71 10000 6.2 130 05:36 15.10.2019
6157 Clouds 11 1031 71 10000 7.2 130 04:40 15.10.2019
6158 Clouds 11 1031 76 10000 6.7 140 03:59 15.10.2019
6159 Clouds 10 1031 76 10000 6.7 140 03:34 15.10.2019
6160 Clouds 10 1030 66 10000 6.7 130 01:51 15.10.2019
6161 Clouds 10 1030 66 10000 6.7 130 01:26 15.10.2019
6162 Clouds 9 1029 66 10000 7.2 140 00:59 15.10.2019
6163 Clouds 9 1029 66 10000 7.2 140 00:24 15.10.2019
6164 Clouds 9 1029 66 10000 8.2 130 23:57 14.10.2019
6165 Clouds 9 1029 66 10000 8.2 130 23:37 14.10.2019
6166 Clouds 10 1029 66 10000 8.2 130 23:18 14.10.2019
6167 Clouds 10 1029 61 10000 8.2 130 22:39 14.10.2019
6168 Clouds 10 1029 61 10000 8.2 130 22:20 14.10.2019
6169 Clouds 10 1029 61 10000 7.7 130 21:57 14.10.2019
6170 Clouds 10 1029 61 10000 7.7 130 21:39 14.10.2019
6171 Clouds 10 1029 61 10000 7.7 130 21:20 14.10.2019
6172 Clouds 11 1029 57 10000 8.7 140 20:57 14.10.2019
6173 -273 0 0 0 0 0 20:57 14.10.2019
6174 Clouds 11 1029 57 10000 8.7 140 20:38 14.10.2019
6175 Clouds 11 1029 57 10000 8.7 140 20:38 14.10.2019
6176 Clouds 11 1029 57 10000 8.7 140 20:18 14.10.2019
6177 Clouds 11 1029 57 10000 9.3 140 19:43 14.10.2019
6178 Clouds 11 1029 57 10000 9.3 140 19:25 14.10.2019
6179 Clouds 11 1030 57 10000 10.3 140 18:59 14.10.2019
6180 Clouds 11 1030 57 10000 10.3 140 18:59 14.10.2019
6181 Clouds 11 1030 57 10000 10.3 140 18:40 14.10.2019
6182 Clouds 11 1030 57 10000 10.3 140 18:20 14.10.2019
6183 Clouds 11 1030 57 10000 8.7 140 17:58 14.10.2019
6184 Clouds 11 1030 57 10000 8.7 140 17:40 14.10.2019
6185 Clouds 11 1030 57 10000 8.7 140 17:21 14.10.2019
6186 Clouds 11 1030 57 10000 8.7 140 17:21 14.10.2019
6187 Clouds 11 1030 57 10000 9.3 150 16:44 14.10.2019
6188 Clouds 11 1030 57 10000 9.3 150 16:22 14.10.2019
6189 Clouds 11 1030 57 10000 8.2 140 15:57 14.10.2019
6190 Clouds 11 1030 57 10000 8.2 140 15:38 14.10.2019
6191 Clouds 11 1030 57 10000 8.2 140 15:20 14.10.2019
6192 Clouds 11 1030 61 10000 7.2 150 14:43 14.10.2019
6193 Clouds 11 1030 61 10000 7.2 150 14:24 14.10.2019
6194 Clouds 11 1029 66 10000 7.2 150 13:56 14.10.2019
6195 Clouds 11 1029 66 10000 7.2 150 13:37 14.10.2019
6196 Clouds 11 1029 66 10000 7.2 150 13:18 14.10.2019
6197 Clouds 10 1028 57 10000 6.7 150 12:40 14.10.2019
6198 Clouds 10 1028 57 10000 6.7 150 12:40 14.10.2019
6199 Clouds 11 1028 57 10000 6.7 150 12:19 14.10.2019
6200 Clouds 11 1028 57 10000 6.7 150 12:19 14.10.2019
6201 Clouds 11 1028 61 10000 6.2 150 11:46 14.10.2019
6202 Clouds 11 1028 61 10000 6.2 150 11:27 14.10.2019
6203 Clouds 11 1027 57 10000 5.7 160 10:58 14.10.2019
6204 Clouds 11 1027 57 10000 5.7 160 10:39 14.10.2019
6205 Clouds 11 1027 57 10000 5.7 160 10:20 14.10.2019
6206 Clouds 11 1027 53 10000 5.1 170 09:56 14.10.2019
6207 Clouds 11 1027 53 10000 5.1 170 09:37 14.10.2019
6208 Clouds 11 1027 53 10000 5.1 170 09:18 14.10.2019
6209 Clouds 11 1027 57 10000 4.6 160 08:44 14.10.2019
6210 Clouds 11 1027 57 10000 4.6 160 08:22 14.10.2019
6211 Clouds 11 1026 53 10000 5.7 150 07:42 14.10.2019
6212 Clouds 11 1026 53 10000 5.7 150 07:19 14.10.2019
6213 Clouds 11 1026 57 10000 7.2 150 06:53 14.10.2019
6214 Clouds 11 1026 57 10000 7.2 150 06:26 14.10.2019
6215 Clouds 11 1025 57 10000 8.7 150 05:49 14.10.2019
6216 Clouds 11 1025 57 10000 8.2 160 04:48 14.10.2019
6217 Clouds 11 1025 61 10000 8.2 150 03:28 14.10.2019
6218 Clouds 11 1024 62 10000 9.3 160 02:49 14.10.2019
6219 Clouds 11 1024 66 10000 8.2 160 01:24 14.10.2019
6220 Clouds 12 1022 71 10000 8.7 150 00:58 14.10.2019
6221 Clouds 12 1022 71 10000 8.7 150 00:21 14.10.2019
6222 Clouds 12 1022 62 10000 9.3 150 23:45 13.10.2019
6223 Clouds 13 1022 62 10000 9.3 150 23:21 13.10.2019
6224 Clouds 14 1020 67 10000 7.7 160 22:58 13.10.2019
6225 Clouds 14 1020 67 10000 7.7 160 22:58 13.10.2019
6226 Clouds 14 1020 67 10000 7.7 160 22:40 13.10.2019
6227 Clouds 14 1020 67 10000 7.7 160 22:21 13.10.2019
6228 Clouds 14 1020 67 10000 7.7 160 22:21 13.10.2019
6229 Clouds 14 1019 58 10000 9.3 150 21:58 13.10.2019
6230 Clouds 15 1019 58 10000 9.3 150 21:38 13.10.2019
6231 Clouds 15 1019 58 10000 9.3 150 21:19 13.10.2019
6232 Clouds 15 1018 62 10000 10.3 150 20:58 13.10.2019
6233 Clouds 15 1018 62 10000 10.3 150 20:39 13.10.2019
6234 Clouds 15 1018 62 10000 10.3 150 20:21 13.10.2019
6235 Clouds 15 1018 67 10000 7.7 160 19:59 13.10.2019
6236 Clouds 15 1018 67 10000 7.7 160 19:39 13.10.2019
6237 Clouds 15 1018 67 10000 7.7 160 19:21 13.10.2019
6238 Clouds 15 1016 82 10000 8.7 150 18:57 13.10.2019
6239 -273 0 0 0 0 0 18:56 13.10.2019
6240 Clouds 15 1016 82 10000 8.7 150 18:56 13.10.2019
6241 Clouds 15 1016 82 10000 8.7 150 18:36 13.10.2019
6242 Clouds 15 1016 82 10000 8.7 150 18:36 13.10.2019
6243 Clouds 16 1016 82 10000 8.7 150 18:18 13.10.2019
6244 Clouds 15 1016 87 10000 6.7 170 17:54 13.10.2019
6245 Clouds 15 1016 87 10000 6.7 170 17:36 13.10.2019
6246 Clouds 15 1016 87 10000 6.7 170 17:18 13.10.2019
6247 Mist 15 1016 93 1200 6.7 160 16:41 13.10.2019
6248 Mist 15 1016 93 1200 6.7 160 16:18 13.10.2019
6249 Clouds 16 1016 93 1200 5.7 170 15:56 13.10.2019
6250 Clouds 16 1016 93 1200 5.7 170 15:56 13.10.2019
6251 Clouds 16 1016 93 1200 5.7 170 15:56 13.10.2019
6252 Clouds 16 1016 93 1200 5.7 170 15:37 13.10.2019
6253 Clouds 16 1016 93 1200 5.7 170 15:37 13.10.2019
6254 Clouds 16 1016 93 1200 5.7 170 15:18 13.10.2019
6255 Clouds 16 1016 93 1200 5.7 170 15:18 13.10.2019
6256 Mist 16 1014 100 1200 10.27 154.998 14:56 13.10.2019
6257 Mist 16 1014 100 1200 10.27 154.998 14:38 13.10.2019
6258 Mist 16 1014 100 1200 10.27 154.998 14:18 13.10.2019
6259 Fog 16 1012 100 500 3.1 180 13:41 13.10.2019
6260 Fog 16 1012 100 500 3.1 180 13:22 13.10.2019
6261 Fog 16 1012 100 500 11.47 150.095 12:59 13.10.2019
6262 Fog 16 1012 100 200 11.47 150.095 12:39 13.10.2019
6263 Fog 16 1012 100 200 5.74 164.787 12:20 13.10.2019
6264 Fog 15 1012 100 500 1.5 280 11:58 13.10.2019
6265 Fog 15 1012 100 500 1.5 280 11:39 13.10.2019
6266 Fog 15 1012 100 500 1.5 280 11:20 13.10.2019
6267 Fog 15 1010 100 700 5.74 164.787 10:56 13.10.2019
6268 Fog 15 1010 100 700 5.74 164.787 10:38 13.10.2019
6269 Fog 15 1010 100 700 5.74 164.787 10:19 13.10.2019
6270 Mist 15 1009 100 5000 5.74 164.787 09:39 13.10.2019
6271 Mist 15 1009 100 5000 6.49 148.347 09:21 13.10.2019
6272 Mist 15 1009 100 5000 1.5 240 08:43 13.10.2019
6273 -273 0 0 0 0 0 08:25 13.10.2019
6274 Clouds 16 1009 100 10000 1.5 80 07:51 13.10.2019
6275 Clouds 16 1009 100 10000 1.5 80 07:33 13.10.2019
6276 Clouds 16 1009 100 10000 1.5 190 06:53 13.10.2019
6277 Clouds 17 1009 100 10000 1.5 190 06:24 13.10.2019
6278 Clouds 17 1007 93 10000 3.6 190 05:21 13.10.2019
6279 Clouds 17 1008 93 10000 3.1 210 04:34 13.10.2019
6280 Clouds 17 1008 93 10000 3.1 210 04:34 13.10.2019
6281 Thunderstorm 18 1007 88 10000 1.5 320 03:24 13.10.2019
6282 Thunderstorm 18 1005 88 10000 7.4 101.696 02:30 13.10.2019
6283 Thunderstorm 18 1004 88 10000 3.6 40 01:37 13.10.2019
6284 Thunderstorm 18 1004 88 10000 5.1 30 00:56 13.10.2019
6285 Thunderstorm 18 1004 88 10000 5.1 30 00:56 13.10.2019
6286 Thunderstorm 18 1004 88 3000 2.6 70 00:38 13.10.2019
6287 Thunderstorm 18 1004 88 3000 2.6 70 00:19 13.10.2019
6288 Rain 18 1004 93 3000 4.6 60 23:42 12.10.2019
6289 Rain 18 1004 93 3000 4.6 60 23:23 12.10.2019
6290 Rain 18 1004 100 10000 4.1 90 22:59 12.10.2019
6291 Rain 18 1004 100 10000 4.1 90 22:40 12.10.2019
6292 Rain 18 1007 93 2500 4.1 90 22:22 12.10.2019
6293 Thunderstorm 17 1006 93 6000 4.1 80 21:58 12.10.2019
6294 Thunderstorm 17 1006 93 6000 4.1 80 21:58 12.10.2019
6295 Thunderstorm 17 1006 93 6000 4.1 80 21:39 12.10.2019
6296 Thunderstorm 17 1006 93 2000 2.6 150 21:21 12.10.2019
6297 Rain 18 1007 88 10000 3.6 160 20:54 12.10.2019
6298 Rain 17 1005 100 3500 7.2 60 20:36 12.10.2019
6299 Rain 17 1005 100 3500 7.2 60 20:18 12.10.2019
6300 Rain 17 1008 100 1500 5.7 360 19:36 12.10.2019
6301 Thunderstorm 17 1008 100 1500 5.7 360 19:18 12.10.2019
6302 Thunderstorm 17 1010 88 2500 4.6 220 18:42 12.10.2019
6303 Thunderstorm 17 1010 88 2500 4.6 220 18:24 12.10.2019
6304 Rain 17 1006 100 3500 7.7 60 17:46 12.10.2019
6305 Rain 17 1006 100 3500 7.7 60 17:21 12.10.2019
6306 Clouds 17 1003 93 10000 16.5 80 16:59 12.10.2019
6307 Clouds 17 1003 93 10000 16.5 80 16:40 12.10.2019
6308 Thunderstorm 17 1010 100 2000 8.2 90 16:20 12.10.2019
6309 Thunderstorm 17 1009 100 6000 7.7 90 15:56 12.10.2019
6310 Thunderstorm 17 1009 100 6000 7.7 90 15:37 12.10.2019
6311 Thunderstorm 17 1009 100 6000 7.7 90 15:18 12.10.2019
6312 Thunderstorm 17 1011 100 1500 6.7 90 14:39 12.10.2019
6313 Thunderstorm 17 1011 100 1500 6.7 90 14:20 12.10.2019
6314 Thunderstorm 17 1011 100 1500 6.7 90 14:20 12.10.2019
6315 Thunderstorm 16 1012 100 6000 4.1 110 13:50 12.10.2019
6316 Thunderstorm 16 1010 100 2500 5.7 150 13:32 12.10.2019
6317 Thunderstorm 16 1010 100 1500 5.7 150 12:55 12.10.2019
6318 Thunderstorm 16 1010 100 1500 5.7 150 12:37 12.10.2019
6319 Thunderstorm 16 1010 100 1500 5.7 150 12:19 12.10.2019
6320 Thunderstorm 17 1011 93 5000 5.1 120 11:43 12.10.2019
6321 Thunderstorm 17 1011 93 5000 5.1 120 11:43 12.10.2019
6322 Thunderstorm 16 1010 100 8000 5.1 90 11:23 12.10.2019
6323 Thunderstorm 16 1012 100 1500 5.1 180 10:58 12.10.2019
6324 Thunderstorm 17 1009 100 4000 4.6 130 10:39 12.10.2019
6325 Thunderstorm 17 1009 100 4000 4.6 130 10:20 12.10.2019
6326 Thunderstorm 17 1009 100 4000 4.6 130 10:20 12.10.2019
6327 Thunderstorm 17 1009 100 1500 6.2 180 09:57 12.10.2019
6328 Thunderstorm 17 1009 100 1500 6.2 180 09:57 12.10.2019
6329 Thunderstorm 17 1007 100 7000 6.2 80 09:37 12.10.2019
6330 Thunderstorm 17 1007 100 7000 6.2 80 09:19 12.10.2019
6331 Thunderstorm 17 1007 100 1500 3.6 140 08:44 12.10.2019
6332 Thunderstorm 17 1008 100 7000 3.6 140 08:23 12.10.2019
6333 Clouds 17 1010 100 10000 2.6 50 07:50 12.10.2019
6334 Clouds 17 1010 100 10000 2.6 50 07:30 12.10.2019
6335 Thunderstorm 17 1011 100 4000 5.1 100 06:27 12.10.2019
6336 Thunderstorm 17 1011 100 5000 5.1 100 05:42 12.10.2019
6337 Thunderstorm 18 1012 100 8000 1.5 140 04:34 12.10.2019
6338 Thunderstorm 18 1011 100 4000 2.1 150 03:53 12.10.2019
6339 Mist 18 1010 100 4000 2.1 110 02:45 12.10.2019
6340 Mist 18 1010 100 2500 2.1 150 01:32 12.10.2019
6341 Mist 18 1010 100 2500 2.1 150 01:32 12.10.2019
6342 Mist 18 1010 100 3000 1.5 140 00:55 12.10.2019
6343 Clouds 18 1009 100 3000 1.5 10 00:37 12.10.2019
6344 Thunderstorm 19 1009 88 10000 1.5 320 23:55 11.10.2019
6345 Thunderstorm 19 1009 88 10000 1.5 320 23:36 11.10.2019
6346 Thunderstorm 19 1009 88 10000 1.5 320 23:18 11.10.2019
6347 Rain 20 1008 94 10000 1.5 10 22:37 11.10.2019
6348 Rain 20 1008 94 10000 1.5 10 22:19 11.10.2019
6349 Thunderstorm 19 1008 100 10000 1 0 21:42 11.10.2019
6350 Thunderstorm 18 1008 100 10000 1 0 21:21 11.10.2019
6351 Thunderstorm 18 1008 100 9000 0.5 70 20:57 11.10.2019
6352 Thunderstorm 18 1008 100 5000 1.5 0 20:38 11.10.2019
6353 Thunderstorm 18 1008 100 5000 1.5 0 20:38 11.10.2019
6354 Thunderstorm 18 1008 100 5000 1.5 0 20:19 11.10.2019
6355 Thunderstorm 18 1009 100 5000 1 360 19:55 11.10.2019
6356 Rain 18 1009 93 4000 1.5 250 19:36 11.10.2019
6357 Rain 18 1009 93 4000 1.5 250 19:18 11.10.2019
6358 Rain 18 1009 93 4000 1.5 250 19:18 11.10.2019
6359 Rain 18 1009 93 4000 1.5 250 19:18 11.10.2019
6360 Rain 18 1009 93 4000 1.5 250 19:18 11.10.2019
6361 -273 0 0 0 0 0 18:54 11.10.2019
6362 Rain 18 1008 93 10000 6.2 350 18:36 11.10.2019
6363 Rain 18 1008 93 10000 6.2 350 18:36 11.10.2019
6364 Rain 19 1008 93 10000 6.2 350 18:18 11.10.2019
6365 Rain 18 1009 93 6000 4.1 340 17:54 11.10.2019
6366 Rain 18 1009 93 6000 4.1 340 17:36 11.10.2019
6367 Rain 18 1009 93 6000 4.1 340 17:18 11.10.2019
6368 Rain 18 1009 93 6000 4.1 340 17:18 11.10.2019
6369 Rain 18 1010 93 5000 2.1 320 16:39 11.10.2019
6370 Clouds 18 1009 93 10000 4.1 360 16:19 11.10.2019
6371 Rain 17 1008 93 10000 5.1 10 15:58 11.10.2019
6372 Rain 17 1008 93 10000 5.1 10 15:38 11.10.2019
6373 Rain 17 1008 93 10000 5.1 10 15:18 11.10.2019
6374 Rain 17 1008 93 10000 6.2 350 14:44 11.10.2019
6375 Rain 17 1008 93 6000 7.7 20 14:25 11.10.2019
6376 Rain 20 1009 100 2500 3.6 40 13:47 11.10.2019
6377 Rain 20 1010 54 6000 4.6 140 13:27 11.10.2019
6378 Rain 20 1010 54 6000 4.6 140 12:59 11.10.2019
6379 Rain 20 1010 54 6000 4.6 140 12:41 11.10.2019
6380 Rain 17 1010 93 4000 2.6 140 12:22 11.10.2019
6381 Rain 17 1011 100 3000 7.7 220 11:59 11.10.2019
6382 Rain 17 1011 100 3000 7.7 220 11:39 11.10.2019
6383 Rain 17 1011 100 3000 7.7 220 11:21 11.10.2019
6384 Thunderstorm 17 1009 93 3000 7.2 180 10:56 11.10.2019
6385 Thunderstorm 17 1009 93 3000 7.2 180 10:38 11.10.2019
6386 Thunderstorm 18 1009 93 3000 7.2 180 10:19 11.10.2019
6387 Thunderstorm 19 1007 68 10000 7.7 200 09:43 11.10.2019
6388 Thunderstorm 20 1007 68 10000 7.7 200 09:22 11.10.2019
6389 Thunderstorm 20 1004 68 10000 3.1 20 08:59 11.10.2019
6390 Thunderstorm 22 1004 68 10000 3.1 20 08:39 11.10.2019
6391 Thunderstorm 22 1004 68 10000 3.1 20 08:21 11.10.2019
6392 Thunderstorm 22 1005 68 10000 3.6 20 07:58 11.10.2019
6393 Thunderstorm 22 1005 68 10000 3.6 20 07:39 11.10.2019
6394 Thunderstorm 21 1005 68 10000 3.6 20 07:20 11.10.2019
6395 Thunderstorm 22 1005 64 10000 4.6 10 06:43 11.10.2019
6396 Thunderstorm 22 1005 64 10000 4.6 10 06:20 11.10.2019
6397 Clouds 22 1005 64 10000 3.6 20 05:32 11.10.2019
6398 Clouds 22 1006 64 10000 3.6 20 04:59 11.10.2019
6399 Clouds 23 1007 64 10000 3.1 30 03:46 11.10.2019
6400 Clouds 23 1008 60 10000 3.1 40 01:57 11.10.2019
6401 Clouds 24 1008 64 10000 1.5 20 00:42 11.10.2019
6402 Clouds 24 1008 64 10000 1.5 20 00:22 11.10.2019
6403 Clouds 24 1009 57 10000 1.5 340 23:42 10.10.2019
6404 Clouds 25 1009 57 10000 1.5 340 23:20 10.10.2019
6405 Drizzle 25 1008 41 10000 3.1 330 22:57 10.10.2019
6406 Drizzle 25 1008 41 10000 3.1 330 22:38 10.10.2019
6407 Drizzle 26 1008 41 10000 3.1 330 22:19 10.10.2019
6408 Clouds 26 1009 39 10000 5.1 350 21:54 10.10.2019
6409 Clouds 26 1009 39 10000 5.1 350 21:36 10.10.2019
6410 Clouds 27 1009 39 10000 5.1 350 21:18 10.10.2019
6411 Rain 27 1010 47 10000 5.7 340 20:41 10.10.2019
6412 Rain 28 1010 47 10000 5.7 340 20:21 10.10.2019
6413 Clear 28 1010 42 10000 6.7 350 19:58 10.10.2019
6414 Clear 28 1010 42 10000 6.7 350 19:39 10.10.2019
6415 Clear 28 1010 42 10000 6.7 350 19:20 10.10.2019
6416 Clear 28 1010 45 10000 6.2 350 18:56 10.10.2019
6417 Clear 28 1010 45 10000 6.2 350 18:38 10.10.2019
6418 Clear 27 1010 45 10000 6.2 350 18:19 10.10.2019
6419 Clear 25 1011 50 10000 3.6 340 17:41 10.10.2019
6420 Clear 25 1011 50 10000 3.6 340 17:41 10.10.2019
6421 Clear 24 1011 50 10000 3.6 340 17:20 10.10.2019
6422 Clear 24 1012 57 10000 3.1 300 16:58 10.10.2019
6423 Clear 25 1012 57 10000 3.1 300 16:40 10.10.2019
6424 Clear 24 1012 57 10000 3.1 300 16:21 10.10.2019
6425 Clouds 23 1012 64 10000 4.1 310 15:43 10.10.2019
6426 Clouds 22 1012 64 10000 4.1 310 15:25 10.10.2019
6427 Clear 21 1012 68 10000 0.5 90 14:59 10.10.2019
6428 Clear 20 1012 68 10000 0.5 90 14:38 10.10.2019
6429 Clear 20 1012 68 10000 0.5 90 14:38 10.10.2019
6430 Clear 20 1012 68 10000 0.5 90 14:19 10.10.2019
6431 Clear 19 1013 77 10000 2.1 340 13:59 10.10.2019
6432 Clear 19 1013 77 10000 2.1 340 13:40 10.10.2019
6433 Clear 18 1013 77 10000 2.1 340 13:19 10.10.2019
6434 Clear 18 1013 77 10000 2.1 340 13:19 10.10.2019
6435 Clear 17 1013 87 10000 1 50 12:56 10.10.2019
6436 Clear 17 1013 87 10000 1 50 12:38 10.10.2019
6437 Clear 17 1013 87 10000 1 50 12:19 10.10.2019
6438 Clear 17 1012 82 10000 6 292.176 11:55 10.10.2019
6439 Clear 16 1012 82 10000 6 292.176 11:36 10.10.2019
6440 -273 0 0 0 0 0 11:18 10.10.2019
6441 Clear 15 1011 77 10000 6 292.176 10:44 10.10.2019
6442 Clear 15 1011 77 10000 6 292.176 10:25 10.10.2019
6443 Clear 15 1011 77 10000 2.6 330 09:55 10.10.2019
6444 Clear 15 1011 77 10000 2.6 330 09:37 10.10.2019
6445 Clear 15 1011 77 10000 2.6 330 09:19 10.10.2019
6446 Clear 16 1011 93 10000 2.6 300 08:41 10.10.2019
6447 Clear 16 1011 93 10000 2.6 300 08:22 10.10.2019
6448 Clear 17 1012 72 10000 2.6 330 07:58 10.10.2019
6449 Clear 16 1012 72 10000 2.6 330 07:38 10.10.2019
6450 Clear 17 1012 72 10000 2.6 330 07:19 10.10.2019
6451 Clouds 17 1012 68 10000 3.6 340 06:45 10.10.2019
6452 Clouds 19 1012 68 10000 4.6 340 05:57 10.10.2019
6453 Clouds 19 1012 68 10000 4.6 340 05:23 10.10.2019
6454 Clouds 19 1012 63 10000 3.6 330 04:37 10.10.2019
6455 Clouds 20 1012 59 10000 6.48 331.306 02:54 10.10.2019
6456 Clouds 20 1011 49 10000 2.1 40 01:42 10.10.2019
6457 Clouds 21 1011 49 10000 2.1 40 01:23 10.10.2019
6458 Clear 21 1012 56 10000 3.1 350 00:45 10.10.2019
6459 Clear 22 1012 56 10000 3.1 350 00:19 10.10.2019
6460 Clear 23 1012 46 10000 4.1 340 23:39 09.10.2019
6461 Clear 23 1012 46 10000 4.1 340 23:19 09.10.2019
6462 Clear 25 1012 38 10000 4.1 330 22:43 09.10.2019
6463 Clear 25 1012 38 10000 4.1 330 22:24 09.10.2019
6464 Clear 25 1013 38 10000 5.1 340 21:59 09.10.2019
6465 Clear 25 1013 38 10000 5.1 340 21:39 09.10.2019
6466 Clear 25 1013 38 10000 5.1 340 21:20 09.10.2019
6467 Clear 26 1014 34 10000 6.7 340 20:56 09.10.2019
6468 Clear 26 1014 34 10000 6.7 340 20:37 09.10.2019
6469 Rain 26 1014 34 10000 6.7 340 20:18 09.10.2019
6470 Clear 25 1015 31 10000 6.2 340 19:45 09.10.2019
6471 Clear 24 1015 31 10000 6.2 340 19:24 09.10.2019
6472 Clear 24 1016 36 10000 6.2 310 18:58 09.10.2019
6473 Clear 24 1016 36 10000 6.2 310 18:38 09.10.2019
6474 Clear 24 1016 36 10000 6.2 310 18:18 09.10.2019
6475 Clear 24 1016 38 10000 5.1 300 17:55 09.10.2019
6476 Clear 24 1016 38 10000 5.1 300 17:37 09.10.2019
6477 Clear 24 1016 38 10000 5.1 300 17:18 09.10.2019
6478 Clear 23 1017 43 10000 5.1 340 16:41 09.10.2019
6479 Clear 23 1017 43 10000 5.1 340 16:23 09.10.2019
6480 Clear 19 1017 55 10000 3.6 360 15:58 09.10.2019
6481 Clear 20 1017 55 10000 3.6 360 15:39 09.10.2019
6482 Clear 19 1017 55 10000 3.6 360 15:20 09.10.2019
6483 Clear 17 1017 59 10000 4.1 20 14:58 09.10.2019
6484 Clear 16 1017 59 10000 4.1 20 14:40 09.10.2019
6485 Clear 17 1017 59 10000 4.1 20 14:18 09.10.2019
6486 Clear 15 1017 62 10000 3.1 60 13:40 09.10.2019
6487 Clear 15 1017 62 10000 3.1 60 13:21 09.10.2019
6488 Clear 13 1017 76 10000 3.6 90 12:59 09.10.2019
6489 Clear 13 1017 76 10000 3.6 90 12:40 09.10.2019
6490 Clear 12 1017 76 10000 3.6 90 12:21 09.10.2019
6491 Clear 12 1018 71 10000 2.6 70 11:55 09.10.2019
6492 Clear 12 1018 71 10000 2.6 70 11:37 09.10.2019
6493 Clear 12 1018 71 10000 2.6 70 11:18 09.10.2019
6494 Clear 12 1017 66 10000 3.31 2.647 10:43 09.10.2019
6495 Clear 12 1017 66 10000 3.31 2.647 10:43 09.10.2019
6496 Clear 12 1017 66 10000 3.31 2.647 10:21 09.10.2019
6497 Clear 13 1017 62 10000 2.6 90 09:58 09.10.2019
6498 Clear 13 1017 62 10000 2.6 90 09:40 09.10.2019
6499 Clear 13 1017 62 10000 2.6 90 09:40 09.10.2019
6500 Clear 13 1017 62 10000 2.6 90 09:40 09.10.2019
6501 Clear 14 1017 62 10000 2.6 90 09:18 09.10.2019
6502 Clear 14 1017 67 10000 2.1 120 08:41 09.10.2019
6503 Clear 13 1017 67 10000 2.1 120 08:21 09.10.2019
6504 Clear 13 1017 67 10000 2.1 120 08:21 09.10.2019
6505 Clear 14 1017 67 10000 3.6 110 07:56 09.10.2019
6506 Clear 13 1017 67 10000 3.6 110 07:37 09.10.2019
6507 Clear 14 1017 67 10000 3.6 110 07:19 09.10.2019
6508 Clear 14 1017 67 10000 3.6 110 07:19 09.10.2019
6509 Clear 14 1017 76 10000 2.6 120 06:49 09.10.2019
6510 Clear 14 1017 76 10000 2.6 110 05:55 09.10.2019
6511 Clear 14 1017 76 10000 2.6 110 05:28 09.10.2019
6512 Clear 15 1017 67 10000 2.6 160 04:24 09.10.2019
6513 Clear 17 1017 41 10000 2.6 350 02:50 09.10.2019
6514 Clear 18 1016 31 10000 4.83 277.484 01:43 09.10.2019
6515 Clear 19 1016 31 10000 2.8 241.769 01:20 09.10.2019
6516 Clear 19 1016 31 10000 2.8 241.769 01:20 09.10.2019
6517 Clear 18 1016 34 10000 1 290 00:56 09.10.2019
6518 Clear 18 1016 34 10000 1 290 00:38 09.10.2019
6519 Clear 20 1016 34 10000 1 290 00:19 09.10.2019
6520 Clear 21 1016 26 10000 4.1 290 23:39 08.10.2019
6521 Clear 21 1016 26 10000 4.1 290 23:19 08.10.2019
6522 Clear 23 1016 58 10000 5.7 280 22:56 08.10.2019
6523 Clear 23 1016 58 10000 5.7 280 22:38 08.10.2019
6524 Clear 23 1016 58 10000 5.7 280 22:19 08.10.2019
6525 Clear 23 1016 58 10000 5.7 270 21:57 08.10.2019
6526 Clear 23 1016 58 10000 5.7 270 21:39 08.10.2019
6527 Clear 23 1016 63 10000 5.7 270 21:19 08.10.2019
6528 Clear 23 1016 63 10000 5.7 270 21:19 08.10.2019
6529 Clear 23 1017 23 10000 4.6 260 20:56 08.10.2019
6530 Clear 23 1017 23 10000 4.6 260 20:37 08.10.2019
6531 Clear 23 1017 23 10000 4.6 260 20:19 08.10.2019
6532 Clear 23 1017 21 10000 5.7 270 19:56 08.10.2019
6533 Rain 23 1017 21 10000 5.7 270 19:37 08.10.2019
6534 Rain 23 1017 21 10000 5.7 270 19:19 08.10.2019
6535 Rain 23 1018 23 10000 5.7 270 18:46 08.10.2019
6536 Clear 23 1018 23 10000 5.7 270 18:27 08.10.2019
6537 Clear 23 1018 25 10000 5.1 260 17:59 08.10.2019
6538 Clear 23 1018 25 10000 5.1 260 17:40 08.10.2019
6539 Clear 23 1018 25 10000 5.1 260 17:40 08.10.2019
6540 Clear 23 1018 25 10000 5.1 260 17:40 08.10.2019
6541 Clear 23 1018 25 10000 5.1 260 17:20 08.10.2019
6542 Clear 23 1018 25 10000 5.1 260 17:20 08.10.2019
6543 Clear 22 1018 35 10000 4.6 270 16:56 08.10.2019
6544 Clear 21 1018 35 10000 4.6 270 16:37 08.10.2019
6545 Clear 21 1018 35 10000 4.6 270 16:19 08.10.2019
6546 Clear 20 1018 52 10000 3.1 300 15:40 08.10.2019
6547 Clear 20 1018 52 10000 3.1 300 15:21 08.10.2019
6548 Clear 17 1017 77 10000 3.6 320 14:57 08.10.2019
6549 Clear 17 1017 77 10000 3.6 320 14:39 08.10.2019
6550 Clear 17 1017 77 10000 3.6 320 14:20 08.10.2019
6551 Clear 15 1017 76 10000 3.1 350 13:56 08.10.2019
6552 Clear 15 1017 76 10000 3.1 350 13:37 08.10.2019
6553 Clear 14 1017 76 10000 3.1 350 13:18 08.10.2019
6554 Mist 12 1016 93 5000 1 340 12:42 08.10.2019
6555 Mist 12 1016 93 5000 1 340 12:21 08.10.2019
6556 Clear 13 1016 87 10000 2.87 285 11:59 08.10.2019
6557 Clear 11 1016 87 10000 2.87 285 11:40 08.10.2019
6558 Clear 12 1016 87 10000 2.87 285 11:21 08.10.2019
6559 Clear 11 1015 81 10000 2.87 285 10:55 08.10.2019
6560 Clear 11 1015 81 10000 2.87 285 10:36 08.10.2019
6561 Clear 11 1015 81 10000 2.87 285 10:18 08.10.2019
6562 Clear 12 1015 76 10000 2.1 110 09:41 08.10.2019
6563 Clear 13 1015 76 10000 2.1 110 09:22 08.10.2019
6564 Clear 13 1016 71 10000 3.6 120 08:55 08.10.2019
6565 Clear 13 1016 71 10000 3.6 120 08:36 08.10.2019
6566 Clear 13 1016 71 10000 3.6 120 08:18 08.10.2019
6567 Clear 14 1016 76 10000 5.1 130 07:41 08.10.2019
6568 Clear 14 1016 76 10000 5.1 130 07:19 08.10.2019
6569 Clear 14 1015 76 10000 1 300 06:46 08.10.2019
6570 Clear 15 1015 76 10000 1 300 06:23 08.10.2019
6571 Clear 15 1015 72 10000 3.9 280.806 05:44 08.10.2019
6572 Clear 15 1015 72 10000 3.9 280.806 05:44 08.10.2019
6573 Clear 15 1015 72 10000 3.9 280.806 05:21 08.10.2019
6574 Clear 16 1015 72 10000 1.5 340 03:32 08.10.2019
6575 Clear 16 1015 72 10000 1.5 320 02:46 08.10.2019
6576 Clear 17 1015 72 10000 1.5 320 02:26 08.10.2019
6577 Clear 16 1014 72 10000 2.42 189.835 01:42 08.10.2019
6578 Clear 17 1014 72 10000 2.77 179.897 01:19 08.10.2019
6579 Clear 17 1014 68 10000 1.5 270 00:38 08.10.2019
6580 Clear 18 1014 68 10000 1.5 270 00:19 08.10.2019
6581 Clear 19 1013 63 10000 2.6 280 23:39 07.10.2019
6582 Clear 19 1013 63 10000 2.6 280 23:19 07.10.2019
6583 Clear 20 1013 60 10000 5.1 250 22:55 07.10.2019
6584 Clear 20 1013 60 10000 5.1 250 22:55 07.10.2019
6585 Clear 20 1013 60 10000 5.1 250 22:37 07.10.2019
6586 Clear 20 1013 60 10000 5.1 250 22:19 07.10.2019
6587 Clouds 21 1013 56 10000 7.2 270 21:55 07.10.2019
6588 Rain 21 1013 56 10000 7.2 270 21:37 07.10.2019
6589 Rain 21 1013 56 10000 7.2 270 21:18 07.10.2019
6590 Rain 21 1013 53 10000 8.2 270 20:57 07.10.2019
6591 Clouds 21 1013 53 10000 8.2 270 20:38 07.10.2019
6592 Clouds 21 1013 53 10000 8.2 270 20:38 07.10.2019
6593 Clouds 21 1013 53 10000 8.2 270 20:19 07.10.2019
6594 Clouds 21 1014 56 10000 7.7 270 19:55 07.10.2019
6595 Clouds 21 1014 56 10000 7.7 270 19:54 07.10.2019
6596 Clouds 21 1014 56 10000 7.7 270 19:54 07.10.2019
6597 Clouds 21 1014 56 10000 7.7 270 19:36 07.10.2019
6598 Clouds 22 1014 56 10000 7.7 270 19:18 07.10.2019
6599 Clouds 22 1014 46 10000 6.7 300 18:41 07.10.2019
6600 Clouds 23 1014 46 10000 6.7 300 18:19 07.10.2019
6601 Clear 22 1014 49 10000 7.7 310 17:58 07.10.2019
6602 Clear 22 1014 49 10000 7.7 310 17:40 07.10.2019
6603 Clear 22 1014 49 10000 7.7 310 17:40 07.10.2019
6604 Clear 22 1014 49 10000 7.7 310 17:40 07.10.2019
6605 Clear 22 1014 49 10000 7.7 310 17:19 07.10.2019
6606 Clear 21 1015 52 10000 7.7 340 16:46 07.10.2019
6607 Clear 21 1015 52 10000 7.7 340 16:46 07.10.2019
6608 Clear 20 1015 52 10000 7.7 340 16:28 07.10.2019
6609 Rain 19 1015 59 10000 6.2 320 15:58 07.10.2019
6610 Rain 19 1015 59 10000 6.2 320 15:39 07.10.2019
6611 Clear 19 1015 59 10000 6.2 320 15:21 07.10.2019
6612 Clear 16 1015 72 10000 6.2 340 14:41 07.10.2019
6613 Clear 16 1015 72 10000 6.2 340 14:23 07.10.2019
6614 Clear 14 1014 82 10000 8.2 360 13:45 07.10.2019
6615 Clear 14 1014 82 10000 8.2 360 13:21 07.10.2019
6616 Clear 13 1015 93 10000 7.7 260 12:58 07.10.2019
6617 Clear 12 1015 93 10000 7.7 260 12:40 07.10.2019
6618 Clear 12 1015 93 10000 7.7 260 12:40 07.10.2019
6619 Clear 12 1015 93 10000 7.7 260 12:21 07.10.2019
6620 Clear 12 1015 93 10000 7.7 260 12:21 07.10.2019
6621 Clear 11 1015 93 10000 5.1 20 11:59 07.10.2019
6622 Clear 11 1015 93 10000 5.1 20 11:40 07.10.2019
6623 Clear 11 1015 93 10000 5.1 20 11:21 07.10.2019
6624 Clear 11 1015 87 10000 6.2 10 10:57 07.10.2019
6625 Clear 11 1015 87 10000 6.2 10 10:39 07.10.2019
6626 Clear 11 1015 87 10000 6.2 10 10:20 07.10.2019
6627 Clear 11 1015 87 10000 5.1 10 09:39 07.10.2019
6628 Clear 11 1015 87 10000 5.1 10 09:39 07.10.2019
6629 Clear 11 1015 87 10000 5.1 10 09:21 07.10.2019
6630 Clear 11 1016 81 10000 4.1 20 08:44 07.10.2019
6631 Clear 10 1016 81 10000 4.1 20 08:21 07.10.2019
6632 Clear 10 1016 81 10000 2.6 20 07:59 07.10.2019
6633 Clear 10 1016 81 10000 2.6 20 07:38 07.10.2019
6634 Clear 11 1016 81 10000 2.6 20 07:19 07.10.2019
6635 Clear 11 1017 76 10000 3.6 20 06:43 07.10.2019
6636 Clear 11 1017 76 10000 3.6 20 06:22 07.10.2019
6637 Clear 12 1018 71 10000 2.6 30 05:27 07.10.2019
6638 Clear 12 1018 71 10000 3.1 30 04:56 07.10.2019
6639 Rain 12 1018 71 10000 3.1 30 04:19 07.10.2019
6640 Clear 13 1019 76 10000 3.6 60 03:39 07.10.2019
6641 Clear 13 1018 76 10000 3.6 70 02:55 07.10.2019
6642 Clear 13 1018 76 10000 3.6 70 02:20 07.10.2019
6643 Clear 13 1018 76 10000 3.6 70 02:20 07.10.2019
6644 Clear 14 1018 82 10000 4.6 90 01:24 07.10.2019
6645 Clear 14 1019 63 10000 2.1 60 00:55 07.10.2019
6646 Rain 15 1019 63 10000 2.1 60 00:36 07.10.2019
6647 Rain 15 1019 63 10000 2.1 60 00:18 07.10.2019
6648 Clear 17 1018 48 10000 3.1 30 23:42 06.10.2019
6649 Clear 17 1018 48 10000 3.1 30 23:21 06.10.2019
6650 Clear 17 1019 45 10000 4.1 110 22:58 06.10.2019
6651 Clear 17 1019 45 10000 4.1 110 22:40 06.10.2019
6652 Clear 18 1019 45 10000 4.1 110 22:21 06.10.2019
6653 Clear 18 1019 48 10000 2.1 240 21:57 06.10.2019
6654 Clear 18 1019 48 10000 2.1 240 21:37 06.10.2019
6655 Clear 18 1019 48 10000 2.1 240 21:37 06.10.2019
6656 Clear 18 1019 48 10000 2.1 240 21:19 06.10.2019
6657 Clear 19 1020 45 10000 3.1 210 20:57 06.10.2019
6658 Clear 18 1020 45 10000 3.1 210 20:38 06.10.2019
6659 Clear 19 1020 45 10000 3.1 210 20:20 06.10.2019
6660 Clear 18 1021 45 10000 2.6 90 19:57 06.10.2019
6661 Rain 18 1021 45 10000 2.6 90 19:37 06.10.2019
6662 Rain 18 1021 45 10000 2.6 90 19:19 06.10.2019
6663 Clear 18 1022 52 10000 2.1 110 18:56 06.10.2019
6664 Clear 18 1022 52 10000 2.1 110 18:38 06.10.2019